<?xml version="1.0" encoding="UTF-8" standalone="no" ?>
<gpx xmlns="http://www.topografix.com/GPX/1/1" xmlns:xsi="http://www.w3.org/2001/XMLSchema-instance" xsi:schemaLocation="http://www.topografix.com/GPX/1/1 http://www.topografix.com/GPX/1/1/gpx.xsd" version="1.1" creator="VisuGPX - https://www.visugpx.com">
  <metadata>
    <name>Journée de ski à la Pierre st Martin</name>
    <desc><![CDATA[Une journée de ski à la Pierre Saint Martin
Le 23 janvier 2010]]></desc>
  </metadata>
  <trk>
    <name><![CDATA[23_01_2010 10_52_07_pierre on GPSies.com]]></name>
    <trkseg>
      <trkpt lat="42.97432" lon="-0.74656">
        <ele>1687</ele>
        <time>2010-01-23T09:52:07Z</time>
      </trkpt>
      <trkpt lat="42.97394" lon="-0.7465">
        <ele>1699</ele>
        <time>2010-01-23T09:52:27Z</time>
      </trkpt>
      <trkpt lat="42.97378" lon="-0.74647">
        <ele>1702</ele>
        <time>2010-01-23T09:52:35Z</time>
      </trkpt>
      <trkpt lat="42.9734" lon="-0.7464">
        <ele>1707</ele>
        <time>2010-01-23T09:52:54Z</time>
      </trkpt>
      <trkpt lat="42.97294" lon="-0.74632">
        <ele>1720</ele>
        <time>2010-01-23T09:53:16Z</time>
      </trkpt>
      <trkpt lat="42.97259" lon="-0.74625">
        <ele>1723</ele>
        <time>2010-01-23T09:53:33Z</time>
      </trkpt>
      <trkpt lat="42.97226" lon="-0.74619">
        <ele>1734</ele>
        <time>2010-01-23T09:53:50Z</time>
      </trkpt>
      <trkpt lat="42.97205" lon="-0.74616">
        <ele>1735</ele>
        <time>2010-01-23T09:54:00Z</time>
      </trkpt>
      <trkpt lat="42.97191" lon="-0.74614">
        <ele>1736</ele>
        <time>2010-01-23T09:54:07Z</time>
      </trkpt>
      <trkpt lat="42.97154" lon="-0.74607">
        <ele>1752</ele>
        <time>2010-01-23T09:54:25Z</time>
      </trkpt>
      <trkpt lat="42.97148" lon="-0.74606">
        <ele>1754</ele>
        <time>2010-01-23T09:54:30Z</time>
      </trkpt>
      <trkpt lat="42.97149" lon="-0.74607">
        <ele>1754</ele>
        <time>2010-01-23T09:54:41Z</time>
      </trkpt>
      <trkpt lat="42.97149" lon="-0.74606">
        <ele>1753</ele>
        <time>2010-01-23T09:54:52Z</time>
      </trkpt>
      <trkpt lat="42.97147" lon="-0.74605">
        <ele>1754</ele>
        <time>2010-01-23T09:55:12Z</time>
      </trkpt>
      <trkpt lat="42.97145" lon="-0.74604">
        <ele>1754</ele>
        <time>2010-01-23T09:55:14Z</time>
      </trkpt>
      <trkpt lat="42.97132" lon="-0.74599">
        <ele>1757</ele>
        <time>2010-01-23T09:55:19Z</time>
      </trkpt>
      <trkpt lat="42.97128" lon="-0.74599">
        <ele>1758</ele>
        <time>2010-01-23T09:55:23Z</time>
      </trkpt>
      <trkpt lat="42.97128" lon="-0.74594">
        <ele>1758</ele>
        <time>2010-01-23T09:55:28Z</time>
      </trkpt>
      <trkpt lat="42.97134" lon="-0.74581">
        <ele>1754</ele>
        <time>2010-01-23T09:55:34Z</time>
      </trkpt>
      <trkpt lat="42.97146" lon="-0.74565">
        <ele>1751</ele>
        <time>2010-01-23T09:55:39Z</time>
      </trkpt>
      <trkpt lat="42.97159" lon="-0.74558">
        <ele>1750</ele>
        <time>2010-01-23T09:55:42Z</time>
      </trkpt>
      <trkpt lat="42.9718" lon="-0.7456">
        <ele>1737</ele>
        <time>2010-01-23T09:55:47Z</time>
      </trkpt>
      <trkpt lat="42.97195" lon="-0.74561">
        <ele>1736</ele>
        <time>2010-01-23T09:55:49Z</time>
      </trkpt>
      <trkpt lat="42.97211" lon="-0.74565">
        <ele>1734</ele>
        <time>2010-01-23T09:55:51Z</time>
      </trkpt>
      <trkpt lat="42.97237" lon="-0.74556">
        <ele>1733</ele>
        <time>2010-01-23T09:55:55Z</time>
      </trkpt>
      <trkpt lat="42.97268" lon="-0.74519">
        <ele>1724</ele>
        <time>2010-01-23T09:56:01Z</time>
      </trkpt>
      <trkpt lat="42.97273" lon="-0.74512">
        <ele>1724</ele>
        <time>2010-01-23T09:56:02Z</time>
      </trkpt>
      <trkpt lat="42.97291" lon="-0.74484">
        <ele>1722</ele>
        <time>2010-01-23T09:56:06Z</time>
      </trkpt>
      <trkpt lat="42.97301" lon="-0.74466">
        <ele>1721</ele>
        <time>2010-01-23T09:56:09Z</time>
      </trkpt>
      <trkpt lat="42.97317" lon="-0.74456">
        <ele>1719</ele>
        <time>2010-01-23T09:56:12Z</time>
      </trkpt>
      <trkpt lat="42.9733" lon="-0.74465">
        <ele>1718</ele>
        <time>2010-01-23T09:56:14Z</time>
      </trkpt>
      <trkpt lat="42.97364" lon="-0.74502">
        <ele>1703</ele>
        <time>2010-01-23T09:56:19Z</time>
      </trkpt>
      <trkpt lat="42.97377" lon="-0.74538">
        <ele>1701</ele>
        <time>2010-01-23T09:56:23Z</time>
      </trkpt>
      <trkpt lat="42.97381" lon="-0.74556">
        <ele>1701</ele>
        <time>2010-01-23T09:56:25Z</time>
      </trkpt>
      <trkpt lat="42.97393" lon="-0.74568">
        <ele>1698</ele>
        <time>2010-01-23T09:56:28Z</time>
      </trkpt>
      <trkpt lat="42.97398" lon="-0.74565">
        <ele>1698</ele>
        <time>2010-01-23T09:56:29Z</time>
      </trkpt>
      <trkpt lat="42.97407" lon="-0.74558">
        <ele>1698</ele>
        <time>2010-01-23T09:56:31Z</time>
      </trkpt>
      <trkpt lat="42.97421" lon="-0.74538">
        <ele>1687</ele>
        <time>2010-01-23T09:56:35Z</time>
      </trkpt>
      <trkpt lat="42.97434" lon="-0.74536">
        <ele>1686</ele>
        <time>2010-01-23T09:56:37Z</time>
      </trkpt>
      <trkpt lat="42.97443" lon="-0.7453">
        <ele>1686</ele>
        <time>2010-01-23T09:56:39Z</time>
      </trkpt>
      <trkpt lat="42.97456" lon="-0.74524">
        <ele>1685</ele>
        <time>2010-01-23T09:56:42Z</time>
      </trkpt>
      <trkpt lat="42.97467" lon="-0.74524">
        <ele>1683</ele>
        <time>2010-01-23T09:56:44Z</time>
      </trkpt>
      <trkpt lat="42.97497" lon="-0.74529">
        <ele>1681</ele>
        <time>2010-01-23T09:56:48Z</time>
      </trkpt>
      <trkpt lat="42.97524" lon="-0.7454">
        <ele>1672</ele>
        <time>2010-01-23T09:56:51Z</time>
      </trkpt>
      <trkpt lat="42.97542" lon="-0.74549">
        <ele>1671</ele>
        <time>2010-01-23T09:56:53Z</time>
      </trkpt>
      <trkpt lat="42.97577" lon="-0.74558">
        <ele>1669</ele>
        <time>2010-01-23T09:56:57Z</time>
      </trkpt>
      <trkpt lat="42.97617" lon="-0.74557">
        <ele>1663</ele>
        <time>2010-01-23T09:57:02Z</time>
      </trkpt>
      <trkpt lat="42.97632" lon="-0.74563">
        <ele>1662</ele>
        <time>2010-01-23T09:57:05Z</time>
      </trkpt>
      <trkpt lat="42.97636" lon="-0.74572">
        <ele>1662</ele>
        <time>2010-01-23T09:57:07Z</time>
      </trkpt>
      <trkpt lat="42.97641" lon="-0.74582">
        <ele>1661</ele>
        <time>2010-01-23T09:57:09Z</time>
      </trkpt>
      <trkpt lat="42.97652" lon="-0.74596">
        <ele>1661</ele>
        <time>2010-01-23T09:57:13Z</time>
      </trkpt>
      <trkpt lat="42.9768" lon="-0.74602">
        <ele>1656</ele>
        <time>2010-01-23T09:57:18Z</time>
      </trkpt>
      <trkpt lat="42.97721" lon="-0.7461">
        <ele>1653</ele>
        <time>2010-01-23T09:57:23Z</time>
      </trkpt>
      <trkpt lat="42.9773" lon="-0.74612">
        <ele>1653</ele>
        <time>2010-01-23T09:57:24Z</time>
      </trkpt>
      <trkpt lat="42.97746" lon="-0.74622">
        <ele>1652</ele>
        <time>2010-01-23T09:57:27Z</time>
      </trkpt>
      <trkpt lat="42.9775" lon="-0.74635">
        <ele>1643</ele>
        <time>2010-01-23T09:57:32Z</time>
      </trkpt>
      <trkpt lat="42.9775" lon="-0.74636">
        <ele>1651</ele>
        <time>2010-01-23T09:57:40Z</time>
      </trkpt>
      <trkpt lat="42.9775" lon="-0.74635">
        <ele>1651</ele>
        <time>2010-01-23T09:57:52Z</time>
      </trkpt>
      <trkpt lat="42.97749" lon="-0.74635">
        <ele>1651</ele>
        <time>2010-01-23T09:58:01Z</time>
      </trkpt>
      <trkpt lat="42.97749" lon="-0.74635">
        <ele>1651</ele>
        <time>2010-01-23T09:58:10Z</time>
      </trkpt>
      <trkpt lat="42.97749" lon="-0.74633">
        <ele>1651</ele>
        <time>2010-01-23T09:58:16Z</time>
      </trkpt>
      <trkpt lat="42.97747" lon="-0.74628">
        <ele>1652</ele>
        <time>2010-01-23T09:58:21Z</time>
      </trkpt>
      <trkpt lat="42.97745" lon="-0.74622">
        <ele>1652</ele>
        <time>2010-01-23T09:58:27Z</time>
      </trkpt>
      <trkpt lat="42.97745" lon="-0.74621">
        <ele>1652</ele>
        <time>2010-01-23T09:59:06Z</time>
      </trkpt>
      <trkpt lat="42.97745" lon="-0.74622">
        <ele>1652</ele>
        <time>2010-01-23T09:59:19Z</time>
      </trkpt>
      <trkpt lat="42.97745" lon="-0.74622">
        <ele>1652</ele>
        <time>2010-01-23T09:59:39Z</time>
      </trkpt>
      <trkpt lat="42.97744" lon="-0.74625">
        <ele>1652</ele>
        <time>2010-01-23T09:59:55Z</time>
      </trkpt>
      <trkpt lat="42.97747" lon="-0.74632">
        <ele>1651</ele>
        <time>2010-01-23T10:00:01Z</time>
      </trkpt>
      <trkpt lat="42.97748" lon="-0.74637">
        <ele>1651</ele>
        <time>2010-01-23T10:00:04Z</time>
      </trkpt>
      <trkpt lat="42.9775" lon="-0.7466">
        <ele>1645</ele>
        <time>2010-01-23T10:00:13Z</time>
      </trkpt>
      <trkpt lat="42.97752" lon="-0.74669">
        <ele>1645</ele>
        <time>2010-01-23T10:00:17Z</time>
      </trkpt>
      <trkpt lat="42.97752" lon="-0.7467">
        <ele>1644</ele>
        <time>2010-01-23T10:00:28Z</time>
      </trkpt>
      <trkpt lat="42.97752" lon="-0.74669">
        <ele>1645</ele>
        <time>2010-01-23T10:00:41Z</time>
      </trkpt>
      <trkpt lat="42.97752" lon="-0.7467">
        <ele>1645</ele>
        <time>2010-01-23T10:00:47Z</time>
      </trkpt>
      <trkpt lat="42.97752" lon="-0.74669">
        <ele>1645</ele>
        <time>2010-01-23T10:01:07Z</time>
      </trkpt>
      <trkpt lat="42.97752" lon="-0.74669">
        <ele>1645</ele>
        <time>2010-01-23T10:01:36Z</time>
      </trkpt>
      <trkpt lat="42.97752" lon="-0.7467">
        <ele>1644</ele>
        <time>2010-01-23T10:02:02Z</time>
      </trkpt>
      <trkpt lat="42.97752" lon="-0.74671">
        <ele>1644</ele>
        <time>2010-01-23T10:02:17Z</time>
      </trkpt>
      <trkpt lat="42.97752" lon="-0.74671">
        <ele>1644</ele>
        <time>2010-01-23T10:02:35Z</time>
      </trkpt>
      <trkpt lat="42.97753" lon="-0.74671">
        <ele>1644</ele>
        <time>2010-01-23T10:02:53Z</time>
      </trkpt>
      <trkpt lat="42.97752" lon="-0.7467">
        <ele>1645</ele>
        <time>2010-01-23T10:03:16Z</time>
      </trkpt>
      <trkpt lat="42.97752" lon="-0.74671">
        <ele>1644</ele>
        <time>2010-01-23T10:03:25Z</time>
      </trkpt>
      <trkpt lat="42.97753" lon="-0.7467">
        <ele>1644</ele>
        <time>2010-01-23T10:03:42Z</time>
      </trkpt>
      <trkpt lat="42.97753" lon="-0.7467">
        <ele>1645</ele>
        <time>2010-01-23T10:03:50Z</time>
      </trkpt>
      <trkpt lat="42.97752" lon="-0.74669">
        <ele>1645</ele>
        <time>2010-01-23T10:04:01Z</time>
      </trkpt>
      <trkpt lat="42.97752" lon="-0.74669">
        <ele>1645</ele>
        <time>2010-01-23T10:04:11Z</time>
      </trkpt>
      <trkpt lat="42.97752" lon="-0.74669">
        <ele>1645</ele>
        <time>2010-01-23T10:04:18Z</time>
      </trkpt>
      <trkpt lat="42.97752" lon="-0.74669">
        <ele>1645</ele>
        <time>2010-01-23T10:04:27Z</time>
      </trkpt>
      <trkpt lat="42.97754" lon="-0.74667">
        <ele>1645</ele>
        <time>2010-01-23T10:04:33Z</time>
      </trkpt>
      <trkpt lat="42.97758" lon="-0.74672">
        <ele>1643</ele>
        <time>2010-01-23T10:04:39Z</time>
      </trkpt>
      <trkpt lat="42.97759" lon="-0.74677">
        <ele>1642</ele>
        <time>2010-01-23T10:04:46Z</time>
      </trkpt>
      <trkpt lat="42.97759" lon="-0.74678">
        <ele>1642</ele>
        <time>2010-01-23T10:04:53Z</time>
      </trkpt>
      <trkpt lat="42.97758" lon="-0.7468">
        <ele>1642</ele>
        <time>2010-01-23T10:04:57Z</time>
      </trkpt>
      <trkpt lat="42.97759" lon="-0.74695">
        <ele>1640</ele>
        <time>2010-01-23T10:05:03Z</time>
      </trkpt>
      <trkpt lat="42.97768" lon="-0.74721">
        <ele>1638</ele>
        <time>2010-01-23T10:05:10Z</time>
      </trkpt>
      <trkpt lat="42.97782" lon="-0.74742">
        <ele>1637</ele>
        <time>2010-01-23T10:05:14Z</time>
      </trkpt>
      <trkpt lat="42.97799" lon="-0.74753">
        <ele>1637</ele>
        <time>2010-01-23T10:05:17Z</time>
      </trkpt>
      <trkpt lat="42.97815" lon="-0.74756">
        <ele>1635</ele>
        <time>2010-01-23T10:05:20Z</time>
      </trkpt>
      <trkpt lat="42.97819" lon="-0.74753">
        <ele>1634</ele>
        <time>2010-01-23T10:05:21Z</time>
      </trkpt>
      <trkpt lat="42.9784" lon="-0.74743">
        <ele>1629</ele>
        <time>2010-01-23T10:05:25Z</time>
      </trkpt>
      <trkpt lat="42.97862" lon="-0.74739">
        <ele>1627</ele>
        <time>2010-01-23T10:05:28Z</time>
      </trkpt>
      <trkpt lat="42.97884" lon="-0.74741">
        <ele>1626</ele>
        <time>2010-01-23T10:05:33Z</time>
      </trkpt>
      <trkpt lat="42.97884" lon="-0.74744">
        <ele>1626</ele>
        <time>2010-01-23T10:05:37Z</time>
      </trkpt>
      <trkpt lat="42.97883" lon="-0.7475">
        <ele>1626</ele>
        <time>2010-01-23T10:05:45Z</time>
      </trkpt>
      <trkpt lat="42.97882" lon="-0.74755">
        <ele>1628</ele>
        <time>2010-01-23T10:05:52Z</time>
      </trkpt>
      <trkpt lat="42.97882" lon="-0.74758">
        <ele>1628</ele>
        <time>2010-01-23T10:06:00Z</time>
      </trkpt>
      <trkpt lat="42.97881" lon="-0.74759">
        <ele>1628</ele>
        <time>2010-01-23T10:06:12Z</time>
      </trkpt>
      <trkpt lat="42.97879" lon="-0.74761">
        <ele>1628</ele>
        <time>2010-01-23T10:06:20Z</time>
      </trkpt>
      <trkpt lat="42.97878" lon="-0.74762">
        <ele>1628</ele>
        <time>2010-01-23T10:06:29Z</time>
      </trkpt>
      <trkpt lat="42.97874" lon="-0.74763">
        <ele>1628</ele>
        <time>2010-01-23T10:06:34Z</time>
      </trkpt>
      <trkpt lat="42.97871" lon="-0.74764">
        <ele>1629</ele>
        <time>2010-01-23T10:06:40Z</time>
      </trkpt>
      <trkpt lat="42.97868" lon="-0.74764">
        <ele>1629</ele>
        <time>2010-01-23T10:06:44Z</time>
      </trkpt>
      <trkpt lat="42.97858" lon="-0.74766">
        <ele>1629</ele>
        <time>2010-01-23T10:06:49Z</time>
      </trkpt>
      <trkpt lat="42.97849" lon="-0.74768">
        <ele>1630</ele>
        <time>2010-01-23T10:06:53Z</time>
      </trkpt>
      <trkpt lat="42.97841" lon="-0.7477">
        <ele>1630</ele>
        <time>2010-01-23T10:06:57Z</time>
      </trkpt>
      <trkpt lat="42.97829" lon="-0.74772">
        <ele>1635</ele>
        <time>2010-01-23T10:07:03Z</time>
      </trkpt>
      <trkpt lat="42.97816" lon="-0.74774">
        <ele>1636</ele>
        <time>2010-01-23T10:07:09Z</time>
      </trkpt>
      <trkpt lat="42.97804" lon="-0.74776">
        <ele>1637</ele>
        <time>2010-01-23T10:07:15Z</time>
      </trkpt>
      <trkpt lat="42.97781" lon="-0.74782">
        <ele>1639</ele>
        <time>2010-01-23T10:07:26Z</time>
      </trkpt>
      <trkpt lat="42.97757" lon="-0.74786">
        <ele>1639</ele>
        <time>2010-01-23T10:07:37Z</time>
      </trkpt>
      <trkpt lat="42.97729" lon="-0.74792">
        <ele>1649</ele>
        <time>2010-01-23T10:07:51Z</time>
      </trkpt>
      <trkpt lat="42.97702" lon="-0.74797">
        <ele>1652</ele>
        <time>2010-01-23T10:08:04Z</time>
      </trkpt>
      <trkpt lat="42.97684" lon="-0.74801">
        <ele>1654</ele>
        <time>2010-01-23T10:08:13Z</time>
      </trkpt>
      <trkpt lat="42.97666" lon="-0.74804">
        <ele>1666</ele>
        <time>2010-01-23T10:08:22Z</time>
      </trkpt>
      <trkpt lat="42.97642" lon="-0.74808">
        <ele>1668</ele>
        <time>2010-01-23T10:08:34Z</time>
      </trkpt>
      <trkpt lat="42.97621" lon="-0.74811">
        <ele>1671</ele>
        <time>2010-01-23T10:08:44Z</time>
      </trkpt>
      <trkpt lat="42.97599" lon="-0.74815">
        <ele>1675</ele>
        <time>2010-01-23T10:08:55Z</time>
      </trkpt>
      <trkpt lat="42.9757" lon="-0.74821">
        <ele>1683</ele>
        <time>2010-01-23T10:09:10Z</time>
      </trkpt>
      <trkpt lat="42.97552" lon="-0.74823">
        <ele>1682</ele>
        <time>2010-01-23T10:09:19Z</time>
      </trkpt>
      <trkpt lat="42.9753" lon="-0.74827">
        <ele>1682</ele>
        <time>2010-01-23T10:09:30Z</time>
      </trkpt>
      <trkpt lat="42.97504" lon="-0.74831">
        <ele>1685</ele>
        <time>2010-01-23T10:09:43Z</time>
      </trkpt>
      <trkpt lat="42.97486" lon="-0.74835">
        <ele>1693</ele>
        <time>2010-01-23T10:09:53Z</time>
      </trkpt>
      <trkpt lat="42.97461" lon="-0.74839">
        <ele>1699</ele>
        <time>2010-01-23T10:10:05Z</time>
      </trkpt>
      <trkpt lat="42.97433" lon="-0.74845">
        <ele>1702</ele>
        <time>2010-01-23T10:10:19Z</time>
      </trkpt>
      <trkpt lat="42.97416" lon="-0.74848">
        <ele>1712</ele>
        <time>2010-01-23T10:10:28Z</time>
      </trkpt>
      <trkpt lat="42.974" lon="-0.74851">
        <ele>1716</ele>
        <time>2010-01-23T10:10:37Z</time>
      </trkpt>
      <trkpt lat="42.97379" lon="-0.74855">
        <ele>1720</ele>
        <time>2010-01-23T10:10:48Z</time>
      </trkpt>
      <trkpt lat="42.97356" lon="-0.7486">
        <ele>1724</ele>
        <time>2010-01-23T10:11:00Z</time>
      </trkpt>
      <trkpt lat="42.97327" lon="-0.74866">
        <ele>1741</ele>
        <time>2010-01-23T10:11:14Z</time>
      </trkpt>
      <trkpt lat="42.97306" lon="-0.74871">
        <ele>1744</ele>
        <time>2010-01-23T10:11:25Z</time>
      </trkpt>
      <trkpt lat="42.97279" lon="-0.74876">
        <ele>1748</ele>
        <time>2010-01-23T10:11:38Z</time>
      </trkpt>
      <trkpt lat="42.97256" lon="-0.74881">
        <ele>1752</ele>
        <time>2010-01-23T10:11:50Z</time>
      </trkpt>
      <trkpt lat="42.97236" lon="-0.74885">
        <ele>1769</ele>
        <time>2010-01-23T10:12:00Z</time>
      </trkpt>
      <trkpt lat="42.97217" lon="-0.74889">
        <ele>1772</ele>
        <time>2010-01-23T10:12:10Z</time>
      </trkpt>
      <trkpt lat="42.97203" lon="-0.74892">
        <ele>1775</ele>
        <time>2010-01-23T10:12:17Z</time>
      </trkpt>
      <trkpt lat="42.97194" lon="-0.74894">
        <ele>1777</ele>
        <time>2010-01-23T10:12:22Z</time>
      </trkpt>
      <trkpt lat="42.97177" lon="-0.74897">
        <ele>1781</ele>
        <time>2010-01-23T10:12:30Z</time>
      </trkpt>
      <trkpt lat="42.97157" lon="-0.749">
        <ele>1798</ele>
        <time>2010-01-23T10:12:40Z</time>
      </trkpt>
      <trkpt lat="42.9714" lon="-0.74903">
        <ele>1800</ele>
        <time>2010-01-23T10:12:49Z</time>
      </trkpt>
      <trkpt lat="42.97122" lon="-0.74907">
        <ele>1804</ele>
        <time>2010-01-23T10:12:58Z</time>
      </trkpt>
      <trkpt lat="42.97096" lon="-0.74911">
        <ele>1815</ele>
        <time>2010-01-23T10:13:11Z</time>
      </trkpt>
      <trkpt lat="42.97074" lon="-0.74915">
        <ele>1827</ele>
        <time>2010-01-23T10:13:23Z</time>
      </trkpt>
      <trkpt lat="42.97044" lon="-0.74921">
        <ele>1844</ele>
        <time>2010-01-23T10:13:40Z</time>
      </trkpt>
      <trkpt lat="42.97028" lon="-0.74925">
        <ele>1848</ele>
        <time>2010-01-23T10:13:49Z</time>
      </trkpt>
      <trkpt lat="42.96999" lon="-0.7493">
        <ele>1862</ele>
        <time>2010-01-23T10:14:04Z</time>
      </trkpt>
      <trkpt lat="42.96984" lon="-0.74933">
        <ele>1867</ele>
        <time>2010-01-23T10:14:12Z</time>
      </trkpt>
      <trkpt lat="42.96961" lon="-0.74938">
        <ele>1874</ele>
        <time>2010-01-23T10:14:24Z</time>
      </trkpt>
      <trkpt lat="42.96937" lon="-0.74942">
        <ele>1878</ele>
        <time>2010-01-23T10:14:37Z</time>
      </trkpt>
      <trkpt lat="42.96915" lon="-0.74946">
        <ele>1892</ele>
        <time>2010-01-23T10:14:49Z</time>
      </trkpt>
      <trkpt lat="42.96899" lon="-0.74949">
        <ele>1894</ele>
        <time>2010-01-23T10:14:57Z</time>
      </trkpt>
      <trkpt lat="42.96889" lon="-0.74952">
        <ele>1896</ele>
        <time>2010-01-23T10:15:02Z</time>
      </trkpt>
      <trkpt lat="42.96866" lon="-0.74956">
        <ele>1899</ele>
        <time>2010-01-23T10:15:12Z</time>
      </trkpt>
      <trkpt lat="42.96861" lon="-0.74968">
        <ele>1903</ele>
        <time>2010-01-23T10:15:16Z</time>
      </trkpt>
      <trkpt lat="42.96862" lon="-0.74979">
        <ele>1905</ele>
        <time>2010-01-23T10:15:19Z</time>
      </trkpt>
      <trkpt lat="42.96862" lon="-0.7498">
        <ele>1906</ele>
        <time>2010-01-23T10:15:28Z</time>
      </trkpt>
      <trkpt lat="42.96862" lon="-0.7498">
        <ele>1906</ele>
        <time>2010-01-23T10:15:37Z</time>
      </trkpt>
      <trkpt lat="42.96863" lon="-0.7498">
        <ele>1905</ele>
        <time>2010-01-23T10:15:46Z</time>
      </trkpt>
      <trkpt lat="42.96863" lon="-0.74979">
        <ele>1905</ele>
        <time>2010-01-23T10:16:03Z</time>
      </trkpt>
      <trkpt lat="42.96863" lon="-0.74978">
        <ele>1905</ele>
        <time>2010-01-23T10:16:33Z</time>
      </trkpt>
      <trkpt lat="42.96865" lon="-0.74978">
        <ele>1905</ele>
        <time>2010-01-23T10:16:38Z</time>
      </trkpt>
      <trkpt lat="42.96877" lon="-0.74969">
        <ele>1901</ele>
        <time>2010-01-23T10:16:44Z</time>
      </trkpt>
      <trkpt lat="42.96878" lon="-0.74969">
        <ele>1901</ele>
        <time>2010-01-23T10:16:50Z</time>
      </trkpt>
      <trkpt lat="42.9688" lon="-0.74969">
        <ele>1901</ele>
        <time>2010-01-23T10:16:56Z</time>
      </trkpt>
      <trkpt lat="42.9688" lon="-0.74968">
        <ele>1901</ele>
        <time>2010-01-23T10:17:03Z</time>
      </trkpt>
      <trkpt lat="42.9688" lon="-0.74968">
        <ele>1901</ele>
        <time>2010-01-23T10:17:11Z</time>
      </trkpt>
      <trkpt lat="42.9688" lon="-0.74969">
        <ele>1901</ele>
        <time>2010-01-23T10:17:22Z</time>
      </trkpt>
      <trkpt lat="42.96881" lon="-0.74967">
        <ele>1901</ele>
        <time>2010-01-23T10:17:50Z</time>
      </trkpt>
      <trkpt lat="42.96881" lon="-0.74968">
        <ele>1901</ele>
        <time>2010-01-23T10:17:58Z</time>
      </trkpt>
      <trkpt lat="42.9688" lon="-0.74969">
        <ele>1901</ele>
        <time>2010-01-23T10:18:10Z</time>
      </trkpt>
      <trkpt lat="42.96879" lon="-0.74968">
        <ele>1901</ele>
        <time>2010-01-23T10:18:15Z</time>
      </trkpt>
      <trkpt lat="42.9688" lon="-0.7497">
        <ele>1901</ele>
        <time>2010-01-23T10:18:20Z</time>
      </trkpt>
      <trkpt lat="42.96881" lon="-0.7497">
        <ele>1901</ele>
        <time>2010-01-23T10:18:21Z</time>
      </trkpt>
      <trkpt lat="42.96891" lon="-0.74988">
        <ele>1905</ele>
        <time>2010-01-23T10:18:26Z</time>
      </trkpt>
      <trkpt lat="42.96916" lon="-0.75025">
        <ele>1924</ele>
        <time>2010-01-23T10:18:32Z</time>
      </trkpt>
      <trkpt lat="42.96943" lon="-0.75073">
        <ele>1907</ele>
        <time>2010-01-23T10:18:38Z</time>
      </trkpt>
      <trkpt lat="42.96953" lon="-0.75116">
        <ele>1902</ele>
        <time>2010-01-23T10:18:43Z</time>
      </trkpt>
      <trkpt lat="42.96943" lon="-0.75174">
        <ele>1899</ele>
        <time>2010-01-23T10:18:50Z</time>
      </trkpt>
      <trkpt lat="42.96931" lon="-0.75212">
        <ele>1895</ele>
        <time>2010-01-23T10:18:55Z</time>
      </trkpt>
      <trkpt lat="42.96924" lon="-0.75245">
        <ele>1896</ele>
        <time>2010-01-23T10:19:04Z</time>
      </trkpt>
      <trkpt lat="42.96923" lon="-0.75253">
        <ele>1893</ele>
        <time>2010-01-23T10:19:06Z</time>
      </trkpt>
      <trkpt lat="42.96933" lon="-0.75257">
        <ele>1888</ele>
        <time>2010-01-23T10:19:09Z</time>
      </trkpt>
      <trkpt lat="42.96939" lon="-0.75244">
        <ele>1892</ele>
        <time>2010-01-23T10:19:13Z</time>
      </trkpt>
      <trkpt lat="42.96948" lon="-0.75239">
        <ele>1890</ele>
        <time>2010-01-23T10:19:17Z</time>
      </trkpt>
      <trkpt lat="42.96949" lon="-0.75251">
        <ele>1881</ele>
        <time>2010-01-23T10:19:19Z</time>
      </trkpt>
      <trkpt lat="42.96955" lon="-0.75278">
        <ele>1878</ele>
        <time>2010-01-23T10:19:24Z</time>
      </trkpt>
      <trkpt lat="42.96958" lon="-0.75284">
        <ele>1877</ele>
        <time>2010-01-23T10:19:25Z</time>
      </trkpt>
      <trkpt lat="42.96975" lon="-0.75285">
        <ele>1873</ele>
        <time>2010-01-23T10:19:28Z</time>
      </trkpt>
      <trkpt lat="42.96983" lon="-0.75277">
        <ele>1872</ele>
        <time>2010-01-23T10:19:31Z</time>
      </trkpt>
      <trkpt lat="42.96991" lon="-0.75269">
        <ele>1870</ele>
        <time>2010-01-23T10:19:34Z</time>
      </trkpt>
      <trkpt lat="42.96994" lon="-0.7527">
        <ele>1870</ele>
        <time>2010-01-23T10:19:40Z</time>
      </trkpt>
      <trkpt lat="42.96994" lon="-0.75269">
        <ele>1870</ele>
        <time>2010-01-23T10:19:54Z</time>
      </trkpt>
      <trkpt lat="42.96994" lon="-0.75269">
        <ele>1870</ele>
        <time>2010-01-23T10:20:08Z</time>
      </trkpt>
      <trkpt lat="42.96993" lon="-0.75269">
        <ele>1870</ele>
        <time>2010-01-23T10:20:24Z</time>
      </trkpt>
      <trkpt lat="42.96994" lon="-0.75269">
        <ele>1870</ele>
        <time>2010-01-23T10:20:32Z</time>
      </trkpt>
      <trkpt lat="42.96994" lon="-0.7527">
        <ele>1870</ele>
        <time>2010-01-23T10:20:41Z</time>
      </trkpt>
      <trkpt lat="42.96994" lon="-0.75269">
        <ele>1870</ele>
        <time>2010-01-23T10:21:22Z</time>
      </trkpt>
      <trkpt lat="42.96994" lon="-0.75269">
        <ele>1870</ele>
        <time>2010-01-23T10:21:37Z</time>
      </trkpt>
      <trkpt lat="42.96995" lon="-0.75269">
        <ele>1870</ele>
        <time>2010-01-23T10:21:53Z</time>
      </trkpt>
      <trkpt lat="42.96995" lon="-0.7527">
        <ele>1870</ele>
        <time>2010-01-23T10:22:08Z</time>
      </trkpt>
      <trkpt lat="42.96995" lon="-0.75269">
        <ele>1870</ele>
        <time>2010-01-23T10:22:14Z</time>
      </trkpt>
      <trkpt lat="42.96996" lon="-0.75268">
        <ele>1870</ele>
        <time>2010-01-23T10:22:19Z</time>
      </trkpt>
      <trkpt lat="42.96995" lon="-0.75276">
        <ele>1870</ele>
        <time>2010-01-23T10:23:02Z</time>
      </trkpt>
      <trkpt lat="42.96994" lon="-0.75288">
        <ele>1870</ele>
        <time>2010-01-23T10:23:07Z</time>
      </trkpt>
      <trkpt lat="42.96993" lon="-0.75289">
        <ele>1870</ele>
        <time>2010-01-23T10:23:12Z</time>
      </trkpt>
      <trkpt lat="42.96993" lon="-0.75289">
        <ele>1870</ele>
        <time>2010-01-23T10:23:23Z</time>
      </trkpt>
      <trkpt lat="42.96992" lon="-0.7529">
        <ele>1870</ele>
        <time>2010-01-23T10:23:59Z</time>
      </trkpt>
      <trkpt lat="42.96992" lon="-0.75291">
        <ele>1870</ele>
        <time>2010-01-23T10:24:25Z</time>
      </trkpt>
      <trkpt lat="42.97002" lon="-0.75287">
        <ele>1850</ele>
        <time>2010-01-23T10:24:29Z</time>
      </trkpt>
      <trkpt lat="42.97005" lon="-0.75279">
        <ele>1851</ele>
        <time>2010-01-23T10:24:31Z</time>
      </trkpt>
      <trkpt lat="42.97007" lon="-0.75273">
        <ele>1852</ele>
        <time>2010-01-23T10:24:35Z</time>
      </trkpt>
      <trkpt lat="42.97007" lon="-0.75275">
        <ele>1852</ele>
        <time>2010-01-23T10:24:54Z</time>
      </trkpt>
      <trkpt lat="42.97016" lon="-0.75284">
        <ele>1849</ele>
        <time>2010-01-23T10:24:58Z</time>
      </trkpt>
      <trkpt lat="42.97023" lon="-0.75281">
        <ele>1848</ele>
        <time>2010-01-23T10:25:00Z</time>
      </trkpt>
      <trkpt lat="42.97026" lon="-0.75278">
        <ele>1848</ele>
        <time>2010-01-23T10:25:01Z</time>
      </trkpt>
      <trkpt lat="42.97036" lon="-0.75265">
        <ele>1847</ele>
        <time>2010-01-23T10:25:04Z</time>
      </trkpt>
      <trkpt lat="42.97058" lon="-0.75257">
        <ele>1842</ele>
        <time>2010-01-23T10:25:08Z</time>
      </trkpt>
      <trkpt lat="42.97069" lon="-0.75254">
        <ele>1840</ele>
        <time>2010-01-23T10:25:10Z</time>
      </trkpt>
      <trkpt lat="42.97096" lon="-0.75245">
        <ele>1830</ele>
        <time>2010-01-23T10:25:14Z</time>
      </trkpt>
      <trkpt lat="42.97111" lon="-0.75247">
        <ele>1826</ele>
        <time>2010-01-23T10:25:16Z</time>
      </trkpt>
      <trkpt lat="42.97147" lon="-0.75244">
        <ele>1816</ele>
        <time>2010-01-23T10:25:21Z</time>
      </trkpt>
      <trkpt lat="42.97179" lon="-0.75236">
        <ele>1801</ele>
        <time>2010-01-23T10:25:24Z</time>
      </trkpt>
      <trkpt lat="42.97201" lon="-0.75233">
        <ele>1796</ele>
        <time>2010-01-23T10:25:26Z</time>
      </trkpt>
      <trkpt lat="42.9722" lon="-0.75226">
        <ele>1792</ele>
        <time>2010-01-23T10:25:28Z</time>
      </trkpt>
      <trkpt lat="42.97234" lon="-0.75224">
        <ele>1790</ele>
        <time>2010-01-23T10:25:30Z</time>
      </trkpt>
      <trkpt lat="42.97239" lon="-0.75239">
        <ele>1787</ele>
        <time>2010-01-23T10:25:37Z</time>
      </trkpt>
      <trkpt lat="42.97241" lon="-0.7524">
        <ele>1786</ele>
        <time>2010-01-23T10:25:44Z</time>
      </trkpt>
      <trkpt lat="42.9725" lon="-0.75241">
        <ele>1784</ele>
        <time>2010-01-23T10:25:48Z</time>
      </trkpt>
      <trkpt lat="42.97251" lon="-0.7524">
        <ele>1777</ele>
        <time>2010-01-23T10:25:51Z</time>
      </trkpt>
      <trkpt lat="42.97255" lon="-0.75235">
        <ele>1775</ele>
        <time>2010-01-23T10:25:59Z</time>
      </trkpt>
      <trkpt lat="42.97264" lon="-0.75216">
        <ele>1773</ele>
        <time>2010-01-23T10:26:04Z</time>
      </trkpt>
      <trkpt lat="42.97266" lon="-0.75211">
        <ele>1773</ele>
        <time>2010-01-23T10:26:05Z</time>
      </trkpt>
      <trkpt lat="42.97284" lon="-0.75207">
        <ele>1771</ele>
        <time>2010-01-23T10:26:09Z</time>
      </trkpt>
      <trkpt lat="42.973" lon="-0.75201">
        <ele>1768</ele>
        <time>2010-01-23T10:26:12Z</time>
      </trkpt>
      <trkpt lat="42.97336" lon="-0.75206">
        <ele>1757</ele>
        <time>2010-01-23T10:26:16Z</time>
      </trkpt>
      <trkpt lat="42.9735" lon="-0.75199">
        <ele>1757</ele>
        <time>2010-01-23T10:26:18Z</time>
      </trkpt>
      <trkpt lat="42.97355" lon="-0.75189">
        <ele>1756</ele>
        <time>2010-01-23T10:26:20Z</time>
      </trkpt>
      <trkpt lat="42.97365" lon="-0.75168">
        <ele>1756</ele>
        <time>2010-01-23T10:26:23Z</time>
      </trkpt>
      <trkpt lat="42.97373" lon="-0.7514">
        <ele>1751</ele>
        <time>2010-01-23T10:26:26Z</time>
      </trkpt>
      <trkpt lat="42.97385" lon="-0.75124">
        <ele>1750</ele>
        <time>2010-01-23T10:26:28Z</time>
      </trkpt>
      <trkpt lat="42.97423" lon="-0.75079">
        <ele>1735</ele>
        <time>2010-01-23T10:26:33Z</time>
      </trkpt>
      <trkpt lat="42.97448" lon="-0.75075">
        <ele>1727</ele>
        <time>2010-01-23T10:26:36Z</time>
      </trkpt>
      <trkpt lat="42.9746" lon="-0.75067">
        <ele>1725</ele>
        <time>2010-01-23T10:26:38Z</time>
      </trkpt>
      <trkpt lat="42.97482" lon="-0.75058">
        <ele>1722</ele>
        <time>2010-01-23T10:26:42Z</time>
      </trkpt>
      <trkpt lat="42.97495" lon="-0.75047">
        <ele>1721</ele>
        <time>2010-01-23T10:26:44Z</time>
      </trkpt>
      <trkpt lat="42.97503" lon="-0.75024">
        <ele>1711</ele>
        <time>2010-01-23T10:26:47Z</time>
      </trkpt>
      <trkpt lat="42.97505" lon="-0.75015">
        <ele>1710</ele>
        <time>2010-01-23T10:26:48Z</time>
      </trkpt>
      <trkpt lat="42.97509" lon="-0.74974">
        <ele>1704</ele>
        <time>2010-01-23T10:26:53Z</time>
      </trkpt>
      <trkpt lat="42.97509" lon="-0.74943">
        <ele>1701</ele>
        <time>2010-01-23T10:26:59Z</time>
      </trkpt>
      <trkpt lat="42.97509" lon="-0.74938">
        <ele>1701</ele>
        <time>2010-01-23T10:27:00Z</time>
      </trkpt>
      <trkpt lat="42.97501" lon="-0.74912">
        <ele>1698</ele>
        <time>2010-01-23T10:27:05Z</time>
      </trkpt>
      <trkpt lat="42.97506" lon="-0.74879">
        <ele>1692</ele>
        <time>2010-01-23T10:27:09Z</time>
      </trkpt>
      <trkpt lat="42.97514" lon="-0.74833">
        <ele>1684</ele>
        <time>2010-01-23T10:27:14Z</time>
      </trkpt>
      <trkpt lat="42.97517" lon="-0.7479">
        <ele>1680</ele>
        <time>2010-01-23T10:27:18Z</time>
      </trkpt>
      <trkpt lat="42.97529" lon="-0.74764">
        <ele>1679</ele>
        <time>2010-01-23T10:27:21Z</time>
      </trkpt>
      <trkpt lat="42.97549" lon="-0.7475">
        <ele>1678</ele>
        <time>2010-01-23T10:27:24Z</time>
      </trkpt>
      <trkpt lat="42.97562" lon="-0.74745">
        <ele>1674</ele>
        <time>2010-01-23T10:27:26Z</time>
      </trkpt>
      <trkpt lat="42.97593" lon="-0.74718">
        <ele>1668</ele>
        <time>2010-01-23T10:27:31Z</time>
      </trkpt>
      <trkpt lat="42.97607" lon="-0.74716">
        <ele>1667</ele>
        <time>2010-01-23T10:27:33Z</time>
      </trkpt>
      <trkpt lat="42.9763" lon="-0.74721">
        <ele>1665</ele>
        <time>2010-01-23T10:27:36Z</time>
      </trkpt>
      <trkpt lat="42.97654" lon="-0.74727">
        <ele>1663</ele>
        <time>2010-01-23T10:27:39Z</time>
      </trkpt>
      <trkpt lat="42.97681" lon="-0.74737">
        <ele>1654</ele>
        <time>2010-01-23T10:27:42Z</time>
      </trkpt>
      <trkpt lat="42.97721" lon="-0.74726">
        <ele>1649</ele>
        <time>2010-01-23T10:27:46Z</time>
      </trkpt>
      <trkpt lat="42.97731" lon="-0.7471">
        <ele>1649</ele>
        <time>2010-01-23T10:27:48Z</time>
      </trkpt>
      <trkpt lat="42.97748" lon="-0.74681">
        <ele>1648</ele>
        <time>2010-01-23T10:27:53Z</time>
      </trkpt>
      <trkpt lat="42.97747" lon="-0.7468">
        <ele>1648</ele>
        <time>2010-01-23T10:27:57Z</time>
      </trkpt>
      <trkpt lat="42.97747" lon="-0.7468">
        <ele>1648</ele>
        <time>2010-01-23T10:28:04Z</time>
      </trkpt>
      <trkpt lat="42.97747" lon="-0.74679">
        <ele>1648</ele>
        <time>2010-01-23T10:28:13Z</time>
      </trkpt>
      <trkpt lat="42.97747" lon="-0.7468">
        <ele>1648</ele>
        <time>2010-01-23T10:28:21Z</time>
      </trkpt>
      <trkpt lat="42.97745" lon="-0.74681">
        <ele>1648</ele>
        <time>2010-01-23T10:28:37Z</time>
      </trkpt>
      <trkpt lat="42.97748" lon="-0.7468">
        <ele>1648</ele>
        <time>2010-01-23T10:28:46Z</time>
      </trkpt>
      <trkpt lat="42.97748" lon="-0.7468">
        <ele>1648</ele>
        <time>2010-01-23T10:28:58Z</time>
      </trkpt>
      <trkpt lat="42.97748" lon="-0.74682">
        <ele>1648</ele>
        <time>2010-01-23T10:29:04Z</time>
      </trkpt>
      <trkpt lat="42.97751" lon="-0.7469">
        <ele>1641</ele>
        <time>2010-01-23T10:29:08Z</time>
      </trkpt>
      <trkpt lat="42.97758" lon="-0.74709">
        <ele>1639</ele>
        <time>2010-01-23T10:29:15Z</time>
      </trkpt>
      <trkpt lat="42.97766" lon="-0.74729">
        <ele>1638</ele>
        <time>2010-01-23T10:29:19Z</time>
      </trkpt>
      <trkpt lat="42.97776" lon="-0.74747">
        <ele>1638</ele>
        <time>2010-01-23T10:29:22Z</time>
      </trkpt>
      <trkpt lat="42.97801" lon="-0.74764">
        <ele>1637</ele>
        <time>2010-01-23T10:29:27Z</time>
      </trkpt>
      <trkpt lat="42.97814" lon="-0.74757">
        <ele>1635</ele>
        <time>2010-01-23T10:29:30Z</time>
      </trkpt>
      <trkpt lat="42.97829" lon="-0.74757">
        <ele>1633</ele>
        <time>2010-01-23T10:29:33Z</time>
      </trkpt>
      <trkpt lat="42.97847" lon="-0.74742">
        <ele>1629</ele>
        <time>2010-01-23T10:29:36Z</time>
      </trkpt>
      <trkpt lat="42.97856" lon="-0.74739">
        <ele>1628</ele>
        <time>2010-01-23T10:29:37Z</time>
      </trkpt>
      <trkpt lat="42.97871" lon="-0.74735">
        <ele>1627</ele>
        <time>2010-01-23T10:29:39Z</time>
      </trkpt>
      <trkpt lat="42.97881" lon="-0.74747">
        <ele>1626</ele>
        <time>2010-01-23T10:29:43Z</time>
      </trkpt>
      <trkpt lat="42.9788" lon="-0.74753">
        <ele>1628</ele>
        <time>2010-01-23T10:29:51Z</time>
      </trkpt>
      <trkpt lat="42.97879" lon="-0.74755">
        <ele>1628</ele>
        <time>2010-01-23T10:29:58Z</time>
      </trkpt>
      <trkpt lat="42.97879" lon="-0.74757">
        <ele>1628</ele>
        <time>2010-01-23T10:30:06Z</time>
      </trkpt>
      <trkpt lat="42.97879" lon="-0.74759">
        <ele>1628</ele>
        <time>2010-01-23T10:30:13Z</time>
      </trkpt>
      <trkpt lat="42.97878" lon="-0.7476">
        <ele>1628</ele>
        <time>2010-01-23T10:30:19Z</time>
      </trkpt>
      <trkpt lat="42.97877" lon="-0.74761">
        <ele>1628</ele>
        <time>2010-01-23T10:30:27Z</time>
      </trkpt>
      <trkpt lat="42.97875" lon="-0.74761">
        <ele>1628</ele>
        <time>2010-01-23T10:30:33Z</time>
      </trkpt>
      <trkpt lat="42.97873" lon="-0.74762">
        <ele>1629</ele>
        <time>2010-01-23T10:30:38Z</time>
      </trkpt>
      <trkpt lat="42.97872" lon="-0.74761">
        <ele>1629</ele>
        <time>2010-01-23T10:30:42Z</time>
      </trkpt>
      <trkpt lat="42.97862" lon="-0.74765">
        <ele>1629</ele>
        <time>2010-01-23T10:30:47Z</time>
      </trkpt>
      <trkpt lat="42.97852" lon="-0.74767">
        <ele>1630</ele>
        <time>2010-01-23T10:30:52Z</time>
      </trkpt>
      <trkpt lat="42.97843" lon="-0.74768">
        <ele>1630</ele>
        <time>2010-01-23T10:30:56Z</time>
      </trkpt>
      <trkpt lat="42.97831" lon="-0.74771">
        <ele>1635</ele>
        <time>2010-01-23T10:31:02Z</time>
      </trkpt>
      <trkpt lat="42.97817" lon="-0.74774">
        <ele>1636</ele>
        <time>2010-01-23T10:31:09Z</time>
      </trkpt>
      <trkpt lat="42.97801" lon="-0.74777">
        <ele>1637</ele>
        <time>2010-01-23T10:31:17Z</time>
      </trkpt>
      <trkpt lat="42.97782" lon="-0.7478">
        <ele>1638</ele>
        <time>2010-01-23T10:31:26Z</time>
      </trkpt>
      <trkpt lat="42.97765" lon="-0.74783">
        <ele>1639</ele>
        <time>2010-01-23T10:31:34Z</time>
      </trkpt>
      <trkpt lat="42.97749" lon="-0.74786">
        <ele>1647</ele>
        <time>2010-01-23T10:31:42Z</time>
      </trkpt>
      <trkpt lat="42.97726" lon="-0.7479">
        <ele>1649</ele>
        <time>2010-01-23T10:31:53Z</time>
      </trkpt>
      <trkpt lat="42.97708" lon="-0.74794">
        <ele>1651</ele>
        <time>2010-01-23T10:32:02Z</time>
      </trkpt>
      <trkpt lat="42.97688" lon="-0.74798">
        <ele>1653</ele>
        <time>2010-01-23T10:32:12Z</time>
      </trkpt>
      <trkpt lat="42.97665" lon="-0.74802">
        <ele>1666</ele>
        <time>2010-01-23T10:32:23Z</time>
      </trkpt>
      <trkpt lat="42.97636" lon="-0.74808">
        <ele>1669</ele>
        <time>2010-01-23T10:32:38Z</time>
      </trkpt>
      <trkpt lat="42.97612" lon="-0.74813">
        <ele>1673</ele>
        <time>2010-01-23T10:32:50Z</time>
      </trkpt>
      <trkpt lat="42.97584" lon="-0.74818">
        <ele>1678</ele>
        <time>2010-01-23T10:33:04Z</time>
      </trkpt>
      <trkpt lat="42.97556" lon="-0.74823">
        <ele>1682</ele>
        <time>2010-01-23T10:33:18Z</time>
      </trkpt>
      <trkpt lat="42.97534" lon="-0.74828">
        <ele>1682</ele>
        <time>2010-01-23T10:33:30Z</time>
      </trkpt>
      <trkpt lat="42.97518" lon="-0.74831">
        <ele>1683</ele>
        <time>2010-01-23T10:33:38Z</time>
      </trkpt>
      <trkpt lat="42.97499" lon="-0.74834">
        <ele>1687</ele>
        <time>2010-01-23T10:33:47Z</time>
      </trkpt>
      <trkpt lat="42.97466" lon="-0.7484">
        <ele>1698</ele>
        <time>2010-01-23T10:34:03Z</time>
      </trkpt>
      <trkpt lat="42.97446" lon="-0.74844">
        <ele>1701</ele>
        <time>2010-01-23T10:34:13Z</time>
      </trkpt>
      <trkpt lat="42.97425" lon="-0.74848">
        <ele>1703</ele>
        <time>2010-01-23T10:34:23Z</time>
      </trkpt>
      <trkpt lat="42.97408" lon="-0.74852">
        <ele>1714</ele>
        <time>2010-01-23T10:34:32Z</time>
      </trkpt>
      <trkpt lat="42.97384" lon="-0.74857">
        <ele>1719</ele>
        <time>2010-01-23T10:34:45Z</time>
      </trkpt>
      <trkpt lat="42.97362" lon="-0.74862">
        <ele>1723</ele>
        <time>2010-01-23T10:34:57Z</time>
      </trkpt>
      <trkpt lat="42.97334" lon="-0.74867">
        <ele>1726</ele>
        <time>2010-01-23T10:35:11Z</time>
      </trkpt>
      <trkpt lat="42.97315" lon="-0.74871">
        <ele>1743</ele>
        <time>2010-01-23T10:35:21Z</time>
      </trkpt>
      <trkpt lat="42.97299" lon="-0.74874">
        <ele>1745</ele>
        <time>2010-01-23T10:35:29Z</time>
      </trkpt>
      <trkpt lat="42.97266" lon="-0.74879">
        <ele>1750</ele>
        <time>2010-01-23T10:35:45Z</time>
      </trkpt>
      <trkpt lat="42.97228" lon="-0.74886">
        <ele>1770</ele>
        <time>2010-01-23T10:36:04Z</time>
      </trkpt>
      <trkpt lat="42.97201" lon="-0.74893">
        <ele>1775</ele>
        <time>2010-01-23T10:36:18Z</time>
      </trkpt>
      <trkpt lat="42.97184" lon="-0.74896">
        <ele>1780</ele>
        <time>2010-01-23T10:36:27Z</time>
      </trkpt>
      <trkpt lat="42.97155" lon="-0.74901">
        <ele>1798</ele>
        <time>2010-01-23T10:36:41Z</time>
      </trkpt>
      <trkpt lat="42.97119" lon="-0.74907">
        <ele>1805</ele>
        <time>2010-01-23T10:36:59Z</time>
      </trkpt>
      <trkpt lat="42.971" lon="-0.74911">
        <ele>1813</ele>
        <time>2010-01-23T10:37:09Z</time>
      </trkpt>
      <trkpt lat="42.97089" lon="-0.74912">
        <ele>1819</ele>
        <time>2010-01-23T10:37:15Z</time>
      </trkpt>
      <trkpt lat="42.97055" lon="-0.74919">
        <ele>1841</ele>
        <time>2010-01-23T10:37:33Z</time>
      </trkpt>
      <trkpt lat="42.97037" lon="-0.74923">
        <ele>1846</ele>
        <time>2010-01-23T10:37:44Z</time>
      </trkpt>
      <trkpt lat="42.97021" lon="-0.74926">
        <ele>1849</ele>
        <time>2010-01-23T10:37:52Z</time>
      </trkpt>
      <trkpt lat="42.96984" lon="-0.74933">
        <ele>1867</ele>
        <time>2010-01-23T10:38:11Z</time>
      </trkpt>
      <trkpt lat="42.96956" lon="-0.74939">
        <ele>1875</ele>
        <time>2010-01-23T10:38:26Z</time>
      </trkpt>
      <trkpt lat="42.96938" lon="-0.74942">
        <ele>1878</ele>
        <time>2010-01-23T10:38:35Z</time>
      </trkpt>
      <trkpt lat="42.96912" lon="-0.74947">
        <ele>1892</ele>
        <time>2010-01-23T10:38:49Z</time>
      </trkpt>
      <trkpt lat="42.96893" lon="-0.74951">
        <ele>1896</ele>
        <time>2010-01-23T10:38:59Z</time>
      </trkpt>
      <trkpt lat="42.96881" lon="-0.74952">
        <ele>1897</ele>
        <time>2010-01-23T10:39:05Z</time>
      </trkpt>
      <trkpt lat="42.96866" lon="-0.74955">
        <ele>1899</ele>
        <time>2010-01-23T10:39:12Z</time>
      </trkpt>
      <trkpt lat="42.96862" lon="-0.74967">
        <ele>1902</ele>
        <time>2010-01-23T10:39:16Z</time>
      </trkpt>
      <trkpt lat="42.96865" lon="-0.74978">
        <ele>1905</ele>
        <time>2010-01-23T10:39:20Z</time>
      </trkpt>
      <trkpt lat="42.96866" lon="-0.74978">
        <ele>1905</ele>
        <time>2010-01-23T10:39:21Z</time>
      </trkpt>
      <trkpt lat="42.96868" lon="-0.74979">
        <ele>1904</ele>
        <time>2010-01-23T10:39:27Z</time>
      </trkpt>
      <trkpt lat="42.96868" lon="-0.74979">
        <ele>1905</ele>
        <time>2010-01-23T10:39:37Z</time>
      </trkpt>
      <trkpt lat="42.96867" lon="-0.74979">
        <ele>1905</ele>
        <time>2010-01-23T10:39:53Z</time>
      </trkpt>
      <trkpt lat="42.96867" lon="-0.74978">
        <ele>1904</ele>
        <time>2010-01-23T10:40:16Z</time>
      </trkpt>
      <trkpt lat="42.96866" lon="-0.74978">
        <ele>1904</ele>
        <time>2010-01-23T10:40:27Z</time>
      </trkpt>
      <trkpt lat="42.96867" lon="-0.74978">
        <ele>1904</ele>
        <time>2010-01-23T10:40:38Z</time>
      </trkpt>
      <trkpt lat="42.96867" lon="-0.74978">
        <ele>1905</ele>
        <time>2010-01-23T10:41:00Z</time>
      </trkpt>
      <trkpt lat="42.96869" lon="-0.7498">
        <ele>1905</ele>
        <time>2010-01-23T10:41:15Z</time>
      </trkpt>
      <trkpt lat="42.96879" lon="-0.74982">
        <ele>1904</ele>
        <time>2010-01-23T10:41:21Z</time>
      </trkpt>
      <trkpt lat="42.96892" lon="-0.74995">
        <ele>1906</ele>
        <time>2010-01-23T10:41:25Z</time>
      </trkpt>
      <trkpt lat="42.9691" lon="-0.75016">
        <ele>1922</ele>
        <time>2010-01-23T10:41:29Z</time>
      </trkpt>
      <trkpt lat="42.96927" lon="-0.75045">
        <ele>1907</ele>
        <time>2010-01-23T10:41:33Z</time>
      </trkpt>
      <trkpt lat="42.96945" lon="-0.75083">
        <ele>1907</ele>
        <time>2010-01-23T10:41:38Z</time>
      </trkpt>
      <trkpt lat="42.96952" lon="-0.75117">
        <ele>1903</ele>
        <time>2010-01-23T10:41:43Z</time>
      </trkpt>
      <trkpt lat="42.96951" lon="-0.75134">
        <ele>1903</ele>
        <time>2010-01-23T10:41:45Z</time>
      </trkpt>
      <trkpt lat="42.96943" lon="-0.7517">
        <ele>1899</ele>
        <time>2010-01-23T10:41:49Z</time>
      </trkpt>
      <trkpt lat="42.96933" lon="-0.75203">
        <ele>1896</ele>
        <time>2010-01-23T10:41:53Z</time>
      </trkpt>
      <trkpt lat="42.96923" lon="-0.75241">
        <ele>1896</ele>
        <time>2010-01-23T10:42:00Z</time>
      </trkpt>
      <trkpt lat="42.96922" lon="-0.75247">
        <ele>1897</ele>
        <time>2010-01-23T10:42:01Z</time>
      </trkpt>
      <trkpt lat="42.96928" lon="-0.75253">
        <ele>1891</ele>
        <time>2010-01-23T10:42:04Z</time>
      </trkpt>
      <trkpt lat="42.96931" lon="-0.7525">
        <ele>1889</ele>
        <time>2010-01-23T10:42:05Z</time>
      </trkpt>
      <trkpt lat="42.96941" lon="-0.75238">
        <ele>1892</ele>
        <time>2010-01-23T10:42:10Z</time>
      </trkpt>
      <trkpt lat="42.96944" lon="-0.75237">
        <ele>1891</ele>
        <time>2010-01-23T10:42:12Z</time>
      </trkpt>
      <trkpt lat="42.96947" lon="-0.75242">
        <ele>1890</ele>
        <time>2010-01-23T10:42:17Z</time>
      </trkpt>
      <trkpt lat="42.96947" lon="-0.75242">
        <ele>1890</ele>
        <time>2010-01-23T10:42:40Z</time>
      </trkpt>
      <trkpt lat="42.96947" lon="-0.75241">
        <ele>1890</ele>
        <time>2010-01-23T10:42:59Z</time>
      </trkpt>
      <trkpt lat="42.96947" lon="-0.75241">
        <ele>1890</ele>
        <time>2010-01-23T10:43:09Z</time>
      </trkpt>
      <trkpt lat="42.96949" lon="-0.75249">
        <ele>1889</ele>
        <time>2010-01-23T10:43:23Z</time>
      </trkpt>
      <trkpt lat="42.96967" lon="-0.75259">
        <ele>1876</ele>
        <time>2010-01-23T10:43:27Z</time>
      </trkpt>
      <trkpt lat="42.96978" lon="-0.75266">
        <ele>1873</ele>
        <time>2010-01-23T10:43:30Z</time>
      </trkpt>
      <trkpt lat="42.96986" lon="-0.75268">
        <ele>1871</ele>
        <time>2010-01-23T10:43:32Z</time>
      </trkpt>
      <trkpt lat="42.97" lon="-0.75274">
        <ele>1870</ele>
        <time>2010-01-23T10:43:35Z</time>
      </trkpt>
      <trkpt lat="42.97009" lon="-0.75271">
        <ele>1852</ele>
        <time>2010-01-23T10:43:37Z</time>
      </trkpt>
      <trkpt lat="42.97021" lon="-0.75269">
        <ele>1850</ele>
        <time>2010-01-23T10:43:40Z</time>
      </trkpt>
      <trkpt lat="42.9703" lon="-0.75266">
        <ele>1848</ele>
        <time>2010-01-23T10:43:42Z</time>
      </trkpt>
      <trkpt lat="42.97043" lon="-0.75263">
        <ele>1846</ele>
        <time>2010-01-23T10:43:45Z</time>
      </trkpt>
      <trkpt lat="42.97053" lon="-0.75262">
        <ele>1843</ele>
        <time>2010-01-23T10:43:47Z</time>
      </trkpt>
      <trkpt lat="42.9707" lon="-0.75248">
        <ele>1843</ele>
        <time>2010-01-23T10:43:50Z</time>
      </trkpt>
      <trkpt lat="42.97076" lon="-0.75236">
        <ele>1844</ele>
        <time>2010-01-23T10:43:52Z</time>
      </trkpt>
      <trkpt lat="42.97078" lon="-0.75229">
        <ele>1845</ele>
        <time>2010-01-23T10:43:54Z</time>
      </trkpt>
      <trkpt lat="42.97082" lon="-0.7522">
        <ele>1846</ele>
        <time>2010-01-23T10:43:58Z</time>
      </trkpt>
      <trkpt lat="42.97086" lon="-0.7521">
        <ele>1828</ele>
        <time>2010-01-23T10:44:03Z</time>
      </trkpt>
      <trkpt lat="42.97086" lon="-0.75211">
        <ele>1828</ele>
        <time>2010-01-23T10:44:09Z</time>
      </trkpt>
      <trkpt lat="42.97087" lon="-0.7521">
        <ele>1828</ele>
        <time>2010-01-23T10:44:13Z</time>
      </trkpt>
      <trkpt lat="42.97094" lon="-0.75217">
        <ele>1827</ele>
        <time>2010-01-23T10:44:16Z</time>
      </trkpt>
      <trkpt lat="42.97102" lon="-0.7523">
        <ele>1827</ele>
        <time>2010-01-23T10:44:18Z</time>
      </trkpt>
      <trkpt lat="42.97113" lon="-0.75231">
        <ele>1825</ele>
        <time>2010-01-23T10:44:21Z</time>
      </trkpt>
      <trkpt lat="42.9712" lon="-0.75233">
        <ele>1824</ele>
        <time>2010-01-23T10:44:24Z</time>
      </trkpt>
      <trkpt lat="42.97139" lon="-0.75258">
        <ele>1815</ele>
        <time>2010-01-23T10:44:28Z</time>
      </trkpt>
      <trkpt lat="42.97156" lon="-0.75256">
        <ele>1811</ele>
        <time>2010-01-23T10:44:30Z</time>
      </trkpt>
      <trkpt lat="42.97163" lon="-0.75251">
        <ele>1808</ele>
        <time>2010-01-23T10:44:31Z</time>
      </trkpt>
      <trkpt lat="42.97198" lon="-0.75249">
        <ele>1797</ele>
        <time>2010-01-23T10:44:35Z</time>
      </trkpt>
      <trkpt lat="42.97207" lon="-0.75255">
        <ele>1792</ele>
        <time>2010-01-23T10:44:36Z</time>
      </trkpt>
      <trkpt lat="42.9723" lon="-0.75252">
        <ele>1787</ele>
        <time>2010-01-23T10:44:39Z</time>
      </trkpt>
      <trkpt lat="42.97236" lon="-0.75242">
        <ele>1787</ele>
        <time>2010-01-23T10:44:42Z</time>
      </trkpt>
      <trkpt lat="42.97241" lon="-0.75242">
        <ele>1786</ele>
        <time>2010-01-23T10:44:45Z</time>
      </trkpt>
      <trkpt lat="42.9724" lon="-0.75243">
        <ele>1786</ele>
        <time>2010-01-23T10:44:50Z</time>
      </trkpt>
      <trkpt lat="42.9724" lon="-0.75243">
        <ele>1786</ele>
        <time>2010-01-23T10:45:01Z</time>
      </trkpt>
      <trkpt lat="42.9724" lon="-0.75242">
        <ele>1786</ele>
        <time>2010-01-23T10:45:08Z</time>
      </trkpt>
      <trkpt lat="42.9724" lon="-0.75242">
        <ele>1786</ele>
        <time>2010-01-23T10:45:28Z</time>
      </trkpt>
      <trkpt lat="42.9724" lon="-0.75242">
        <ele>1786</ele>
        <time>2010-01-23T10:45:49Z</time>
      </trkpt>
      <trkpt lat="42.9724" lon="-0.75242">
        <ele>1786</ele>
        <time>2010-01-23T10:45:56Z</time>
      </trkpt>
      <trkpt lat="42.9724" lon="-0.75242">
        <ele>1786</ele>
        <time>2010-01-23T10:46:02Z</time>
      </trkpt>
      <trkpt lat="42.9724" lon="-0.75242">
        <ele>1786</ele>
        <time>2010-01-23T10:46:12Z</time>
      </trkpt>
      <trkpt lat="42.9724" lon="-0.75241">
        <ele>1786</ele>
        <time>2010-01-23T10:46:56Z</time>
      </trkpt>
      <trkpt lat="42.9724" lon="-0.7524">
        <ele>1786</ele>
        <time>2010-01-23T10:47:20Z</time>
      </trkpt>
      <trkpt lat="42.97239" lon="-0.75239">
        <ele>1787</ele>
        <time>2010-01-23T10:47:26Z</time>
      </trkpt>
      <trkpt lat="42.97235" lon="-0.7524">
        <ele>1788</ele>
        <time>2010-01-23T10:47:30Z</time>
      </trkpt>
      <trkpt lat="42.97235" lon="-0.75241">
        <ele>1788</ele>
        <time>2010-01-23T10:47:38Z</time>
      </trkpt>
      <trkpt lat="42.97234" lon="-0.7524">
        <ele>1788</ele>
        <time>2010-01-23T10:47:55Z</time>
      </trkpt>
      <trkpt lat="42.97235" lon="-0.75237">
        <ele>1788</ele>
        <time>2010-01-23T10:47:58Z</time>
      </trkpt>
      <trkpt lat="42.97237" lon="-0.75218">
        <ele>1790</ele>
        <time>2010-01-23T10:48:08Z</time>
      </trkpt>
      <trkpt lat="42.97247" lon="-0.75201">
        <ele>1789</ele>
        <time>2010-01-23T10:48:12Z</time>
      </trkpt>
      <trkpt lat="42.97253" lon="-0.75188">
        <ele>1775</ele>
        <time>2010-01-23T10:48:14Z</time>
      </trkpt>
      <trkpt lat="42.97264" lon="-0.75179">
        <ele>1775</ele>
        <time>2010-01-23T10:48:18Z</time>
      </trkpt>
      <trkpt lat="42.97264" lon="-0.75179">
        <ele>1775</ele>
        <time>2010-01-23T10:48:25Z</time>
      </trkpt>
      <trkpt lat="42.97264" lon="-0.75179">
        <ele>1775</ele>
        <time>2010-01-23T10:48:32Z</time>
      </trkpt>
      <trkpt lat="42.97264" lon="-0.75179">
        <ele>1775</ele>
        <time>2010-01-23T10:48:42Z</time>
      </trkpt>
      <trkpt lat="42.97263" lon="-0.75179">
        <ele>1775</ele>
        <time>2010-01-23T10:48:50Z</time>
      </trkpt>
      <trkpt lat="42.97263" lon="-0.75179">
        <ele>1775</ele>
        <time>2010-01-23T10:49:06Z</time>
      </trkpt>
      <trkpt lat="42.97264" lon="-0.75179">
        <ele>1775</ele>
        <time>2010-01-23T10:49:12Z</time>
      </trkpt>
      <trkpt lat="42.97271" lon="-0.75186">
        <ele>1773</ele>
        <time>2010-01-23T10:49:15Z</time>
      </trkpt>
      <trkpt lat="42.97287" lon="-0.7519">
        <ele>1770</ele>
        <time>2010-01-23T10:49:18Z</time>
      </trkpt>
      <trkpt lat="42.97301" lon="-0.75194">
        <ele>1768</ele>
        <time>2010-01-23T10:49:20Z</time>
      </trkpt>
      <trkpt lat="42.97316" lon="-0.7519">
        <ele>1766</ele>
        <time>2010-01-23T10:49:22Z</time>
      </trkpt>
      <trkpt lat="42.97337" lon="-0.7519">
        <ele>1757</ele>
        <time>2010-01-23T10:49:25Z</time>
      </trkpt>
      <trkpt lat="42.97363" lon="-0.75168">
        <ele>1756</ele>
        <time>2010-01-23T10:49:30Z</time>
      </trkpt>
      <trkpt lat="42.97369" lon="-0.7516">
        <ele>1752</ele>
        <time>2010-01-23T10:49:31Z</time>
      </trkpt>
      <trkpt lat="42.97375" lon="-0.75142">
        <ele>1751</ele>
        <time>2010-01-23T10:49:33Z</time>
      </trkpt>
      <trkpt lat="42.97399" lon="-0.75115">
        <ele>1748</ele>
        <time>2010-01-23T10:49:37Z</time>
      </trkpt>
      <trkpt lat="42.97426" lon="-0.75073">
        <ele>1732</ele>
        <time>2010-01-23T10:49:42Z</time>
      </trkpt>
      <trkpt lat="42.9743" lon="-0.75073">
        <ele>1731</ele>
        <time>2010-01-23T10:49:44Z</time>
      </trkpt>
      <trkpt lat="42.97431" lon="-0.75073">
        <ele>1731</ele>
        <time>2010-01-23T10:49:48Z</time>
      </trkpt>
      <trkpt lat="42.97431" lon="-0.75072">
        <ele>1731</ele>
        <time>2010-01-23T10:50:02Z</time>
      </trkpt>
      <trkpt lat="42.9743" lon="-0.75072">
        <ele>1731</ele>
        <time>2010-01-23T10:50:08Z</time>
      </trkpt>
      <trkpt lat="42.97431" lon="-0.75073">
        <ele>1731</ele>
        <time>2010-01-23T10:50:26Z</time>
      </trkpt>
      <trkpt lat="42.97435" lon="-0.75075">
        <ele>1730</ele>
        <time>2010-01-23T10:50:36Z</time>
      </trkpt>
      <trkpt lat="42.97445" lon="-0.7507">
        <ele>1728</ele>
        <time>2010-01-23T10:50:40Z</time>
      </trkpt>
      <trkpt lat="42.97463" lon="-0.75071">
        <ele>1725</ele>
        <time>2010-01-23T10:50:44Z</time>
      </trkpt>
      <trkpt lat="42.97474" lon="-0.7507">
        <ele>1723</ele>
        <time>2010-01-23T10:50:46Z</time>
      </trkpt>
      <trkpt lat="42.97487" lon="-0.7506">
        <ele>1722</ele>
        <time>2010-01-23T10:50:48Z</time>
      </trkpt>
      <trkpt lat="42.97505" lon="-0.75028">
        <ele>1711</ele>
        <time>2010-01-23T10:50:51Z</time>
      </trkpt>
      <trkpt lat="42.9751" lon="-0.74993">
        <ele>1707</ele>
        <time>2010-01-23T10:50:54Z</time>
      </trkpt>
      <trkpt lat="42.97508" lon="-0.74974">
        <ele>1704</ele>
        <time>2010-01-23T10:50:56Z</time>
      </trkpt>
      <trkpt lat="42.97505" lon="-0.74935">
        <ele>1701</ele>
        <time>2010-01-23T10:51:02Z</time>
      </trkpt>
      <trkpt lat="42.97504" lon="-0.74903">
        <ele>1696</ele>
        <time>2010-01-23T10:51:06Z</time>
      </trkpt>
      <trkpt lat="42.97509" lon="-0.74845">
        <ele>1688</ele>
        <time>2010-01-23T10:51:11Z</time>
      </trkpt>
      <trkpt lat="42.97512" lon="-0.74804">
        <ele>1682</ele>
        <time>2010-01-23T10:51:14Z</time>
      </trkpt>
      <trkpt lat="42.9753" lon="-0.7476">
        <ele>1679</ele>
        <time>2010-01-23T10:51:18Z</time>
      </trkpt>
      <trkpt lat="42.97545" lon="-0.74748">
        <ele>1674</ele>
        <time>2010-01-23T10:51:20Z</time>
      </trkpt>
      <trkpt lat="42.97583" lon="-0.7472">
        <ele>1674</ele>
        <time>2010-01-23T10:51:25Z</time>
      </trkpt>
      <trkpt lat="42.9761" lon="-0.7472">
        <ele>1667</ele>
        <time>2010-01-23T10:51:28Z</time>
      </trkpt>
      <trkpt lat="42.97628" lon="-0.74721">
        <ele>1665</ele>
        <time>2010-01-23T10:51:30Z</time>
      </trkpt>
      <trkpt lat="42.97652" lon="-0.74727">
        <ele>1663</ele>
        <time>2010-01-23T10:51:33Z</time>
      </trkpt>
      <trkpt lat="42.97672" lon="-0.74747">
        <ele>1656</ele>
        <time>2010-01-23T10:51:36Z</time>
      </trkpt>
      <trkpt lat="42.97682" lon="-0.7475">
        <ele>1655</ele>
        <time>2010-01-23T10:51:37Z</time>
      </trkpt>
      <trkpt lat="42.97724" lon="-0.74754">
        <ele>1648</ele>
        <time>2010-01-23T10:51:41Z</time>
      </trkpt>
      <trkpt lat="42.97756" lon="-0.74745">
        <ele>1640</ele>
        <time>2010-01-23T10:51:45Z</time>
      </trkpt>
      <trkpt lat="42.97775" lon="-0.74744">
        <ele>1638</ele>
        <time>2010-01-23T10:51:48Z</time>
      </trkpt>
      <trkpt lat="42.97788" lon="-0.74754">
        <ele>1638</ele>
        <time>2010-01-23T10:51:51Z</time>
      </trkpt>
      <trkpt lat="42.97794" lon="-0.74748">
        <ele>1636</ele>
        <time>2010-01-23T10:51:54Z</time>
      </trkpt>
      <trkpt lat="42.97797" lon="-0.74747">
        <ele>1636</ele>
        <time>2010-01-23T10:51:57Z</time>
      </trkpt>
      <trkpt lat="42.97799" lon="-0.74747">
        <ele>1636</ele>
        <time>2010-01-23T10:51:58Z</time>
      </trkpt>
      <trkpt lat="42.97804" lon="-0.74746">
        <ele>1635</ele>
        <time>2010-01-23T10:52:05Z</time>
      </trkpt>
      <trkpt lat="42.97805" lon="-0.74745">
        <ele>1635</ele>
        <time>2010-01-23T10:52:12Z</time>
      </trkpt>
      <trkpt lat="42.97806" lon="-0.74744">
        <ele>1635</ele>
        <time>2010-01-23T10:52:20Z</time>
      </trkpt>
      <trkpt lat="42.97807" lon="-0.74743">
        <ele>1635</ele>
        <time>2010-01-23T10:52:27Z</time>
      </trkpt>
      <trkpt lat="42.97809" lon="-0.74742">
        <ele>1635</ele>
        <time>2010-01-23T10:52:39Z</time>
      </trkpt>
      <trkpt lat="42.97812" lon="-0.74741">
        <ele>1634</ele>
        <time>2010-01-23T10:52:46Z</time>
      </trkpt>
      <trkpt lat="42.97812" lon="-0.74739">
        <ele>1635</ele>
        <time>2010-01-23T10:52:51Z</time>
      </trkpt>
      <trkpt lat="42.97813" lon="-0.74738">
        <ele>1634</ele>
        <time>2010-01-23T10:52:58Z</time>
      </trkpt>
      <trkpt lat="42.97814" lon="-0.74736">
        <ele>1634</ele>
        <time>2010-01-23T10:53:08Z</time>
      </trkpt>
      <trkpt lat="42.97818" lon="-0.74732">
        <ele>1634</ele>
        <time>2010-01-23T10:53:14Z</time>
      </trkpt>
      <trkpt lat="42.9782" lon="-0.74728">
        <ele>1634</ele>
        <time>2010-01-23T10:53:20Z</time>
      </trkpt>
      <trkpt lat="42.97821" lon="-0.74725">
        <ele>1634</ele>
        <time>2010-01-23T10:53:27Z</time>
      </trkpt>
      <trkpt lat="42.9782" lon="-0.74724">
        <ele>1635</ele>
        <time>2010-01-23T10:53:33Z</time>
      </trkpt>
      <trkpt lat="42.97821" lon="-0.74721">
        <ele>1635</ele>
        <time>2010-01-23T10:53:40Z</time>
      </trkpt>
      <trkpt lat="42.9782" lon="-0.7472">
        <ele>1635</ele>
        <time>2010-01-23T10:53:49Z</time>
      </trkpt>
      <trkpt lat="42.97818" lon="-0.74719">
        <ele>1635</ele>
        <time>2010-01-23T10:53:57Z</time>
      </trkpt>
      <trkpt lat="42.97816" lon="-0.74718">
        <ele>1635</ele>
        <time>2010-01-23T10:54:07Z</time>
      </trkpt>
      <trkpt lat="42.97813" lon="-0.74718">
        <ele>1635</ele>
        <time>2010-01-23T10:54:17Z</time>
      </trkpt>
      <trkpt lat="42.9781" lon="-0.74715">
        <ele>1635</ele>
        <time>2010-01-23T10:54:22Z</time>
      </trkpt>
      <trkpt lat="42.97807" lon="-0.74715">
        <ele>1636</ele>
        <time>2010-01-23T10:54:24Z</time>
      </trkpt>
      <trkpt lat="42.97803" lon="-0.74716">
        <ele>1636</ele>
        <time>2010-01-23T10:54:26Z</time>
      </trkpt>
      <trkpt lat="42.97795" lon="-0.74716">
        <ele>1636</ele>
        <time>2010-01-23T10:54:30Z</time>
      </trkpt>
      <trkpt lat="42.97792" lon="-0.74716">
        <ele>1637</ele>
        <time>2010-01-23T10:54:31Z</time>
      </trkpt>
      <trkpt lat="42.97783" lon="-0.74713">
        <ele>1637</ele>
        <time>2010-01-23T10:54:36Z</time>
      </trkpt>
      <trkpt lat="42.97775" lon="-0.74711">
        <ele>1638</ele>
        <time>2010-01-23T10:54:40Z</time>
      </trkpt>
      <trkpt lat="42.97766" lon="-0.7471">
        <ele>1639</ele>
        <time>2010-01-23T10:54:44Z</time>
      </trkpt>
      <trkpt lat="42.97754" lon="-0.74708">
        <ele>1639</ele>
        <time>2010-01-23T10:54:50Z</time>
      </trkpt>
      <trkpt lat="42.97742" lon="-0.74706">
        <ele>1649</ele>
        <time>2010-01-23T10:54:56Z</time>
      </trkpt>
      <trkpt lat="42.97729" lon="-0.74704">
        <ele>1649</ele>
        <time>2010-01-23T10:55:02Z</time>
      </trkpt>
      <trkpt lat="42.97726" lon="-0.74703">
        <ele>1650</ele>
        <time>2010-01-23T10:55:07Z</time>
      </trkpt>
      <trkpt lat="42.97726" lon="-0.74703">
        <ele>1650</ele>
        <time>2010-01-23T10:55:13Z</time>
      </trkpt>
      <trkpt lat="42.97726" lon="-0.74703">
        <ele>1650</ele>
        <time>2010-01-23T10:55:23Z</time>
      </trkpt>
      <trkpt lat="42.97726" lon="-0.74703">
        <ele>1650</ele>
        <time>2010-01-23T10:55:44Z</time>
      </trkpt>
      <trkpt lat="42.97722" lon="-0.74702">
        <ele>1650</ele>
        <time>2010-01-23T10:55:52Z</time>
      </trkpt>
      <trkpt lat="42.97712" lon="-0.747">
        <ele>1651</ele>
        <time>2010-01-23T10:56:00Z</time>
      </trkpt>
      <trkpt lat="42.97698" lon="-0.74698">
        <ele>1652</ele>
        <time>2010-01-23T10:56:07Z</time>
      </trkpt>
      <trkpt lat="42.97675" lon="-0.74694">
        <ele>1654</ele>
        <time>2010-01-23T10:56:18Z</time>
      </trkpt>
      <trkpt lat="42.97663" lon="-0.74692">
        <ele>1663</ele>
        <time>2010-01-23T10:56:24Z</time>
      </trkpt>
      <trkpt lat="42.97634" lon="-0.74687">
        <ele>1664</ele>
        <time>2010-01-23T10:56:38Z</time>
      </trkpt>
      <trkpt lat="42.9762" lon="-0.74685">
        <ele>1666</ele>
        <time>2010-01-23T10:56:45Z</time>
      </trkpt>
      <trkpt lat="42.9758" lon="-0.74678">
        <ele>1672</ele>
        <time>2010-01-23T10:57:05Z</time>
      </trkpt>
      <trkpt lat="42.97545" lon="-0.74671">
        <ele>1673</ele>
        <time>2010-01-23T10:57:22Z</time>
      </trkpt>
      <trkpt lat="42.97511" lon="-0.74666">
        <ele>1673</ele>
        <time>2010-01-23T10:57:38Z</time>
      </trkpt>
      <trkpt lat="42.9748" lon="-0.7466">
        <ele>1679</ele>
        <time>2010-01-23T10:57:53Z</time>
      </trkpt>
      <trkpt lat="42.97449" lon="-0.74655">
        <ele>1684</ele>
        <time>2010-01-23T10:58:08Z</time>
      </trkpt>
      <trkpt lat="42.97425" lon="-0.74651">
        <ele>1687</ele>
        <time>2010-01-23T10:58:20Z</time>
      </trkpt>
      <trkpt lat="42.97405" lon="-0.74647">
        <ele>1698</ele>
        <time>2010-01-23T10:58:30Z</time>
      </trkpt>
      <trkpt lat="42.97389" lon="-0.74644">
        <ele>1700</ele>
        <time>2010-01-23T10:58:38Z</time>
      </trkpt>
      <trkpt lat="42.97375" lon="-0.74642">
        <ele>1702</ele>
        <time>2010-01-23T10:58:45Z</time>
      </trkpt>
      <trkpt lat="42.97361" lon="-0.7464">
        <ele>1704</ele>
        <time>2010-01-23T10:58:52Z</time>
      </trkpt>
      <trkpt lat="42.97359" lon="-0.74639">
        <ele>1705</ele>
        <time>2010-01-23T10:58:53Z</time>
      </trkpt>
      <trkpt lat="42.97341" lon="-0.74636">
        <ele>1706</ele>
        <time>2010-01-23T10:59:02Z</time>
      </trkpt>
      <trkpt lat="42.9731" lon="-0.74631">
        <ele>1719</ele>
        <time>2010-01-23T10:59:17Z</time>
      </trkpt>
      <trkpt lat="42.9729" lon="-0.74627">
        <ele>1721</ele>
        <time>2010-01-23T10:59:27Z</time>
      </trkpt>
      <trkpt lat="42.9727" lon="-0.74624">
        <ele>1722</ele>
        <time>2010-01-23T10:59:37Z</time>
      </trkpt>
      <trkpt lat="42.97245" lon="-0.7462">
        <ele>1732</ele>
        <time>2010-01-23T10:59:49Z</time>
      </trkpt>
      <trkpt lat="42.97225" lon="-0.74616">
        <ele>1734</ele>
        <time>2010-01-23T10:59:59Z</time>
      </trkpt>
      <trkpt lat="42.97196" lon="-0.74611">
        <ele>1736</ele>
        <time>2010-01-23T11:00:13Z</time>
      </trkpt>
      <trkpt lat="42.97157" lon="-0.74604">
        <ele>1751</ele>
        <time>2010-01-23T11:00:32Z</time>
      </trkpt>
      <trkpt lat="42.97143" lon="-0.74601">
        <ele>1754</ele>
        <time>2010-01-23T11:00:39Z</time>
      </trkpt>
      <trkpt lat="42.97132" lon="-0.74596">
        <ele>1757</ele>
        <time>2010-01-23T11:00:43Z</time>
      </trkpt>
      <trkpt lat="42.97125" lon="-0.74581">
        <ele>1757</ele>
        <time>2010-01-23T11:00:48Z</time>
      </trkpt>
      <trkpt lat="42.97122" lon="-0.74577">
        <ele>1758</ele>
        <time>2010-01-23T11:00:50Z</time>
      </trkpt>
      <trkpt lat="42.97123" lon="-0.74576">
        <ele>1757</ele>
        <time>2010-01-23T11:00:59Z</time>
      </trkpt>
      <trkpt lat="42.97126" lon="-0.74572">
        <ele>1757</ele>
        <time>2010-01-23T11:01:06Z</time>
      </trkpt>
      <trkpt lat="42.97125" lon="-0.74573">
        <ele>1757</ele>
        <time>2010-01-23T11:01:13Z</time>
      </trkpt>
      <trkpt lat="42.97126" lon="-0.74573">
        <ele>1757</ele>
        <time>2010-01-23T11:01:35Z</time>
      </trkpt>
      <trkpt lat="42.97127" lon="-0.74571">
        <ele>1756</ele>
        <time>2010-01-23T11:01:52Z</time>
      </trkpt>
      <trkpt lat="42.97127" lon="-0.74571">
        <ele>1756</ele>
        <time>2010-01-23T11:02:03Z</time>
      </trkpt>
      <trkpt lat="42.97126" lon="-0.74571">
        <ele>1757</ele>
        <time>2010-01-23T11:02:16Z</time>
      </trkpt>
      <trkpt lat="42.97125" lon="-0.74571">
        <ele>1757</ele>
        <time>2010-01-23T11:02:37Z</time>
      </trkpt>
      <trkpt lat="42.97124" lon="-0.74572">
        <ele>1757</ele>
        <time>2010-01-23T11:03:02Z</time>
      </trkpt>
      <trkpt lat="42.97124" lon="-0.74572">
        <ele>1757</ele>
        <time>2010-01-23T11:03:14Z</time>
      </trkpt>
      <trkpt lat="42.97124" lon="-0.74572">
        <ele>1757</ele>
        <time>2010-01-23T11:03:28Z</time>
      </trkpt>
      <trkpt lat="42.97124" lon="-0.74571">
        <ele>1757</ele>
        <time>2010-01-23T11:03:38Z</time>
      </trkpt>
      <trkpt lat="42.97124" lon="-0.74571">
        <ele>1757</ele>
        <time>2010-01-23T11:03:57Z</time>
      </trkpt>
      <trkpt lat="42.97124" lon="-0.74571">
        <ele>1757</ele>
        <time>2010-01-23T11:04:07Z</time>
      </trkpt>
      <trkpt lat="42.97124" lon="-0.7457">
        <ele>1757</ele>
        <time>2010-01-23T11:04:17Z</time>
      </trkpt>
      <trkpt lat="42.97126" lon="-0.74567">
        <ele>1757</ele>
        <time>2010-01-23T11:04:23Z</time>
      </trkpt>
      <trkpt lat="42.97132" lon="-0.74564">
        <ele>1755</ele>
        <time>2010-01-23T11:04:28Z</time>
      </trkpt>
      <trkpt lat="42.97137" lon="-0.74559">
        <ele>1754</ele>
        <time>2010-01-23T11:04:33Z</time>
      </trkpt>
      <trkpt lat="42.97138" lon="-0.74558">
        <ele>1754</ele>
        <time>2010-01-23T11:04:52Z</time>
      </trkpt>
      <trkpt lat="42.9714" lon="-0.74558">
        <ele>1753</ele>
        <time>2010-01-23T11:04:56Z</time>
      </trkpt>
      <trkpt lat="42.9715" lon="-0.74554">
        <ele>1751</ele>
        <time>2010-01-23T11:05:01Z</time>
      </trkpt>
      <trkpt lat="42.97165" lon="-0.74554">
        <ele>1750</ele>
        <time>2010-01-23T11:05:04Z</time>
      </trkpt>
      <trkpt lat="42.97196" lon="-0.74563">
        <ele>1736</ele>
        <time>2010-01-23T11:05:08Z</time>
      </trkpt>
      <trkpt lat="42.97228" lon="-0.7456">
        <ele>1733</ele>
        <time>2010-01-23T11:05:12Z</time>
      </trkpt>
      <trkpt lat="42.97249" lon="-0.74536">
        <ele>1733</ele>
        <time>2010-01-23T11:05:16Z</time>
      </trkpt>
      <trkpt lat="42.9726" lon="-0.74522">
        <ele>1725</ele>
        <time>2010-01-23T11:05:18Z</time>
      </trkpt>
      <trkpt lat="42.97277" lon="-0.74494">
        <ele>1725</ele>
        <time>2010-01-23T11:05:22Z</time>
      </trkpt>
      <trkpt lat="42.97294" lon="-0.7448">
        <ele>1721</ele>
        <time>2010-01-23T11:05:25Z</time>
      </trkpt>
      <trkpt lat="42.97298" lon="-0.74473">
        <ele>1721</ele>
        <time>2010-01-23T11:05:26Z</time>
      </trkpt>
      <trkpt lat="42.97311" lon="-0.74449">
        <ele>1720</ele>
        <time>2010-01-23T11:05:29Z</time>
      </trkpt>
      <trkpt lat="42.97316" lon="-0.74435">
        <ele>1719</ele>
        <time>2010-01-23T11:05:31Z</time>
      </trkpt>
      <trkpt lat="42.97319" lon="-0.74421">
        <ele>1717</ele>
        <time>2010-01-23T11:05:34Z</time>
      </trkpt>
      <trkpt lat="42.97323" lon="-0.74415">
        <ele>1718</ele>
        <time>2010-01-23T11:05:39Z</time>
      </trkpt>
      <trkpt lat="42.97323" lon="-0.74415">
        <ele>1718</ele>
        <time>2010-01-23T11:05:54Z</time>
      </trkpt>
      <trkpt lat="42.97323" lon="-0.74414">
        <ele>1718</ele>
        <time>2010-01-23T11:06:15Z</time>
      </trkpt>
      <trkpt lat="42.97327" lon="-0.74414">
        <ele>1716</ele>
        <time>2010-01-23T11:06:25Z</time>
      </trkpt>
      <trkpt lat="42.9734" lon="-0.74404">
        <ele>1710</ele>
        <time>2010-01-23T11:06:29Z</time>
      </trkpt>
      <trkpt lat="42.97353" lon="-0.74387">
        <ele>1707</ele>
        <time>2010-01-23T11:06:33Z</time>
      </trkpt>
      <trkpt lat="42.97356" lon="-0.74369">
        <ele>1707</ele>
        <time>2010-01-23T11:06:36Z</time>
      </trkpt>
      <trkpt lat="42.97361" lon="-0.7435">
        <ele>1707</ele>
        <time>2010-01-23T11:06:39Z</time>
      </trkpt>
      <trkpt lat="42.97372" lon="-0.74325">
        <ele>1706</ele>
        <time>2010-01-23T11:06:42Z</time>
      </trkpt>
      <trkpt lat="42.97384" lon="-0.74306">
        <ele>1704</ele>
        <time>2010-01-23T11:06:44Z</time>
      </trkpt>
      <trkpt lat="42.97412" lon="-0.74248">
        <ele>1694</ele>
        <time>2010-01-23T11:06:49Z</time>
      </trkpt>
      <trkpt lat="42.97426" lon="-0.74203">
        <ele>1685</ele>
        <time>2010-01-23T11:06:53Z</time>
      </trkpt>
      <trkpt lat="42.97459" lon="-0.74114">
        <ele>1682</ele>
        <time>2010-01-23T11:07:01Z</time>
      </trkpt>
      <trkpt lat="42.97464" lon="-0.7409">
        <ele>1681</ele>
        <time>2010-01-23T11:07:03Z</time>
      </trkpt>
      <trkpt lat="42.97479" lon="-0.74046">
        <ele>1682</ele>
        <time>2010-01-23T11:07:07Z</time>
      </trkpt>
      <trkpt lat="42.97508" lon="-0.74002">
        <ele>1669</ele>
        <time>2010-01-23T11:07:12Z</time>
      </trkpt>
      <trkpt lat="42.97556" lon="-0.73945">
        <ele>1662</ele>
        <time>2010-01-23T11:07:18Z</time>
      </trkpt>
      <trkpt lat="42.97605" lon="-0.73884">
        <ele>1649</ele>
        <time>2010-01-23T11:07:24Z</time>
      </trkpt>
      <trkpt lat="42.97629" lon="-0.73852">
        <ele>1648</ele>
        <time>2010-01-23T11:07:28Z</time>
      </trkpt>
      <trkpt lat="42.97667" lon="-0.73804">
        <ele>1646</ele>
        <time>2010-01-23T11:07:35Z</time>
      </trkpt>
      <trkpt lat="42.97694" lon="-0.73749">
        <ele>1637</ele>
        <time>2010-01-23T11:07:41Z</time>
      </trkpt>
      <trkpt lat="42.97725" lon="-0.73686">
        <ele>1633</ele>
        <time>2010-01-23T11:07:48Z</time>
      </trkpt>
      <trkpt lat="42.97729" lon="-0.73677">
        <ele>1632</ele>
        <time>2010-01-23T11:07:49Z</time>
      </trkpt>
      <trkpt lat="42.97747" lon="-0.73645">
        <ele>1631</ele>
        <time>2010-01-23T11:07:53Z</time>
      </trkpt>
      <trkpt lat="42.9776" lon="-0.73627">
        <ele>1617</ele>
        <time>2010-01-23T11:07:56Z</time>
      </trkpt>
      <trkpt lat="42.97764" lon="-0.7362">
        <ele>1616</ele>
        <time>2010-01-23T11:07:57Z</time>
      </trkpt>
      <trkpt lat="42.97769" lon="-0.73601">
        <ele>1616</ele>
        <time>2010-01-23T11:07:59Z</time>
      </trkpt>
      <trkpt lat="42.97769" lon="-0.73551">
        <ele>1609</ele>
        <time>2010-01-23T11:08:03Z</time>
      </trkpt>
      <trkpt lat="42.97772" lon="-0.73535">
        <ele>1607</ele>
        <time>2010-01-23T11:08:04Z</time>
      </trkpt>
      <trkpt lat="42.97779" lon="-0.73503">
        <ele>1606</ele>
        <time>2010-01-23T11:08:06Z</time>
      </trkpt>
      <trkpt lat="42.97782" lon="-0.73445">
        <ele>1600</ele>
        <time>2010-01-23T11:08:10Z</time>
      </trkpt>
      <trkpt lat="42.9778" lon="-0.73437">
        <ele>1600</ele>
        <time>2010-01-23T11:08:11Z</time>
      </trkpt>
      <trkpt lat="42.97778" lon="-0.73426">
        <ele>1601</ele>
        <time>2010-01-23T11:08:16Z</time>
      </trkpt>
      <trkpt lat="42.97778" lon="-0.73427">
        <ele>1601</ele>
        <time>2010-01-23T11:08:28Z</time>
      </trkpt>
      <trkpt lat="42.97779" lon="-0.73427">
        <ele>1601</ele>
        <time>2010-01-23T11:08:43Z</time>
      </trkpt>
      <trkpt lat="42.97781" lon="-0.73427">
        <ele>1600</ele>
        <time>2010-01-23T11:09:04Z</time>
      </trkpt>
      <trkpt lat="42.97782" lon="-0.73426">
        <ele>1600</ele>
        <time>2010-01-23T11:09:18Z</time>
      </trkpt>
      <trkpt lat="42.97785" lon="-0.7341">
        <ele>1600</ele>
        <time>2010-01-23T11:09:22Z</time>
      </trkpt>
      <trkpt lat="42.97791" lon="-0.73396">
        <ele>1599</ele>
        <time>2010-01-23T11:09:24Z</time>
      </trkpt>
      <trkpt lat="42.97807" lon="-0.73391">
        <ele>1596</ele>
        <time>2010-01-23T11:09:27Z</time>
      </trkpt>
      <trkpt lat="42.97812" lon="-0.73395">
        <ele>1595</ele>
        <time>2010-01-23T11:09:30Z</time>
      </trkpt>
      <trkpt lat="42.97814" lon="-0.73394">
        <ele>1594</ele>
        <time>2010-01-23T11:09:35Z</time>
      </trkpt>
      <trkpt lat="42.97816" lon="-0.73392">
        <ele>1594</ele>
        <time>2010-01-23T11:09:40Z</time>
      </trkpt>
      <trkpt lat="42.97816" lon="-0.7339">
        <ele>1594</ele>
        <time>2010-01-23T11:09:58Z</time>
      </trkpt>
      <trkpt lat="42.97816" lon="-0.7339">
        <ele>1595</ele>
        <time>2010-01-23T11:10:06Z</time>
      </trkpt>
      <trkpt lat="42.97816" lon="-0.7339">
        <ele>1595</ele>
        <time>2010-01-23T11:10:19Z</time>
      </trkpt>
      <trkpt lat="42.97815" lon="-0.7339">
        <ele>1595</ele>
        <time>2010-01-23T11:10:40Z</time>
      </trkpt>
      <trkpt lat="42.97815" lon="-0.7339">
        <ele>1595</ele>
        <time>2010-01-23T11:10:55Z</time>
      </trkpt>
      <trkpt lat="42.97816" lon="-0.73389">
        <ele>1595</ele>
        <time>2010-01-23T11:11:10Z</time>
      </trkpt>
      <trkpt lat="42.97828" lon="-0.73395">
        <ele>1592</ele>
        <time>2010-01-23T11:11:14Z</time>
      </trkpt>
      <trkpt lat="42.97848" lon="-0.7339">
        <ele>1576</ele>
        <time>2010-01-23T11:11:17Z</time>
      </trkpt>
      <trkpt lat="42.97872" lon="-0.73397">
        <ele>1571</ele>
        <time>2010-01-23T11:11:20Z</time>
      </trkpt>
      <trkpt lat="42.97898" lon="-0.73391">
        <ele>1566</ele>
        <time>2010-01-23T11:11:23Z</time>
      </trkpt>
      <trkpt lat="42.9792" lon="-0.73399">
        <ele>1553</ele>
        <time>2010-01-23T11:11:25Z</time>
      </trkpt>
      <trkpt lat="42.9793" lon="-0.73408">
        <ele>1552</ele>
        <time>2010-01-23T11:11:26Z</time>
      </trkpt>
      <trkpt lat="42.97966" lon="-0.73455">
        <ele>1540</ele>
        <time>2010-01-23T11:11:30Z</time>
      </trkpt>
      <trkpt lat="42.97974" lon="-0.73484">
        <ele>1537</ele>
        <time>2010-01-23T11:11:32Z</time>
      </trkpt>
      <trkpt lat="42.97981" lon="-0.73506">
        <ele>1533</ele>
        <time>2010-01-23T11:11:34Z</time>
      </trkpt>
      <trkpt lat="42.97998" lon="-0.73514">
        <ele>1530</ele>
        <time>2010-01-23T11:11:37Z</time>
      </trkpt>
      <trkpt lat="42.98004" lon="-0.73514">
        <ele>1524</ele>
        <time>2010-01-23T11:11:40Z</time>
      </trkpt>
      <trkpt lat="42.98008" lon="-0.73517">
        <ele>1524</ele>
        <time>2010-01-23T11:11:43Z</time>
      </trkpt>
      <trkpt lat="42.98009" lon="-0.73516">
        <ele>1524</ele>
        <time>2010-01-23T11:11:54Z</time>
      </trkpt>
      <trkpt lat="42.98009" lon="-0.73516">
        <ele>1524</ele>
        <time>2010-01-23T11:12:06Z</time>
      </trkpt>
      <trkpt lat="42.98013" lon="-0.73513">
        <ele>1524</ele>
        <time>2010-01-23T11:12:24Z</time>
      </trkpt>
      <trkpt lat="42.98012" lon="-0.73514">
        <ele>1524</ele>
        <time>2010-01-23T11:12:30Z</time>
      </trkpt>
      <trkpt lat="42.98012" lon="-0.73511">
        <ele>1524</ele>
        <time>2010-01-23T11:12:40Z</time>
      </trkpt>
      <trkpt lat="42.98014" lon="-0.73505">
        <ele>1524</ele>
        <time>2010-01-23T11:12:46Z</time>
      </trkpt>
      <trkpt lat="42.98018" lon="-0.735">
        <ele>1526</ele>
        <time>2010-01-23T11:12:52Z</time>
      </trkpt>
      <trkpt lat="42.98021" lon="-0.73497">
        <ele>1526</ele>
        <time>2010-01-23T11:12:59Z</time>
      </trkpt>
      <trkpt lat="42.98023" lon="-0.73494">
        <ele>1526</ele>
        <time>2010-01-23T11:13:06Z</time>
      </trkpt>
      <trkpt lat="42.98024" lon="-0.73493">
        <ele>1526</ele>
        <time>2010-01-23T11:13:15Z</time>
      </trkpt>
      <trkpt lat="42.98025" lon="-0.73491">
        <ele>1526</ele>
        <time>2010-01-23T11:13:23Z</time>
      </trkpt>
      <trkpt lat="42.98026" lon="-0.7349">
        <ele>1526</ele>
        <time>2010-01-23T11:13:30Z</time>
      </trkpt>
      <trkpt lat="42.98026" lon="-0.73489">
        <ele>1526</ele>
        <time>2010-01-23T11:13:36Z</time>
      </trkpt>
      <trkpt lat="42.98027" lon="-0.73487">
        <ele>1527</ele>
        <time>2010-01-23T11:13:44Z</time>
      </trkpt>
      <trkpt lat="42.98028" lon="-0.73486">
        <ele>1527</ele>
        <time>2010-01-23T11:13:51Z</time>
      </trkpt>
      <trkpt lat="42.98028" lon="-0.73484">
        <ele>1527</ele>
        <time>2010-01-23T11:13:58Z</time>
      </trkpt>
      <trkpt lat="42.98029" lon="-0.73483">
        <ele>1527</ele>
        <time>2010-01-23T11:14:04Z</time>
      </trkpt>
      <trkpt lat="42.9803" lon="-0.73482">
        <ele>1527</ele>
        <time>2010-01-23T11:14:08Z</time>
      </trkpt>
      <trkpt lat="42.98029" lon="-0.73478">
        <ele>1527</ele>
        <time>2010-01-23T11:14:16Z</time>
      </trkpt>
      <trkpt lat="42.98027" lon="-0.73476">
        <ele>1527</ele>
        <time>2010-01-23T11:14:22Z</time>
      </trkpt>
      <trkpt lat="42.98026" lon="-0.73475">
        <ele>1527</ele>
        <time>2010-01-23T11:14:32Z</time>
      </trkpt>
      <trkpt lat="42.98025" lon="-0.73475">
        <ele>1527</ele>
        <time>2010-01-23T11:14:41Z</time>
      </trkpt>
      <trkpt lat="42.98023" lon="-0.73473">
        <ele>1527</ele>
        <time>2010-01-23T11:14:50Z</time>
      </trkpt>
      <trkpt lat="42.98022" lon="-0.73471">
        <ele>1528</ele>
        <time>2010-01-23T11:14:59Z</time>
      </trkpt>
      <trkpt lat="42.98022" lon="-0.73471">
        <ele>1528</ele>
        <time>2010-01-23T11:15:00Z</time>
      </trkpt>
      <trkpt lat="42.98014" lon="-0.73457">
        <ele>1529</ele>
        <time>2010-01-23T11:15:04Z</time>
      </trkpt>
      <trkpt lat="42.9801" lon="-0.73449">
        <ele>1530</ele>
        <time>2010-01-23T11:15:07Z</time>
      </trkpt>
      <trkpt lat="42.98002" lon="-0.73434">
        <ele>1531</ele>
        <time>2010-01-23T11:15:11Z</time>
      </trkpt>
      <trkpt lat="42.97993" lon="-0.73418">
        <ele>1536</ele>
        <time>2010-01-23T11:15:16Z</time>
      </trkpt>
      <trkpt lat="42.97982" lon="-0.73397">
        <ele>1547</ele>
        <time>2010-01-23T11:15:22Z</time>
      </trkpt>
      <trkpt lat="42.97969" lon="-0.73374">
        <ele>1552</ele>
        <time>2010-01-23T11:15:29Z</time>
      </trkpt>
      <trkpt lat="42.97944" lon="-0.73328">
        <ele>1567</ele>
        <time>2010-01-23T11:15:43Z</time>
      </trkpt>
      <trkpt lat="42.97931" lon="-0.73306">
        <ele>1569</ele>
        <time>2010-01-23T11:15:50Z</time>
      </trkpt>
      <trkpt lat="42.97911" lon="-0.73268">
        <ele>1581</ele>
        <time>2010-01-23T11:16:01Z</time>
      </trkpt>
      <trkpt lat="42.97902" lon="-0.73252">
        <ele>1582</ele>
        <time>2010-01-23T11:16:06Z</time>
      </trkpt>
      <trkpt lat="42.97891" lon="-0.73233">
        <ele>1595</ele>
        <time>2010-01-23T11:16:12Z</time>
      </trkpt>
      <trkpt lat="42.97872" lon="-0.732">
        <ele>1602</ele>
        <time>2010-01-23T11:16:22Z</time>
      </trkpt>
      <trkpt lat="42.9786" lon="-0.73178">
        <ele>1606</ele>
        <time>2010-01-23T11:16:29Z</time>
      </trkpt>
      <trkpt lat="42.97844" lon="-0.73149">
        <ele>1616</ele>
        <time>2010-01-23T11:16:38Z</time>
      </trkpt>
      <trkpt lat="42.97827" lon="-0.73119">
        <ele>1629</ele>
        <time>2010-01-23T11:16:48Z</time>
      </trkpt>
      <trkpt lat="42.97818" lon="-0.73103">
        <ele>1630</ele>
        <time>2010-01-23T11:16:53Z</time>
      </trkpt>
      <trkpt lat="42.97803" lon="-0.73077">
        <ele>1638</ele>
        <time>2010-01-23T11:17:01Z</time>
      </trkpt>
      <trkpt lat="42.97791" lon="-0.73055">
        <ele>1642</ele>
        <time>2010-01-23T11:17:08Z</time>
      </trkpt>
      <trkpt lat="42.97782" lon="-0.73037">
        <ele>1644</ele>
        <time>2010-01-23T11:17:13Z</time>
      </trkpt>
      <trkpt lat="42.97776" lon="-0.73028">
        <ele>1646</ele>
        <time>2010-01-23T11:17:16Z</time>
      </trkpt>
      <trkpt lat="42.97763" lon="-0.73004">
        <ele>1651</ele>
        <time>2010-01-23T11:17:24Z</time>
      </trkpt>
      <trkpt lat="42.97752" lon="-0.72984">
        <ele>1656</ele>
        <time>2010-01-23T11:17:29Z</time>
      </trkpt>
      <trkpt lat="42.97742" lon="-0.72965">
        <ele>1667</ele>
        <time>2010-01-23T11:17:35Z</time>
      </trkpt>
      <trkpt lat="42.97731" lon="-0.72947">
        <ele>1669</ele>
        <time>2010-01-23T11:17:41Z</time>
      </trkpt>
      <trkpt lat="42.97713" lon="-0.72913">
        <ele>1680</ele>
        <time>2010-01-23T11:17:52Z</time>
      </trkpt>
      <trkpt lat="42.97701" lon="-0.72891">
        <ele>1683</ele>
        <time>2010-01-23T11:17:58Z</time>
      </trkpt>
      <trkpt lat="42.97693" lon="-0.72876">
        <ele>1684</ele>
        <time>2010-01-23T11:18:03Z</time>
      </trkpt>
      <trkpt lat="42.9768" lon="-0.72853">
        <ele>1688</ele>
        <time>2010-01-23T11:18:10Z</time>
      </trkpt>
      <trkpt lat="42.97664" lon="-0.72824">
        <ele>1700</ele>
        <time>2010-01-23T11:18:19Z</time>
      </trkpt>
      <trkpt lat="42.97647" lon="-0.72795">
        <ele>1706</ele>
        <time>2010-01-23T11:18:28Z</time>
      </trkpt>
      <trkpt lat="42.9763" lon="-0.72764">
        <ele>1709</ele>
        <time>2010-01-23T11:18:38Z</time>
      </trkpt>
      <trkpt lat="42.97617" lon="-0.7274">
        <ele>1718</ele>
        <time>2010-01-23T11:18:46Z</time>
      </trkpt>
      <trkpt lat="42.97603" lon="-0.72715">
        <ele>1719</ele>
        <time>2010-01-23T11:18:53Z</time>
      </trkpt>
      <trkpt lat="42.97591" lon="-0.72691">
        <ele>1721</ele>
        <time>2010-01-23T11:19:00Z</time>
      </trkpt>
      <trkpt lat="42.97572" lon="-0.72657">
        <ele>1728</ele>
        <time>2010-01-23T11:19:09Z</time>
      </trkpt>
      <trkpt lat="42.97561" lon="-0.72635">
        <ele>1731</ele>
        <time>2010-01-23T11:19:16Z</time>
      </trkpt>
      <trkpt lat="42.97548" lon="-0.72619">
        <ele>1732</ele>
        <time>2010-01-23T11:19:21Z</time>
      </trkpt>
      <trkpt lat="42.97537" lon="-0.7261">
        <ele>1733</ele>
        <time>2010-01-23T11:19:26Z</time>
      </trkpt>
      <trkpt lat="42.97521" lon="-0.72597">
        <ele>1735</ele>
        <time>2010-01-23T11:19:32Z</time>
      </trkpt>
      <trkpt lat="42.9751" lon="-0.72589">
        <ele>1738</ele>
        <time>2010-01-23T11:19:36Z</time>
      </trkpt>
      <trkpt lat="42.97497" lon="-0.72577">
        <ele>1744</ele>
        <time>2010-01-23T11:19:42Z</time>
      </trkpt>
      <trkpt lat="42.97481" lon="-0.72565">
        <ele>1748</ele>
        <time>2010-01-23T11:19:48Z</time>
      </trkpt>
      <trkpt lat="42.97454" lon="-0.72542">
        <ele>1752</ele>
        <time>2010-01-23T11:19:59Z</time>
      </trkpt>
      <trkpt lat="42.97425" lon="-0.72519">
        <ele>1759</ele>
        <time>2010-01-23T11:20:10Z</time>
      </trkpt>
      <trkpt lat="42.97393" lon="-0.72493">
        <ele>1784</ele>
        <time>2010-01-23T11:20:23Z</time>
      </trkpt>
      <trkpt lat="42.97367" lon="-0.72471">
        <ele>1792</ele>
        <time>2010-01-23T11:20:34Z</time>
      </trkpt>
      <trkpt lat="42.97335" lon="-0.72445">
        <ele>1800</ele>
        <time>2010-01-23T11:20:47Z</time>
      </trkpt>
      <trkpt lat="42.97309" lon="-0.72424">
        <ele>1811</ele>
        <time>2010-01-23T11:20:57Z</time>
      </trkpt>
      <trkpt lat="42.97297" lon="-0.72414">
        <ele>1823</ele>
        <time>2010-01-23T11:21:02Z</time>
      </trkpt>
      <trkpt lat="42.97281" lon="-0.724">
        <ele>1825</ele>
        <time>2010-01-23T11:21:08Z</time>
      </trkpt>
      <trkpt lat="42.97263" lon="-0.72385">
        <ele>1826</ele>
        <time>2010-01-23T11:21:15Z</time>
      </trkpt>
      <trkpt lat="42.97245" lon="-0.72369">
        <ele>1841</ele>
        <time>2010-01-23T11:21:22Z</time>
      </trkpt>
      <trkpt lat="42.97223" lon="-0.7235">
        <ele>1844</ele>
        <time>2010-01-23T11:21:31Z</time>
      </trkpt>
      <trkpt lat="42.97199" lon="-0.72334">
        <ele>1850</ele>
        <time>2010-01-23T11:21:40Z</time>
      </trkpt>
      <trkpt lat="42.97177" lon="-0.72318">
        <ele>1859</ele>
        <time>2010-01-23T11:21:49Z</time>
      </trkpt>
      <trkpt lat="42.9716" lon="-0.72303">
        <ele>1875</ele>
        <time>2010-01-23T11:21:56Z</time>
      </trkpt>
      <trkpt lat="42.97142" lon="-0.7229">
        <ele>1878</ele>
        <time>2010-01-23T11:22:03Z</time>
      </trkpt>
      <trkpt lat="42.97113" lon="-0.72266">
        <ele>1884</ele>
        <time>2010-01-23T11:22:15Z</time>
      </trkpt>
      <trkpt lat="42.97096" lon="-0.72251">
        <ele>1892</ele>
        <time>2010-01-23T11:22:22Z</time>
      </trkpt>
      <trkpt lat="42.97075" lon="-0.72234">
        <ele>1904</ele>
        <time>2010-01-23T11:22:30Z</time>
      </trkpt>
      <trkpt lat="42.97051" lon="-0.72213">
        <ele>1906</ele>
        <time>2010-01-23T11:22:39Z</time>
      </trkpt>
      <trkpt lat="42.97033" lon="-0.72199">
        <ele>1908</ele>
        <time>2010-01-23T11:22:46Z</time>
      </trkpt>
      <trkpt lat="42.97014" lon="-0.72183">
        <ele>1910</ele>
        <time>2010-01-23T11:22:53Z</time>
      </trkpt>
      <trkpt lat="42.97002" lon="-0.72175">
        <ele>1912</ele>
        <time>2010-01-23T11:22:57Z</time>
      </trkpt>
      <trkpt lat="42.97001" lon="-0.72174">
        <ele>1912</ele>
        <time>2010-01-23T11:22:58Z</time>
      </trkpt>
      <trkpt lat="42.97" lon="-0.72171">
        <ele>1917</ele>
        <time>2010-01-23T11:23:06Z</time>
      </trkpt>
      <trkpt lat="42.97" lon="-0.72172">
        <ele>1917</ele>
        <time>2010-01-23T11:23:21Z</time>
      </trkpt>
      <trkpt lat="42.97" lon="-0.72171">
        <ele>1913</ele>
        <time>2010-01-23T11:23:56Z</time>
      </trkpt>
      <trkpt lat="42.97001" lon="-0.72172">
        <ele>1913</ele>
        <time>2010-01-23T11:24:09Z</time>
      </trkpt>
      <trkpt lat="42.97001" lon="-0.72172">
        <ele>1913</ele>
        <time>2010-01-23T11:24:42Z</time>
      </trkpt>
      <trkpt lat="42.97001" lon="-0.72172">
        <ele>1913</ele>
        <time>2010-01-23T11:24:53Z</time>
      </trkpt>
      <trkpt lat="42.97001" lon="-0.7217">
        <ele>1913</ele>
        <time>2010-01-23T11:25:05Z</time>
      </trkpt>
      <trkpt lat="42.97011" lon="-0.72156">
        <ele>1909</ele>
        <time>2010-01-23T11:25:08Z</time>
      </trkpt>
      <trkpt lat="42.97038" lon="-0.72141">
        <ele>1905</ele>
        <time>2010-01-23T11:25:11Z</time>
      </trkpt>
      <trkpt lat="42.9709" lon="-0.72141">
        <ele>1894</ele>
        <time>2010-01-23T11:25:16Z</time>
      </trkpt>
      <trkpt lat="42.97116" lon="-0.72152">
        <ele>1892</ele>
        <time>2010-01-23T11:25:19Z</time>
      </trkpt>
      <trkpt lat="42.97123" lon="-0.72155">
        <ele>1891</ele>
        <time>2010-01-23T11:25:20Z</time>
      </trkpt>
      <trkpt lat="42.97142" lon="-0.72168">
        <ele>1887</ele>
        <time>2010-01-23T11:25:25Z</time>
      </trkpt>
      <trkpt lat="42.97147" lon="-0.72166">
        <ele>1887</ele>
        <time>2010-01-23T11:25:27Z</time>
      </trkpt>
      <trkpt lat="42.97155" lon="-0.72169">
        <ele>1885</ele>
        <time>2010-01-23T11:25:32Z</time>
      </trkpt>
      <trkpt lat="42.97159" lon="-0.72176">
        <ele>1884</ele>
        <time>2010-01-23T11:25:35Z</time>
      </trkpt>
      <trkpt lat="42.97165" lon="-0.72191">
        <ele>1885</ele>
        <time>2010-01-23T11:25:38Z</time>
      </trkpt>
      <trkpt lat="42.97174" lon="-0.72205">
        <ele>1868</ele>
        <time>2010-01-23T11:25:41Z</time>
      </trkpt>
      <trkpt lat="42.9718" lon="-0.72228">
        <ele>1866</ele>
        <time>2010-01-23T11:25:46Z</time>
      </trkpt>
      <trkpt lat="42.97193" lon="-0.7224">
        <ele>1864</ele>
        <time>2010-01-23T11:25:49Z</time>
      </trkpt>
      <trkpt lat="42.97212" lon="-0.72253">
        <ele>1854</ele>
        <time>2010-01-23T11:25:52Z</time>
      </trkpt>
      <trkpt lat="42.97221" lon="-0.72254">
        <ele>1851</ele>
        <time>2010-01-23T11:25:53Z</time>
      </trkpt>
      <trkpt lat="42.97245" lon="-0.72251">
        <ele>1844</ele>
        <time>2010-01-23T11:25:55Z</time>
      </trkpt>
      <trkpt lat="42.97289" lon="-0.72229">
        <ele>1840</ele>
        <time>2010-01-23T11:25:59Z</time>
      </trkpt>
      <trkpt lat="42.97314" lon="-0.72219">
        <ele>1839</ele>
        <time>2010-01-23T11:26:03Z</time>
      </trkpt>
      <trkpt lat="42.97323" lon="-0.72216">
        <ele>1838</ele>
        <time>2010-01-23T11:26:06Z</time>
      </trkpt>
      <trkpt lat="42.97323" lon="-0.72214">
        <ele>1839</ele>
        <time>2010-01-23T11:26:12Z</time>
      </trkpt>
      <trkpt lat="42.97321" lon="-0.72215">
        <ele>1839</ele>
        <time>2010-01-23T11:26:28Z</time>
      </trkpt>
      <trkpt lat="42.97337" lon="-0.72217">
        <ele>1826</ele>
        <time>2010-01-23T11:26:32Z</time>
      </trkpt>
      <trkpt lat="42.97356" lon="-0.72219">
        <ele>1824</ele>
        <time>2010-01-23T11:26:36Z</time>
      </trkpt>
      <trkpt lat="42.97367" lon="-0.72224">
        <ele>1823</ele>
        <time>2010-01-23T11:26:42Z</time>
      </trkpt>
      <trkpt lat="42.97386" lon="-0.72237">
        <ele>1819</ele>
        <time>2010-01-23T11:26:47Z</time>
      </trkpt>
      <trkpt lat="42.9741" lon="-0.72249">
        <ele>1811</ele>
        <time>2010-01-23T11:26:50Z</time>
      </trkpt>
      <trkpt lat="42.97421" lon="-0.72254">
        <ele>1804</ele>
        <time>2010-01-23T11:26:51Z</time>
      </trkpt>
      <trkpt lat="42.97444" lon="-0.7226">
        <ele>1797</ele>
        <time>2010-01-23T11:26:53Z</time>
      </trkpt>
      <trkpt lat="42.97483" lon="-0.72282">
        <ele>1788</ele>
        <time>2010-01-23T11:26:57Z</time>
      </trkpt>
      <trkpt lat="42.9749" lon="-0.7229">
        <ele>1788</ele>
        <time>2010-01-23T11:26:58Z</time>
      </trkpt>
      <trkpt lat="42.97515" lon="-0.7234">
        <ele>1769</ele>
        <time>2010-01-23T11:27:03Z</time>
      </trkpt>
      <trkpt lat="42.97522" lon="-0.72367">
        <ele>1761</ele>
        <time>2010-01-23T11:27:05Z</time>
      </trkpt>
      <trkpt lat="42.97528" lon="-0.72433">
        <ele>1753</ele>
        <time>2010-01-23T11:27:09Z</time>
      </trkpt>
      <trkpt lat="42.97541" lon="-0.72466">
        <ele>1750</ele>
        <time>2010-01-23T11:27:12Z</time>
      </trkpt>
      <trkpt lat="42.97548" lon="-0.72476">
        <ele>1748</ele>
        <time>2010-01-23T11:27:15Z</time>
      </trkpt>
      <trkpt lat="42.97549" lon="-0.72475">
        <ele>1748</ele>
        <time>2010-01-23T11:27:18Z</time>
      </trkpt>
      <trkpt lat="42.97548" lon="-0.72475">
        <ele>1748</ele>
        <time>2010-01-23T11:27:34Z</time>
      </trkpt>
      <trkpt lat="42.97548" lon="-0.72475">
        <ele>1748</ele>
        <time>2010-01-23T11:27:41Z</time>
      </trkpt>
      <trkpt lat="42.97548" lon="-0.72475">
        <ele>1748</ele>
        <time>2010-01-23T11:27:48Z</time>
      </trkpt>
      <trkpt lat="42.97548" lon="-0.72475">
        <ele>1748</ele>
        <time>2010-01-23T11:28:06Z</time>
      </trkpt>
      <trkpt lat="42.97551" lon="-0.72476">
        <ele>1748</ele>
        <time>2010-01-23T11:28:54Z</time>
      </trkpt>
      <trkpt lat="42.9756" lon="-0.72487">
        <ele>1747</ele>
        <time>2010-01-23T11:29:00Z</time>
      </trkpt>
      <trkpt lat="42.9756" lon="-0.72489">
        <ele>1746</ele>
        <time>2010-01-23T11:29:10Z</time>
      </trkpt>
      <trkpt lat="42.97559" lon="-0.72489">
        <ele>1747</ele>
        <time>2010-01-23T11:29:20Z</time>
      </trkpt>
      <trkpt lat="42.97559" lon="-0.72489">
        <ele>1747</ele>
        <time>2010-01-23T11:29:32Z</time>
      </trkpt>
      <trkpt lat="42.97559" lon="-0.72488">
        <ele>1747</ele>
        <time>2010-01-23T11:29:54Z</time>
      </trkpt>
      <trkpt lat="42.97559" lon="-0.72488">
        <ele>1747</ele>
        <time>2010-01-23T11:30:08Z</time>
      </trkpt>
      <trkpt lat="42.9756" lon="-0.72488">
        <ele>1747</ele>
        <time>2010-01-23T11:30:36Z</time>
      </trkpt>
      <trkpt lat="42.9756" lon="-0.72488">
        <ele>1747</ele>
        <time>2010-01-23T11:30:47Z</time>
      </trkpt>
      <trkpt lat="42.9756" lon="-0.72487">
        <ele>1747</ele>
        <time>2010-01-23T11:30:57Z</time>
      </trkpt>
      <trkpt lat="42.9756" lon="-0.72487">
        <ele>1747</ele>
        <time>2010-01-23T11:31:09Z</time>
      </trkpt>
      <trkpt lat="42.97559" lon="-0.72488">
        <ele>1747</ele>
        <time>2010-01-23T11:31:22Z</time>
      </trkpt>
      <trkpt lat="42.9756" lon="-0.72489">
        <ele>1746</ele>
        <time>2010-01-23T11:31:51Z</time>
      </trkpt>
      <trkpt lat="42.97561" lon="-0.72489">
        <ele>1746</ele>
        <time>2010-01-23T11:31:59Z</time>
      </trkpt>
      <trkpt lat="42.9756" lon="-0.72489">
        <ele>1746</ele>
        <time>2010-01-23T11:32:13Z</time>
      </trkpt>
      <trkpt lat="42.97559" lon="-0.72489">
        <ele>1747</ele>
        <time>2010-01-23T11:32:38Z</time>
      </trkpt>
      <trkpt lat="42.97559" lon="-0.72489">
        <ele>1747</ele>
        <time>2010-01-23T11:32:49Z</time>
      </trkpt>
      <trkpt lat="42.97559" lon="-0.72489">
        <ele>1747</ele>
        <time>2010-01-23T11:33:09Z</time>
      </trkpt>
      <trkpt lat="42.97559" lon="-0.7249">
        <ele>1747</ele>
        <time>2010-01-23T11:33:40Z</time>
      </trkpt>
      <trkpt lat="42.97559" lon="-0.72489">
        <ele>1747</ele>
        <time>2010-01-23T11:33:56Z</time>
      </trkpt>
      <trkpt lat="42.97561" lon="-0.72494">
        <ele>1746</ele>
        <time>2010-01-23T11:34:19Z</time>
      </trkpt>
      <trkpt lat="42.97562" lon="-0.72498">
        <ele>1746</ele>
        <time>2010-01-23T11:34:28Z</time>
      </trkpt>
      <trkpt lat="42.97568" lon="-0.72516">
        <ele>1741</ele>
        <time>2010-01-23T11:34:33Z</time>
      </trkpt>
      <trkpt lat="42.97577" lon="-0.72532">
        <ele>1741</ele>
        <time>2010-01-23T11:34:36Z</time>
      </trkpt>
      <trkpt lat="42.97588" lon="-0.72547">
        <ele>1735</ele>
        <time>2010-01-23T11:34:39Z</time>
      </trkpt>
      <trkpt lat="42.9759" lon="-0.72554">
        <ele>1734</ele>
        <time>2010-01-23T11:34:40Z</time>
      </trkpt>
      <trkpt lat="42.976" lon="-0.72583">
        <ele>1734</ele>
        <time>2010-01-23T11:34:45Z</time>
      </trkpt>
      <trkpt lat="42.97608" lon="-0.72598">
        <ele>1729</ele>
        <time>2010-01-23T11:34:47Z</time>
      </trkpt>
      <trkpt lat="42.97632" lon="-0.72641">
        <ele>1725</ele>
        <time>2010-01-23T11:34:52Z</time>
      </trkpt>
      <trkpt lat="42.97641" lon="-0.72663">
        <ele>1723</ele>
        <time>2010-01-23T11:34:54Z</time>
      </trkpt>
      <trkpt lat="42.97653" lon="-0.72701">
        <ele>1717</ele>
        <time>2010-01-23T11:34:57Z</time>
      </trkpt>
      <trkpt lat="42.97663" lon="-0.72745">
        <ele>1710</ele>
        <time>2010-01-23T11:35:01Z</time>
      </trkpt>
      <trkpt lat="42.97666" lon="-0.72763">
        <ele>1707</ele>
        <time>2010-01-23T11:35:03Z</time>
      </trkpt>
      <trkpt lat="42.97675" lon="-0.72781">
        <ele>1698</ele>
        <time>2010-01-23T11:35:05Z</time>
      </trkpt>
      <trkpt lat="42.97695" lon="-0.72811">
        <ele>1695</ele>
        <time>2010-01-23T11:35:08Z</time>
      </trkpt>
      <trkpt lat="42.97732" lon="-0.72866">
        <ele>1681</ele>
        <time>2010-01-23T11:35:13Z</time>
      </trkpt>
      <trkpt lat="42.97752" lon="-0.72909">
        <ele>1667</ele>
        <time>2010-01-23T11:35:17Z</time>
      </trkpt>
      <trkpt lat="42.97769" lon="-0.72945">
        <ele>1658</ele>
        <time>2010-01-23T11:35:20Z</time>
      </trkpt>
      <trkpt lat="42.97785" lon="-0.72966">
        <ele>1656</ele>
        <time>2010-01-23T11:35:22Z</time>
      </trkpt>
      <trkpt lat="42.97797" lon="-0.72987">
        <ele>1653</ele>
        <time>2010-01-23T11:35:24Z</time>
      </trkpt>
      <trkpt lat="42.97815" lon="-0.73026">
        <ele>1642</ele>
        <time>2010-01-23T11:35:28Z</time>
      </trkpt>
      <trkpt lat="42.97825" lon="-0.73053">
        <ele>1638</ele>
        <time>2010-01-23T11:35:31Z</time>
      </trkpt>
      <trkpt lat="42.97845" lon="-0.73086">
        <ele>1622</ele>
        <time>2010-01-23T11:35:35Z</time>
      </trkpt>
      <trkpt lat="42.97862" lon="-0.7311">
        <ele>1618</ele>
        <time>2010-01-23T11:35:38Z</time>
      </trkpt>
      <trkpt lat="42.97874" lon="-0.73142">
        <ele>1614</ele>
        <time>2010-01-23T11:35:41Z</time>
      </trkpt>
      <trkpt lat="42.97901" lon="-0.73199">
        <ele>1599</ele>
        <time>2010-01-23T11:35:46Z</time>
      </trkpt>
      <trkpt lat="42.97914" lon="-0.73228">
        <ele>1592</ele>
        <time>2010-01-23T11:35:48Z</time>
      </trkpt>
      <trkpt lat="42.9792" lon="-0.73244">
        <ele>1583</ele>
        <time>2010-01-23T11:35:49Z</time>
      </trkpt>
      <trkpt lat="42.9796" lon="-0.73316">
        <ele>1569</ele>
        <time>2010-01-23T11:35:54Z</time>
      </trkpt>
      <trkpt lat="42.97992" lon="-0.73366">
        <ele>1553</ele>
        <time>2010-01-23T11:35:58Z</time>
      </trkpt>
      <trkpt lat="42.98009" lon="-0.73403">
        <ele>1541</ele>
        <time>2010-01-23T11:36:01Z</time>
      </trkpt>
      <trkpt lat="42.98006" lon="-0.73415">
        <ele>1538</ele>
        <time>2010-01-23T11:36:03Z</time>
      </trkpt>
      <trkpt lat="42.98003" lon="-0.73418">
        <ele>1534</ele>
        <time>2010-01-23T11:36:04Z</time>
      </trkpt>
      <trkpt lat="42.97997" lon="-0.73474">
        <ele>1534</ele>
        <time>2010-01-23T11:36:11Z</time>
      </trkpt>
      <trkpt lat="42.98005" lon="-0.73508">
        <ele>1524</ele>
        <time>2010-01-23T11:36:16Z</time>
      </trkpt>
      <trkpt lat="42.98012" lon="-0.73506">
        <ele>1524</ele>
        <time>2010-01-23T11:36:19Z</time>
      </trkpt>
      <trkpt lat="42.98015" lon="-0.735">
        <ele>1526</ele>
        <time>2010-01-23T11:36:26Z</time>
      </trkpt>
      <trkpt lat="42.98019" lon="-0.73498">
        <ele>1526</ele>
        <time>2010-01-23T11:36:32Z</time>
      </trkpt>
      <trkpt lat="42.98023" lon="-0.73494">
        <ele>1526</ele>
        <time>2010-01-23T11:36:36Z</time>
      </trkpt>
      <trkpt lat="42.98025" lon="-0.73491">
        <ele>1526</ele>
        <time>2010-01-23T11:36:43Z</time>
      </trkpt>
      <trkpt lat="42.98026" lon="-0.73489">
        <ele>1527</ele>
        <time>2010-01-23T11:36:51Z</time>
      </trkpt>
      <trkpt lat="42.98028" lon="-0.73486">
        <ele>1527</ele>
        <time>2010-01-23T11:36:58Z</time>
      </trkpt>
      <trkpt lat="42.9803" lon="-0.73484">
        <ele>1527</ele>
        <time>2010-01-23T11:37:04Z</time>
      </trkpt>
      <trkpt lat="42.98028" lon="-0.73477">
        <ele>1527</ele>
        <time>2010-01-23T11:37:11Z</time>
      </trkpt>
      <trkpt lat="42.98024" lon="-0.73471">
        <ele>1528</ele>
        <time>2010-01-23T11:37:17Z</time>
      </trkpt>
      <trkpt lat="42.98021" lon="-0.73465">
        <ele>1528</ele>
        <time>2010-01-23T11:37:21Z</time>
      </trkpt>
      <trkpt lat="42.98013" lon="-0.73452">
        <ele>1529</ele>
        <time>2010-01-23T11:37:25Z</time>
      </trkpt>
      <trkpt lat="42.98007" lon="-0.7344">
        <ele>1531</ele>
        <time>2010-01-23T11:37:28Z</time>
      </trkpt>
      <trkpt lat="42.98" lon="-0.73428">
        <ele>1533</ele>
        <time>2010-01-23T11:37:32Z</time>
      </trkpt>
      <trkpt lat="42.97991" lon="-0.73411">
        <ele>1541</ele>
        <time>2010-01-23T11:37:37Z</time>
      </trkpt>
      <trkpt lat="42.9798" lon="-0.7339">
        <ele>1549</ele>
        <time>2010-01-23T11:37:43Z</time>
      </trkpt>
      <trkpt lat="42.97967" lon="-0.73368">
        <ele>1553</ele>
        <time>2010-01-23T11:37:50Z</time>
      </trkpt>
      <trkpt lat="42.97954" lon="-0.73345">
        <ele>1555</ele>
        <time>2010-01-23T11:37:57Z</time>
      </trkpt>
      <trkpt lat="42.97942" lon="-0.73322">
        <ele>1568</ele>
        <time>2010-01-23T11:38:04Z</time>
      </trkpt>
      <trkpt lat="42.97931" lon="-0.73303">
        <ele>1570</ele>
        <time>2010-01-23T11:38:10Z</time>
      </trkpt>
      <trkpt lat="42.97914" lon="-0.73273">
        <ele>1581</ele>
        <time>2010-01-23T11:38:19Z</time>
      </trkpt>
      <trkpt lat="42.97898" lon="-0.73244">
        <ele>1591</ele>
        <time>2010-01-23T11:38:28Z</time>
      </trkpt>
      <trkpt lat="42.97884" lon="-0.73217">
        <ele>1599</ele>
        <time>2010-01-23T11:38:36Z</time>
      </trkpt>
      <trkpt lat="42.97871" lon="-0.73195">
        <ele>1603</ele>
        <time>2010-01-23T11:38:43Z</time>
      </trkpt>
      <trkpt lat="42.97857" lon="-0.7317">
        <ele>1607</ele>
        <time>2010-01-23T11:38:51Z</time>
      </trkpt>
      <trkpt lat="42.97843" lon="-0.73145">
        <ele>1616</ele>
        <time>2010-01-23T11:38:59Z</time>
      </trkpt>
      <trkpt lat="42.97826" lon="-0.73114">
        <ele>1629</ele>
        <time>2010-01-23T11:39:09Z</time>
      </trkpt>
      <trkpt lat="42.97816" lon="-0.73094">
        <ele>1630</ele>
        <time>2010-01-23T11:39:15Z</time>
      </trkpt>
      <trkpt lat="42.97799" lon="-0.73065">
        <ele>1640</ele>
        <time>2010-01-23T11:39:24Z</time>
      </trkpt>
      <trkpt lat="42.97788" lon="-0.73045">
        <ele>1643</ele>
        <time>2010-01-23T11:39:30Z</time>
      </trkpt>
      <trkpt lat="42.97781" lon="-0.73032">
        <ele>1645</ele>
        <time>2010-01-23T11:39:34Z</time>
      </trkpt>
      <trkpt lat="42.97774" lon="-0.7302">
        <ele>1647</ele>
        <time>2010-01-23T11:39:38Z</time>
      </trkpt>
      <trkpt lat="42.97764" lon="-0.73002">
        <ele>1650</ele>
        <time>2010-01-23T11:39:44Z</time>
      </trkpt>
      <trkpt lat="42.97753" lon="-0.72983">
        <ele>1656</ele>
        <time>2010-01-23T11:39:49Z</time>
      </trkpt>
      <trkpt lat="42.97741" lon="-0.72961">
        <ele>1668</ele>
        <time>2010-01-23T11:39:56Z</time>
      </trkpt>
      <trkpt lat="42.97734" lon="-0.72949">
        <ele>1669</ele>
        <time>2010-01-23T11:40:00Z</time>
      </trkpt>
      <trkpt lat="42.97724" lon="-0.72931">
        <ele>1671</ele>
        <time>2010-01-23T11:40:06Z</time>
      </trkpt>
      <trkpt lat="42.97706" lon="-0.72899">
        <ele>1681</ele>
        <time>2010-01-23T11:40:16Z</time>
      </trkpt>
      <trkpt lat="42.97695" lon="-0.72879">
        <ele>1684</ele>
        <time>2010-01-23T11:40:22Z</time>
      </trkpt>
      <trkpt lat="42.97684" lon="-0.72859">
        <ele>1687</ele>
        <time>2010-01-23T11:40:28Z</time>
      </trkpt>
      <trkpt lat="42.97672" lon="-0.72836">
        <ele>1693</ele>
        <time>2010-01-23T11:40:35Z</time>
      </trkpt>
      <trkpt lat="42.9766" lon="-0.72816">
        <ele>1702</ele>
        <time>2010-01-23T11:40:41Z</time>
      </trkpt>
      <trkpt lat="42.97647" lon="-0.72794">
        <ele>1706</ele>
        <time>2010-01-23T11:40:48Z</time>
      </trkpt>
      <trkpt lat="42.97635" lon="-0.72772">
        <ele>1708</ele>
        <time>2010-01-23T11:40:55Z</time>
      </trkpt>
      <trkpt lat="42.97616" lon="-0.72739">
        <ele>1718</ele>
        <time>2010-01-23T11:41:06Z</time>
      </trkpt>
      <trkpt lat="42.97606" lon="-0.72718">
        <ele>1719</ele>
        <time>2010-01-23T11:41:12Z</time>
      </trkpt>
      <trkpt lat="42.97593" lon="-0.72694">
        <ele>1720</ele>
        <time>2010-01-23T11:41:19Z</time>
      </trkpt>
      <trkpt lat="42.9758" lon="-0.72672">
        <ele>1725</ele>
        <time>2010-01-23T11:41:25Z</time>
      </trkpt>
      <trkpt lat="42.97567" lon="-0.72648">
        <ele>1729</ele>
        <time>2010-01-23T11:41:32Z</time>
      </trkpt>
      <trkpt lat="42.97553" lon="-0.72624">
        <ele>1732</ele>
        <time>2010-01-23T11:41:39Z</time>
      </trkpt>
      <trkpt lat="42.97545" lon="-0.72617">
        <ele>1732</ele>
        <time>2010-01-23T11:41:43Z</time>
      </trkpt>
      <trkpt lat="42.97536" lon="-0.7261">
        <ele>1733</ele>
        <time>2010-01-23T11:41:46Z</time>
      </trkpt>
      <trkpt lat="42.97525" lon="-0.72601">
        <ele>1734</ele>
        <time>2010-01-23T11:41:50Z</time>
      </trkpt>
      <trkpt lat="42.97514" lon="-0.72592">
        <ele>1736</ele>
        <time>2010-01-23T11:41:54Z</time>
      </trkpt>
      <trkpt lat="42.97505" lon="-0.72585">
        <ele>1739</ele>
        <time>2010-01-23T11:41:58Z</time>
      </trkpt>
      <trkpt lat="42.97492" lon="-0.72574">
        <ele>1745</ele>
        <time>2010-01-23T11:42:03Z</time>
      </trkpt>
      <trkpt lat="42.97479" lon="-0.72564">
        <ele>1748</ele>
        <time>2010-01-23T11:42:08Z</time>
      </trkpt>
      <trkpt lat="42.97466" lon="-0.72554">
        <ele>1750</ele>
        <time>2010-01-23T11:42:13Z</time>
      </trkpt>
      <trkpt lat="42.97453" lon="-0.72543">
        <ele>1752</ele>
        <time>2010-01-23T11:42:18Z</time>
      </trkpt>
      <trkpt lat="42.97437" lon="-0.7253">
        <ele>1755</ele>
        <time>2010-01-23T11:42:24Z</time>
      </trkpt>
      <trkpt lat="42.97416" lon="-0.72513">
        <ele>1769</ele>
        <time>2010-01-23T11:42:32Z</time>
      </trkpt>
      <trkpt lat="42.97394" lon="-0.72494">
        <ele>1783</ele>
        <time>2010-01-23T11:42:41Z</time>
      </trkpt>
      <trkpt lat="42.97368" lon="-0.72473">
        <ele>1792</ele>
        <time>2010-01-23T11:42:52Z</time>
      </trkpt>
      <trkpt lat="42.97348" lon="-0.72456">
        <ele>1796</ele>
        <time>2010-01-23T11:43:00Z</time>
      </trkpt>
      <trkpt lat="42.97325" lon="-0.72437">
        <ele>1810</ele>
        <time>2010-01-23T11:43:09Z</time>
      </trkpt>
      <trkpt lat="42.97309" lon="-0.72424">
        <ele>1811</ele>
        <time>2010-01-23T11:43:15Z</time>
      </trkpt>
      <trkpt lat="42.9729" lon="-0.72407">
        <ele>1824</ele>
        <time>2010-01-23T11:43:22Z</time>
      </trkpt>
      <trkpt lat="42.97269" lon="-0.7239">
        <ele>1826</ele>
        <time>2010-01-23T11:43:30Z</time>
      </trkpt>
      <trkpt lat="42.97253" lon="-0.72377">
        <ele>1828</ele>
        <time>2010-01-23T11:43:36Z</time>
      </trkpt>
      <trkpt lat="42.97231" lon="-0.7236">
        <ele>1843</ele>
        <time>2010-01-23T11:43:44Z</time>
      </trkpt>
      <trkpt lat="42.97208" lon="-0.72342">
        <ele>1848</ele>
        <time>2010-01-23T11:43:53Z</time>
      </trkpt>
      <trkpt lat="42.97183" lon="-0.72323">
        <ele>1858</ele>
        <time>2010-01-23T11:44:03Z</time>
      </trkpt>
      <trkpt lat="42.97161" lon="-0.72305">
        <ele>1874</ele>
        <time>2010-01-23T11:44:12Z</time>
      </trkpt>
      <trkpt lat="42.97146" lon="-0.72293">
        <ele>1877</ele>
        <time>2010-01-23T11:44:18Z</time>
      </trkpt>
      <trkpt lat="42.97122" lon="-0.72274">
        <ele>1882</ele>
        <time>2010-01-23T11:44:28Z</time>
      </trkpt>
      <trkpt lat="42.97105" lon="-0.72258">
        <ele>1888</ele>
        <time>2010-01-23T11:44:35Z</time>
      </trkpt>
      <trkpt lat="42.97087" lon="-0.72243">
        <ele>1897</ele>
        <time>2010-01-23T11:44:42Z</time>
      </trkpt>
      <trkpt lat="42.97066" lon="-0.72226">
        <ele>1905</ele>
        <time>2010-01-23T11:44:50Z</time>
      </trkpt>
      <trkpt lat="42.97047" lon="-0.7221">
        <ele>1907</ele>
        <time>2010-01-23T11:44:57Z</time>
      </trkpt>
      <trkpt lat="42.97032" lon="-0.72197">
        <ele>1908</ele>
        <time>2010-01-23T11:45:03Z</time>
      </trkpt>
      <trkpt lat="42.97016" lon="-0.72182">
        <ele>1910</ele>
        <time>2010-01-23T11:45:09Z</time>
      </trkpt>
      <trkpt lat="42.97001" lon="-0.72176">
        <ele>1912</ele>
        <time>2010-01-23T11:45:13Z</time>
      </trkpt>
      <trkpt lat="42.96999" lon="-0.72175">
        <ele>1919</ele>
        <time>2010-01-23T11:45:18Z</time>
      </trkpt>
      <trkpt lat="42.96999" lon="-0.72175">
        <ele>1919</ele>
        <time>2010-01-23T11:45:25Z</time>
      </trkpt>
      <trkpt lat="42.96998" lon="-0.72177">
        <ele>1920</ele>
        <time>2010-01-23T11:45:33Z</time>
      </trkpt>
      <trkpt lat="42.96997" lon="-0.7218">
        <ele>1921</ele>
        <time>2010-01-23T11:45:41Z</time>
      </trkpt>
      <trkpt lat="42.96997" lon="-0.72183">
        <ele>1922</ele>
        <time>2010-01-23T11:45:47Z</time>
      </trkpt>
      <trkpt lat="42.96998" lon="-0.72186">
        <ele>1923</ele>
        <time>2010-01-23T11:45:53Z</time>
      </trkpt>
      <trkpt lat="42.96998" lon="-0.7219">
        <ele>1923</ele>
        <time>2010-01-23T11:46:00Z</time>
      </trkpt>
      <trkpt lat="42.96999" lon="-0.72191">
        <ele>1924</ele>
        <time>2010-01-23T11:46:13Z</time>
      </trkpt>
      <trkpt lat="42.97" lon="-0.72192">
        <ele>1924</ele>
        <time>2010-01-23T11:46:27Z</time>
      </trkpt>
      <trkpt lat="42.97" lon="-0.72191">
        <ele>1924</ele>
        <time>2010-01-23T11:46:36Z</time>
      </trkpt>
      <trkpt lat="42.97" lon="-0.72191">
        <ele>1910</ele>
        <time>2010-01-23T11:47:14Z</time>
      </trkpt>
      <trkpt lat="42.97" lon="-0.7219">
        <ele>1910</ele>
        <time>2010-01-23T11:47:26Z</time>
      </trkpt>
      <trkpt lat="42.97" lon="-0.7219">
        <ele>1910</ele>
        <time>2010-01-23T11:47:41Z</time>
      </trkpt>
      <trkpt lat="42.97001" lon="-0.7219">
        <ele>1910</ele>
        <time>2010-01-23T11:47:59Z</time>
      </trkpt>
      <trkpt lat="42.97" lon="-0.7219">
        <ele>1910</ele>
        <time>2010-01-23T11:48:15Z</time>
      </trkpt>
      <trkpt lat="42.97" lon="-0.7219">
        <ele>1910</ele>
        <time>2010-01-23T11:48:27Z</time>
      </trkpt>
      <trkpt lat="42.97" lon="-0.72191">
        <ele>1910</ele>
        <time>2010-01-23T11:48:40Z</time>
      </trkpt>
      <trkpt lat="42.97001" lon="-0.72191">
        <ele>1910</ele>
        <time>2010-01-23T11:48:50Z</time>
      </trkpt>
      <trkpt lat="42.97001" lon="-0.72191">
        <ele>1910</ele>
        <time>2010-01-23T11:49:04Z</time>
      </trkpt>
      <trkpt lat="42.97001" lon="-0.72191">
        <ele>1910</ele>
        <time>2010-01-23T11:49:17Z</time>
      </trkpt>
      <trkpt lat="42.97" lon="-0.72193">
        <ele>1924</ele>
        <time>2010-01-23T11:49:50Z</time>
      </trkpt>
      <trkpt lat="42.97" lon="-0.72193">
        <ele>1924</ele>
        <time>2010-01-23T11:50:00Z</time>
      </trkpt>
      <trkpt lat="42.97" lon="-0.72191">
        <ele>1910</ele>
        <time>2010-01-23T11:50:15Z</time>
      </trkpt>
      <trkpt lat="42.96999" lon="-0.72191">
        <ele>1924</ele>
        <time>2010-01-23T11:50:25Z</time>
      </trkpt>
      <trkpt lat="42.96999" lon="-0.72192">
        <ele>1924</ele>
        <time>2010-01-23T11:50:34Z</time>
      </trkpt>
      <trkpt lat="42.97" lon="-0.72192">
        <ele>1924</ele>
        <time>2010-01-23T11:50:43Z</time>
      </trkpt>
      <trkpt lat="42.97" lon="-0.72188">
        <ele>1923</ele>
        <time>2010-01-23T11:51:08Z</time>
      </trkpt>
      <trkpt lat="42.97002" lon="-0.72184">
        <ele>1911</ele>
        <time>2010-01-23T11:51:11Z</time>
      </trkpt>
      <trkpt lat="42.97003" lon="-0.72174">
        <ele>1912</ele>
        <time>2010-01-23T11:51:15Z</time>
      </trkpt>
      <trkpt lat="42.97003" lon="-0.72163">
        <ele>1912</ele>
        <time>2010-01-23T11:51:17Z</time>
      </trkpt>
      <trkpt lat="42.97028" lon="-0.72145">
        <ele>1906</ele>
        <time>2010-01-23T11:51:21Z</time>
      </trkpt>
      <trkpt lat="42.97063" lon="-0.72138">
        <ele>1903</ele>
        <time>2010-01-23T11:51:25Z</time>
      </trkpt>
      <trkpt lat="42.97099" lon="-0.72142">
        <ele>1893</ele>
        <time>2010-01-23T11:51:29Z</time>
      </trkpt>
      <trkpt lat="42.97123" lon="-0.72144">
        <ele>1891</ele>
        <time>2010-01-23T11:51:32Z</time>
      </trkpt>
      <trkpt lat="42.97141" lon="-0.72158">
        <ele>1888</ele>
        <time>2010-01-23T11:51:36Z</time>
      </trkpt>
      <trkpt lat="42.97144" lon="-0.72163">
        <ele>1888</ele>
        <time>2010-01-23T11:51:37Z</time>
      </trkpt>
      <trkpt lat="42.97156" lon="-0.72186">
        <ele>1885</ele>
        <time>2010-01-23T11:51:42Z</time>
      </trkpt>
      <trkpt lat="42.97165" lon="-0.72204">
        <ele>1885</ele>
        <time>2010-01-23T11:51:45Z</time>
      </trkpt>
      <trkpt lat="42.97177" lon="-0.72221">
        <ele>1867</ele>
        <time>2010-01-23T11:51:48Z</time>
      </trkpt>
      <trkpt lat="42.97182" lon="-0.72248">
        <ele>1867</ele>
        <time>2010-01-23T11:51:52Z</time>
      </trkpt>
      <trkpt lat="42.97193" lon="-0.7225">
        <ele>1859</ele>
        <time>2010-01-23T11:51:55Z</time>
      </trkpt>
      <trkpt lat="42.97203" lon="-0.72251">
        <ele>1856</ele>
        <time>2010-01-23T11:51:57Z</time>
      </trkpt>
      <trkpt lat="42.9721" lon="-0.72263">
        <ele>1854</ele>
        <time>2010-01-23T11:52:00Z</time>
      </trkpt>
      <trkpt lat="42.97211" lon="-0.72267">
        <ele>1854</ele>
        <time>2010-01-23T11:52:03Z</time>
      </trkpt>
      <trkpt lat="42.97217" lon="-0.72283">
        <ele>1852</ele>
        <time>2010-01-23T11:52:08Z</time>
      </trkpt>
      <trkpt lat="42.97219" lon="-0.72302">
        <ele>1852</ele>
        <time>2010-01-23T11:52:11Z</time>
      </trkpt>
      <trkpt lat="42.97222" lon="-0.72327">
        <ele>1850</ele>
        <time>2010-01-23T11:52:14Z</time>
      </trkpt>
      <trkpt lat="42.97238" lon="-0.72365">
        <ele>1842</ele>
        <time>2010-01-23T11:52:18Z</time>
      </trkpt>
      <trkpt lat="42.9726" lon="-0.72383">
        <ele>1827</ele>
        <time>2010-01-23T11:52:21Z</time>
      </trkpt>
      <trkpt lat="42.97278" lon="-0.72396">
        <ele>1825</ele>
        <time>2010-01-23T11:52:24Z</time>
      </trkpt>
      <trkpt lat="42.97285" lon="-0.72413">
        <ele>1824</ele>
        <time>2010-01-23T11:52:27Z</time>
      </trkpt>
      <trkpt lat="42.97281" lon="-0.72419">
        <ele>1813</ele>
        <time>2010-01-23T11:52:30Z</time>
      </trkpt>
      <trkpt lat="42.97278" lon="-0.72421">
        <ele>1813</ele>
        <time>2010-01-23T11:52:36Z</time>
      </trkpt>
      <trkpt lat="42.97277" lon="-0.7242">
        <ele>1814</ele>
        <time>2010-01-23T11:52:42Z</time>
      </trkpt>
      <trkpt lat="42.97277" lon="-0.72418">
        <ele>1814</ele>
        <time>2010-01-23T11:52:54Z</time>
      </trkpt>
      <trkpt lat="42.97276" lon="-0.72418">
        <ele>1814</ele>
        <time>2010-01-23T11:53:04Z</time>
      </trkpt>
      <trkpt lat="42.97276" lon="-0.72417">
        <ele>1814</ele>
        <time>2010-01-23T11:53:12Z</time>
      </trkpt>
      <trkpt lat="42.97276" lon="-0.72415">
        <ele>1824</ele>
        <time>2010-01-23T11:53:29Z</time>
      </trkpt>
      <trkpt lat="42.97276" lon="-0.72415">
        <ele>1824</ele>
        <time>2010-01-23T11:53:35Z</time>
      </trkpt>
      <trkpt lat="42.97274" lon="-0.72412">
        <ele>1824</ele>
        <time>2010-01-23T11:53:43Z</time>
      </trkpt>
      <trkpt lat="42.97274" lon="-0.72411">
        <ele>1824</ele>
        <time>2010-01-23T11:53:51Z</time>
      </trkpt>
      <trkpt lat="42.97272" lon="-0.72409">
        <ele>1824</ele>
        <time>2010-01-23T11:54:00Z</time>
      </trkpt>
      <trkpt lat="42.97272" lon="-0.72407">
        <ele>1824</ele>
        <time>2010-01-23T11:54:10Z</time>
      </trkpt>
      <trkpt lat="42.9727" lon="-0.72405">
        <ele>1824</ele>
        <time>2010-01-23T11:54:15Z</time>
      </trkpt>
      <trkpt lat="42.97269" lon="-0.72404">
        <ele>1824</ele>
        <time>2010-01-23T11:54:21Z</time>
      </trkpt>
      <trkpt lat="42.97266" lon="-0.724">
        <ele>1825</ele>
        <time>2010-01-23T11:54:26Z</time>
      </trkpt>
      <trkpt lat="42.97266" lon="-0.72398">
        <ele>1825</ele>
        <time>2010-01-23T11:54:30Z</time>
      </trkpt>
      <trkpt lat="42.97265" lon="-0.72398">
        <ele>1825</ele>
        <time>2010-01-23T11:54:31Z</time>
      </trkpt>
      <trkpt lat="42.97254" lon="-0.72391">
        <ele>1826</ele>
        <time>2010-01-23T11:54:35Z</time>
      </trkpt>
      <trkpt lat="42.9724" lon="-0.72382">
        <ele>1839</ele>
        <time>2010-01-23T11:54:40Z</time>
      </trkpt>
      <trkpt lat="42.97223" lon="-0.72368">
        <ele>1843</ele>
        <time>2010-01-23T11:54:47Z</time>
      </trkpt>
      <trkpt lat="42.97193" lon="-0.72346">
        <ele>1851</ele>
        <time>2010-01-23T11:54:59Z</time>
      </trkpt>
      <trkpt lat="42.97167" lon="-0.72325">
        <ele>1861</ele>
        <time>2010-01-23T11:55:10Z</time>
      </trkpt>
      <trkpt lat="42.9714" lon="-0.72303">
        <ele>1877</ele>
        <time>2010-01-23T11:55:21Z</time>
      </trkpt>
      <trkpt lat="42.9712" lon="-0.72287">
        <ele>1881</ele>
        <time>2010-01-23T11:55:29Z</time>
      </trkpt>
      <trkpt lat="42.97102" lon="-0.72273">
        <ele>1886</ele>
        <time>2010-01-23T11:55:36Z</time>
      </trkpt>
      <trkpt lat="42.97078" lon="-0.72253">
        <ele>1900</ele>
        <time>2010-01-23T11:55:45Z</time>
      </trkpt>
      <trkpt lat="42.97061" lon="-0.72238">
        <ele>1905</ele>
        <time>2010-01-23T11:55:52Z</time>
      </trkpt>
      <trkpt lat="42.9704" lon="-0.72222">
        <ele>1907</ele>
        <time>2010-01-23T11:56:00Z</time>
      </trkpt>
      <trkpt lat="42.97022" lon="-0.72208">
        <ele>1909</ele>
        <time>2010-01-23T11:56:07Z</time>
      </trkpt>
      <trkpt lat="42.97005" lon="-0.72206">
        <ele>1910</ele>
        <time>2010-01-23T11:56:12Z</time>
      </trkpt>
      <trkpt lat="42.96995" lon="-0.72206">
        <ele>1925</ele>
        <time>2010-01-23T11:56:16Z</time>
      </trkpt>
      <trkpt lat="42.96961" lon="-0.72207">
        <ele>1931</ele>
        <time>2010-01-23T11:56:28Z</time>
      </trkpt>
      <trkpt lat="42.96924" lon="-0.72208">
        <ele>1938</ele>
        <time>2010-01-23T11:56:41Z</time>
      </trkpt>
      <trkpt lat="42.96894" lon="-0.72209">
        <ele>1962</ele>
        <time>2010-01-23T11:56:51Z</time>
      </trkpt>
      <trkpt lat="42.9686" lon="-0.72211">
        <ele>1968</ele>
        <time>2010-01-23T11:57:03Z</time>
      </trkpt>
      <trkpt lat="42.9682" lon="-0.72212">
        <ele>1989</ele>
        <time>2010-01-23T11:57:17Z</time>
      </trkpt>
      <trkpt lat="42.96787" lon="-0.72213">
        <ele>1993</ele>
        <time>2010-01-23T11:57:28Z</time>
      </trkpt>
      <trkpt lat="42.96754" lon="-0.72214">
        <ele>1997</ele>
        <time>2010-01-23T11:57:39Z</time>
      </trkpt>
      <trkpt lat="42.96727" lon="-0.72216">
        <ele>2015</ele>
        <time>2010-01-23T11:57:48Z</time>
      </trkpt>
      <trkpt lat="42.96699" lon="-0.72217">
        <ele>2020</ele>
        <time>2010-01-23T11:57:57Z</time>
      </trkpt>
      <trkpt lat="42.96664" lon="-0.72219">
        <ele>2042</ele>
        <time>2010-01-23T11:58:09Z</time>
      </trkpt>
      <trkpt lat="42.96634" lon="-0.7222">
        <ele>2046</ele>
        <time>2010-01-23T11:58:19Z</time>
      </trkpt>
      <trkpt lat="42.96606" lon="-0.72221">
        <ele>2052</ele>
        <time>2010-01-23T11:58:29Z</time>
      </trkpt>
      <trkpt lat="42.96582" lon="-0.72222">
        <ele>2071</ele>
        <time>2010-01-23T11:58:37Z</time>
      </trkpt>
      <trkpt lat="42.96562" lon="-0.72223">
        <ele>2073</ele>
        <time>2010-01-23T11:58:44Z</time>
      </trkpt>
      <trkpt lat="42.96541" lon="-0.72224">
        <ele>2076</ele>
        <time>2010-01-23T11:58:51Z</time>
      </trkpt>
      <trkpt lat="42.96512" lon="-0.72226">
        <ele>2080</ele>
        <time>2010-01-23T11:59:01Z</time>
      </trkpt>
      <trkpt lat="42.96489" lon="-0.72227">
        <ele>2093</ele>
        <time>2010-01-23T11:59:09Z</time>
      </trkpt>
      <trkpt lat="42.96464" lon="-0.72228">
        <ele>2097</ele>
        <time>2010-01-23T11:59:17Z</time>
      </trkpt>
      <trkpt lat="42.96429" lon="-0.72229">
        <ele>2102</ele>
        <time>2010-01-23T11:59:29Z</time>
      </trkpt>
      <trkpt lat="42.96403" lon="-0.72231">
        <ele>2114</ele>
        <time>2010-01-23T11:59:38Z</time>
      </trkpt>
      <trkpt lat="42.96385" lon="-0.72235">
        <ele>2116</ele>
        <time>2010-01-23T11:59:43Z</time>
      </trkpt>
      <trkpt lat="42.9637" lon="-0.7224">
        <ele>2118</ele>
        <time>2010-01-23T11:59:47Z</time>
      </trkpt>
      <trkpt lat="42.96366" lon="-0.72253">
        <ele>2115</ele>
        <time>2010-01-23T11:59:53Z</time>
      </trkpt>
      <trkpt lat="42.96363" lon="-0.72254">
        <ele>2115</ele>
        <time>2010-01-23T12:00:00Z</time>
      </trkpt>
      <trkpt lat="42.96363" lon="-0.72254">
        <ele>2115</ele>
        <time>2010-01-23T12:00:09Z</time>
      </trkpt>
      <trkpt lat="42.96364" lon="-0.72255">
        <ele>2115</ele>
        <time>2010-01-23T12:00:19Z</time>
      </trkpt>
      <trkpt lat="42.96364" lon="-0.72254">
        <ele>2115</ele>
        <time>2010-01-23T12:00:30Z</time>
      </trkpt>
      <trkpt lat="42.96364" lon="-0.72254">
        <ele>2115</ele>
        <time>2010-01-23T12:00:41Z</time>
      </trkpt>
      <trkpt lat="42.96365" lon="-0.72255">
        <ele>2115</ele>
        <time>2010-01-23T12:00:50Z</time>
      </trkpt>
      <trkpt lat="42.96366" lon="-0.72255">
        <ele>2115</ele>
        <time>2010-01-23T12:01:00Z</time>
      </trkpt>
      <trkpt lat="42.96365" lon="-0.72255">
        <ele>2115</ele>
        <time>2010-01-23T12:01:12Z</time>
      </trkpt>
      <trkpt lat="42.96365" lon="-0.72255">
        <ele>2115</ele>
        <time>2010-01-23T12:01:20Z</time>
      </trkpt>
      <trkpt lat="42.96366" lon="-0.72255">
        <ele>2115</ele>
        <time>2010-01-23T12:01:29Z</time>
      </trkpt>
      <trkpt lat="42.96365" lon="-0.72254">
        <ele>2115</ele>
        <time>2010-01-23T12:01:37Z</time>
      </trkpt>
      <trkpt lat="42.96363" lon="-0.72256">
        <ele>2115</ele>
        <time>2010-01-23T12:01:41Z</time>
      </trkpt>
      <trkpt lat="42.96357" lon="-0.72276">
        <ele>2114</ele>
        <time>2010-01-23T12:01:46Z</time>
      </trkpt>
      <trkpt lat="42.96349" lon="-0.72312">
        <ele>2112</ele>
        <time>2010-01-23T12:01:50Z</time>
      </trkpt>
      <trkpt lat="42.96339" lon="-0.72347">
        <ele>2104</ele>
        <time>2010-01-23T12:01:54Z</time>
      </trkpt>
      <trkpt lat="42.96328" lon="-0.72373">
        <ele>2101</ele>
        <time>2010-01-23T12:01:57Z</time>
      </trkpt>
      <trkpt lat="42.96317" lon="-0.72401">
        <ele>2096</ele>
        <time>2010-01-23T12:02:00Z</time>
      </trkpt>
      <trkpt lat="42.96297" lon="-0.72433">
        <ele>2081</ele>
        <time>2010-01-23T12:02:04Z</time>
      </trkpt>
      <trkpt lat="42.96285" lon="-0.72453">
        <ele>2080</ele>
        <time>2010-01-23T12:02:06Z</time>
      </trkpt>
      <trkpt lat="42.96267" lon="-0.72486">
        <ele>2076</ele>
        <time>2010-01-23T12:02:09Z</time>
      </trkpt>
      <trkpt lat="42.96251" lon="-0.72528">
        <ele>2064</ele>
        <time>2010-01-23T12:02:12Z</time>
      </trkpt>
      <trkpt lat="42.96253" lon="-0.72573">
        <ele>2061</ele>
        <time>2010-01-23T12:02:15Z</time>
      </trkpt>
      <trkpt lat="42.96258" lon="-0.72598">
        <ele>2057</ele>
        <time>2010-01-23T12:02:17Z</time>
      </trkpt>
      <trkpt lat="42.96277" lon="-0.72654">
        <ele>2055</ele>
        <time>2010-01-23T12:02:23Z</time>
      </trkpt>
      <trkpt lat="42.96285" lon="-0.72673">
        <ele>2052</ele>
        <time>2010-01-23T12:02:25Z</time>
      </trkpt>
      <trkpt lat="42.96293" lon="-0.72716">
        <ele>2049</ele>
        <time>2010-01-23T12:02:29Z</time>
      </trkpt>
      <trkpt lat="42.96284" lon="-0.72756">
        <ele>2044</ele>
        <time>2010-01-23T12:02:33Z</time>
      </trkpt>
      <trkpt lat="42.96267" lon="-0.72817">
        <ele>2040</ele>
        <time>2010-01-23T12:02:39Z</time>
      </trkpt>
      <trkpt lat="42.96255" lon="-0.72871">
        <ele>2032</ele>
        <time>2010-01-23T12:02:43Z</time>
      </trkpt>
      <trkpt lat="42.96233" lon="-0.72934">
        <ele>2025</ele>
        <time>2010-01-23T12:02:48Z</time>
      </trkpt>
      <trkpt lat="42.96219" lon="-0.72991">
        <ele>2021</ele>
        <time>2010-01-23T12:02:53Z</time>
      </trkpt>
      <trkpt lat="42.96212" lon="-0.73019">
        <ele>2015</ele>
        <time>2010-01-23T12:02:56Z</time>
      </trkpt>
      <trkpt lat="42.96213" lon="-0.73062">
        <ele>2014</ele>
        <time>2010-01-23T12:03:00Z</time>
      </trkpt>
      <trkpt lat="42.96222" lon="-0.73093">
        <ele>2009</ele>
        <time>2010-01-23T12:03:03Z</time>
      </trkpt>
      <trkpt lat="42.96221" lon="-0.73107">
        <ele>2009</ele>
        <time>2010-01-23T12:03:06Z</time>
      </trkpt>
      <trkpt lat="42.96222" lon="-0.73109">
        <ele>2009</ele>
        <time>2010-01-23T12:03:09Z</time>
      </trkpt>
      <trkpt lat="42.96222" lon="-0.73108">
        <ele>2009</ele>
        <time>2010-01-23T12:03:15Z</time>
      </trkpt>
      <trkpt lat="42.96222" lon="-0.73107">
        <ele>2009</ele>
        <time>2010-01-23T12:03:28Z</time>
      </trkpt>
      <trkpt lat="42.96222" lon="-0.73108">
        <ele>2009</ele>
        <time>2010-01-23T12:03:38Z</time>
      </trkpt>
      <trkpt lat="42.96221" lon="-0.7311">
        <ele>2009</ele>
        <time>2010-01-23T12:03:46Z</time>
      </trkpt>
      <trkpt lat="42.96222" lon="-0.7311">
        <ele>2009</ele>
        <time>2010-01-23T12:03:57Z</time>
      </trkpt>
      <trkpt lat="42.96222" lon="-0.7311">
        <ele>2009</ele>
        <time>2010-01-23T12:04:09Z</time>
      </trkpt>
      <trkpt lat="42.96223" lon="-0.73111">
        <ele>2009</ele>
        <time>2010-01-23T12:04:17Z</time>
      </trkpt>
      <trkpt lat="42.96225" lon="-0.73113">
        <ele>2009</ele>
        <time>2010-01-23T12:04:21Z</time>
      </trkpt>
      <trkpt lat="42.96235" lon="-0.73126">
        <ele>2008</ele>
        <time>2010-01-23T12:04:25Z</time>
      </trkpt>
      <trkpt lat="42.96255" lon="-0.73157">
        <ele>2004</ele>
        <time>2010-01-23T12:04:29Z</time>
      </trkpt>
      <trkpt lat="42.96269" lon="-0.73186">
        <ele>1999</ele>
        <time>2010-01-23T12:04:32Z</time>
      </trkpt>
      <trkpt lat="42.96285" lon="-0.7322">
        <ele>1996</ele>
        <time>2010-01-23T12:04:35Z</time>
      </trkpt>
      <trkpt lat="42.96291" lon="-0.7326">
        <ele>1990</ele>
        <time>2010-01-23T12:04:38Z</time>
      </trkpt>
      <trkpt lat="42.96279" lon="-0.73297">
        <ele>1988</ele>
        <time>2010-01-23T12:04:41Z</time>
      </trkpt>
      <trkpt lat="42.96266" lon="-0.73316">
        <ele>1986</ele>
        <time>2010-01-23T12:04:43Z</time>
      </trkpt>
      <trkpt lat="42.96223" lon="-0.73363">
        <ele>1981</ele>
        <time>2010-01-23T12:04:49Z</time>
      </trkpt>
      <trkpt lat="42.96197" lon="-0.73405">
        <ele>1980</ele>
        <time>2010-01-23T12:04:53Z</time>
      </trkpt>
      <trkpt lat="42.96181" lon="-0.73442">
        <ele>1975</ele>
        <time>2010-01-23T12:04:56Z</time>
      </trkpt>
      <trkpt lat="42.96163" lon="-0.73502">
        <ele>1970</ele>
        <time>2010-01-23T12:05:01Z</time>
      </trkpt>
      <trkpt lat="42.96164" lon="-0.73537">
        <ele>1964</ele>
        <time>2010-01-23T12:05:05Z</time>
      </trkpt>
      <trkpt lat="42.96167" lon="-0.73545">
        <ele>1964</ele>
        <time>2010-01-23T12:05:06Z</time>
      </trkpt>
      <trkpt lat="42.96195" lon="-0.73575">
        <ele>1962</ele>
        <time>2010-01-23T12:05:11Z</time>
      </trkpt>
      <trkpt lat="42.96204" lon="-0.73578">
        <ele>1962</ele>
        <time>2010-01-23T12:05:13Z</time>
      </trkpt>
      <trkpt lat="42.96215" lon="-0.73585">
        <ele>1954</ele>
        <time>2010-01-23T12:05:17Z</time>
      </trkpt>
      <trkpt lat="42.9622" lon="-0.73594">
        <ele>1954</ele>
        <time>2010-01-23T12:05:20Z</time>
      </trkpt>
      <trkpt lat="42.9622" lon="-0.73601">
        <ele>1954</ele>
        <time>2010-01-23T12:05:21Z</time>
      </trkpt>
      <trkpt lat="42.9622" lon="-0.73615">
        <ele>1952</ele>
        <time>2010-01-23T12:05:23Z</time>
      </trkpt>
      <trkpt lat="42.96219" lon="-0.73625">
        <ele>1952</ele>
        <time>2010-01-23T12:05:27Z</time>
      </trkpt>
      <trkpt lat="42.96219" lon="-0.73625">
        <ele>1952</ele>
        <time>2010-01-23T12:05:34Z</time>
      </trkpt>
      <trkpt lat="42.96219" lon="-0.73624">
        <ele>1952</ele>
        <time>2010-01-23T12:05:43Z</time>
      </trkpt>
      <trkpt lat="42.96218" lon="-0.73624">
        <ele>1952</ele>
        <time>2010-01-23T12:05:57Z</time>
      </trkpt>
      <trkpt lat="42.96218" lon="-0.73623">
        <ele>1952</ele>
        <time>2010-01-23T12:06:10Z</time>
      </trkpt>
      <trkpt lat="42.96218" lon="-0.73622">
        <ele>1952</ele>
        <time>2010-01-23T12:06:20Z</time>
      </trkpt>
      <trkpt lat="42.96218" lon="-0.73622">
        <ele>1952</ele>
        <time>2010-01-23T12:06:33Z</time>
      </trkpt>
      <trkpt lat="42.96216" lon="-0.73625">
        <ele>1952</ele>
        <time>2010-01-23T12:06:41Z</time>
      </trkpt>
      <trkpt lat="42.96208" lon="-0.7364">
        <ele>1951</ele>
        <time>2010-01-23T12:06:44Z</time>
      </trkpt>
      <trkpt lat="42.96206" lon="-0.73662">
        <ele>1949</ele>
        <time>2010-01-23T12:06:47Z</time>
      </trkpt>
      <trkpt lat="42.96206" lon="-0.73681">
        <ele>1942</ele>
        <time>2010-01-23T12:06:50Z</time>
      </trkpt>
      <trkpt lat="42.96203" lon="-0.73696">
        <ele>1941</ele>
        <time>2010-01-23T12:06:53Z</time>
      </trkpt>
      <trkpt lat="42.962" lon="-0.73708">
        <ele>1941</ele>
        <time>2010-01-23T12:06:55Z</time>
      </trkpt>
      <trkpt lat="42.96198" lon="-0.73725">
        <ele>1940</ele>
        <time>2010-01-23T12:06:57Z</time>
      </trkpt>
      <trkpt lat="42.96199" lon="-0.73769">
        <ele>1932</ele>
        <time>2010-01-23T12:07:01Z</time>
      </trkpt>
      <trkpt lat="42.96205" lon="-0.73805">
        <ele>1930</ele>
        <time>2010-01-23T12:07:04Z</time>
      </trkpt>
      <trkpt lat="42.96205" lon="-0.73834">
        <ele>1921</ele>
        <time>2010-01-23T12:07:06Z</time>
      </trkpt>
      <trkpt lat="42.96215" lon="-0.7387">
        <ele>1919</ele>
        <time>2010-01-23T12:07:09Z</time>
      </trkpt>
      <trkpt lat="42.96229" lon="-0.73892">
        <ele>1917</ele>
        <time>2010-01-23T12:07:11Z</time>
      </trkpt>
      <trkpt lat="42.96247" lon="-0.73944">
        <ele>1910</ele>
        <time>2010-01-23T12:07:15Z</time>
      </trkpt>
      <trkpt lat="42.96258" lon="-0.73988">
        <ele>1906</ele>
        <time>2010-01-23T12:07:19Z</time>
      </trkpt>
      <trkpt lat="42.96259" lon="-0.74001">
        <ele>1905</ele>
        <time>2010-01-23T12:07:20Z</time>
      </trkpt>
      <trkpt lat="42.96267" lon="-0.74066">
        <ele>1898</ele>
        <time>2010-01-23T12:07:25Z</time>
      </trkpt>
      <trkpt lat="42.96275" lon="-0.7413">
        <ele>1893</ele>
        <time>2010-01-23T12:07:29Z</time>
      </trkpt>
      <trkpt lat="42.96279" lon="-0.74159">
        <ele>1892</ele>
        <time>2010-01-23T12:07:31Z</time>
      </trkpt>
      <trkpt lat="42.96291" lon="-0.74246">
        <ele>1886</ele>
        <time>2010-01-23T12:07:37Z</time>
      </trkpt>
      <trkpt lat="42.96292" lon="-0.74273">
        <ele>1882</ele>
        <time>2010-01-23T12:07:39Z</time>
      </trkpt>
      <trkpt lat="42.96304" lon="-0.74318">
        <ele>1880</ele>
        <time>2010-01-23T12:07:43Z</time>
      </trkpt>
      <trkpt lat="42.96319" lon="-0.74334">
        <ele>1877</ele>
        <time>2010-01-23T12:07:46Z</time>
      </trkpt>
      <trkpt lat="42.96331" lon="-0.74323">
        <ele>1877</ele>
        <time>2010-01-23T12:07:48Z</time>
      </trkpt>
      <trkpt lat="42.96336" lon="-0.74308">
        <ele>1868</ele>
        <time>2010-01-23T12:07:50Z</time>
      </trkpt>
      <trkpt lat="42.96345" lon="-0.74262">
        <ele>1869</ele>
        <time>2010-01-23T12:07:55Z</time>
      </trkpt>
      <trkpt lat="42.96364" lon="-0.74218">
        <ele>1866</ele>
        <time>2010-01-23T12:07:59Z</time>
      </trkpt>
      <trkpt lat="42.9638" lon="-0.74195">
        <ele>1864</ele>
        <time>2010-01-23T12:08:01Z</time>
      </trkpt>
      <trkpt lat="42.96411" lon="-0.74162">
        <ele>1857</ele>
        <time>2010-01-23T12:08:04Z</time>
      </trkpt>
      <trkpt lat="42.96462" lon="-0.74141">
        <ele>1843</ele>
        <time>2010-01-23T12:08:08Z</time>
      </trkpt>
      <trkpt lat="42.96524" lon="-0.74108">
        <ele>1827</ele>
        <time>2010-01-23T12:08:14Z</time>
      </trkpt>
      <trkpt lat="42.96555" lon="-0.74081">
        <ele>1828</ele>
        <time>2010-01-23T12:08:18Z</time>
      </trkpt>
      <trkpt lat="42.96584" lon="-0.74053">
        <ele>1816</ele>
        <time>2010-01-23T12:08:22Z</time>
      </trkpt>
      <trkpt lat="42.96612" lon="-0.74035">
        <ele>1813</ele>
        <time>2010-01-23T12:08:26Z</time>
      </trkpt>
      <trkpt lat="42.96645" lon="-0.7401">
        <ele>1808</ele>
        <time>2010-01-23T12:08:30Z</time>
      </trkpt>
      <trkpt lat="42.96662" lon="-0.73991">
        <ele>1808</ele>
        <time>2010-01-23T12:08:32Z</time>
      </trkpt>
      <trkpt lat="42.9669" lon="-0.73972">
        <ele>1803</ele>
        <time>2010-01-23T12:08:35Z</time>
      </trkpt>
      <trkpt lat="42.96717" lon="-0.73981">
        <ele>1800</ele>
        <time>2010-01-23T12:08:38Z</time>
      </trkpt>
      <trkpt lat="42.96734" lon="-0.73999">
        <ele>1795</ele>
        <time>2010-01-23T12:08:41Z</time>
      </trkpt>
      <trkpt lat="42.96747" lon="-0.74001">
        <ele>1788</ele>
        <time>2010-01-23T12:08:43Z</time>
      </trkpt>
      <trkpt lat="42.96789" lon="-0.7401">
        <ele>1781</ele>
        <time>2010-01-23T12:08:47Z</time>
      </trkpt>
      <trkpt lat="42.96802" lon="-0.74015">
        <ele>1780</ele>
        <time>2010-01-23T12:08:48Z</time>
      </trkpt>
      <trkpt lat="42.96836" lon="-0.74024">
        <ele>1773</ele>
        <time>2010-01-23T12:08:51Z</time>
      </trkpt>
      <trkpt lat="42.96871" lon="-0.74024">
        <ele>1770</ele>
        <time>2010-01-23T12:08:55Z</time>
      </trkpt>
      <trkpt lat="42.96893" lon="-0.7403">
        <ele>1767</ele>
        <time>2010-01-23T12:08:57Z</time>
      </trkpt>
      <trkpt lat="42.96919" lon="-0.74037">
        <ele>1761</ele>
        <time>2010-01-23T12:08:59Z</time>
      </trkpt>
      <trkpt lat="42.96966" lon="-0.74034">
        <ele>1761</ele>
        <time>2010-01-23T12:09:03Z</time>
      </trkpt>
      <trkpt lat="42.96976" lon="-0.74031">
        <ele>1761</ele>
        <time>2010-01-23T12:09:04Z</time>
      </trkpt>
      <trkpt lat="42.97008" lon="-0.74007">
        <ele>1757</ele>
        <time>2010-01-23T12:09:08Z</time>
      </trkpt>
      <trkpt lat="42.97017" lon="-0.73992">
        <ele>1754</ele>
        <time>2010-01-23T12:09:10Z</time>
      </trkpt>
      <trkpt lat="42.97024" lon="-0.73977">
        <ele>1753</ele>
        <time>2010-01-23T12:09:12Z</time>
      </trkpt>
      <trkpt lat="42.97044" lon="-0.7396">
        <ele>1751</ele>
        <time>2010-01-23T12:09:17Z</time>
      </trkpt>
      <trkpt lat="42.97061" lon="-0.73965">
        <ele>1749</ele>
        <time>2010-01-23T12:09:21Z</time>
      </trkpt>
      <trkpt lat="42.97066" lon="-0.7398">
        <ele>1748</ele>
        <time>2010-01-23T12:09:24Z</time>
      </trkpt>
      <trkpt lat="42.97073" lon="-0.73993">
        <ele>1747</ele>
        <time>2010-01-23T12:09:26Z</time>
      </trkpt>
      <trkpt lat="42.97085" lon="-0.74007">
        <ele>1742</ele>
        <time>2010-01-23T12:09:28Z</time>
      </trkpt>
      <trkpt lat="42.97128" lon="-0.74031">
        <ele>1737</ele>
        <time>2010-01-23T12:09:32Z</time>
      </trkpt>
      <trkpt lat="42.97152" lon="-0.74033">
        <ele>1736</ele>
        <time>2010-01-23T12:09:34Z</time>
      </trkpt>
      <trkpt lat="42.97211" lon="-0.7403">
        <ele>1734</ele>
        <time>2010-01-23T12:09:40Z</time>
      </trkpt>
      <trkpt lat="42.97257" lon="-0.74025">
        <ele>1731</ele>
        <time>2010-01-23T12:09:46Z</time>
      </trkpt>
      <trkpt lat="42.97288" lon="-0.74025">
        <ele>1728</ele>
        <time>2010-01-23T12:09:50Z</time>
      </trkpt>
      <trkpt lat="42.97306" lon="-0.74027">
        <ele>1726</ele>
        <time>2010-01-23T12:09:52Z</time>
      </trkpt>
      <trkpt lat="42.97321" lon="-0.74024">
        <ele>1725</ele>
        <time>2010-01-23T12:09:54Z</time>
      </trkpt>
      <trkpt lat="42.97345" lon="-0.74038">
        <ele>1714</ele>
        <time>2010-01-23T12:09:58Z</time>
      </trkpt>
      <trkpt lat="42.97357" lon="-0.74068">
        <ele>1713</ele>
        <time>2010-01-23T12:10:01Z</time>
      </trkpt>
      <trkpt lat="42.97364" lon="-0.74131">
        <ele>1709</ele>
        <time>2010-01-23T12:10:06Z</time>
      </trkpt>
      <trkpt lat="42.9737" lon="-0.74199">
        <ele>1707</ele>
        <time>2010-01-23T12:10:11Z</time>
      </trkpt>
      <trkpt lat="42.97376" lon="-0.74238">
        <ele>1706</ele>
        <time>2010-01-23T12:10:15Z</time>
      </trkpt>
      <trkpt lat="42.97378" lon="-0.74273">
        <ele>1705</ele>
        <time>2010-01-23T12:10:20Z</time>
      </trkpt>
      <trkpt lat="42.97369" lon="-0.74307">
        <ele>1707</ele>
        <time>2010-01-23T12:10:24Z</time>
      </trkpt>
      <trkpt lat="42.97367" lon="-0.74328">
        <ele>1707</ele>
        <time>2010-01-23T12:10:28Z</time>
      </trkpt>
      <trkpt lat="42.97375" lon="-0.74337">
        <ele>1705</ele>
        <time>2010-01-23T12:10:32Z</time>
      </trkpt>
      <trkpt lat="42.97384" lon="-0.74356">
        <ele>1703</ele>
        <time>2010-01-23T12:10:39Z</time>
      </trkpt>
      <trkpt lat="42.97384" lon="-0.74359">
        <ele>1703</ele>
        <time>2010-01-23T12:10:43Z</time>
      </trkpt>
      <trkpt lat="42.97384" lon="-0.74358">
        <ele>1703</ele>
        <time>2010-01-23T12:10:51Z</time>
      </trkpt>
      <trkpt lat="42.97384" lon="-0.74358">
        <ele>1703</ele>
        <time>2010-01-23T12:10:58Z</time>
      </trkpt>
      <trkpt lat="42.97384" lon="-0.74357">
        <ele>1703</ele>
        <time>2010-01-23T12:11:13Z</time>
      </trkpt>
      <trkpt lat="42.97384" lon="-0.74358">
        <ele>1703</ele>
        <time>2010-01-23T12:11:22Z</time>
      </trkpt>
      <trkpt lat="42.97383" lon="-0.74358">
        <ele>1703</ele>
        <time>2010-01-23T12:11:31Z</time>
      </trkpt>
      <trkpt lat="42.97383" lon="-0.74362">
        <ele>1703</ele>
        <time>2010-01-23T12:11:34Z</time>
      </trkpt>
      <trkpt lat="42.97382" lon="-0.74369">
        <ele>1703</ele>
        <time>2010-01-23T12:11:38Z</time>
      </trkpt>
      <trkpt lat="42.97382" lon="-0.74374">
        <ele>1703</ele>
        <time>2010-01-23T12:11:41Z</time>
      </trkpt>
      <trkpt lat="42.97383" lon="-0.74378">
        <ele>1703</ele>
        <time>2010-01-23T12:11:48Z</time>
      </trkpt>
      <trkpt lat="42.97384" lon="-0.74379">
        <ele>1703</ele>
        <time>2010-01-23T12:11:55Z</time>
      </trkpt>
      <trkpt lat="42.97383" lon="-0.74378">
        <ele>1703</ele>
        <time>2010-01-23T12:12:02Z</time>
      </trkpt>
      <trkpt lat="42.97384" lon="-0.74379">
        <ele>1703</ele>
        <time>2010-01-23T12:12:07Z</time>
      </trkpt>
      <trkpt lat="42.97384" lon="-0.74381">
        <ele>1703</ele>
        <time>2010-01-23T12:12:36Z</time>
      </trkpt>
      <trkpt lat="42.97382" lon="-0.7438">
        <ele>1703</ele>
        <time>2010-01-23T12:13:04Z</time>
      </trkpt>
      <trkpt lat="42.97383" lon="-0.7438">
        <ele>1703</ele>
        <time>2010-01-23T12:13:11Z</time>
      </trkpt>
      <trkpt lat="42.97383" lon="-0.7438">
        <ele>1703</ele>
        <time>2010-01-23T12:13:17Z</time>
      </trkpt>
      <trkpt lat="42.97387" lon="-0.74381">
        <ele>1703</ele>
        <time>2010-01-23T12:13:24Z</time>
      </trkpt>
      <trkpt lat="42.97402" lon="-0.74387">
        <ele>1701</ele>
        <time>2010-01-23T12:13:30Z</time>
      </trkpt>
      <trkpt lat="42.97416" lon="-0.74391">
        <ele>1699</ele>
        <time>2010-01-23T12:13:34Z</time>
      </trkpt>
      <trkpt lat="42.9743" lon="-0.74398">
        <ele>1689</ele>
        <time>2010-01-23T12:13:39Z</time>
      </trkpt>
      <trkpt lat="42.97441" lon="-0.74415">
        <ele>1688</ele>
        <time>2010-01-23T12:13:44Z</time>
      </trkpt>
      <trkpt lat="42.97455" lon="-0.74445">
        <ele>1686</ele>
        <time>2010-01-23T12:13:49Z</time>
      </trkpt>
      <trkpt lat="42.97475" lon="-0.74477">
        <ele>1684</ele>
        <time>2010-01-23T12:13:53Z</time>
      </trkpt>
      <trkpt lat="42.97481" lon="-0.74486">
        <ele>1683</ele>
        <time>2010-01-23T12:13:54Z</time>
      </trkpt>
      <trkpt lat="42.97506" lon="-0.7451">
        <ele>1675</ele>
        <time>2010-01-23T12:13:58Z</time>
      </trkpt>
      <trkpt lat="42.97535" lon="-0.74531">
        <ele>1671</ele>
        <time>2010-01-23T12:14:02Z</time>
      </trkpt>
      <trkpt lat="42.97579" lon="-0.74556">
        <ele>1669</ele>
        <time>2010-01-23T12:14:07Z</time>
      </trkpt>
      <trkpt lat="42.97602" lon="-0.74553">
        <ele>1664</ele>
        <time>2010-01-23T12:14:10Z</time>
      </trkpt>
      <trkpt lat="42.97607" lon="-0.7455">
        <ele>1664</ele>
        <time>2010-01-23T12:14:11Z</time>
      </trkpt>
      <trkpt lat="42.97632" lon="-0.74551">
        <ele>1662</ele>
        <time>2010-01-23T12:14:17Z</time>
      </trkpt>
      <trkpt lat="42.97648" lon="-0.74553">
        <ele>1662</ele>
        <time>2010-01-23T12:14:20Z</time>
      </trkpt>
      <trkpt lat="42.97664" lon="-0.74551">
        <ele>1661</ele>
        <time>2010-01-23T12:14:23Z</time>
      </trkpt>
      <trkpt lat="42.97687" lon="-0.74568">
        <ele>1656</ele>
        <time>2010-01-23T12:14:27Z</time>
      </trkpt>
      <trkpt lat="42.97696" lon="-0.74577">
        <ele>1656</ele>
        <time>2010-01-23T12:14:29Z</time>
      </trkpt>
      <trkpt lat="42.97716" lon="-0.74583">
        <ele>1654</ele>
        <time>2010-01-23T12:14:33Z</time>
      </trkpt>
      <trkpt lat="42.97726" lon="-0.74588">
        <ele>1653</ele>
        <time>2010-01-23T12:14:35Z</time>
      </trkpt>
      <trkpt lat="42.97741" lon="-0.74604">
        <ele>1652</ele>
        <time>2010-01-23T12:14:39Z</time>
      </trkpt>
      <trkpt lat="42.97752" lon="-0.74618">
        <ele>1644</ele>
        <time>2010-01-23T12:14:43Z</time>
      </trkpt>
      <trkpt lat="42.97757" lon="-0.74634">
        <ele>1643</ele>
        <time>2010-01-23T12:14:50Z</time>
      </trkpt>
      <trkpt lat="42.97764" lon="-0.74658">
        <ele>1643</ele>
        <time>2010-01-23T12:14:56Z</time>
      </trkpt>
      <trkpt lat="42.97775" lon="-0.74684">
        <ele>1639</ele>
        <time>2010-01-23T12:15:02Z</time>
      </trkpt>
      <trkpt lat="42.97782" lon="-0.74705">
        <ele>1638</ele>
        <time>2010-01-23T12:15:08Z</time>
      </trkpt>
      <trkpt lat="42.97792" lon="-0.74728">
        <ele>1637</ele>
        <time>2010-01-23T12:15:13Z</time>
      </trkpt>
      <trkpt lat="42.97805" lon="-0.74755">
        <ele>1636</ele>
        <time>2010-01-23T12:15:19Z</time>
      </trkpt>
      <trkpt lat="42.97822" lon="-0.74759">
        <ele>1634</ele>
        <time>2010-01-23T12:15:23Z</time>
      </trkpt>
      <trkpt lat="42.97827" lon="-0.74756">
        <ele>1633</ele>
        <time>2010-01-23T12:15:24Z</time>
      </trkpt>
      <trkpt lat="42.97858" lon="-0.74737">
        <ele>1628</ele>
        <time>2010-01-23T12:15:28Z</time>
      </trkpt>
      <trkpt lat="42.97881" lon="-0.74709">
        <ele>1626</ele>
        <time>2010-01-23T12:15:32Z</time>
      </trkpt>
      <trkpt lat="42.97896" lon="-0.74685">
        <ele>1624</ele>
        <time>2010-01-23T12:15:37Z</time>
      </trkpt>
      <trkpt lat="42.97903" lon="-0.7467">
        <ele>1623</ele>
        <time>2010-01-23T12:15:43Z</time>
      </trkpt>
      <trkpt lat="42.97909" lon="-0.74654">
        <ele>1623</ele>
        <time>2010-01-23T12:15:52Z</time>
      </trkpt>
      <trkpt lat="42.97911" lon="-0.74648">
        <ele>1623</ele>
        <time>2010-01-23T12:15:57Z</time>
      </trkpt>
      <trkpt lat="42.97915" lon="-0.74648">
        <ele>1623</ele>
        <time>2010-01-23T12:16:02Z</time>
      </trkpt>
      <trkpt lat="42.97915" lon="-0.74648">
        <ele>1623</ele>
        <time>2010-01-23T12:16:09Z</time>
      </trkpt>
      <trkpt lat="42.97915" lon="-0.74647">
        <ele>1623</ele>
        <time>2010-01-23T12:16:17Z</time>
      </trkpt>
      <trkpt lat="42.97915" lon="-0.74649">
        <ele>1623</ele>
        <time>2010-01-23T12:16:21Z</time>
      </trkpt>
      <trkpt lat="42.97914" lon="-0.74649">
        <ele>1623</ele>
        <time>2010-01-23T12:16:30Z</time>
      </trkpt>
      <trkpt lat="42.97915" lon="-0.7465">
        <ele>1623</ele>
        <time>2010-01-23T12:16:36Z</time>
      </trkpt>
      <trkpt lat="42.97916" lon="-0.7465">
        <ele>1623</ele>
        <time>2010-01-23T12:16:43Z</time>
      </trkpt>
      <trkpt lat="42.9792" lon="-0.74649">
        <ele>1619</ele>
        <time>2010-01-23T12:16:48Z</time>
      </trkpt>
      <trkpt lat="42.97923" lon="-0.74645">
        <ele>1619</ele>
        <time>2010-01-23T12:16:54Z</time>
      </trkpt>
      <trkpt lat="42.97925" lon="-0.74636">
        <ele>1618</ele>
        <time>2010-01-23T12:16:59Z</time>
      </trkpt>
      <trkpt lat="42.97932" lon="-0.74622">
        <ele>1618</ele>
        <time>2010-01-23T12:17:07Z</time>
      </trkpt>
      <trkpt lat="42.97938" lon="-0.74608">
        <ele>1617</ele>
        <time>2010-01-23T12:17:16Z</time>
      </trkpt>
      <trkpt lat="42.97949" lon="-0.74604">
        <ele>1617</ele>
        <time>2010-01-23T12:17:24Z</time>
      </trkpt>
      <trkpt lat="42.97965" lon="-0.74611">
        <ele>1617</ele>
        <time>2010-01-23T12:17:35Z</time>
      </trkpt>
      <trkpt lat="42.97974" lon="-0.74619">
        <ele>1617</ele>
        <time>2010-01-23T12:17:42Z</time>
      </trkpt>
      <trkpt lat="42.97984" lon="-0.74631">
        <ele>1617</ele>
        <time>2010-01-23T12:17:51Z</time>
      </trkpt>
      <trkpt lat="42.97993" lon="-0.74643">
        <ele>1617</ele>
        <time>2010-01-23T12:17:59Z</time>
      </trkpt>
      <trkpt lat="42.98003" lon="-0.74661">
        <ele>1616</ele>
        <time>2010-01-23T12:18:10Z</time>
      </trkpt>
      <trkpt lat="42.98009" lon="-0.74676">
        <ele>1617</ele>
        <time>2010-01-23T12:18:19Z</time>
      </trkpt>
      <trkpt lat="42.98022" lon="-0.74689">
        <ele>1616</ele>
        <time>2010-01-23T12:18:29Z</time>
      </trkpt>
      <trkpt lat="42.98029" lon="-0.74695">
        <ele>1616</ele>
        <time>2010-01-23T12:18:35Z</time>
      </trkpt>
      <trkpt lat="42.98031" lon="-0.74699">
        <ele>1616</ele>
        <time>2010-01-23T12:18:38Z</time>
      </trkpt>
      <trkpt lat="42.98036" lon="-0.74703">
        <ele>1616</ele>
        <time>2010-01-23T12:18:43Z</time>
      </trkpt>
      <trkpt lat="42.98036" lon="-0.74703">
        <ele>1616</ele>
        <time>2010-01-23T12:18:51Z</time>
      </trkpt>
      <trkpt lat="42.97889" lon="-0.74743">
        <ele>1625</ele>
        <time>2010-01-23T13:15:44Z</time>
      </trkpt>
      <trkpt lat="42.97889" lon="-0.74744">
        <ele>1625</ele>
        <time>2010-01-23T13:15:45Z</time>
      </trkpt>
      <trkpt lat="42.97888" lon="-0.74744">
        <ele>1625</ele>
        <time>2010-01-23T13:15:53Z</time>
      </trkpt>
      <trkpt lat="42.97888" lon="-0.74744">
        <ele>1625</ele>
        <time>2010-01-23T13:16:02Z</time>
      </trkpt>
      <trkpt lat="42.97888" lon="-0.74744">
        <ele>1625</ele>
        <time>2010-01-23T13:16:15Z</time>
      </trkpt>
      <trkpt lat="42.97888" lon="-0.74745">
        <ele>1625</ele>
        <time>2010-01-23T13:16:26Z</time>
      </trkpt>
      <trkpt lat="42.97889" lon="-0.74745">
        <ele>1625</ele>
        <time>2010-01-23T13:16:31Z</time>
      </trkpt>
      <trkpt lat="42.97889" lon="-0.74744">
        <ele>1625</ele>
        <time>2010-01-23T13:16:43Z</time>
      </trkpt>
      <trkpt lat="42.97889" lon="-0.74743">
        <ele>1625</ele>
        <time>2010-01-23T13:16:53Z</time>
      </trkpt>
      <trkpt lat="42.97889" lon="-0.74743">
        <ele>1625</ele>
        <time>2010-01-23T13:17:02Z</time>
      </trkpt>
      <trkpt lat="42.97889" lon="-0.74743">
        <ele>1625</ele>
        <time>2010-01-23T13:17:11Z</time>
      </trkpt>
      <trkpt lat="42.97888" lon="-0.74743">
        <ele>1625</ele>
        <time>2010-01-23T13:17:22Z</time>
      </trkpt>
      <trkpt lat="42.97888" lon="-0.74743">
        <ele>1625</ele>
        <time>2010-01-23T13:17:27Z</time>
      </trkpt>
      <trkpt lat="42.97888" lon="-0.74741">
        <ele>1625</ele>
        <time>2010-01-23T13:17:35Z</time>
      </trkpt>
      <trkpt lat="42.97889" lon="-0.74738">
        <ele>1625</ele>
        <time>2010-01-23T13:17:43Z</time>
      </trkpt>
      <trkpt lat="42.9789" lon="-0.74738">
        <ele>1625</ele>
        <time>2010-01-23T13:17:50Z</time>
      </trkpt>
      <trkpt lat="42.9789" lon="-0.74737">
        <ele>1625</ele>
        <time>2010-01-23T13:17:58Z</time>
      </trkpt>
      <trkpt lat="42.9789" lon="-0.74737">
        <ele>1625</ele>
        <time>2010-01-23T13:18:07Z</time>
      </trkpt>
      <trkpt lat="42.9789" lon="-0.74737">
        <ele>1625</ele>
        <time>2010-01-23T13:18:20Z</time>
      </trkpt>
      <trkpt lat="42.9789" lon="-0.74736">
        <ele>1625</ele>
        <time>2010-01-23T13:18:30Z</time>
      </trkpt>
      <trkpt lat="42.9789" lon="-0.74737">
        <ele>1625</ele>
        <time>2010-01-23T13:18:41Z</time>
      </trkpt>
      <trkpt lat="42.9789" lon="-0.74737">
        <ele>1625</ele>
        <time>2010-01-23T13:18:52Z</time>
      </trkpt>
      <trkpt lat="42.97891" lon="-0.74736">
        <ele>1625</ele>
        <time>2010-01-23T13:19:00Z</time>
      </trkpt>
      <trkpt lat="42.97889" lon="-0.74738">
        <ele>1625</ele>
        <time>2010-01-23T13:19:15Z</time>
      </trkpt>
      <trkpt lat="42.97888" lon="-0.74739">
        <ele>1625</ele>
        <time>2010-01-23T13:19:23Z</time>
      </trkpt>
      <trkpt lat="42.97888" lon="-0.74739">
        <ele>1625</ele>
        <time>2010-01-23T13:19:39Z</time>
      </trkpt>
      <trkpt lat="42.97888" lon="-0.74739">
        <ele>1626</ele>
        <time>2010-01-23T13:19:46Z</time>
      </trkpt>
      <trkpt lat="42.97888" lon="-0.74738">
        <ele>1625</ele>
        <time>2010-01-23T13:19:52Z</time>
      </trkpt>
      <trkpt lat="42.97888" lon="-0.74738">
        <ele>1626</ele>
        <time>2010-01-23T13:20:07Z</time>
      </trkpt>
      <trkpt lat="42.97887" lon="-0.74739">
        <ele>1626</ele>
        <time>2010-01-23T13:20:36Z</time>
      </trkpt>
      <trkpt lat="42.97888" lon="-0.74738">
        <ele>1625</ele>
        <time>2010-01-23T13:20:45Z</time>
      </trkpt>
      <trkpt lat="42.97887" lon="-0.74739">
        <ele>1626</ele>
        <time>2010-01-23T13:20:54Z</time>
      </trkpt>
      <trkpt lat="42.97887" lon="-0.74739">
        <ele>1626</ele>
        <time>2010-01-23T13:21:03Z</time>
      </trkpt>
      <trkpt lat="42.97883" lon="-0.74738">
        <ele>1626</ele>
        <time>2010-01-23T13:21:10Z</time>
      </trkpt>
      <trkpt lat="42.97878" lon="-0.74736">
        <ele>1626</ele>
        <time>2010-01-23T13:21:14Z</time>
      </trkpt>
      <trkpt lat="42.9787" lon="-0.74734">
        <ele>1627</ele>
        <time>2010-01-23T13:21:21Z</time>
      </trkpt>
      <trkpt lat="42.97861" lon="-0.74729">
        <ele>1627</ele>
        <time>2010-01-23T13:21:27Z</time>
      </trkpt>
      <trkpt lat="42.97857" lon="-0.74717">
        <ele>1627</ele>
        <time>2010-01-23T13:21:33Z</time>
      </trkpt>
      <trkpt lat="42.97857" lon="-0.74695">
        <ele>1627</ele>
        <time>2010-01-23T13:21:37Z</time>
      </trkpt>
      <trkpt lat="42.97855" lon="-0.74661">
        <ele>1627</ele>
        <time>2010-01-23T13:21:42Z</time>
      </trkpt>
      <trkpt lat="42.97857" lon="-0.7465">
        <ele>1626</ele>
        <time>2010-01-23T13:21:44Z</time>
      </trkpt>
      <trkpt lat="42.97869" lon="-0.74617">
        <ele>1626</ele>
        <time>2010-01-23T13:21:50Z</time>
      </trkpt>
      <trkpt lat="42.97889" lon="-0.7457">
        <ele>1623</ele>
        <time>2010-01-23T13:21:57Z</time>
      </trkpt>
      <trkpt lat="42.97903" lon="-0.74548">
        <ele>1622</ele>
        <time>2010-01-23T13:22:00Z</time>
      </trkpt>
      <trkpt lat="42.97924" lon="-0.74514">
        <ele>1613</ele>
        <time>2010-01-23T13:22:04Z</time>
      </trkpt>
      <trkpt lat="42.9795" lon="-0.74474">
        <ele>1608</ele>
        <time>2010-01-23T13:22:09Z</time>
      </trkpt>
      <trkpt lat="42.97962" lon="-0.74426">
        <ele>1605</ele>
        <time>2010-01-23T13:22:14Z</time>
      </trkpt>
      <trkpt lat="42.97964" lon="-0.74414">
        <ele>1598</ele>
        <time>2010-01-23T13:22:15Z</time>
      </trkpt>
      <trkpt lat="42.97962" lon="-0.74346">
        <ele>1594</ele>
        <time>2010-01-23T13:22:19Z</time>
      </trkpt>
      <trkpt lat="42.97956" lon="-0.74277">
        <ele>1587</ele>
        <time>2010-01-23T13:22:23Z</time>
      </trkpt>
      <trkpt lat="42.9795" lon="-0.74212">
        <ele>1581</ele>
        <time>2010-01-23T13:22:27Z</time>
      </trkpt>
      <trkpt lat="42.97956" lon="-0.7414">
        <ele>1574</ele>
        <time>2010-01-23T13:22:32Z</time>
      </trkpt>
      <trkpt lat="42.97961" lon="-0.74095">
        <ele>1572</ele>
        <time>2010-01-23T13:22:36Z</time>
      </trkpt>
      <trkpt lat="42.97965" lon="-0.74046">
        <ele>1570</ele>
        <time>2010-01-23T13:22:42Z</time>
      </trkpt>
      <trkpt lat="42.97966" lon="-0.74039">
        <ele>1569</ele>
        <time>2010-01-23T13:22:43Z</time>
      </trkpt>
      <trkpt lat="42.97966" lon="-0.74012">
        <ele>1568</ele>
        <time>2010-01-23T13:22:48Z</time>
      </trkpt>
      <trkpt lat="42.97965" lon="-0.73996">
        <ele>1567</ele>
        <time>2010-01-23T13:22:51Z</time>
      </trkpt>
      <trkpt lat="42.97965" lon="-0.73989">
        <ele>1567</ele>
        <time>2010-01-23T13:22:52Z</time>
      </trkpt>
      <trkpt lat="42.97964" lon="-0.73977">
        <ele>1568</ele>
        <time>2010-01-23T13:22:54Z</time>
      </trkpt>
      <trkpt lat="42.97967" lon="-0.73953">
        <ele>1567</ele>
        <time>2010-01-23T13:22:58Z</time>
      </trkpt>
      <trkpt lat="42.97972" lon="-0.73921">
        <ele>1564</ele>
        <time>2010-01-23T13:23:03Z</time>
      </trkpt>
      <trkpt lat="42.97977" lon="-0.73889">
        <ele>1560</ele>
        <time>2010-01-23T13:23:09Z</time>
      </trkpt>
      <trkpt lat="42.9798" lon="-0.73885">
        <ele>1560</ele>
        <time>2010-01-23T13:23:10Z</time>
      </trkpt>
      <trkpt lat="42.97979" lon="-0.73879">
        <ele>1560</ele>
        <time>2010-01-23T13:23:14Z</time>
      </trkpt>
      <trkpt lat="42.97979" lon="-0.73881">
        <ele>1560</ele>
        <time>2010-01-23T13:23:33Z</time>
      </trkpt>
      <trkpt lat="42.97975" lon="-0.73879">
        <ele>1561</ele>
        <time>2010-01-23T13:23:56Z</time>
      </trkpt>
      <trkpt lat="42.97973" lon="-0.73873">
        <ele>1561</ele>
        <time>2010-01-23T13:24:01Z</time>
      </trkpt>
      <trkpt lat="42.97973" lon="-0.73868">
        <ele>1561</ele>
        <time>2010-01-23T13:24:03Z</time>
      </trkpt>
      <trkpt lat="42.97974" lon="-0.73849">
        <ele>1558</ele>
        <time>2010-01-23T13:24:08Z</time>
      </trkpt>
      <trkpt lat="42.9797" lon="-0.73821">
        <ele>1553</ele>
        <time>2010-01-23T13:24:13Z</time>
      </trkpt>
      <trkpt lat="42.97961" lon="-0.7378">
        <ele>1553</ele>
        <time>2010-01-23T13:24:19Z</time>
      </trkpt>
      <trkpt lat="42.97949" lon="-0.73739">
        <ele>1551</ele>
        <time>2010-01-23T13:24:23Z</time>
      </trkpt>
      <trkpt lat="42.97951" lon="-0.73694">
        <ele>1549</ele>
        <time>2010-01-23T13:24:27Z</time>
      </trkpt>
      <trkpt lat="42.97968" lon="-0.7367">
        <ele>1543</ele>
        <time>2010-01-23T13:24:30Z</time>
      </trkpt>
      <trkpt lat="42.97979" lon="-0.73658">
        <ele>1538</ele>
        <time>2010-01-23T13:24:32Z</time>
      </trkpt>
      <trkpt lat="42.97995" lon="-0.73623">
        <ele>1537</ele>
        <time>2010-01-23T13:24:36Z</time>
      </trkpt>
      <trkpt lat="42.98001" lon="-0.73579">
        <ele>1526</ele>
        <time>2010-01-23T13:24:40Z</time>
      </trkpt>
      <trkpt lat="42.98001" lon="-0.73569">
        <ele>1525</ele>
        <time>2010-01-23T13:24:41Z</time>
      </trkpt>
      <trkpt lat="42.98003" lon="-0.73551">
        <ele>1524</ele>
        <time>2010-01-23T13:24:43Z</time>
      </trkpt>
      <trkpt lat="42.98006" lon="-0.73533">
        <ele>1524</ele>
        <time>2010-01-23T13:24:46Z</time>
      </trkpt>
      <trkpt lat="42.98007" lon="-0.73522">
        <ele>1524</ele>
        <time>2010-01-23T13:24:50Z</time>
      </trkpt>
      <trkpt lat="42.98005" lon="-0.73509">
        <ele>1524</ele>
        <time>2010-01-23T13:24:55Z</time>
      </trkpt>
      <trkpt lat="42.9801" lon="-0.73505">
        <ele>1524</ele>
        <time>2010-01-23T13:25:01Z</time>
      </trkpt>
      <trkpt lat="42.98012" lon="-0.73504">
        <ele>1524</ele>
        <time>2010-01-23T13:25:02Z</time>
      </trkpt>
      <trkpt lat="42.98027" lon="-0.73492">
        <ele>1526</ele>
        <time>2010-01-23T13:25:09Z</time>
      </trkpt>
      <trkpt lat="42.98033" lon="-0.73483">
        <ele>1527</ele>
        <time>2010-01-23T13:25:16Z</time>
      </trkpt>
      <trkpt lat="42.98033" lon="-0.7348">
        <ele>1527</ele>
        <time>2010-01-23T13:25:22Z</time>
      </trkpt>
      <trkpt lat="42.98032" lon="-0.73479">
        <ele>1527</ele>
        <time>2010-01-23T13:25:23Z</time>
      </trkpt>
      <trkpt lat="42.98029" lon="-0.73471">
        <ele>1528</ele>
        <time>2010-01-23T13:25:28Z</time>
      </trkpt>
      <trkpt lat="42.98022" lon="-0.73458">
        <ele>1529</ele>
        <time>2010-01-23T13:25:33Z</time>
      </trkpt>
      <trkpt lat="42.98015" lon="-0.73444">
        <ele>1530</ele>
        <time>2010-01-23T13:25:37Z</time>
      </trkpt>
      <trkpt lat="42.98007" lon="-0.73427">
        <ele>1532</ele>
        <time>2010-01-23T13:25:42Z</time>
      </trkpt>
      <trkpt lat="42.97995" lon="-0.73408">
        <ele>1541</ele>
        <time>2010-01-23T13:25:48Z</time>
      </trkpt>
      <trkpt lat="42.97982" lon="-0.73385">
        <ele>1549</ele>
        <time>2010-01-23T13:25:55Z</time>
      </trkpt>
      <trkpt lat="42.97969" lon="-0.73363">
        <ele>1553</ele>
        <time>2010-01-23T13:26:02Z</time>
      </trkpt>
      <trkpt lat="42.97953" lon="-0.73335">
        <ele>1556</ele>
        <time>2010-01-23T13:26:11Z</time>
      </trkpt>
      <trkpt lat="42.97943" lon="-0.73315">
        <ele>1569</ele>
        <time>2010-01-23T13:26:18Z</time>
      </trkpt>
      <trkpt lat="42.97927" lon="-0.73288">
        <ele>1572</ele>
        <time>2010-01-23T13:26:26Z</time>
      </trkpt>
      <trkpt lat="42.97907" lon="-0.73254">
        <ele>1581</ele>
        <time>2010-01-23T13:26:36Z</time>
      </trkpt>
      <trkpt lat="42.97894" lon="-0.73231">
        <ele>1595</ele>
        <time>2010-01-23T13:26:44Z</time>
      </trkpt>
      <trkpt lat="42.97885" lon="-0.73213">
        <ele>1599</ele>
        <time>2010-01-23T13:26:50Z</time>
      </trkpt>
      <trkpt lat="42.9787" lon="-0.73185">
        <ele>1603</ele>
        <time>2010-01-23T13:26:59Z</time>
      </trkpt>
      <trkpt lat="42.97857" lon="-0.7316">
        <ele>1615</ele>
        <time>2010-01-23T13:27:07Z</time>
      </trkpt>
      <trkpt lat="42.97847" lon="-0.73132">
        <ele>1617</ele>
        <time>2010-01-23T13:27:17Z</time>
      </trkpt>
      <trkpt lat="42.97832" lon="-0.73108">
        <ele>1629</ele>
        <time>2010-01-23T13:27:24Z</time>
      </trkpt>
      <trkpt lat="42.97819" lon="-0.73083">
        <ele>1633</ele>
        <time>2010-01-23T13:27:32Z</time>
      </trkpt>
      <trkpt lat="42.97805" lon="-0.7306">
        <ele>1639</ele>
        <time>2010-01-23T13:27:38Z</time>
      </trkpt>
      <trkpt lat="42.97796" lon="-0.73042">
        <ele>1642</ele>
        <time>2010-01-23T13:27:43Z</time>
      </trkpt>
      <trkpt lat="42.97789" lon="-0.7303">
        <ele>1644</ele>
        <time>2010-01-23T13:27:47Z</time>
      </trkpt>
      <trkpt lat="42.97771" lon="-0.73003">
        <ele>1649</ele>
        <time>2010-01-23T13:27:55Z</time>
      </trkpt>
      <trkpt lat="42.97758" lon="-0.72984">
        <ele>1656</ele>
        <time>2010-01-23T13:28:00Z</time>
      </trkpt>
      <trkpt lat="42.97746" lon="-0.72965">
        <ele>1667</ele>
        <time>2010-01-23T13:28:06Z</time>
      </trkpt>
      <trkpt lat="42.97734" lon="-0.72941">
        <ele>1669</ele>
        <time>2010-01-23T13:28:14Z</time>
      </trkpt>
      <trkpt lat="42.9772" lon="-0.72912">
        <ele>1678</ele>
        <time>2010-01-23T13:28:23Z</time>
      </trkpt>
      <trkpt lat="42.97704" lon="-0.72886">
        <ele>1682</ele>
        <time>2010-01-23T13:28:30Z</time>
      </trkpt>
      <trkpt lat="42.97689" lon="-0.72857">
        <ele>1686</ele>
        <time>2010-01-23T13:28:39Z</time>
      </trkpt>
      <trkpt lat="42.97671" lon="-0.72824">
        <ele>1696</ele>
        <time>2010-01-23T13:28:49Z</time>
      </trkpt>
      <trkpt lat="42.97652" lon="-0.72794">
        <ele>1705</ele>
        <time>2010-01-23T13:28:58Z</time>
      </trkpt>
      <trkpt lat="42.97636" lon="-0.72762">
        <ele>1708</ele>
        <time>2010-01-23T13:29:08Z</time>
      </trkpt>
      <trkpt lat="42.97623" lon="-0.72741">
        <ele>1717</ele>
        <time>2010-01-23T13:29:15Z</time>
      </trkpt>
      <trkpt lat="42.97609" lon="-0.72717">
        <ele>1719</ele>
        <time>2010-01-23T13:29:22Z</time>
      </trkpt>
      <trkpt lat="42.97594" lon="-0.7269">
        <ele>1721</ele>
        <time>2010-01-23T13:29:30Z</time>
      </trkpt>
      <trkpt lat="42.97575" lon="-0.72657">
        <ele>1728</ele>
        <time>2010-01-23T13:29:39Z</time>
      </trkpt>
      <trkpt lat="42.97561" lon="-0.72631">
        <ele>1731</ele>
        <time>2010-01-23T13:29:47Z</time>
      </trkpt>
      <trkpt lat="42.9755" lon="-0.7262">
        <ele>1732</ele>
        <time>2010-01-23T13:29:51Z</time>
      </trkpt>
      <trkpt lat="42.97537" lon="-0.7261">
        <ele>1733</ele>
        <time>2010-01-23T13:29:56Z</time>
      </trkpt>
      <trkpt lat="42.97521" lon="-0.72596">
        <ele>1735</ele>
        <time>2010-01-23T13:30:02Z</time>
      </trkpt>
      <trkpt lat="42.97507" lon="-0.72583">
        <ele>1741</ele>
        <time>2010-01-23T13:30:08Z</time>
      </trkpt>
      <trkpt lat="42.97491" lon="-0.72572">
        <ele>1746</ele>
        <time>2010-01-23T13:30:14Z</time>
      </trkpt>
      <trkpt lat="42.97464" lon="-0.72549">
        <ele>1751</ele>
        <time>2010-01-23T13:30:25Z</time>
      </trkpt>
      <trkpt lat="42.97437" lon="-0.72528">
        <ele>1756</ele>
        <time>2010-01-23T13:30:35Z</time>
      </trkpt>
      <trkpt lat="42.97413" lon="-0.72508">
        <ele>1769</ele>
        <time>2010-01-23T13:30:44Z</time>
      </trkpt>
      <trkpt lat="42.97382" lon="-0.72482">
        <ele>1788</ele>
        <time>2010-01-23T13:30:57Z</time>
      </trkpt>
      <trkpt lat="42.97358" lon="-0.72463">
        <ele>1794</ele>
        <time>2010-01-23T13:31:07Z</time>
      </trkpt>
      <trkpt lat="42.97336" lon="-0.72444">
        <ele>1800</ele>
        <time>2010-01-23T13:31:16Z</time>
      </trkpt>
      <trkpt lat="42.97316" lon="-0.72427">
        <ele>1811</ele>
        <time>2010-01-23T13:31:24Z</time>
      </trkpt>
      <trkpt lat="42.97292" lon="-0.72408">
        <ele>1824</ele>
        <time>2010-01-23T13:31:33Z</time>
      </trkpt>
      <trkpt lat="42.97271" lon="-0.72391">
        <ele>1826</ele>
        <time>2010-01-23T13:31:41Z</time>
      </trkpt>
      <trkpt lat="42.97253" lon="-0.72376">
        <ele>1828</ele>
        <time>2010-01-23T13:31:48Z</time>
      </trkpt>
      <trkpt lat="42.9723" lon="-0.72358">
        <ele>1843</ele>
        <time>2010-01-23T13:31:58Z</time>
      </trkpt>
      <trkpt lat="42.97217" lon="-0.72346">
        <ele>1845</ele>
        <time>2010-01-23T13:32:04Z</time>
      </trkpt>
      <trkpt lat="42.97199" lon="-0.72332">
        <ele>1855</ele>
        <time>2010-01-23T13:32:12Z</time>
      </trkpt>
      <trkpt lat="42.97167" lon="-0.72307">
        <ele>1859</ele>
        <time>2010-01-23T13:32:24Z</time>
      </trkpt>
      <trkpt lat="42.97141" lon="-0.72287">
        <ele>1878</ele>
        <time>2010-01-23T13:32:34Z</time>
      </trkpt>
      <trkpt lat="42.97122" lon="-0.72271">
        <ele>1882</ele>
        <time>2010-01-23T13:32:42Z</time>
      </trkpt>
      <trkpt lat="42.97107" lon="-0.7226">
        <ele>1887</ele>
        <time>2010-01-23T13:32:48Z</time>
      </trkpt>
      <trkpt lat="42.97093" lon="-0.72247">
        <ele>1896</ele>
        <time>2010-01-23T13:32:54Z</time>
      </trkpt>
      <trkpt lat="42.97074" lon="-0.72232">
        <ele>1904</ele>
        <time>2010-01-23T13:33:01Z</time>
      </trkpt>
      <trkpt lat="42.97056" lon="-0.72217">
        <ele>1906</ele>
        <time>2010-01-23T13:33:08Z</time>
      </trkpt>
      <trkpt lat="42.97038" lon="-0.72202">
        <ele>1908</ele>
        <time>2010-01-23T13:33:15Z</time>
      </trkpt>
      <trkpt lat="42.9702" lon="-0.72185">
        <ele>1909</ele>
        <time>2010-01-23T13:33:22Z</time>
      </trkpt>
      <trkpt lat="42.97008" lon="-0.72179">
        <ele>1911</ele>
        <time>2010-01-23T13:33:25Z</time>
      </trkpt>
      <trkpt lat="42.97001" lon="-0.72179">
        <ele>1911</ele>
        <time>2010-01-23T13:33:28Z</time>
      </trkpt>
      <trkpt lat="42.97002" lon="-0.72182">
        <ele>1911</ele>
        <time>2010-01-23T13:33:35Z</time>
      </trkpt>
      <trkpt lat="42.97003" lon="-0.72183">
        <ele>1911</ele>
        <time>2010-01-23T13:33:41Z</time>
      </trkpt>
      <trkpt lat="42.97004" lon="-0.72184">
        <ele>1911</ele>
        <time>2010-01-23T13:33:50Z</time>
      </trkpt>
      <trkpt lat="42.97004" lon="-0.72185">
        <ele>1911</ele>
        <time>2010-01-23T13:34:00Z</time>
      </trkpt>
      <trkpt lat="42.97003" lon="-0.72185">
        <ele>1911</ele>
        <time>2010-01-23T13:34:07Z</time>
      </trkpt>
      <trkpt lat="42.97003" lon="-0.72186">
        <ele>1911</ele>
        <time>2010-01-23T13:34:17Z</time>
      </trkpt>
      <trkpt lat="42.97003" lon="-0.72186">
        <ele>1911</ele>
        <time>2010-01-23T13:34:27Z</time>
      </trkpt>
      <trkpt lat="42.97003" lon="-0.72186">
        <ele>1911</ele>
        <time>2010-01-23T13:34:36Z</time>
      </trkpt>
      <trkpt lat="42.97004" lon="-0.72186">
        <ele>1911</ele>
        <time>2010-01-23T13:34:48Z</time>
      </trkpt>
      <trkpt lat="42.97004" lon="-0.72184">
        <ele>1911</ele>
        <time>2010-01-23T13:35:04Z</time>
      </trkpt>
      <trkpt lat="42.97004" lon="-0.72185">
        <ele>1911</ele>
        <time>2010-01-23T13:35:25Z</time>
      </trkpt>
      <trkpt lat="42.97004" lon="-0.72184">
        <ele>1911</ele>
        <time>2010-01-23T13:36:01Z</time>
      </trkpt>
      <trkpt lat="42.97003" lon="-0.72187">
        <ele>1911</ele>
        <time>2010-01-23T13:36:31Z</time>
      </trkpt>
      <trkpt lat="42.97007" lon="-0.72193">
        <ele>1910</ele>
        <time>2010-01-23T13:36:38Z</time>
      </trkpt>
      <trkpt lat="42.97009" lon="-0.72191">
        <ele>1910</ele>
        <time>2010-01-23T13:36:43Z</time>
      </trkpt>
      <trkpt lat="42.97009" lon="-0.72192">
        <ele>1910</ele>
        <time>2010-01-23T13:36:49Z</time>
      </trkpt>
      <trkpt lat="42.97009" lon="-0.72191">
        <ele>1910</ele>
        <time>2010-01-23T13:36:56Z</time>
      </trkpt>
      <trkpt lat="42.97009" lon="-0.7219">
        <ele>1910</ele>
        <time>2010-01-23T13:37:03Z</time>
      </trkpt>
      <trkpt lat="42.97011" lon="-0.7219">
        <ele>1910</ele>
        <time>2010-01-23T13:37:20Z</time>
      </trkpt>
      <trkpt lat="42.97013" lon="-0.72194">
        <ele>1910</ele>
        <time>2010-01-23T13:37:28Z</time>
      </trkpt>
      <trkpt lat="42.97016" lon="-0.72204">
        <ele>1909</ele>
        <time>2010-01-23T13:37:34Z</time>
      </trkpt>
      <trkpt lat="42.97017" lon="-0.72208">
        <ele>1909</ele>
        <time>2010-01-23T13:37:36Z</time>
      </trkpt>
      <trkpt lat="42.97021" lon="-0.72217">
        <ele>1909</ele>
        <time>2010-01-23T13:37:42Z</time>
      </trkpt>
      <trkpt lat="42.97028" lon="-0.72222">
        <ele>1908</ele>
        <time>2010-01-23T13:37:45Z</time>
      </trkpt>
      <trkpt lat="42.97041" lon="-0.72229">
        <ele>1907</ele>
        <time>2010-01-23T13:37:49Z</time>
      </trkpt>
      <trkpt lat="42.97058" lon="-0.72242">
        <ele>1905</ele>
        <time>2010-01-23T13:37:52Z</time>
      </trkpt>
      <trkpt lat="42.97083" lon="-0.72264">
        <ele>1900</ele>
        <time>2010-01-23T13:37:56Z</time>
      </trkpt>
      <trkpt lat="42.97105" lon="-0.72284">
        <ele>1884</ele>
        <time>2010-01-23T13:38:00Z</time>
      </trkpt>
      <trkpt lat="42.97111" lon="-0.72287">
        <ele>1883</ele>
        <time>2010-01-23T13:38:01Z</time>
      </trkpt>
      <trkpt lat="42.97128" lon="-0.72299">
        <ele>1879</ele>
        <time>2010-01-23T13:38:06Z</time>
      </trkpt>
      <trkpt lat="42.97133" lon="-0.72305">
        <ele>1878</ele>
        <time>2010-01-23T13:38:10Z</time>
      </trkpt>
      <trkpt lat="42.97134" lon="-0.72306">
        <ele>1878</ele>
        <time>2010-01-23T13:38:11Z</time>
      </trkpt>
      <trkpt lat="42.97136" lon="-0.72312">
        <ele>1877</ele>
        <time>2010-01-23T13:38:14Z</time>
      </trkpt>
      <trkpt lat="42.97141" lon="-0.72309">
        <ele>1876</ele>
        <time>2010-01-23T13:38:18Z</time>
      </trkpt>
      <trkpt lat="42.97141" lon="-0.72309">
        <ele>1877</ele>
        <time>2010-01-23T13:38:23Z</time>
      </trkpt>
      <trkpt lat="42.9714" lon="-0.7231">
        <ele>1877</ele>
        <time>2010-01-23T13:38:35Z</time>
      </trkpt>
      <trkpt lat="42.9715" lon="-0.72323">
        <ele>1873</ele>
        <time>2010-01-23T13:38:39Z</time>
      </trkpt>
      <trkpt lat="42.97158" lon="-0.72324">
        <ele>1870</ele>
        <time>2010-01-23T13:38:42Z</time>
      </trkpt>
      <trkpt lat="42.97159" lon="-0.72325">
        <ele>1870</ele>
        <time>2010-01-23T13:38:46Z</time>
      </trkpt>
      <trkpt lat="42.97163" lon="-0.7233">
        <ele>1867</ele>
        <time>2010-01-23T13:38:53Z</time>
      </trkpt>
      <trkpt lat="42.97168" lon="-0.72334">
        <ele>1863</ele>
        <time>2010-01-23T13:38:57Z</time>
      </trkpt>
      <trkpt lat="42.97176" lon="-0.72339">
        <ele>1857</ele>
        <time>2010-01-23T13:39:03Z</time>
      </trkpt>
      <trkpt lat="42.97179" lon="-0.72342">
        <ele>1856</ele>
        <time>2010-01-23T13:39:10Z</time>
      </trkpt>
      <trkpt lat="42.9718" lon="-0.72342">
        <ele>1855</ele>
        <time>2010-01-23T13:39:15Z</time>
      </trkpt>
      <trkpt lat="42.97186" lon="-0.72349">
        <ele>1852</ele>
        <time>2010-01-23T13:39:23Z</time>
      </trkpt>
      <trkpt lat="42.97188" lon="-0.72353">
        <ele>1851</ele>
        <time>2010-01-23T13:39:24Z</time>
      </trkpt>
      <trkpt lat="42.97199" lon="-0.72355">
        <ele>1849</ele>
        <time>2010-01-23T13:39:28Z</time>
      </trkpt>
      <trkpt lat="42.97198" lon="-0.72354">
        <ele>1849</ele>
        <time>2010-01-23T13:39:31Z</time>
      </trkpt>
      <trkpt lat="42.97197" lon="-0.72354">
        <ele>1849</ele>
        <time>2010-01-23T13:39:37Z</time>
      </trkpt>
      <trkpt lat="42.97197" lon="-0.72355">
        <ele>1849</ele>
        <time>2010-01-23T13:39:46Z</time>
      </trkpt>
      <trkpt lat="42.97197" lon="-0.72355">
        <ele>1849</ele>
        <time>2010-01-23T13:39:55Z</time>
      </trkpt>
      <trkpt lat="42.97197" lon="-0.72356">
        <ele>1849</ele>
        <time>2010-01-23T13:39:59Z</time>
      </trkpt>
      <trkpt lat="42.97202" lon="-0.72358">
        <ele>1848</ele>
        <time>2010-01-23T13:40:01Z</time>
      </trkpt>
      <trkpt lat="42.97213" lon="-0.72375">
        <ele>1845</ele>
        <time>2010-01-23T13:40:04Z</time>
      </trkpt>
      <trkpt lat="42.97227" lon="-0.72393">
        <ele>1840</ele>
        <time>2010-01-23T13:40:08Z</time>
      </trkpt>
      <trkpt lat="42.97229" lon="-0.72401">
        <ele>1838</ele>
        <time>2010-01-23T13:40:09Z</time>
      </trkpt>
      <trkpt lat="42.97253" lon="-0.72433">
        <ele>1816</ele>
        <time>2010-01-23T13:40:13Z</time>
      </trkpt>
      <trkpt lat="42.97282" lon="-0.72445">
        <ele>1811</ele>
        <time>2010-01-23T13:40:16Z</time>
      </trkpt>
      <trkpt lat="42.97295" lon="-0.72443">
        <ele>1810</ele>
        <time>2010-01-23T13:40:18Z</time>
      </trkpt>
      <trkpt lat="42.97298" lon="-0.72442">
        <ele>1810</ele>
        <time>2010-01-23T13:40:20Z</time>
      </trkpt>
      <trkpt lat="42.97297" lon="-0.72441">
        <ele>1810</ele>
        <time>2010-01-23T13:40:25Z</time>
      </trkpt>
      <trkpt lat="42.97298" lon="-0.72438">
        <ele>1810</ele>
        <time>2010-01-23T13:40:34Z</time>
      </trkpt>
      <trkpt lat="42.97299" lon="-0.72434">
        <ele>1811</ele>
        <time>2010-01-23T13:40:49Z</time>
      </trkpt>
      <trkpt lat="42.97297" lon="-0.72428">
        <ele>1811</ele>
        <time>2010-01-23T13:41:01Z</time>
      </trkpt>
      <trkpt lat="42.97295" lon="-0.72426">
        <ele>1811</ele>
        <time>2010-01-23T13:41:08Z</time>
      </trkpt>
      <trkpt lat="42.97294" lon="-0.72425">
        <ele>1812</ele>
        <time>2010-01-23T13:41:13Z</time>
      </trkpt>
      <trkpt lat="42.97292" lon="-0.72423">
        <ele>1812</ele>
        <time>2010-01-23T13:41:20Z</time>
      </trkpt>
      <trkpt lat="42.97291" lon="-0.72421">
        <ele>1812</ele>
        <time>2010-01-23T13:41:25Z</time>
      </trkpt>
      <trkpt lat="42.97287" lon="-0.72419">
        <ele>1812</ele>
        <time>2010-01-23T13:41:33Z</time>
      </trkpt>
      <trkpt lat="42.97283" lon="-0.72418">
        <ele>1813</ele>
        <time>2010-01-23T13:41:38Z</time>
      </trkpt>
      <trkpt lat="42.9728" lon="-0.72416">
        <ele>1824</ele>
        <time>2010-01-23T13:41:43Z</time>
      </trkpt>
      <trkpt lat="42.97277" lon="-0.72414">
        <ele>1824</ele>
        <time>2010-01-23T13:41:48Z</time>
      </trkpt>
      <trkpt lat="42.97275" lon="-0.72414">
        <ele>1824</ele>
        <time>2010-01-23T13:41:53Z</time>
      </trkpt>
      <trkpt lat="42.97272" lon="-0.72415">
        <ele>1824</ele>
        <time>2010-01-23T13:41:59Z</time>
      </trkpt>
      <trkpt lat="42.97273" lon="-0.72416">
        <ele>1824</ele>
        <time>2010-01-23T13:42:08Z</time>
      </trkpt>
      <trkpt lat="42.97272" lon="-0.72415">
        <ele>1824</ele>
        <time>2010-01-23T13:42:19Z</time>
      </trkpt>
      <trkpt lat="42.9727" lon="-0.72413">
        <ele>1824</ele>
        <time>2010-01-23T13:42:28Z</time>
      </trkpt>
      <trkpt lat="42.97268" lon="-0.72412">
        <ele>1824</ele>
        <time>2010-01-23T13:42:35Z</time>
      </trkpt>
      <trkpt lat="42.97267" lon="-0.7241">
        <ele>1824</ele>
        <time>2010-01-23T13:42:40Z</time>
      </trkpt>
      <trkpt lat="42.97264" lon="-0.72408">
        <ele>1824</ele>
        <time>2010-01-23T13:42:46Z</time>
      </trkpt>
      <trkpt lat="42.97263" lon="-0.72407">
        <ele>1824</ele>
        <time>2010-01-23T13:42:50Z</time>
      </trkpt>
      <trkpt lat="42.97254" lon="-0.72398">
        <ele>1825</ele>
        <time>2010-01-23T13:42:54Z</time>
      </trkpt>
      <trkpt lat="42.97227" lon="-0.72375">
        <ele>1842</ele>
        <time>2010-01-23T13:43:05Z</time>
      </trkpt>
      <trkpt lat="42.97201" lon="-0.72353">
        <ele>1848</ele>
        <time>2010-01-23T13:43:16Z</time>
      </trkpt>
      <trkpt lat="42.97175" lon="-0.72332">
        <ele>1861</ele>
        <time>2010-01-23T13:43:27Z</time>
      </trkpt>
      <trkpt lat="42.97142" lon="-0.72306">
        <ele>1877</ele>
        <time>2010-01-23T13:43:40Z</time>
      </trkpt>
      <trkpt lat="42.97122" lon="-0.72289">
        <ele>1881</ele>
        <time>2010-01-23T13:43:48Z</time>
      </trkpt>
      <trkpt lat="42.97099" lon="-0.7227">
        <ele>1887</ele>
        <time>2010-01-23T13:43:57Z</time>
      </trkpt>
      <trkpt lat="42.97077" lon="-0.72253">
        <ele>1900</ele>
        <time>2010-01-23T13:44:05Z</time>
      </trkpt>
      <trkpt lat="42.9705" lon="-0.7223">
        <ele>1906</ele>
        <time>2010-01-23T13:44:15Z</time>
      </trkpt>
      <trkpt lat="42.97026" lon="-0.7221">
        <ele>1908</ele>
        <time>2010-01-23T13:44:25Z</time>
      </trkpt>
      <trkpt lat="42.9701" lon="-0.72205">
        <ele>1909</ele>
        <time>2010-01-23T13:44:30Z</time>
      </trkpt>
      <trkpt lat="42.96996" lon="-0.72205">
        <ele>1925</ele>
        <time>2010-01-23T13:44:35Z</time>
      </trkpt>
      <trkpt lat="42.96971" lon="-0.72207">
        <ele>1929</ele>
        <time>2010-01-23T13:44:44Z</time>
      </trkpt>
      <trkpt lat="42.96943" lon="-0.72208">
        <ele>1935</ele>
        <time>2010-01-23T13:44:54Z</time>
      </trkpt>
      <trkpt lat="42.96904" lon="-0.7221">
        <ele>1961</ele>
        <time>2010-01-23T13:45:08Z</time>
      </trkpt>
      <trkpt lat="42.96873" lon="-0.72211">
        <ele>1966</ele>
        <time>2010-01-23T13:45:19Z</time>
      </trkpt>
      <trkpt lat="42.96841" lon="-0.72212">
        <ele>1971</ele>
        <time>2010-01-23T13:45:30Z</time>
      </trkpt>
      <trkpt lat="42.9681" lon="-0.72213">
        <ele>1990</ele>
        <time>2010-01-23T13:45:41Z</time>
      </trkpt>
      <trkpt lat="42.9678" lon="-0.72214">
        <ele>1994</ele>
        <time>2010-01-23T13:45:51Z</time>
      </trkpt>
      <trkpt lat="42.96754" lon="-0.72215">
        <ele>1997</ele>
        <time>2010-01-23T13:46:00Z</time>
      </trkpt>
      <trkpt lat="42.96736" lon="-0.72217">
        <ele>2014</ele>
        <time>2010-01-23T13:46:06Z</time>
      </trkpt>
      <trkpt lat="42.967" lon="-0.72217">
        <ele>2020</ele>
        <time>2010-01-23T13:46:18Z</time>
      </trkpt>
      <trkpt lat="42.96665" lon="-0.72219">
        <ele>2042</ele>
        <time>2010-01-23T13:46:30Z</time>
      </trkpt>
      <trkpt lat="42.96636" lon="-0.7222">
        <ele>2046</ele>
        <time>2010-01-23T13:46:40Z</time>
      </trkpt>
      <trkpt lat="42.96601" lon="-0.72221">
        <ele>2053</ele>
        <time>2010-01-23T13:46:52Z</time>
      </trkpt>
      <trkpt lat="42.96586" lon="-0.7222">
        <ele>2055</ele>
        <time>2010-01-23T13:46:57Z</time>
      </trkpt>
      <trkpt lat="42.9656" lon="-0.72222">
        <ele>2073</ele>
        <time>2010-01-23T13:47:06Z</time>
      </trkpt>
      <trkpt lat="42.96531" lon="-0.72224">
        <ele>2077</ele>
        <time>2010-01-23T13:47:16Z</time>
      </trkpt>
      <trkpt lat="42.96505" lon="-0.72225">
        <ele>2080</ele>
        <time>2010-01-23T13:47:25Z</time>
      </trkpt>
      <trkpt lat="42.96482" lon="-0.72226">
        <ele>2094</ele>
        <time>2010-01-23T13:47:33Z</time>
      </trkpt>
      <trkpt lat="42.96464" lon="-0.72227">
        <ele>2097</ele>
        <time>2010-01-23T13:47:39Z</time>
      </trkpt>
      <trkpt lat="42.96443" lon="-0.72228">
        <ele>2100</ele>
        <time>2010-01-23T13:47:46Z</time>
      </trkpt>
      <trkpt lat="42.96417" lon="-0.72229">
        <ele>2103</ele>
        <time>2010-01-23T13:47:55Z</time>
      </trkpt>
      <trkpt lat="42.96395" lon="-0.72231">
        <ele>2114</ele>
        <time>2010-01-23T13:48:02Z</time>
      </trkpt>
      <trkpt lat="42.96379" lon="-0.72235">
        <ele>2116</ele>
        <time>2010-01-23T13:48:06Z</time>
      </trkpt>
      <trkpt lat="42.96364" lon="-0.72234">
        <ele>2118</ele>
        <time>2010-01-23T13:48:10Z</time>
      </trkpt>
      <trkpt lat="42.96361" lon="-0.72234">
        <ele>2118</ele>
        <time>2010-01-23T13:48:13Z</time>
      </trkpt>
      <trkpt lat="42.96363" lon="-0.72234">
        <ele>2118</ele>
        <time>2010-01-23T13:48:20Z</time>
      </trkpt>
      <trkpt lat="42.96366" lon="-0.72233">
        <ele>2118</ele>
        <time>2010-01-23T13:48:26Z</time>
      </trkpt>
      <trkpt lat="42.96367" lon="-0.72233">
        <ele>2118</ele>
        <time>2010-01-23T13:48:38Z</time>
      </trkpt>
      <trkpt lat="42.96368" lon="-0.72231">
        <ele>2118</ele>
        <time>2010-01-23T13:48:51Z</time>
      </trkpt>
      <trkpt lat="42.96368" lon="-0.72232">
        <ele>2118</ele>
        <time>2010-01-23T13:48:57Z</time>
      </trkpt>
      <trkpt lat="42.96367" lon="-0.72232">
        <ele>2118</ele>
        <time>2010-01-23T13:49:09Z</time>
      </trkpt>
      <trkpt lat="42.96367" lon="-0.72232">
        <ele>2118</ele>
        <time>2010-01-23T13:49:19Z</time>
      </trkpt>
      <trkpt lat="42.96368" lon="-0.72233">
        <ele>2118</ele>
        <time>2010-01-23T13:49:25Z</time>
      </trkpt>
      <trkpt lat="42.96369" lon="-0.72232">
        <ele>2118</ele>
        <time>2010-01-23T13:49:43Z</time>
      </trkpt>
      <trkpt lat="42.96369" lon="-0.72232">
        <ele>2118</ele>
        <time>2010-01-23T13:49:50Z</time>
      </trkpt>
      <trkpt lat="42.96369" lon="-0.72231">
        <ele>2118</ele>
        <time>2010-01-23T13:50:03Z</time>
      </trkpt>
      <trkpt lat="42.96369" lon="-0.72231">
        <ele>2118</ele>
        <time>2010-01-23T13:50:18Z</time>
      </trkpt>
      <trkpt lat="42.96369" lon="-0.72231">
        <ele>2118</ele>
        <time>2010-01-23T13:50:26Z</time>
      </trkpt>
      <trkpt lat="42.96369" lon="-0.72231">
        <ele>2118</ele>
        <time>2010-01-23T13:50:38Z</time>
      </trkpt>
      <trkpt lat="42.9637" lon="-0.72231">
        <ele>2118</ele>
        <time>2010-01-23T13:50:45Z</time>
      </trkpt>
      <trkpt lat="42.9637" lon="-0.7223">
        <ele>2117</ele>
        <time>2010-01-23T13:50:53Z</time>
      </trkpt>
      <trkpt lat="42.9637" lon="-0.72231">
        <ele>2117</ele>
        <time>2010-01-23T13:51:06Z</time>
      </trkpt>
      <trkpt lat="42.96369" lon="-0.72232">
        <ele>2118</ele>
        <time>2010-01-23T13:51:15Z</time>
      </trkpt>
      <trkpt lat="42.96369" lon="-0.72233">
        <ele>2118</ele>
        <time>2010-01-23T13:51:29Z</time>
      </trkpt>
      <trkpt lat="42.96369" lon="-0.72233">
        <ele>2118</ele>
        <time>2010-01-23T13:51:42Z</time>
      </trkpt>
      <trkpt lat="42.96369" lon="-0.72232">
        <ele>2118</ele>
        <time>2010-01-23T13:51:52Z</time>
      </trkpt>
      <trkpt lat="42.96369" lon="-0.72233">
        <ele>2118</ele>
        <time>2010-01-23T13:52:05Z</time>
      </trkpt>
      <trkpt lat="42.96367" lon="-0.72232">
        <ele>2118</ele>
        <time>2010-01-23T13:52:16Z</time>
      </trkpt>
      <trkpt lat="42.96367" lon="-0.72232">
        <ele>2118</ele>
        <time>2010-01-23T13:52:25Z</time>
      </trkpt>
      <trkpt lat="42.96368" lon="-0.72232">
        <ele>2118</ele>
        <time>2010-01-23T13:53:08Z</time>
      </trkpt>
      <trkpt lat="42.96367" lon="-0.72233">
        <ele>2118</ele>
        <time>2010-01-23T13:53:16Z</time>
      </trkpt>
      <trkpt lat="42.96367" lon="-0.72232">
        <ele>2118</ele>
        <time>2010-01-23T13:53:26Z</time>
      </trkpt>
      <trkpt lat="42.96368" lon="-0.72235">
        <ele>2118</ele>
        <time>2010-01-23T13:53:33Z</time>
      </trkpt>
      <trkpt lat="42.96368" lon="-0.7224">
        <ele>2118</ele>
        <time>2010-01-23T13:53:36Z</time>
      </trkpt>
      <trkpt lat="42.96367" lon="-0.72243">
        <ele>2118</ele>
        <time>2010-01-23T13:53:38Z</time>
      </trkpt>
      <trkpt lat="42.96366" lon="-0.7225">
        <ele>2118</ele>
        <time>2010-01-23T13:53:43Z</time>
      </trkpt>
      <trkpt lat="42.96366" lon="-0.7226">
        <ele>2114</ele>
        <time>2010-01-23T13:53:53Z</time>
      </trkpt>
      <trkpt lat="42.96365" lon="-0.72262">
        <ele>2114</ele>
        <time>2010-01-23T13:53:58Z</time>
      </trkpt>
      <trkpt lat="42.96364" lon="-0.72263">
        <ele>2115</ele>
        <time>2010-01-23T13:54:09Z</time>
      </trkpt>
      <trkpt lat="42.96358" lon="-0.72279">
        <ele>2114</ele>
        <time>2010-01-23T13:54:14Z</time>
      </trkpt>
      <trkpt lat="42.96351" lon="-0.72312">
        <ele>2112</ele>
        <time>2010-01-23T13:54:18Z</time>
      </trkpt>
      <trkpt lat="42.96349" lon="-0.72322">
        <ele>2111</ele>
        <time>2010-01-23T13:54:19Z</time>
      </trkpt>
      <trkpt lat="42.96342" lon="-0.72357">
        <ele>2101</ele>
        <time>2010-01-23T13:54:23Z</time>
      </trkpt>
      <trkpt lat="42.96339" lon="-0.72366">
        <ele>2099</ele>
        <time>2010-01-23T13:54:24Z</time>
      </trkpt>
      <trkpt lat="42.96323" lon="-0.72401">
        <ele>2095</ele>
        <time>2010-01-23T13:54:28Z</time>
      </trkpt>
      <trkpt lat="42.96308" lon="-0.72425">
        <ele>2082</ele>
        <time>2010-01-23T13:54:32Z</time>
      </trkpt>
      <trkpt lat="42.96286" lon="-0.72461">
        <ele>2079</ele>
        <time>2010-01-23T13:54:36Z</time>
      </trkpt>
      <trkpt lat="42.96272" lon="-0.72482">
        <ele>2076</ele>
        <time>2010-01-23T13:54:38Z</time>
      </trkpt>
      <trkpt lat="42.96254" lon="-0.72524">
        <ele>2065</ele>
        <time>2010-01-23T13:54:41Z</time>
      </trkpt>
      <trkpt lat="42.96253" lon="-0.72571">
        <ele>2061</ele>
        <time>2010-01-23T13:54:44Z</time>
      </trkpt>
      <trkpt lat="42.96262" lon="-0.72609">
        <ele>2056</ele>
        <time>2010-01-23T13:54:47Z</time>
      </trkpt>
      <trkpt lat="42.96286" lon="-0.72674">
        <ele>2052</ele>
        <time>2010-01-23T13:54:54Z</time>
      </trkpt>
      <trkpt lat="42.9629" lon="-0.72684">
        <ele>2051</ele>
        <time>2010-01-23T13:54:55Z</time>
      </trkpt>
      <trkpt lat="42.96294" lon="-0.72728">
        <ele>2049</ele>
        <time>2010-01-23T13:54:59Z</time>
      </trkpt>
      <trkpt lat="42.96278" lon="-0.72797">
        <ele>2042</ele>
        <time>2010-01-23T13:55:06Z</time>
      </trkpt>
      <trkpt lat="42.96265" lon="-0.72847">
        <ele>2034</ele>
        <time>2010-01-23T13:55:10Z</time>
      </trkpt>
      <trkpt lat="42.96241" lon="-0.72928">
        <ele>2026</ele>
        <time>2010-01-23T13:55:16Z</time>
      </trkpt>
      <trkpt lat="42.96221" lon="-0.72995">
        <ele>2021</ele>
        <time>2010-01-23T13:55:22Z</time>
      </trkpt>
      <trkpt lat="42.96215" lon="-0.73033">
        <ele>2015</ele>
        <time>2010-01-23T13:55:26Z</time>
      </trkpt>
      <trkpt lat="42.96218" lon="-0.7308">
        <ele>2013</ele>
        <time>2010-01-23T13:55:30Z</time>
      </trkpt>
      <trkpt lat="42.96223" lon="-0.73119">
        <ele>2008</ele>
        <time>2010-01-23T13:55:35Z</time>
      </trkpt>
      <trkpt lat="42.96224" lon="-0.73117">
        <ele>2009</ele>
        <time>2010-01-23T13:55:38Z</time>
      </trkpt>
      <trkpt lat="42.96224" lon="-0.73116">
        <ele>2009</ele>
        <time>2010-01-23T13:55:46Z</time>
      </trkpt>
      <trkpt lat="42.96223" lon="-0.73117">
        <ele>2009</ele>
        <time>2010-01-23T13:55:51Z</time>
      </trkpt>
      <trkpt lat="42.96223" lon="-0.73117">
        <ele>2009</ele>
        <time>2010-01-23T13:56:00Z</time>
      </trkpt>
      <trkpt lat="42.96223" lon="-0.73117">
        <ele>2009</ele>
        <time>2010-01-23T13:56:06Z</time>
      </trkpt>
      <trkpt lat="42.96222" lon="-0.73118">
        <ele>2009</ele>
        <time>2010-01-23T13:56:14Z</time>
      </trkpt>
      <trkpt lat="42.96222" lon="-0.73119">
        <ele>2008</ele>
        <time>2010-01-23T13:56:16Z</time>
      </trkpt>
      <trkpt lat="42.96226" lon="-0.73121">
        <ele>2008</ele>
        <time>2010-01-23T13:56:20Z</time>
      </trkpt>
      <trkpt lat="42.96228" lon="-0.73121">
        <ele>2008</ele>
        <time>2010-01-23T13:56:42Z</time>
      </trkpt>
      <trkpt lat="42.96227" lon="-0.73122">
        <ele>2008</ele>
        <time>2010-01-23T13:57:03Z</time>
      </trkpt>
      <trkpt lat="42.96227" lon="-0.73121">
        <ele>2008</ele>
        <time>2010-01-23T13:57:18Z</time>
      </trkpt>
      <trkpt lat="42.96227" lon="-0.73122">
        <ele>2008</ele>
        <time>2010-01-23T13:57:27Z</time>
      </trkpt>
      <trkpt lat="42.96225" lon="-0.73121">
        <ele>2008</ele>
        <time>2010-01-23T13:57:57Z</time>
      </trkpt>
      <trkpt lat="42.96225" lon="-0.73121">
        <ele>2008</ele>
        <time>2010-01-23T13:58:07Z</time>
      </trkpt>
      <trkpt lat="42.96225" lon="-0.73121">
        <ele>2008</ele>
        <time>2010-01-23T13:58:29Z</time>
      </trkpt>
      <trkpt lat="42.96225" lon="-0.73121">
        <ele>2008</ele>
        <time>2010-01-23T13:58:44Z</time>
      </trkpt>
      <trkpt lat="42.96227" lon="-0.73122">
        <ele>2008</ele>
        <time>2010-01-23T13:58:58Z</time>
      </trkpt>
      <trkpt lat="42.9624" lon="-0.73138">
        <ele>2007</ele>
        <time>2010-01-23T13:59:02Z</time>
      </trkpt>
      <trkpt lat="42.9625" lon="-0.73152">
        <ele>2006</ele>
        <time>2010-01-23T13:59:04Z</time>
      </trkpt>
      <trkpt lat="42.96261" lon="-0.73176">
        <ele>2001</ele>
        <time>2010-01-23T13:59:07Z</time>
      </trkpt>
      <trkpt lat="42.96278" lon="-0.73215">
        <ele>1997</ele>
        <time>2010-01-23T13:59:11Z</time>
      </trkpt>
      <trkpt lat="42.96292" lon="-0.73224">
        <ele>1996</ele>
        <time>2010-01-23T13:59:13Z</time>
      </trkpt>
      <trkpt lat="42.96303" lon="-0.73225">
        <ele>1996</ele>
        <time>2010-01-23T13:59:17Z</time>
      </trkpt>
      <trkpt lat="42.96302" lon="-0.73226">
        <ele>1996</ele>
        <time>2010-01-23T13:59:23Z</time>
      </trkpt>
      <trkpt lat="42.96303" lon="-0.73227">
        <ele>1996</ele>
        <time>2010-01-23T13:59:28Z</time>
      </trkpt>
      <trkpt lat="42.96303" lon="-0.73227">
        <ele>1996</ele>
        <time>2010-01-23T13:59:35Z</time>
      </trkpt>
      <trkpt lat="42.96303" lon="-0.73228">
        <ele>1996</ele>
        <time>2010-01-23T13:59:41Z</time>
      </trkpt>
      <trkpt lat="42.96302" lon="-0.73227">
        <ele>1996</ele>
        <time>2010-01-23T13:59:52Z</time>
      </trkpt>
      <trkpt lat="42.96302" lon="-0.73227">
        <ele>1996</ele>
        <time>2010-01-23T14:00:03Z</time>
      </trkpt>
      <trkpt lat="42.96302" lon="-0.73227">
        <ele>1996</ele>
        <time>2010-01-23T14:00:28Z</time>
      </trkpt>
      <trkpt lat="42.96302" lon="-0.73226">
        <ele>1996</ele>
        <time>2010-01-23T14:00:46Z</time>
      </trkpt>
      <trkpt lat="42.96301" lon="-0.73228">
        <ele>1996</ele>
        <time>2010-01-23T14:00:51Z</time>
      </trkpt>
      <trkpt lat="42.96297" lon="-0.73246">
        <ele>1995</ele>
        <time>2010-01-23T14:00:55Z</time>
      </trkpt>
      <trkpt lat="42.96292" lon="-0.73274">
        <ele>1989</ele>
        <time>2010-01-23T14:00:58Z</time>
      </trkpt>
      <trkpt lat="42.96276" lon="-0.73304">
        <ele>1987</ele>
        <time>2010-01-23T14:01:02Z</time>
      </trkpt>
      <trkpt lat="42.9625" lon="-0.7333">
        <ele>1984</ele>
        <time>2010-01-23T14:01:06Z</time>
      </trkpt>
      <trkpt lat="42.96233" lon="-0.73354">
        <ele>1981</ele>
        <time>2010-01-23T14:01:09Z</time>
      </trkpt>
      <trkpt lat="42.96208" lon="-0.73389">
        <ele>1980</ele>
        <time>2010-01-23T14:01:13Z</time>
      </trkpt>
      <trkpt lat="42.96197" lon="-0.7341">
        <ele>1979</ele>
        <time>2010-01-23T14:01:15Z</time>
      </trkpt>
      <trkpt lat="42.96173" lon="-0.73472">
        <ele>1973</ele>
        <time>2010-01-23T14:01:20Z</time>
      </trkpt>
      <trkpt lat="42.96166" lon="-0.73495">
        <ele>1972</ele>
        <time>2010-01-23T14:01:22Z</time>
      </trkpt>
      <trkpt lat="42.96163" lon="-0.73521">
        <ele>1967</ele>
        <time>2010-01-23T14:01:25Z</time>
      </trkpt>
      <trkpt lat="42.96173" lon="-0.73554">
        <ele>1963</ele>
        <time>2010-01-23T14:01:29Z</time>
      </trkpt>
      <trkpt lat="42.96188" lon="-0.73571">
        <ele>1962</ele>
        <time>2010-01-23T14:01:32Z</time>
      </trkpt>
      <trkpt lat="42.96203" lon="-0.73574">
        <ele>1962</ele>
        <time>2010-01-23T14:01:35Z</time>
      </trkpt>
      <trkpt lat="42.96208" lon="-0.73572">
        <ele>1962</ele>
        <time>2010-01-23T14:01:43Z</time>
      </trkpt>
      <trkpt lat="42.96211" lon="-0.73574">
        <ele>1962</ele>
        <time>2010-01-23T14:01:50Z</time>
      </trkpt>
      <trkpt lat="42.96212" lon="-0.73574">
        <ele>1962</ele>
        <time>2010-01-23T14:02:00Z</time>
      </trkpt>
      <trkpt lat="42.96212" lon="-0.73574">
        <ele>1962</ele>
        <time>2010-01-23T14:02:28Z</time>
      </trkpt>
      <trkpt lat="42.96218" lon="-0.73586">
        <ele>1954</ele>
        <time>2010-01-23T14:02:32Z</time>
      </trkpt>
      <trkpt lat="42.9622" lon="-0.73602">
        <ele>1954</ele>
        <time>2010-01-23T14:02:34Z</time>
      </trkpt>
      <trkpt lat="42.96221" lon="-0.73625">
        <ele>1952</ele>
        <time>2010-01-23T14:02:38Z</time>
      </trkpt>
      <trkpt lat="42.96223" lon="-0.73625">
        <ele>1952</ele>
        <time>2010-01-23T14:02:42Z</time>
      </trkpt>
      <trkpt lat="42.96223" lon="-0.73626">
        <ele>1951</ele>
        <time>2010-01-23T14:02:57Z</time>
      </trkpt>
      <trkpt lat="42.96223" lon="-0.73627">
        <ele>1951</ele>
        <time>2010-01-23T14:02:58Z</time>
      </trkpt>
      <trkpt lat="42.96212" lon="-0.7365">
        <ele>1950</ele>
        <time>2010-01-23T14:03:03Z</time>
      </trkpt>
      <trkpt lat="42.9621" lon="-0.73656">
        <ele>1949</ele>
        <time>2010-01-23T14:03:04Z</time>
      </trkpt>
      <trkpt lat="42.96205" lon="-0.73684">
        <ele>1942</ele>
        <time>2010-01-23T14:03:10Z</time>
      </trkpt>
      <trkpt lat="42.96206" lon="-0.73696">
        <ele>1941</ele>
        <time>2010-01-23T14:03:13Z</time>
      </trkpt>
      <trkpt lat="42.96202" lon="-0.73701">
        <ele>1941</ele>
        <time>2010-01-23T14:03:19Z</time>
      </trkpt>
      <trkpt lat="42.96197" lon="-0.73713">
        <ele>1940</ele>
        <time>2010-01-23T14:03:23Z</time>
      </trkpt>
      <trkpt lat="42.96198" lon="-0.73738">
        <ele>1939</ele>
        <time>2010-01-23T14:03:26Z</time>
      </trkpt>
      <trkpt lat="42.96201" lon="-0.73769">
        <ele>1932</ele>
        <time>2010-01-23T14:03:29Z</time>
      </trkpt>
      <trkpt lat="42.96204" lon="-0.73797">
        <ele>1930</ele>
        <time>2010-01-23T14:03:32Z</time>
      </trkpt>
      <trkpt lat="42.96205" lon="-0.73823">
        <ele>1929</ele>
        <time>2010-01-23T14:03:35Z</time>
      </trkpt>
      <trkpt lat="42.96208" lon="-0.7384">
        <ele>1920</ele>
        <time>2010-01-23T14:03:37Z</time>
      </trkpt>
      <trkpt lat="42.96226" lon="-0.7389">
        <ele>1917</ele>
        <time>2010-01-23T14:03:42Z</time>
      </trkpt>
      <trkpt lat="42.96245" lon="-0.73938">
        <ele>1910</ele>
        <time>2010-01-23T14:03:46Z</time>
      </trkpt>
      <trkpt lat="42.96256" lon="-0.73979">
        <ele>1906</ele>
        <time>2010-01-23T14:03:50Z</time>
      </trkpt>
      <trkpt lat="42.96263" lon="-0.74034">
        <ele>1900</ele>
        <time>2010-01-23T14:03:55Z</time>
      </trkpt>
      <trkpt lat="42.96268" lon="-0.74089">
        <ele>1895</ele>
        <time>2010-01-23T14:03:59Z</time>
      </trkpt>
      <trkpt lat="42.96273" lon="-0.74149">
        <ele>1892</ele>
        <time>2010-01-23T14:04:03Z</time>
      </trkpt>
      <trkpt lat="42.96285" lon="-0.74223">
        <ele>1887</ele>
        <time>2010-01-23T14:04:09Z</time>
      </trkpt>
      <trkpt lat="42.96303" lon="-0.74302">
        <ele>1880</ele>
        <time>2010-01-23T14:04:15Z</time>
      </trkpt>
      <trkpt lat="42.96307" lon="-0.74315">
        <ele>1880</ele>
        <time>2010-01-23T14:04:16Z</time>
      </trkpt>
      <trkpt lat="42.96328" lon="-0.74331">
        <ele>1876</ele>
        <time>2010-01-23T14:04:19Z</time>
      </trkpt>
      <trkpt lat="42.96337" lon="-0.74316">
        <ele>1869</ele>
        <time>2010-01-23T14:04:21Z</time>
      </trkpt>
      <trkpt lat="42.96342" lon="-0.74296">
        <ele>1867</ele>
        <time>2010-01-23T14:04:23Z</time>
      </trkpt>
      <trkpt lat="42.96347" lon="-0.74261">
        <ele>1869</ele>
        <time>2010-01-23T14:04:26Z</time>
      </trkpt>
      <trkpt lat="42.96356" lon="-0.74231">
        <ele>1868</ele>
        <time>2010-01-23T14:04:29Z</time>
      </trkpt>
      <trkpt lat="42.9639" lon="-0.74189">
        <ele>1862</ele>
        <time>2010-01-23T14:04:34Z</time>
      </trkpt>
      <trkpt lat="42.96398" lon="-0.74179">
        <ele>1859</ele>
        <time>2010-01-23T14:04:35Z</time>
      </trkpt>
      <trkpt lat="42.96439" lon="-0.7415">
        <ele>1846</ele>
        <time>2010-01-23T14:04:39Z</time>
      </trkpt>
      <trkpt lat="42.96493" lon="-0.74128">
        <ele>1839</ele>
        <time>2010-01-23T14:04:44Z</time>
      </trkpt>
      <trkpt lat="42.9653" lon="-0.74103">
        <ele>1826</ele>
        <time>2010-01-23T14:04:48Z</time>
      </trkpt>
      <trkpt lat="42.96555" lon="-0.74088">
        <ele>1825</ele>
        <time>2010-01-23T14:04:52Z</time>
      </trkpt>
      <trkpt lat="42.96558" lon="-0.74085">
        <ele>1824</ele>
        <time>2010-01-23T14:04:55Z</time>
      </trkpt>
      <trkpt lat="42.96558" lon="-0.74086">
        <ele>1824</ele>
        <time>2010-01-23T14:05:04Z</time>
      </trkpt>
      <trkpt lat="42.96558" lon="-0.74085">
        <ele>1824</ele>
        <time>2010-01-23T14:05:14Z</time>
      </trkpt>
      <trkpt lat="42.96559" lon="-0.74084">
        <ele>1824</ele>
        <time>2010-01-23T14:05:15Z</time>
      </trkpt>
      <trkpt lat="42.9657" lon="-0.74072">
        <ele>1826</ele>
        <time>2010-01-23T14:05:20Z</time>
      </trkpt>
      <trkpt lat="42.96575" lon="-0.74072">
        <ele>1826</ele>
        <time>2010-01-23T14:05:25Z</time>
      </trkpt>
      <trkpt lat="42.96575" lon="-0.74072">
        <ele>1826</ele>
        <time>2010-01-23T14:05:35Z</time>
      </trkpt>
      <trkpt lat="42.96575" lon="-0.74071">
        <ele>1826</ele>
        <time>2010-01-23T14:05:42Z</time>
      </trkpt>
      <trkpt lat="42.96575" lon="-0.74071">
        <ele>1826</ele>
        <time>2010-01-23T14:05:49Z</time>
      </trkpt>
      <trkpt lat="42.96575" lon="-0.74071">
        <ele>1826</ele>
        <time>2010-01-23T14:06:10Z</time>
      </trkpt>
      <trkpt lat="42.96575" lon="-0.7407">
        <ele>1826</ele>
        <time>2010-01-23T14:06:32Z</time>
      </trkpt>
      <trkpt lat="42.96575" lon="-0.7407">
        <ele>1826</ele>
        <time>2010-01-23T14:06:42Z</time>
      </trkpt>
      <trkpt lat="42.96575" lon="-0.7407">
        <ele>1826</ele>
        <time>2010-01-23T14:06:47Z</time>
      </trkpt>
      <trkpt lat="42.96576" lon="-0.74069">
        <ele>1826</ele>
        <time>2010-01-23T14:06:49Z</time>
      </trkpt>
      <trkpt lat="42.96582" lon="-0.7406">
        <ele>1827</ele>
        <time>2010-01-23T14:06:54Z</time>
      </trkpt>
      <trkpt lat="42.96585" lon="-0.74059">
        <ele>1816</ele>
        <time>2010-01-23T14:07:02Z</time>
      </trkpt>
      <trkpt lat="42.96589" lon="-0.74058">
        <ele>1816</ele>
        <time>2010-01-23T14:07:10Z</time>
      </trkpt>
      <trkpt lat="42.96602" lon="-0.74045">
        <ele>1814</ele>
        <time>2010-01-23T14:07:16Z</time>
      </trkpt>
      <trkpt lat="42.96622" lon="-0.74034">
        <ele>1811</ele>
        <time>2010-01-23T14:07:20Z</time>
      </trkpt>
      <trkpt lat="42.96629" lon="-0.74029">
        <ele>1811</ele>
        <time>2010-01-23T14:07:21Z</time>
      </trkpt>
      <trkpt lat="42.96655" lon="-0.74">
        <ele>1805</ele>
        <time>2010-01-23T14:07:25Z</time>
      </trkpt>
      <trkpt lat="42.96695" lon="-0.73978">
        <ele>1802</ele>
        <time>2010-01-23T14:07:30Z</time>
      </trkpt>
      <trkpt lat="42.9672" lon="-0.73987">
        <ele>1799</ele>
        <time>2010-01-23T14:07:33Z</time>
      </trkpt>
      <trkpt lat="42.96741" lon="-0.74">
        <ele>1792</ele>
        <time>2010-01-23T14:07:36Z</time>
      </trkpt>
      <trkpt lat="42.96757" lon="-0.74004">
        <ele>1785</ele>
        <time>2010-01-23T14:07:38Z</time>
      </trkpt>
      <trkpt lat="42.96804" lon="-0.7402">
        <ele>1779</ele>
        <time>2010-01-23T14:07:42Z</time>
      </trkpt>
      <trkpt lat="42.96829" lon="-0.74024">
        <ele>1779</ele>
        <time>2010-01-23T14:07:44Z</time>
      </trkpt>
      <trkpt lat="42.96854" lon="-0.74021">
        <ele>1772</ele>
        <time>2010-01-23T14:07:47Z</time>
      </trkpt>
      <trkpt lat="42.96878" lon="-0.74025">
        <ele>1769</ele>
        <time>2010-01-23T14:07:50Z</time>
      </trkpt>
      <trkpt lat="42.96935" lon="-0.7404">
        <ele>1761</ele>
        <time>2010-01-23T14:07:55Z</time>
      </trkpt>
      <trkpt lat="42.96946" lon="-0.7404">
        <ele>1761</ele>
        <time>2010-01-23T14:07:56Z</time>
      </trkpt>
      <trkpt lat="42.96984" lon="-0.74028">
        <ele>1761</ele>
        <time>2010-01-23T14:08:00Z</time>
      </trkpt>
      <trkpt lat="42.97011" lon="-0.74001">
        <ele>1756</ele>
        <time>2010-01-23T14:08:04Z</time>
      </trkpt>
      <trkpt lat="42.97027" lon="-0.73975">
        <ele>1752</ele>
        <time>2010-01-23T14:08:08Z</time>
      </trkpt>
      <trkpt lat="42.97042" lon="-0.73963">
        <ele>1751</ele>
        <time>2010-01-23T14:08:13Z</time>
      </trkpt>
      <trkpt lat="42.97055" lon="-0.73967">
        <ele>1750</ele>
        <time>2010-01-23T14:08:17Z</time>
      </trkpt>
      <trkpt lat="42.97057" lon="-0.73975">
        <ele>1749</ele>
        <time>2010-01-23T14:08:19Z</time>
      </trkpt>
      <trkpt lat="42.97059" lon="-0.73981">
        <ele>1749</ele>
        <time>2010-01-23T14:08:24Z</time>
      </trkpt>
      <trkpt lat="42.97063" lon="-0.73986">
        <ele>1748</ele>
        <time>2010-01-23T14:08:28Z</time>
      </trkpt>
      <trkpt lat="42.97079" lon="-0.74005">
        <ele>1746</ele>
        <time>2010-01-23T14:08:32Z</time>
      </trkpt>
      <trkpt lat="42.97117" lon="-0.74029">
        <ele>1738</ele>
        <time>2010-01-23T14:08:36Z</time>
      </trkpt>
      <trkpt lat="42.9713" lon="-0.74031">
        <ele>1737</ele>
        <time>2010-01-23T14:08:37Z</time>
      </trkpt>
      <trkpt lat="42.97185" lon="-0.74029">
        <ele>1733</ele>
        <time>2010-01-23T14:08:42Z</time>
      </trkpt>
      <trkpt lat="42.97231" lon="-0.74032">
        <ele>1734</ele>
        <time>2010-01-23T14:08:47Z</time>
      </trkpt>
      <trkpt lat="42.97273" lon="-0.74031">
        <ele>1729</ele>
        <time>2010-01-23T14:08:52Z</time>
      </trkpt>
      <trkpt lat="42.97282" lon="-0.74031">
        <ele>1729</ele>
        <time>2010-01-23T14:08:53Z</time>
      </trkpt>
      <trkpt lat="42.97316" lon="-0.74027">
        <ele>1726</ele>
        <time>2010-01-23T14:08:57Z</time>
      </trkpt>
      <trkpt lat="42.97328" lon="-0.74021">
        <ele>1725</ele>
        <time>2010-01-23T14:08:59Z</time>
      </trkpt>
      <trkpt lat="42.97344" lon="-0.74016">
        <ele>1716</ele>
        <time>2010-01-23T14:09:03Z</time>
      </trkpt>
      <trkpt lat="42.97351" lon="-0.74012">
        <ele>1715</ele>
        <time>2010-01-23T14:09:08Z</time>
      </trkpt>
      <trkpt lat="42.97351" lon="-0.74012">
        <ele>1715</ele>
        <time>2010-01-23T14:09:15Z</time>
      </trkpt>
      <trkpt lat="42.9735" lon="-0.74013">
        <ele>1715</ele>
        <time>2010-01-23T14:09:22Z</time>
      </trkpt>
      <trkpt lat="42.97351" lon="-0.74013">
        <ele>1715</ele>
        <time>2010-01-23T14:09:49Z</time>
      </trkpt>
      <trkpt lat="42.9735" lon="-0.74013">
        <ele>1715</ele>
        <time>2010-01-23T14:09:56Z</time>
      </trkpt>
      <trkpt lat="42.9735" lon="-0.74013">
        <ele>1715</ele>
        <time>2010-01-23T14:10:13Z</time>
      </trkpt>
      <trkpt lat="42.97349" lon="-0.74016">
        <ele>1715</ele>
        <time>2010-01-23T14:10:37Z</time>
      </trkpt>
      <trkpt lat="42.97348" lon="-0.74015">
        <ele>1715</ele>
        <time>2010-01-23T14:10:50Z</time>
      </trkpt>
      <trkpt lat="42.97349" lon="-0.74033">
        <ele>1714</ele>
        <time>2010-01-23T14:10:54Z</time>
      </trkpt>
      <trkpt lat="42.97352" lon="-0.74053">
        <ele>1713</ele>
        <time>2010-01-23T14:10:56Z</time>
      </trkpt>
      <trkpt lat="42.97362" lon="-0.74115">
        <ele>1710</ele>
        <time>2010-01-23T14:11:02Z</time>
      </trkpt>
      <trkpt lat="42.97364" lon="-0.74165">
        <ele>1710</ele>
        <time>2010-01-23T14:11:06Z</time>
      </trkpt>
      <trkpt lat="42.97375" lon="-0.7422">
        <ele>1706</ele>
        <time>2010-01-23T14:11:11Z</time>
      </trkpt>
      <trkpt lat="42.97378" lon="-0.74237">
        <ele>1706</ele>
        <time>2010-01-23T14:11:13Z</time>
      </trkpt>
      <trkpt lat="42.97377" lon="-0.7428">
        <ele>1705</ele>
        <time>2010-01-23T14:11:19Z</time>
      </trkpt>
      <trkpt lat="42.97372" lon="-0.74307">
        <ele>1706</ele>
        <time>2010-01-23T14:11:22Z</time>
      </trkpt>
      <trkpt lat="42.97371" lon="-0.74331">
        <ele>1706</ele>
        <time>2010-01-23T14:11:26Z</time>
      </trkpt>
      <trkpt lat="42.97375" lon="-0.74337">
        <ele>1705</ele>
        <time>2010-01-23T14:11:28Z</time>
      </trkpt>
      <trkpt lat="42.97382" lon="-0.74353">
        <ele>1703</ele>
        <time>2010-01-23T14:11:35Z</time>
      </trkpt>
      <trkpt lat="42.97384" lon="-0.74369">
        <ele>1703</ele>
        <time>2010-01-23T14:11:42Z</time>
      </trkpt>
      <trkpt lat="42.97392" lon="-0.74383">
        <ele>1702</ele>
        <time>2010-01-23T14:11:47Z</time>
      </trkpt>
      <trkpt lat="42.97406" lon="-0.74391">
        <ele>1700</ele>
        <time>2010-01-23T14:11:52Z</time>
      </trkpt>
      <trkpt lat="42.97428" lon="-0.74396">
        <ele>1689</ele>
        <time>2010-01-23T14:12:00Z</time>
      </trkpt>
      <trkpt lat="42.9744" lon="-0.7441">
        <ele>1688</ele>
        <time>2010-01-23T14:12:07Z</time>
      </trkpt>
      <trkpt lat="42.97449" lon="-0.74433">
        <ele>1687</ele>
        <time>2010-01-23T14:12:11Z</time>
      </trkpt>
      <trkpt lat="42.97455" lon="-0.74447">
        <ele>1686</ele>
        <time>2010-01-23T14:12:13Z</time>
      </trkpt>
      <trkpt lat="42.9747" lon="-0.74477">
        <ele>1685</ele>
        <time>2010-01-23T14:12:17Z</time>
      </trkpt>
      <trkpt lat="42.9747" lon="-0.74488">
        <ele>1684</ele>
        <time>2010-01-23T14:12:20Z</time>
      </trkpt>
      <trkpt lat="42.97484" lon="-0.74504">
        <ele>1681</ele>
        <time>2010-01-23T14:12:24Z</time>
      </trkpt>
      <trkpt lat="42.975" lon="-0.74512">
        <ele>1675</ele>
        <time>2010-01-23T14:12:27Z</time>
      </trkpt>
      <trkpt lat="42.97511" lon="-0.74517">
        <ele>1674</ele>
        <time>2010-01-23T14:12:30Z</time>
      </trkpt>
      <trkpt lat="42.97517" lon="-0.74516">
        <ele>1673</ele>
        <time>2010-01-23T14:12:33Z</time>
      </trkpt>
      <trkpt lat="42.97517" lon="-0.74515">
        <ele>1673</ele>
        <time>2010-01-23T14:12:40Z</time>
      </trkpt>
      <trkpt lat="42.97516" lon="-0.74515">
        <ele>1674</ele>
        <time>2010-01-23T14:13:12Z</time>
      </trkpt>
      <trkpt lat="42.97517" lon="-0.7452">
        <ele>1673</ele>
        <time>2010-01-23T14:13:16Z</time>
      </trkpt>
      <trkpt lat="42.97531" lon="-0.74532">
        <ele>1672</ele>
        <time>2010-01-23T14:13:20Z</time>
      </trkpt>
      <trkpt lat="42.97557" lon="-0.74549">
        <ele>1670</ele>
        <time>2010-01-23T14:13:24Z</time>
      </trkpt>
      <trkpt lat="42.97578" lon="-0.74559">
        <ele>1669</ele>
        <time>2010-01-23T14:13:27Z</time>
      </trkpt>
      <trkpt lat="42.97608" lon="-0.7456">
        <ele>1664</ele>
        <time>2010-01-23T14:13:31Z</time>
      </trkpt>
      <trkpt lat="42.97636" lon="-0.74558">
        <ele>1662</ele>
        <time>2010-01-23T14:13:35Z</time>
      </trkpt>
      <trkpt lat="42.97667" lon="-0.74574">
        <ele>1657</ele>
        <time>2010-01-23T14:13:40Z</time>
      </trkpt>
      <trkpt lat="42.97678" lon="-0.74582">
        <ele>1657</ele>
        <time>2010-01-23T14:13:42Z</time>
      </trkpt>
      <trkpt lat="42.97708" lon="-0.74586">
        <ele>1654</ele>
        <time>2010-01-23T14:13:47Z</time>
      </trkpt>
      <trkpt lat="42.97722" lon="-0.7459">
        <ele>1653</ele>
        <time>2010-01-23T14:13:49Z</time>
      </trkpt>
      <trkpt lat="42.97736" lon="-0.74597">
        <ele>1652</ele>
        <time>2010-01-23T14:13:51Z</time>
      </trkpt>
      <trkpt lat="42.97751" lon="-0.7462">
        <ele>1644</ele>
        <time>2010-01-23T14:13:55Z</time>
      </trkpt>
      <trkpt lat="42.97752" lon="-0.74625">
        <ele>1643</ele>
        <time>2010-01-23T14:13:56Z</time>
      </trkpt>
      <trkpt lat="42.97758" lon="-0.74639">
        <ele>1643</ele>
        <time>2010-01-23T14:13:59Z</time>
      </trkpt>
      <trkpt lat="42.97768" lon="-0.7468">
        <ele>1640</ele>
        <time>2010-01-23T14:14:06Z</time>
      </trkpt>
      <trkpt lat="42.97778" lon="-0.74721">
        <ele>1638</ele>
        <time>2010-01-23T14:14:14Z</time>
      </trkpt>
      <trkpt lat="42.97791" lon="-0.74749">
        <ele>1637</ele>
        <time>2010-01-23T14:14:19Z</time>
      </trkpt>
      <trkpt lat="42.97813" lon="-0.74761">
        <ele>1636</ele>
        <time>2010-01-23T14:14:24Z</time>
      </trkpt>
      <trkpt lat="42.97825" lon="-0.74756">
        <ele>1634</ele>
        <time>2010-01-23T14:14:26Z</time>
      </trkpt>
      <trkpt lat="42.97848" lon="-0.74717">
        <ele>1627</ele>
        <time>2010-01-23T14:14:31Z</time>
      </trkpt>
      <trkpt lat="42.9785" lon="-0.74707">
        <ele>1627</ele>
        <time>2010-01-23T14:14:32Z</time>
      </trkpt>
      <trkpt lat="42.97869" lon="-0.74619">
        <ele>1626</ele>
        <time>2010-01-23T14:14:39Z</time>
      </trkpt>
      <trkpt lat="42.97873" lon="-0.74607">
        <ele>1626</ele>
        <time>2010-01-23T14:14:40Z</time>
      </trkpt>
      <trkpt lat="42.97899" lon="-0.74546">
        <ele>1622</ele>
        <time>2010-01-23T14:14:46Z</time>
      </trkpt>
      <trkpt lat="42.97912" lon="-0.74528">
        <ele>1620</ele>
        <time>2010-01-23T14:14:48Z</time>
      </trkpt>
      <trkpt lat="42.97927" lon="-0.74497">
        <ele>1611</ele>
        <time>2010-01-23T14:14:51Z</time>
      </trkpt>
      <trkpt lat="42.97944" lon="-0.74448">
        <ele>1607</ele>
        <time>2010-01-23T14:14:55Z</time>
      </trkpt>
      <trkpt lat="42.97949" lon="-0.74404">
        <ele>1600</ele>
        <time>2010-01-23T14:14:58Z</time>
      </trkpt>
      <trkpt lat="42.97944" lon="-0.74306">
        <ele>1592</ele>
        <time>2010-01-23T14:15:03Z</time>
      </trkpt>
      <trkpt lat="42.97939" lon="-0.74217">
        <ele>1584</ele>
        <time>2010-01-23T14:15:08Z</time>
      </trkpt>
      <trkpt lat="42.97951" lon="-0.74143">
        <ele>1575</ele>
        <time>2010-01-23T14:15:13Z</time>
      </trkpt>
      <trkpt lat="42.97958" lon="-0.74098">
        <ele>1573</ele>
        <time>2010-01-23T14:15:17Z</time>
      </trkpt>
      <trkpt lat="42.97962" lon="-0.74057">
        <ele>1570</ele>
        <time>2010-01-23T14:15:22Z</time>
      </trkpt>
      <trkpt lat="42.97964" lon="-0.74025">
        <ele>1569</ele>
        <time>2010-01-23T14:15:27Z</time>
      </trkpt>
      <trkpt lat="42.97965" lon="-0.74009">
        <ele>1568</ele>
        <time>2010-01-23T14:15:30Z</time>
      </trkpt>
      <trkpt lat="42.97962" lon="-0.73979">
        <ele>1568</ele>
        <time>2010-01-23T14:15:35Z</time>
      </trkpt>
      <trkpt lat="42.97968" lon="-0.73952">
        <ele>1567</ele>
        <time>2010-01-23T14:15:41Z</time>
      </trkpt>
      <trkpt lat="42.97971" lon="-0.7393">
        <ele>1565</ele>
        <time>2010-01-23T14:15:46Z</time>
      </trkpt>
      <trkpt lat="42.97974" lon="-0.73913">
        <ele>1560</ele>
        <time>2010-01-23T14:15:50Z</time>
      </trkpt>
      <trkpt lat="42.97975" lon="-0.73896">
        <ele>1561</ele>
        <time>2010-01-23T14:15:54Z</time>
      </trkpt>
      <trkpt lat="42.97975" lon="-0.73874">
        <ele>1560</ele>
        <time>2010-01-23T14:15:59Z</time>
      </trkpt>
      <trkpt lat="42.97972" lon="-0.73852">
        <ele>1559</ele>
        <time>2010-01-23T14:16:04Z</time>
      </trkpt>
      <trkpt lat="42.97963" lon="-0.73817">
        <ele>1555</ele>
        <time>2010-01-23T14:16:10Z</time>
      </trkpt>
      <trkpt lat="42.97947" lon="-0.73773">
        <ele>1556</ele>
        <time>2010-01-23T14:16:16Z</time>
      </trkpt>
      <trkpt lat="42.97939" lon="-0.7374">
        <ele>1555</ele>
        <time>2010-01-23T14:16:19Z</time>
      </trkpt>
      <trkpt lat="42.97941" lon="-0.73694">
        <ele>1551</ele>
        <time>2010-01-23T14:16:23Z</time>
      </trkpt>
      <trkpt lat="42.97955" lon="-0.73669">
        <ele>1548</ele>
        <time>2010-01-23T14:16:26Z</time>
      </trkpt>
      <trkpt lat="42.97967" lon="-0.73657">
        <ele>1541</ele>
        <time>2010-01-23T14:16:28Z</time>
      </trkpt>
      <trkpt lat="42.97989" lon="-0.73614">
        <ele>1537</ele>
        <time>2010-01-23T14:16:33Z</time>
      </trkpt>
      <trkpt lat="42.97999" lon="-0.7355">
        <ele>1534</ele>
        <time>2010-01-23T14:16:39Z</time>
      </trkpt>
      <trkpt lat="42.98002" lon="-0.73528">
        <ele>1524</ele>
        <time>2010-01-23T14:16:42Z</time>
      </trkpt>
      <trkpt lat="42.98006" lon="-0.73519">
        <ele>1524</ele>
        <time>2010-01-23T14:16:46Z</time>
      </trkpt>
      <trkpt lat="42.98007" lon="-0.73517">
        <ele>1524</ele>
        <time>2010-01-23T14:16:51Z</time>
      </trkpt>
      <trkpt lat="42.98007" lon="-0.73516">
        <ele>1524</ele>
        <time>2010-01-23T14:16:58Z</time>
      </trkpt>
      <trkpt lat="42.9801" lon="-0.73517">
        <ele>1524</ele>
        <time>2010-01-23T14:17:14Z</time>
      </trkpt>
      <trkpt lat="42.9801" lon="-0.73516">
        <ele>1524</ele>
        <time>2010-01-23T14:17:25Z</time>
      </trkpt>
      <trkpt lat="42.9801" lon="-0.73513">
        <ele>1524</ele>
        <time>2010-01-23T14:17:33Z</time>
      </trkpt>
      <trkpt lat="42.9801" lon="-0.73511">
        <ele>1524</ele>
        <time>2010-01-23T14:17:42Z</time>
      </trkpt>
      <trkpt lat="42.9801" lon="-0.73509">
        <ele>1524</ele>
        <time>2010-01-23T14:17:50Z</time>
      </trkpt>
      <trkpt lat="42.9801" lon="-0.73507">
        <ele>1524</ele>
        <time>2010-01-23T14:17:57Z</time>
      </trkpt>
      <trkpt lat="42.98011" lon="-0.73506">
        <ele>1524</ele>
        <time>2010-01-23T14:18:15Z</time>
      </trkpt>
      <trkpt lat="42.98012" lon="-0.73505">
        <ele>1524</ele>
        <time>2010-01-23T14:18:40Z</time>
      </trkpt>
      <trkpt lat="42.98013" lon="-0.73505">
        <ele>1524</ele>
        <time>2010-01-23T14:18:59Z</time>
      </trkpt>
      <trkpt lat="42.98014" lon="-0.73505">
        <ele>1524</ele>
        <time>2010-01-23T14:19:13Z</time>
      </trkpt>
      <trkpt lat="42.98015" lon="-0.73504">
        <ele>1524</ele>
        <time>2010-01-23T14:19:40Z</time>
      </trkpt>
      <trkpt lat="42.98014" lon="-0.73504">
        <ele>1524</ele>
        <time>2010-01-23T14:19:54Z</time>
      </trkpt>
      <trkpt lat="42.98015" lon="-0.73503">
        <ele>1524</ele>
        <time>2010-01-23T14:20:02Z</time>
      </trkpt>
      <trkpt lat="42.98017" lon="-0.73502">
        <ele>1523</ele>
        <time>2010-01-23T14:20:43Z</time>
      </trkpt>
      <trkpt lat="42.98017" lon="-0.73502">
        <ele>1523</ele>
        <time>2010-01-23T14:20:55Z</time>
      </trkpt>
      <trkpt lat="42.98018" lon="-0.73501">
        <ele>1523</ele>
        <time>2010-01-23T14:21:13Z</time>
      </trkpt>
      <trkpt lat="42.98019" lon="-0.73499">
        <ele>1526</ele>
        <time>2010-01-23T14:21:19Z</time>
      </trkpt>
      <trkpt lat="42.9802" lon="-0.73498">
        <ele>1526</ele>
        <time>2010-01-23T14:21:26Z</time>
      </trkpt>
      <trkpt lat="42.98021" lon="-0.73498">
        <ele>1526</ele>
        <time>2010-01-23T14:21:34Z</time>
      </trkpt>
      <trkpt lat="42.98022" lon="-0.73497">
        <ele>1526</ele>
        <time>2010-01-23T14:21:58Z</time>
      </trkpt>
      <trkpt lat="42.98023" lon="-0.73497">
        <ele>1526</ele>
        <time>2010-01-23T14:22:14Z</time>
      </trkpt>
      <trkpt lat="42.98025" lon="-0.73495">
        <ele>1526</ele>
        <time>2010-01-23T14:22:24Z</time>
      </trkpt>
      <trkpt lat="42.98025" lon="-0.73494">
        <ele>1526</ele>
        <time>2010-01-23T14:22:33Z</time>
      </trkpt>
      <trkpt lat="42.98026" lon="-0.73494">
        <ele>1526</ele>
        <time>2010-01-23T14:22:55Z</time>
      </trkpt>
      <trkpt lat="42.98026" lon="-0.73493">
        <ele>1526</ele>
        <time>2010-01-23T14:23:07Z</time>
      </trkpt>
      <trkpt lat="42.98027" lon="-0.73492">
        <ele>1526</ele>
        <time>2010-01-23T14:23:22Z</time>
      </trkpt>
      <trkpt lat="42.98028" lon="-0.7349">
        <ele>1526</ele>
        <time>2010-01-23T14:23:31Z</time>
      </trkpt>
      <trkpt lat="42.98028" lon="-0.7349">
        <ele>1526</ele>
        <time>2010-01-23T14:23:56Z</time>
      </trkpt>
      <trkpt lat="42.98029" lon="-0.7349">
        <ele>1526</ele>
        <time>2010-01-23T14:24:11Z</time>
      </trkpt>
      <trkpt lat="42.98031" lon="-0.73488">
        <ele>1527</ele>
        <time>2010-01-23T14:24:23Z</time>
      </trkpt>
      <trkpt lat="42.98032" lon="-0.73483">
        <ele>1527</ele>
        <time>2010-01-23T14:24:29Z</time>
      </trkpt>
      <trkpt lat="42.9803" lon="-0.7348">
        <ele>1527</ele>
        <time>2010-01-23T14:24:33Z</time>
      </trkpt>
      <trkpt lat="42.98025" lon="-0.73477">
        <ele>1527</ele>
        <time>2010-01-23T14:25:08Z</time>
      </trkpt>
      <trkpt lat="42.98025" lon="-0.73473">
        <ele>1527</ele>
        <time>2010-01-23T14:25:16Z</time>
      </trkpt>
      <trkpt lat="42.98024" lon="-0.73472">
        <ele>1528</ele>
        <time>2010-01-23T14:25:26Z</time>
      </trkpt>
      <trkpt lat="42.98023" lon="-0.7347">
        <ele>1528</ele>
        <time>2010-01-23T14:25:30Z</time>
      </trkpt>
      <trkpt lat="42.98014" lon="-0.73453">
        <ele>1529</ele>
        <time>2010-01-23T14:25:35Z</time>
      </trkpt>
      <trkpt lat="42.98006" lon="-0.7344">
        <ele>1531</ele>
        <time>2010-01-23T14:25:39Z</time>
      </trkpt>
      <trkpt lat="42.97996" lon="-0.7342">
        <ele>1536</ele>
        <time>2010-01-23T14:25:45Z</time>
      </trkpt>
      <trkpt lat="42.97978" lon="-0.73387">
        <ele>1549</ele>
        <time>2010-01-23T14:25:55Z</time>
      </trkpt>
      <trkpt lat="42.97963" lon="-0.73362">
        <ele>1554</ele>
        <time>2010-01-23T14:26:03Z</time>
      </trkpt>
      <trkpt lat="42.97942" lon="-0.73323">
        <ele>1568</ele>
        <time>2010-01-23T14:26:15Z</time>
      </trkpt>
      <trkpt lat="42.97928" lon="-0.73297">
        <ele>1570</ele>
        <time>2010-01-23T14:26:23Z</time>
      </trkpt>
      <trkpt lat="42.97918" lon="-0.73277">
        <ele>1574</ele>
        <time>2010-01-23T14:26:29Z</time>
      </trkpt>
      <trkpt lat="42.979" lon="-0.73245">
        <ele>1590</ele>
        <time>2010-01-23T14:26:39Z</time>
      </trkpt>
      <trkpt lat="42.97883" lon="-0.73216">
        <ele>1599</ele>
        <time>2010-01-23T14:26:48Z</time>
      </trkpt>
      <trkpt lat="42.97867" lon="-0.73187">
        <ele>1604</ele>
        <time>2010-01-23T14:26:57Z</time>
      </trkpt>
      <trkpt lat="42.97848" lon="-0.73152">
        <ele>1616</ele>
        <time>2010-01-23T14:27:08Z</time>
      </trkpt>
      <trkpt lat="42.97826" lon="-0.73112">
        <ele>1629</ele>
        <time>2010-01-23T14:27:21Z</time>
      </trkpt>
      <trkpt lat="42.9781" lon="-0.73082">
        <ele>1636</ele>
        <time>2010-01-23T14:27:30Z</time>
      </trkpt>
      <trkpt lat="42.97795" lon="-0.73057">
        <ele>1641</ele>
        <time>2010-01-23T14:27:38Z</time>
      </trkpt>
      <trkpt lat="42.97785" lon="-0.73039">
        <ele>1644</ele>
        <time>2010-01-23T14:27:43Z</time>
      </trkpt>
      <trkpt lat="42.97778" lon="-0.73027">
        <ele>1645</ele>
        <time>2010-01-23T14:27:47Z</time>
      </trkpt>
      <trkpt lat="42.97763" lon="-0.73">
        <ele>1655</ele>
        <time>2010-01-23T14:27:56Z</time>
      </trkpt>
      <trkpt lat="42.97749" lon="-0.72974">
        <ele>1665</ele>
        <time>2010-01-23T14:28:03Z</time>
      </trkpt>
      <trkpt lat="42.97743" lon="-0.72962">
        <ele>1668</ele>
        <time>2010-01-23T14:28:07Z</time>
      </trkpt>
      <trkpt lat="42.97736" lon="-0.7295">
        <ele>1669</ele>
        <time>2010-01-23T14:28:11Z</time>
      </trkpt>
      <trkpt lat="42.97716" lon="-0.72915">
        <ele>1679</ele>
        <time>2010-01-23T14:28:22Z</time>
      </trkpt>
      <trkpt lat="42.97706" lon="-0.72897">
        <ele>1681</ele>
        <time>2010-01-23T14:28:27Z</time>
      </trkpt>
      <trkpt lat="42.97696" lon="-0.72878">
        <ele>1684</ele>
        <time>2010-01-23T14:28:33Z</time>
      </trkpt>
      <trkpt lat="42.97676" lon="-0.72842">
        <ele>1691</ele>
        <time>2010-01-23T14:28:44Z</time>
      </trkpt>
      <trkpt lat="42.97659" lon="-0.72812">
        <ele>1703</ele>
        <time>2010-01-23T14:28:53Z</time>
      </trkpt>
      <trkpt lat="42.97644" lon="-0.72786">
        <ele>1706</ele>
        <time>2010-01-23T14:29:01Z</time>
      </trkpt>
      <trkpt lat="42.97622" lon="-0.72747">
        <ele>1717</ele>
        <time>2010-01-23T14:29:14Z</time>
      </trkpt>
      <trkpt lat="42.97611" lon="-0.72728">
        <ele>1718</ele>
        <time>2010-01-23T14:29:20Z</time>
      </trkpt>
      <trkpt lat="42.97593" lon="-0.72693">
        <ele>1721</ele>
        <time>2010-01-23T14:29:30Z</time>
      </trkpt>
      <trkpt lat="42.97575" lon="-0.7266">
        <ele>1727</ele>
        <time>2010-01-23T14:29:39Z</time>
      </trkpt>
      <trkpt lat="42.97563" lon="-0.72638">
        <ele>1730</ele>
        <time>2010-01-23T14:29:46Z</time>
      </trkpt>
      <trkpt lat="42.9755" lon="-0.72622">
        <ele>1732</ele>
        <time>2010-01-23T14:29:51Z</time>
      </trkpt>
      <trkpt lat="42.97538" lon="-0.72612">
        <ele>1733</ele>
        <time>2010-01-23T14:29:56Z</time>
      </trkpt>
      <trkpt lat="42.97522" lon="-0.72599">
        <ele>1735</ele>
        <time>2010-01-23T14:30:02Z</time>
      </trkpt>
      <trkpt lat="42.97507" lon="-0.72587">
        <ele>1739</ele>
        <time>2010-01-23T14:30:08Z</time>
      </trkpt>
      <trkpt lat="42.97487" lon="-0.72571">
        <ele>1746</ele>
        <time>2010-01-23T14:30:16Z</time>
      </trkpt>
      <trkpt lat="42.97461" lon="-0.72552">
        <ele>1751</ele>
        <time>2010-01-23T14:30:26Z</time>
      </trkpt>
      <trkpt lat="42.97435" lon="-0.7253">
        <ele>1755</ele>
        <time>2010-01-23T14:30:36Z</time>
      </trkpt>
      <trkpt lat="42.97404" lon="-0.72505">
        <ele>1770</ele>
        <time>2010-01-23T14:30:48Z</time>
      </trkpt>
      <trkpt lat="42.97371" lon="-0.72478">
        <ele>1791</ele>
        <time>2010-01-23T14:31:02Z</time>
      </trkpt>
      <trkpt lat="42.97343" lon="-0.72457">
        <ele>1796</ele>
        <time>2010-01-23T14:31:13Z</time>
      </trkpt>
      <trkpt lat="42.97318" lon="-0.72436">
        <ele>1810</ele>
        <time>2010-01-23T14:31:23Z</time>
      </trkpt>
      <trkpt lat="42.97303" lon="-0.72424">
        <ele>1811</ele>
        <time>2010-01-23T14:31:29Z</time>
      </trkpt>
      <trkpt lat="42.97289" lon="-0.72412">
        <ele>1824</ele>
        <time>2010-01-23T14:31:34Z</time>
      </trkpt>
      <trkpt lat="42.97268" lon="-0.72395">
        <ele>1825</ele>
        <time>2010-01-23T14:31:42Z</time>
      </trkpt>
      <trkpt lat="42.9725" lon="-0.72379">
        <ele>1839</ele>
        <time>2010-01-23T14:31:49Z</time>
      </trkpt>
      <trkpt lat="42.97227" lon="-0.7236">
        <ele>1843</ele>
        <time>2010-01-23T14:31:58Z</time>
      </trkpt>
      <trkpt lat="42.97209" lon="-0.72346">
        <ele>1847</ele>
        <time>2010-01-23T14:32:05Z</time>
      </trkpt>
      <trkpt lat="42.97184" lon="-0.72325">
        <ele>1858</ele>
        <time>2010-01-23T14:32:16Z</time>
      </trkpt>
      <trkpt lat="42.97165" lon="-0.72309">
        <ele>1873</ele>
        <time>2010-01-23T14:32:24Z</time>
      </trkpt>
      <trkpt lat="42.97149" lon="-0.72298">
        <ele>1876</ele>
        <time>2010-01-23T14:32:30Z</time>
      </trkpt>
      <trkpt lat="42.9712" lon="-0.72274">
        <ele>1882</ele>
        <time>2010-01-23T14:32:42Z</time>
      </trkpt>
      <trkpt lat="42.97106" lon="-0.72262">
        <ele>1887</ele>
        <time>2010-01-23T14:32:48Z</time>
      </trkpt>
      <trkpt lat="42.97083" lon="-0.72243">
        <ele>1902</ele>
        <time>2010-01-23T14:32:57Z</time>
      </trkpt>
      <trkpt lat="42.97059" lon="-0.72223">
        <ele>1906</ele>
        <time>2010-01-23T14:33:06Z</time>
      </trkpt>
      <trkpt lat="42.97036" lon="-0.72204">
        <ele>1908</ele>
        <time>2010-01-23T14:33:15Z</time>
      </trkpt>
      <trkpt lat="42.97019" lon="-0.72188">
        <ele>1909</ele>
        <time>2010-01-23T14:33:22Z</time>
      </trkpt>
      <trkpt lat="42.97003" lon="-0.72178">
        <ele>1912</ele>
        <time>2010-01-23T14:33:26Z</time>
      </trkpt>
      <trkpt lat="42.97" lon="-0.72177">
        <ele>1912</ele>
        <time>2010-01-23T14:33:27Z</time>
      </trkpt>
      <trkpt lat="42.96999" lon="-0.72177">
        <ele>1920</ele>
        <time>2010-01-23T14:33:35Z</time>
      </trkpt>
      <trkpt lat="42.96999" lon="-0.72178">
        <ele>1920</ele>
        <time>2010-01-23T14:33:49Z</time>
      </trkpt>
      <trkpt lat="42.96999" lon="-0.72177">
        <ele>1920</ele>
        <time>2010-01-23T14:33:57Z</time>
      </trkpt>
      <trkpt lat="42.97" lon="-0.72178">
        <ele>1920</ele>
        <time>2010-01-23T14:34:07Z</time>
      </trkpt>
      <trkpt lat="42.96999" lon="-0.72179">
        <ele>1921</ele>
        <time>2010-01-23T14:34:15Z</time>
      </trkpt>
      <trkpt lat="42.96998" lon="-0.72179">
        <ele>1921</ele>
        <time>2010-01-23T14:35:26Z</time>
      </trkpt>
      <trkpt lat="42.96999" lon="-0.72178">
        <ele>1920</ele>
        <time>2010-01-23T14:36:28Z</time>
      </trkpt>
      <trkpt lat="42.96999" lon="-0.72178">
        <ele>1920</ele>
        <time>2010-01-23T14:36:49Z</time>
      </trkpt>
      <trkpt lat="42.96998" lon="-0.72179">
        <ele>1921</ele>
        <time>2010-01-23T14:37:02Z</time>
      </trkpt>
      <trkpt lat="42.96998" lon="-0.72182">
        <ele>1922</ele>
        <time>2010-01-23T14:37:16Z</time>
      </trkpt>
      <trkpt lat="42.96999" lon="-0.72183">
        <ele>1922</ele>
        <time>2010-01-23T14:37:23Z</time>
      </trkpt>
      <trkpt lat="42.97" lon="-0.72181">
        <ele>1911</ele>
        <time>2010-01-23T14:37:32Z</time>
      </trkpt>
      <trkpt lat="42.97001" lon="-0.72179">
        <ele>1911</ele>
        <time>2010-01-23T14:37:38Z</time>
      </trkpt>
      <trkpt lat="42.97001" lon="-0.72181">
        <ele>1911</ele>
        <time>2010-01-23T14:37:44Z</time>
      </trkpt>
      <trkpt lat="42.97002" lon="-0.72184">
        <ele>1911</ele>
        <time>2010-01-23T14:37:51Z</time>
      </trkpt>
      <trkpt lat="42.97002" lon="-0.72185">
        <ele>1911</ele>
        <time>2010-01-23T14:38:00Z</time>
      </trkpt>
      <trkpt lat="42.97001" lon="-0.72185">
        <ele>1911</ele>
        <time>2010-01-23T14:38:10Z</time>
      </trkpt>
      <trkpt lat="42.97002" lon="-0.72186">
        <ele>1911</ele>
        <time>2010-01-23T14:38:20Z</time>
      </trkpt>
      <trkpt lat="42.97002" lon="-0.72188">
        <ele>1910</ele>
        <time>2010-01-23T14:38:26Z</time>
      </trkpt>
      <trkpt lat="42.97002" lon="-0.72187">
        <ele>1911</ele>
        <time>2010-01-23T14:38:38Z</time>
      </trkpt>
      <trkpt lat="42.97003" lon="-0.72186">
        <ele>1911</ele>
        <time>2010-01-23T14:38:45Z</time>
      </trkpt>
      <trkpt lat="42.97002" lon="-0.7218">
        <ele>1911</ele>
        <time>2010-01-23T14:38:53Z</time>
      </trkpt>
      <trkpt lat="42.97002" lon="-0.72181">
        <ele>1911</ele>
        <time>2010-01-23T14:39:00Z</time>
      </trkpt>
      <trkpt lat="42.97003" lon="-0.72182">
        <ele>1911</ele>
        <time>2010-01-23T14:39:10Z</time>
      </trkpt>
      <trkpt lat="42.97003" lon="-0.72181">
        <ele>1911</ele>
        <time>2010-01-23T14:39:20Z</time>
      </trkpt>
      <trkpt lat="42.97002" lon="-0.7218">
        <ele>1911</ele>
        <time>2010-01-23T14:39:25Z</time>
      </trkpt>
      <trkpt lat="42.97001" lon="-0.72178">
        <ele>1912</ele>
        <time>2010-01-23T14:39:33Z</time>
      </trkpt>
      <trkpt lat="42.97" lon="-0.72178">
        <ele>1912</ele>
        <time>2010-01-23T14:39:41Z</time>
      </trkpt>
      <trkpt lat="42.97" lon="-0.72178">
        <ele>1912</ele>
        <time>2010-01-23T14:39:50Z</time>
      </trkpt>
      <trkpt lat="42.97" lon="-0.72179">
        <ele>1920</ele>
        <time>2010-01-23T14:39:55Z</time>
      </trkpt>
      <trkpt lat="42.97001" lon="-0.72179">
        <ele>1912</ele>
        <time>2010-01-23T14:40:00Z</time>
      </trkpt>
      <trkpt lat="42.97" lon="-0.72179">
        <ele>1912</ele>
        <time>2010-01-23T14:40:04Z</time>
      </trkpt>
      <trkpt lat="42.97001" lon="-0.72179">
        <ele>1912</ele>
        <time>2010-01-23T14:40:13Z</time>
      </trkpt>
      <trkpt lat="42.97001" lon="-0.72178">
        <ele>1912</ele>
        <time>2010-01-23T14:40:33Z</time>
      </trkpt>
      <trkpt lat="42.97" lon="-0.72177">
        <ele>1912</ele>
        <time>2010-01-23T14:40:43Z</time>
      </trkpt>
      <trkpt lat="42.97001" lon="-0.72176">
        <ele>1912</ele>
        <time>2010-01-23T14:41:17Z</time>
      </trkpt>
      <trkpt lat="42.97002" lon="-0.72166">
        <ele>1913</ele>
        <time>2010-01-23T14:41:21Z</time>
      </trkpt>
      <trkpt lat="42.97002" lon="-0.7215">
        <ele>1909</ele>
        <time>2010-01-23T14:41:26Z</time>
      </trkpt>
      <trkpt lat="42.97006" lon="-0.72146">
        <ele>1909</ele>
        <time>2010-01-23T14:41:30Z</time>
      </trkpt>
      <trkpt lat="42.97006" lon="-0.72146">
        <ele>1909</ele>
        <time>2010-01-23T14:41:40Z</time>
      </trkpt>
      <trkpt lat="42.97011" lon="-0.72148">
        <ele>1908</ele>
        <time>2010-01-23T14:41:51Z</time>
      </trkpt>
      <trkpt lat="42.97029" lon="-0.72145">
        <ele>1906</ele>
        <time>2010-01-23T14:41:54Z</time>
      </trkpt>
      <trkpt lat="42.97038" lon="-0.72142">
        <ele>1905</ele>
        <time>2010-01-23T14:41:55Z</time>
      </trkpt>
      <trkpt lat="42.97088" lon="-0.72144">
        <ele>1895</ele>
        <time>2010-01-23T14:42:00Z</time>
      </trkpt>
      <trkpt lat="42.97099" lon="-0.72146">
        <ele>1894</ele>
        <time>2010-01-23T14:42:01Z</time>
      </trkpt>
      <trkpt lat="42.9713" lon="-0.7216">
        <ele>1890</ele>
        <time>2010-01-23T14:42:05Z</time>
      </trkpt>
      <trkpt lat="42.97143" lon="-0.72167">
        <ele>1887</ele>
        <time>2010-01-23T14:42:08Z</time>
      </trkpt>
      <trkpt lat="42.97152" lon="-0.72177">
        <ele>1885</ele>
        <time>2010-01-23T14:42:11Z</time>
      </trkpt>
      <trkpt lat="42.97155" lon="-0.72193">
        <ele>1886</ele>
        <time>2010-01-23T14:42:14Z</time>
      </trkpt>
      <trkpt lat="42.97167" lon="-0.72203">
        <ele>1869</ele>
        <time>2010-01-23T14:42:17Z</time>
      </trkpt>
      <trkpt lat="42.9717" lon="-0.72224">
        <ele>1867</ele>
        <time>2010-01-23T14:42:20Z</time>
      </trkpt>
      <trkpt lat="42.97178" lon="-0.72235">
        <ele>1867</ele>
        <time>2010-01-23T14:42:22Z</time>
      </trkpt>
      <trkpt lat="42.97191" lon="-0.72246">
        <ele>1865</ele>
        <time>2010-01-23T14:42:25Z</time>
      </trkpt>
      <trkpt lat="42.97202" lon="-0.72253">
        <ele>1856</ele>
        <time>2010-01-23T14:42:27Z</time>
      </trkpt>
      <trkpt lat="42.9721" lon="-0.72255">
        <ele>1854</ele>
        <time>2010-01-23T14:42:28Z</time>
      </trkpt>
      <trkpt lat="42.97242" lon="-0.72257">
        <ele>1846</ele>
        <time>2010-01-23T14:42:31Z</time>
      </trkpt>
      <trkpt lat="42.97298" lon="-0.72266">
        <ele>1835</ele>
        <time>2010-01-23T14:42:36Z</time>
      </trkpt>
      <trkpt lat="42.97315" lon="-0.72279">
        <ele>1833</ele>
        <time>2010-01-23T14:42:39Z</time>
      </trkpt>
      <trkpt lat="42.97328" lon="-0.72291">
        <ele>1833</ele>
        <time>2010-01-23T14:42:44Z</time>
      </trkpt>
      <trkpt lat="42.97327" lon="-0.72292">
        <ele>1833</ele>
        <time>2010-01-23T14:42:50Z</time>
      </trkpt>
      <trkpt lat="42.97325" lon="-0.72291">
        <ele>1833</ele>
        <time>2010-01-23T14:42:58Z</time>
      </trkpt>
      <trkpt lat="42.97324" lon="-0.72291">
        <ele>1833</ele>
        <time>2010-01-23T14:43:06Z</time>
      </trkpt>
      <trkpt lat="42.97323" lon="-0.72289">
        <ele>1833</ele>
        <time>2010-01-23T14:43:20Z</time>
      </trkpt>
      <trkpt lat="42.97322" lon="-0.72288">
        <ele>1833</ele>
        <time>2010-01-23T14:43:31Z</time>
      </trkpt>
      <trkpt lat="42.97322" lon="-0.72288">
        <ele>1833</ele>
        <time>2010-01-23T14:43:40Z</time>
      </trkpt>
      <trkpt lat="42.97321" lon="-0.72288">
        <ele>1833</ele>
        <time>2010-01-23T14:43:48Z</time>
      </trkpt>
      <trkpt lat="42.9732" lon="-0.72287">
        <ele>1833</ele>
        <time>2010-01-23T14:43:56Z</time>
      </trkpt>
      <trkpt lat="42.97319" lon="-0.72287">
        <ele>1833</ele>
        <time>2010-01-23T14:44:06Z</time>
      </trkpt>
      <trkpt lat="42.97318" lon="-0.72287">
        <ele>1834</ele>
        <time>2010-01-23T14:44:15Z</time>
      </trkpt>
      <trkpt lat="42.97317" lon="-0.72286">
        <ele>1834</ele>
        <time>2010-01-23T14:44:22Z</time>
      </trkpt>
      <trkpt lat="42.97316" lon="-0.72284">
        <ele>1834</ele>
        <time>2010-01-23T14:44:29Z</time>
      </trkpt>
      <trkpt lat="42.97315" lon="-0.72284">
        <ele>1834</ele>
        <time>2010-01-23T14:44:37Z</time>
      </trkpt>
      <trkpt lat="42.97315" lon="-0.72284">
        <ele>1834</ele>
        <time>2010-01-23T14:44:47Z</time>
      </trkpt>
      <trkpt lat="42.97313" lon="-0.72284">
        <ele>1834</ele>
        <time>2010-01-23T14:44:57Z</time>
      </trkpt>
      <trkpt lat="42.97312" lon="-0.72284">
        <ele>1834</ele>
        <time>2010-01-23T14:45:05Z</time>
      </trkpt>
      <trkpt lat="42.97312" lon="-0.72283">
        <ele>1834</ele>
        <time>2010-01-23T14:45:14Z</time>
      </trkpt>
      <trkpt lat="42.9731" lon="-0.72281">
        <ele>1834</ele>
        <time>2010-01-23T14:45:25Z</time>
      </trkpt>
      <trkpt lat="42.97308" lon="-0.7228">
        <ele>1834</ele>
        <time>2010-01-23T14:45:31Z</time>
      </trkpt>
      <trkpt lat="42.97307" lon="-0.72278">
        <ele>1834</ele>
        <time>2010-01-23T14:45:40Z</time>
      </trkpt>
      <trkpt lat="42.97306" lon="-0.72278">
        <ele>1834</ele>
        <time>2010-01-23T14:45:49Z</time>
      </trkpt>
      <trkpt lat="42.97304" lon="-0.72277">
        <ele>1834</ele>
        <time>2010-01-23T14:45:58Z</time>
      </trkpt>
      <trkpt lat="42.97302" lon="-0.72277">
        <ele>1834</ele>
        <time>2010-01-23T14:46:06Z</time>
      </trkpt>
      <trkpt lat="42.97301" lon="-0.72277">
        <ele>1834</ele>
        <time>2010-01-23T14:46:13Z</time>
      </trkpt>
      <trkpt lat="42.97299" lon="-0.72279">
        <ele>1835</ele>
        <time>2010-01-23T14:46:21Z</time>
      </trkpt>
      <trkpt lat="42.97297" lon="-0.72279">
        <ele>1835</ele>
        <time>2010-01-23T14:46:23Z</time>
      </trkpt>
      <trkpt lat="42.97288" lon="-0.72278">
        <ele>1835</ele>
        <time>2010-01-23T14:46:27Z</time>
      </trkpt>
      <trkpt lat="42.97277" lon="-0.72278">
        <ele>1836</ele>
        <time>2010-01-23T14:46:32Z</time>
      </trkpt>
      <trkpt lat="42.97269" lon="-0.72278">
        <ele>1837</ele>
        <time>2010-01-23T14:46:36Z</time>
      </trkpt>
      <trkpt lat="42.9726" lon="-0.72279">
        <ele>1837</ele>
        <time>2010-01-23T14:46:40Z</time>
      </trkpt>
      <trkpt lat="42.97252" lon="-0.72279">
        <ele>1837</ele>
        <time>2010-01-23T14:46:44Z</time>
      </trkpt>
      <trkpt lat="42.97244" lon="-0.72279">
        <ele>1849</ele>
        <time>2010-01-23T14:46:48Z</time>
      </trkpt>
      <trkpt lat="42.97235" lon="-0.7228">
        <ele>1850</ele>
        <time>2010-01-23T14:46:53Z</time>
      </trkpt>
      <trkpt lat="42.97224" lon="-0.72281">
        <ele>1851</ele>
        <time>2010-01-23T14:46:58Z</time>
      </trkpt>
      <trkpt lat="42.9721" lon="-0.72281">
        <ele>1854</ele>
        <time>2010-01-23T14:47:05Z</time>
      </trkpt>
      <trkpt lat="42.97192" lon="-0.72281">
        <ele>1857</ele>
        <time>2010-01-23T14:47:14Z</time>
      </trkpt>
      <trkpt lat="42.97175" lon="-0.72282">
        <ele>1859</ele>
        <time>2010-01-23T14:47:23Z</time>
      </trkpt>
      <trkpt lat="42.97153" lon="-0.72282">
        <ele>1877</ele>
        <time>2010-01-23T14:47:35Z</time>
      </trkpt>
      <trkpt lat="42.97135" lon="-0.72282">
        <ele>1879</ele>
        <time>2010-01-23T14:47:44Z</time>
      </trkpt>
      <trkpt lat="42.97113" lon="-0.72283">
        <ele>1883</ele>
        <time>2010-01-23T14:47:56Z</time>
      </trkpt>
      <trkpt lat="42.97096" lon="-0.72282">
        <ele>1885</ele>
        <time>2010-01-23T14:48:04Z</time>
      </trkpt>
      <trkpt lat="42.97081" lon="-0.72281">
        <ele>1899</ele>
        <time>2010-01-23T14:48:12Z</time>
      </trkpt>
      <trkpt lat="42.97059" lon="-0.7228">
        <ele>1900</ele>
        <time>2010-01-23T14:48:23Z</time>
      </trkpt>
      <trkpt lat="42.97038" lon="-0.72279">
        <ele>1902</ele>
        <time>2010-01-23T14:48:33Z</time>
      </trkpt>
      <trkpt lat="42.97016" lon="-0.72278">
        <ele>1904</ele>
        <time>2010-01-23T14:48:44Z</time>
      </trkpt>
      <trkpt lat="42.96994" lon="-0.72276">
        <ele>1921</ele>
        <time>2010-01-23T14:48:55Z</time>
      </trkpt>
      <trkpt lat="42.96975" lon="-0.72275">
        <ele>1924</ele>
        <time>2010-01-23T14:49:05Z</time>
      </trkpt>
      <trkpt lat="42.96961" lon="-0.72275">
        <ele>1928</ele>
        <time>2010-01-23T14:49:13Z</time>
      </trkpt>
      <trkpt lat="42.96941" lon="-0.72274">
        <ele>1934</ele>
        <time>2010-01-23T14:49:24Z</time>
      </trkpt>
      <trkpt lat="42.96926" lon="-0.72273">
        <ele>1938</ele>
        <time>2010-01-23T14:49:32Z</time>
      </trkpt>
      <trkpt lat="42.96906" lon="-0.72272">
        <ele>1957</ele>
        <time>2010-01-23T14:49:42Z</time>
      </trkpt>
      <trkpt lat="42.96886" lon="-0.72271">
        <ele>1960</ele>
        <time>2010-01-23T14:49:53Z</time>
      </trkpt>
      <trkpt lat="42.9687" lon="-0.7227">
        <ele>1964</ele>
        <time>2010-01-23T14:50:01Z</time>
      </trkpt>
      <trkpt lat="42.96846" lon="-0.72268">
        <ele>1970</ele>
        <time>2010-01-23T14:50:13Z</time>
      </trkpt>
      <trkpt lat="42.96821" lon="-0.72267">
        <ele>1985</ele>
        <time>2010-01-23T14:50:26Z</time>
      </trkpt>
      <trkpt lat="42.96802" lon="-0.72266">
        <ele>1987</ele>
        <time>2010-01-23T14:50:35Z</time>
      </trkpt>
      <trkpt lat="42.96772" lon="-0.72264">
        <ele>1992</ele>
        <time>2010-01-23T14:50:50Z</time>
      </trkpt>
      <trkpt lat="42.96744" lon="-0.72263">
        <ele>2008</ele>
        <time>2010-01-23T14:51:04Z</time>
      </trkpt>
      <trkpt lat="42.96711" lon="-0.72261">
        <ele>2016</ele>
        <time>2010-01-23T14:51:21Z</time>
      </trkpt>
      <trkpt lat="42.9669" lon="-0.7226">
        <ele>2022</ele>
        <time>2010-01-23T14:51:31Z</time>
      </trkpt>
      <trkpt lat="42.9665" lon="-0.72258">
        <ele>2042</ele>
        <time>2010-01-23T14:51:51Z</time>
      </trkpt>
      <trkpt lat="42.96624" lon="-0.72256">
        <ele>2050</ele>
        <time>2010-01-23T14:52:04Z</time>
      </trkpt>
      <trkpt lat="42.96599" lon="-0.72255">
        <ele>2058</ele>
        <time>2010-01-23T14:52:17Z</time>
      </trkpt>
      <trkpt lat="42.96572" lon="-0.72253">
        <ele>2070</ele>
        <time>2010-01-23T14:52:31Z</time>
      </trkpt>
      <trkpt lat="42.96556" lon="-0.72252">
        <ele>2073</ele>
        <time>2010-01-23T14:52:39Z</time>
      </trkpt>
      <trkpt lat="42.9653" lon="-0.72251">
        <ele>2078</ele>
        <time>2010-01-23T14:52:52Z</time>
      </trkpt>
      <trkpt lat="42.96503" lon="-0.7225">
        <ele>2085</ele>
        <time>2010-01-23T14:53:06Z</time>
      </trkpt>
      <trkpt lat="42.9648" lon="-0.72249">
        <ele>2093</ele>
        <time>2010-01-23T14:53:17Z</time>
      </trkpt>
      <trkpt lat="42.96456" lon="-0.72247">
        <ele>2098</ele>
        <time>2010-01-23T14:53:29Z</time>
      </trkpt>
      <trkpt lat="42.96434" lon="-0.72246">
        <ele>2103</ele>
        <time>2010-01-23T14:53:40Z</time>
      </trkpt>
      <trkpt lat="42.96413" lon="-0.72245">
        <ele>2111</ele>
        <time>2010-01-23T14:53:51Z</time>
      </trkpt>
      <trkpt lat="42.9639" lon="-0.72243">
        <ele>2115</ele>
        <time>2010-01-23T14:54:02Z</time>
      </trkpt>
      <trkpt lat="42.96361" lon="-0.72241">
        <ele>2119</ele>
        <time>2010-01-23T14:54:16Z</time>
      </trkpt>
      <trkpt lat="42.9633" lon="-0.72239">
        <ele>2127</ele>
        <time>2010-01-23T14:54:31Z</time>
      </trkpt>
      <trkpt lat="42.96304" lon="-0.72238">
        <ele>2131</ele>
        <time>2010-01-23T14:54:44Z</time>
      </trkpt>
      <trkpt lat="42.96282" lon="-0.72237">
        <ele>2133</ele>
        <time>2010-01-23T14:54:55Z</time>
      </trkpt>
      <trkpt lat="42.9627" lon="-0.72237">
        <ele>2134</ele>
        <time>2010-01-23T14:55:01Z</time>
      </trkpt>
      <trkpt lat="42.96256" lon="-0.72235">
        <ele>2135</ele>
        <time>2010-01-23T14:55:07Z</time>
      </trkpt>
      <trkpt lat="42.96253" lon="-0.72219">
        <ele>2135</ele>
        <time>2010-01-23T14:55:11Z</time>
      </trkpt>
      <trkpt lat="42.96256" lon="-0.72207">
        <ele>2135</ele>
        <time>2010-01-23T14:55:15Z</time>
      </trkpt>
      <trkpt lat="42.96257" lon="-0.72205">
        <ele>2135</ele>
        <time>2010-01-23T14:55:24Z</time>
      </trkpt>
      <trkpt lat="42.96257" lon="-0.72205">
        <ele>2135</ele>
        <time>2010-01-23T14:55:42Z</time>
      </trkpt>
      <trkpt lat="42.96259" lon="-0.72203">
        <ele>2135</ele>
        <time>2010-01-23T14:55:48Z</time>
      </trkpt>
      <trkpt lat="42.96267" lon="-0.72202">
        <ele>2135</ele>
        <time>2010-01-23T14:55:51Z</time>
      </trkpt>
      <trkpt lat="42.96271" lon="-0.72204">
        <ele>2134</ele>
        <time>2010-01-23T14:55:52Z</time>
      </trkpt>
      <trkpt lat="42.96297" lon="-0.72202">
        <ele>2132</ele>
        <time>2010-01-23T14:55:56Z</time>
      </trkpt>
      <trkpt lat="42.96338" lon="-0.72204">
        <ele>2120</ele>
        <time>2010-01-23T14:56:00Z</time>
      </trkpt>
      <trkpt lat="42.96403" lon="-0.722">
        <ele>2114</ele>
        <time>2010-01-23T14:56:06Z</time>
      </trkpt>
      <trkpt lat="42.96413" lon="-0.722">
        <ele>2114</ele>
        <time>2010-01-23T14:56:07Z</time>
      </trkpt>
      <trkpt lat="42.96438" lon="-0.72204">
        <ele>2100</ele>
        <time>2010-01-23T14:56:10Z</time>
      </trkpt>
      <trkpt lat="42.96462" lon="-0.72201">
        <ele>2098</ele>
        <time>2010-01-23T14:56:13Z</time>
      </trkpt>
      <trkpt lat="42.96479" lon="-0.72204">
        <ele>2096</ele>
        <time>2010-01-23T14:56:15Z</time>
      </trkpt>
      <trkpt lat="42.96493" lon="-0.72203">
        <ele>2094</ele>
        <time>2010-01-23T14:56:17Z</time>
      </trkpt>
      <trkpt lat="42.96508" lon="-0.72206">
        <ele>2080</ele>
        <time>2010-01-23T14:56:19Z</time>
      </trkpt>
      <trkpt lat="42.9653" lon="-0.72206">
        <ele>2077</ele>
        <time>2010-01-23T14:56:22Z</time>
      </trkpt>
      <trkpt lat="42.96545" lon="-0.72202">
        <ele>2075</ele>
        <time>2010-01-23T14:56:24Z</time>
      </trkpt>
      <trkpt lat="42.96561" lon="-0.72201">
        <ele>2073</ele>
        <time>2010-01-23T14:56:26Z</time>
      </trkpt>
      <trkpt lat="42.96579" lon="-0.72195">
        <ele>2070</ele>
        <time>2010-01-23T14:56:28Z</time>
      </trkpt>
      <trkpt lat="42.96612" lon="-0.72192">
        <ele>2050</ele>
        <time>2010-01-23T14:56:32Z</time>
      </trkpt>
      <trkpt lat="42.96635" lon="-0.7218">
        <ele>2045</ele>
        <time>2010-01-23T14:56:35Z</time>
      </trkpt>
      <trkpt lat="42.96658" lon="-0.72187">
        <ele>2040</ele>
        <time>2010-01-23T14:56:38Z</time>
      </trkpt>
      <trkpt lat="42.96677" lon="-0.72188">
        <ele>2024</ele>
        <time>2010-01-23T14:56:40Z</time>
      </trkpt>
      <trkpt lat="42.96706" lon="-0.72189">
        <ele>2019</ele>
        <time>2010-01-23T14:56:43Z</time>
      </trkpt>
      <trkpt lat="42.96727" lon="-0.72189">
        <ele>2015</ele>
        <time>2010-01-23T14:56:45Z</time>
      </trkpt>
      <trkpt lat="42.96749" lon="-0.72191">
        <ele>2012</ele>
        <time>2010-01-23T14:56:47Z</time>
      </trkpt>
      <trkpt lat="42.96768" lon="-0.72191">
        <ele>1997</ele>
        <time>2010-01-23T14:56:49Z</time>
      </trkpt>
      <trkpt lat="42.96792" lon="-0.72186">
        <ele>1992</ele>
        <time>2010-01-23T14:56:52Z</time>
      </trkpt>
      <trkpt lat="42.96814" lon="-0.72188">
        <ele>1988</ele>
        <time>2010-01-23T14:56:55Z</time>
      </trkpt>
      <trkpt lat="42.96825" lon="-0.72181">
        <ele>1985</ele>
        <time>2010-01-23T14:56:57Z</time>
      </trkpt>
      <trkpt lat="42.96833" lon="-0.72184">
        <ele>1985</ele>
        <time>2010-01-23T14:56:59Z</time>
      </trkpt>
      <trkpt lat="42.96846" lon="-0.72186">
        <ele>1971</ele>
        <time>2010-01-23T14:57:01Z</time>
      </trkpt>
      <trkpt lat="42.96877" lon="-0.72185">
        <ele>1965</ele>
        <time>2010-01-23T14:57:06Z</time>
      </trkpt>
      <trkpt lat="42.96889" lon="-0.72187">
        <ele>1962</ele>
        <time>2010-01-23T14:57:09Z</time>
      </trkpt>
      <trkpt lat="42.96907" lon="-0.72184">
        <ele>1958</ele>
        <time>2010-01-23T14:57:13Z</time>
      </trkpt>
      <trkpt lat="42.96916" lon="-0.72181">
        <ele>1956</ele>
        <time>2010-01-23T14:57:16Z</time>
      </trkpt>
      <trkpt lat="42.9692" lon="-0.72184">
        <ele>1941</ele>
        <time>2010-01-23T14:57:17Z</time>
      </trkpt>
      <trkpt lat="42.96929" lon="-0.72192">
        <ele>1939</ele>
        <time>2010-01-23T14:57:19Z</time>
      </trkpt>
      <trkpt lat="42.96944" lon="-0.72182">
        <ele>1936</ele>
        <time>2010-01-23T14:57:22Z</time>
      </trkpt>
      <trkpt lat="42.96959" lon="-0.72174">
        <ele>1932</ele>
        <time>2010-01-23T14:57:25Z</time>
      </trkpt>
      <trkpt lat="42.96974" lon="-0.72162">
        <ele>1925</ele>
        <time>2010-01-23T14:57:29Z</time>
      </trkpt>
      <trkpt lat="42.96981" lon="-0.72147">
        <ele>1924</ele>
        <time>2010-01-23T14:57:32Z</time>
      </trkpt>
      <trkpt lat="42.96983" lon="-0.72145">
        <ele>1924</ele>
        <time>2010-01-23T14:57:35Z</time>
      </trkpt>
      <trkpt lat="42.96984" lon="-0.72146">
        <ele>1924</ele>
        <time>2010-01-23T14:57:42Z</time>
      </trkpt>
      <trkpt lat="42.96984" lon="-0.72147">
        <ele>1923</ele>
        <time>2010-01-23T14:57:44Z</time>
      </trkpt>
      <trkpt lat="42.96988" lon="-0.72156">
        <ele>1921</ele>
        <time>2010-01-23T14:57:48Z</time>
      </trkpt>
      <trkpt lat="42.96995" lon="-0.72176">
        <ele>1920</ele>
        <time>2010-01-23T14:57:54Z</time>
      </trkpt>
      <trkpt lat="42.97001" lon="-0.72193">
        <ele>1910</ele>
        <time>2010-01-23T14:57:59Z</time>
      </trkpt>
      <trkpt lat="42.97006" lon="-0.72202">
        <ele>1910</ele>
        <time>2010-01-23T14:58:01Z</time>
      </trkpt>
      <trkpt lat="42.9701" lon="-0.7222">
        <ele>1909</ele>
        <time>2010-01-23T14:58:05Z</time>
      </trkpt>
      <trkpt lat="42.97016" lon="-0.72224">
        <ele>1909</ele>
        <time>2010-01-23T14:58:07Z</time>
      </trkpt>
      <trkpt lat="42.97029" lon="-0.72231">
        <ele>1908</ele>
        <time>2010-01-23T14:58:10Z</time>
      </trkpt>
      <trkpt lat="42.97054" lon="-0.72246">
        <ele>1905</ele>
        <time>2010-01-23T14:58:14Z</time>
      </trkpt>
      <trkpt lat="42.97074" lon="-0.72263">
        <ele>1900</ele>
        <time>2010-01-23T14:58:17Z</time>
      </trkpt>
      <trkpt lat="42.97094" lon="-0.72279">
        <ele>1886</ele>
        <time>2010-01-23T14:58:20Z</time>
      </trkpt>
      <trkpt lat="42.971" lon="-0.72284">
        <ele>1885</ele>
        <time>2010-01-23T14:58:21Z</time>
      </trkpt>
      <trkpt lat="42.97124" lon="-0.72307">
        <ele>1880</ele>
        <time>2010-01-23T14:58:26Z</time>
      </trkpt>
      <trkpt lat="42.97137" lon="-0.72315">
        <ele>1877</ele>
        <time>2010-01-23T14:58:31Z</time>
      </trkpt>
      <trkpt lat="42.97144" lon="-0.72321">
        <ele>1875</ele>
        <time>2010-01-23T14:58:34Z</time>
      </trkpt>
      <trkpt lat="42.97152" lon="-0.7233">
        <ele>1871</ele>
        <time>2010-01-23T14:58:37Z</time>
      </trkpt>
      <trkpt lat="42.97158" lon="-0.72327">
        <ele>1869</ele>
        <time>2010-01-23T14:58:40Z</time>
      </trkpt>
      <trkpt lat="42.97158" lon="-0.72327">
        <ele>1870</ele>
        <time>2010-01-23T14:58:48Z</time>
      </trkpt>
      <trkpt lat="42.97167" lon="-0.72349">
        <ele>1866</ele>
        <time>2010-01-23T14:58:53Z</time>
      </trkpt>
      <trkpt lat="42.97186" lon="-0.72356">
        <ele>1851</ele>
        <time>2010-01-23T14:58:57Z</time>
      </trkpt>
      <trkpt lat="42.97191" lon="-0.72369">
        <ele>1849</ele>
        <time>2010-01-23T14:58:59Z</time>
      </trkpt>
      <trkpt lat="42.97201" lon="-0.72381">
        <ele>1847</ele>
        <time>2010-01-23T14:59:02Z</time>
      </trkpt>
      <trkpt lat="42.97215" lon="-0.72395">
        <ele>1843</ele>
        <time>2010-01-23T14:59:05Z</time>
      </trkpt>
      <trkpt lat="42.9724" lon="-0.72418">
        <ele>1825</ele>
        <time>2010-01-23T14:59:09Z</time>
      </trkpt>
      <trkpt lat="42.97249" lon="-0.72426">
        <ele>1825</ele>
        <time>2010-01-23T14:59:10Z</time>
      </trkpt>
      <trkpt lat="42.97291" lon="-0.7245">
        <ele>1809</ele>
        <time>2010-01-23T14:59:14Z</time>
      </trkpt>
      <trkpt lat="42.97315" lon="-0.72453">
        <ele>1808</ele>
        <time>2010-01-23T14:59:17Z</time>
      </trkpt>
      <trkpt lat="42.97326" lon="-0.72464">
        <ele>1805</ele>
        <time>2010-01-23T14:59:21Z</time>
      </trkpt>
      <trkpt lat="42.9734" lon="-0.72473">
        <ele>1794</ele>
        <time>2010-01-23T14:59:24Z</time>
      </trkpt>
      <trkpt lat="42.97351" lon="-0.72483">
        <ele>1792</ele>
        <time>2010-01-23T14:59:27Z</time>
      </trkpt>
      <trkpt lat="42.97361" lon="-0.72494">
        <ele>1790</ele>
        <time>2010-01-23T14:59:29Z</time>
      </trkpt>
      <trkpt lat="42.97375" lon="-0.72498">
        <ele>1788</ele>
        <time>2010-01-23T14:59:32Z</time>
      </trkpt>
      <trkpt lat="42.97386" lon="-0.72511">
        <ele>1771</ele>
        <time>2010-01-23T14:59:35Z</time>
      </trkpt>
      <trkpt lat="42.97396" lon="-0.72509">
        <ele>1770</ele>
        <time>2010-01-23T14:59:38Z</time>
      </trkpt>
      <trkpt lat="42.97402" lon="-0.7252">
        <ele>1769</ele>
        <time>2010-01-23T14:59:40Z</time>
      </trkpt>
      <trkpt lat="42.9741" lon="-0.72528">
        <ele>1768</ele>
        <time>2010-01-23T14:59:42Z</time>
      </trkpt>
      <trkpt lat="42.97421" lon="-0.72533">
        <ele>1756</ele>
        <time>2010-01-23T14:59:45Z</time>
      </trkpt>
      <trkpt lat="42.97424" lon="-0.72537">
        <ele>1755</ele>
        <time>2010-01-23T14:59:46Z</time>
      </trkpt>
      <trkpt lat="42.97448" lon="-0.72557">
        <ele>1751</ele>
        <time>2010-01-23T14:59:51Z</time>
      </trkpt>
      <trkpt lat="42.97467" lon="-0.72577">
        <ele>1749</ele>
        <time>2010-01-23T14:59:54Z</time>
      </trkpt>
      <trkpt lat="42.97479" lon="-0.72591">
        <ele>1739</ele>
        <time>2010-01-23T14:59:56Z</time>
      </trkpt>
      <trkpt lat="42.9749" lon="-0.7261">
        <ele>1737</ele>
        <time>2010-01-23T14:59:58Z</time>
      </trkpt>
      <trkpt lat="42.97505" lon="-0.72649">
        <ele>1730</ele>
        <time>2010-01-23T15:00:01Z</time>
      </trkpt>
      <trkpt lat="42.9752" lon="-0.72702">
        <ele>1724</ele>
        <time>2010-01-23T15:00:05Z</time>
      </trkpt>
      <trkpt lat="42.97539" lon="-0.72765">
        <ele>1716</ele>
        <time>2010-01-23T15:00:10Z</time>
      </trkpt>
      <trkpt lat="42.97548" lon="-0.72788">
        <ele>1715</ele>
        <time>2010-01-23T15:00:12Z</time>
      </trkpt>
      <trkpt lat="42.97547" lon="-0.72823">
        <ele>1712</ele>
        <time>2010-01-23T15:00:15Z</time>
      </trkpt>
      <trkpt lat="42.97548" lon="-0.72872">
        <ele>1702</ele>
        <time>2010-01-23T15:00:19Z</time>
      </trkpt>
      <trkpt lat="42.97549" lon="-0.72897">
        <ele>1700</ele>
        <time>2010-01-23T15:00:21Z</time>
      </trkpt>
      <trkpt lat="42.97549" lon="-0.72924">
        <ele>1691</ele>
        <time>2010-01-23T15:00:24Z</time>
      </trkpt>
      <trkpt lat="42.97543" lon="-0.72933">
        <ele>1692</ele>
        <time>2010-01-23T15:00:27Z</time>
      </trkpt>
      <trkpt lat="42.97543" lon="-0.72933">
        <ele>1692</ele>
        <time>2010-01-23T15:00:31Z</time>
      </trkpt>
      <trkpt lat="42.97543" lon="-0.72931">
        <ele>1692</ele>
        <time>2010-01-23T15:00:40Z</time>
      </trkpt>
      <trkpt lat="42.97543" lon="-0.72932">
        <ele>1692</ele>
        <time>2010-01-23T15:00:42Z</time>
      </trkpt>
      <trkpt lat="42.97548" lon="-0.72953">
        <ele>1690</ele>
        <time>2010-01-23T15:00:46Z</time>
      </trkpt>
      <trkpt lat="42.97556" lon="-0.72987">
        <ele>1686</ele>
        <time>2010-01-23T15:00:49Z</time>
      </trkpt>
      <trkpt lat="42.97567" lon="-0.73027">
        <ele>1679</ele>
        <time>2010-01-23T15:00:52Z</time>
      </trkpt>
      <trkpt lat="42.97572" lon="-0.73039">
        <ele>1678</ele>
        <time>2010-01-23T15:00:53Z</time>
      </trkpt>
      <trkpt lat="42.97597" lon="-0.73101">
        <ele>1659</ele>
        <time>2010-01-23T15:00:58Z</time>
      </trkpt>
      <trkpt lat="42.97608" lon="-0.73123">
        <ele>1655</ele>
        <time>2010-01-23T15:01:00Z</time>
      </trkpt>
      <trkpt lat="42.97634" lon="-0.73143">
        <ele>1651</ele>
        <time>2010-01-23T15:01:04Z</time>
      </trkpt>
      <trkpt lat="42.97651" lon="-0.73153">
        <ele>1647</ele>
        <time>2010-01-23T15:01:06Z</time>
      </trkpt>
      <trkpt lat="42.97671" lon="-0.73169">
        <ele>1637</ele>
        <time>2010-01-23T15:01:08Z</time>
      </trkpt>
      <trkpt lat="42.97702" lon="-0.73206">
        <ele>1632</ele>
        <time>2010-01-23T15:01:11Z</time>
      </trkpt>
      <trkpt lat="42.97737" lon="-0.73267">
        <ele>1623</ele>
        <time>2010-01-23T15:01:16Z</time>
      </trkpt>
      <trkpt lat="42.9775" lon="-0.73286">
        <ele>1614</ele>
        <time>2010-01-23T15:01:18Z</time>
      </trkpt>
      <trkpt lat="42.97772" lon="-0.73291">
        <ele>1612</ele>
        <time>2010-01-23T15:01:21Z</time>
      </trkpt>
      <trkpt lat="42.97782" lon="-0.73301">
        <ele>1610</ele>
        <time>2010-01-23T15:01:23Z</time>
      </trkpt>
      <trkpt lat="42.97791" lon="-0.73306">
        <ele>1609</ele>
        <time>2010-01-23T15:01:25Z</time>
      </trkpt>
      <trkpt lat="42.97803" lon="-0.73317">
        <ele>1606</ele>
        <time>2010-01-23T15:01:28Z</time>
      </trkpt>
      <trkpt lat="42.97811" lon="-0.73324">
        <ele>1603</ele>
        <time>2010-01-23T15:01:30Z</time>
      </trkpt>
      <trkpt lat="42.97823" lon="-0.73331">
        <ele>1598</ele>
        <time>2010-01-23T15:01:33Z</time>
      </trkpt>
      <trkpt lat="42.97842" lon="-0.73337">
        <ele>1585</ele>
        <time>2010-01-23T15:01:38Z</time>
      </trkpt>
      <trkpt lat="42.97851" lon="-0.73329">
        <ele>1587</ele>
        <time>2010-01-23T15:01:41Z</time>
      </trkpt>
      <trkpt lat="42.97858" lon="-0.73335">
        <ele>1579</ele>
        <time>2010-01-23T15:01:43Z</time>
      </trkpt>
      <trkpt lat="42.9786" lon="-0.73353">
        <ele>1576</ele>
        <time>2010-01-23T15:01:46Z</time>
      </trkpt>
      <trkpt lat="42.97871" lon="-0.73366">
        <ele>1573</ele>
        <time>2010-01-23T15:01:48Z</time>
      </trkpt>
      <trkpt lat="42.97897" lon="-0.7339">
        <ele>1567</ele>
        <time>2010-01-23T15:01:51Z</time>
      </trkpt>
      <trkpt lat="42.97925" lon="-0.7341">
        <ele>1553</ele>
        <time>2010-01-23T15:01:54Z</time>
      </trkpt>
      <trkpt lat="42.97949" lon="-0.73429">
        <ele>1543</ele>
        <time>2010-01-23T15:01:57Z</time>
      </trkpt>
      <trkpt lat="42.97959" lon="-0.73448">
        <ele>1541</ele>
        <time>2010-01-23T15:01:59Z</time>
      </trkpt>
      <trkpt lat="42.97968" lon="-0.73466">
        <ele>1539</ele>
        <time>2010-01-23T15:02:01Z</time>
      </trkpt>
      <trkpt lat="42.98" lon="-0.73501">
        <ele>1524</ele>
        <time>2010-01-23T15:02:06Z</time>
      </trkpt>
      <trkpt lat="42.98007" lon="-0.73505">
        <ele>1524</ele>
        <time>2010-01-23T15:02:07Z</time>
      </trkpt>
      <trkpt lat="42.9802" lon="-0.73504">
        <ele>1523</ele>
        <time>2010-01-23T15:02:12Z</time>
      </trkpt>
      <trkpt lat="42.98026" lon="-0.73498">
        <ele>1526</ele>
        <time>2010-01-23T15:02:18Z</time>
      </trkpt>
      <trkpt lat="42.98027" lon="-0.73497">
        <ele>1526</ele>
        <time>2010-01-23T15:02:25Z</time>
      </trkpt>
      <trkpt lat="42.98028" lon="-0.73496">
        <ele>1526</ele>
        <time>2010-01-23T15:02:34Z</time>
      </trkpt>
      <trkpt lat="42.98029" lon="-0.73494">
        <ele>1526</ele>
        <time>2010-01-23T15:02:42Z</time>
      </trkpt>
      <trkpt lat="42.9803" lon="-0.73493">
        <ele>1526</ele>
        <time>2010-01-23T15:02:49Z</time>
      </trkpt>
      <trkpt lat="42.98031" lon="-0.73492">
        <ele>1526</ele>
        <time>2010-01-23T15:02:56Z</time>
      </trkpt>
      <trkpt lat="42.98031" lon="-0.73491">
        <ele>1526</ele>
        <time>2010-01-23T15:03:12Z</time>
      </trkpt>
      <trkpt lat="42.98033" lon="-0.7349">
        <ele>1527</ele>
        <time>2010-01-23T15:03:20Z</time>
      </trkpt>
      <trkpt lat="42.98034" lon="-0.73489">
        <ele>1527</ele>
        <time>2010-01-23T15:03:35Z</time>
      </trkpt>
      <trkpt lat="42.98035" lon="-0.73487">
        <ele>1527</ele>
        <time>2010-01-23T15:03:44Z</time>
      </trkpt>
      <trkpt lat="42.98037" lon="-0.73486">
        <ele>1527</ele>
        <time>2010-01-23T15:03:51Z</time>
      </trkpt>
      <trkpt lat="42.98037" lon="-0.73484">
        <ele>1527</ele>
        <time>2010-01-23T15:03:57Z</time>
      </trkpt>
      <trkpt lat="42.98037" lon="-0.73482">
        <ele>1527</ele>
        <time>2010-01-23T15:04:04Z</time>
      </trkpt>
      <trkpt lat="42.98036" lon="-0.73481">
        <ele>1527</ele>
        <time>2010-01-23T15:04:12Z</time>
      </trkpt>
      <trkpt lat="42.98033" lon="-0.73476">
        <ele>1527</ele>
        <time>2010-01-23T15:04:19Z</time>
      </trkpt>
      <trkpt lat="42.98032" lon="-0.73474">
        <ele>1527</ele>
        <time>2010-01-23T15:04:25Z</time>
      </trkpt>
      <trkpt lat="42.98032" lon="-0.73473">
        <ele>1527</ele>
        <time>2010-01-23T15:04:27Z</time>
      </trkpt>
      <trkpt lat="42.98027" lon="-0.73467">
        <ele>1528</ele>
        <time>2010-01-23T15:04:31Z</time>
      </trkpt>
      <trkpt lat="42.98023" lon="-0.73461">
        <ele>1528</ele>
        <time>2010-01-23T15:04:34Z</time>
      </trkpt>
      <trkpt lat="42.98022" lon="-0.73458">
        <ele>1529</ele>
        <time>2010-01-23T15:04:35Z</time>
      </trkpt>
      <trkpt lat="42.98017" lon="-0.73449">
        <ele>1529</ele>
        <time>2010-01-23T15:04:40Z</time>
      </trkpt>
      <trkpt lat="42.9801" lon="-0.73437">
        <ele>1531</ele>
        <time>2010-01-23T15:04:46Z</time>
      </trkpt>
      <trkpt lat="42.98002" lon="-0.73424">
        <ele>1533</ele>
        <time>2010-01-23T15:04:53Z</time>
      </trkpt>
      <trkpt lat="42.97995" lon="-0.7341">
        <ele>1540</ele>
        <time>2010-01-23T15:05:00Z</time>
      </trkpt>
      <trkpt lat="42.97983" lon="-0.73391">
        <ele>1548</ele>
        <time>2010-01-23T15:05:10Z</time>
      </trkpt>
      <trkpt lat="42.97969" lon="-0.73366">
        <ele>1553</ele>
        <time>2010-01-23T15:05:23Z</time>
      </trkpt>
      <trkpt lat="42.97958" lon="-0.73347">
        <ele>1555</ele>
        <time>2010-01-23T15:05:33Z</time>
      </trkpt>
      <trkpt lat="42.97946" lon="-0.73325">
        <ele>1568</ele>
        <time>2010-01-23T15:05:44Z</time>
      </trkpt>
      <trkpt lat="42.97935" lon="-0.73305">
        <ele>1569</ele>
        <time>2010-01-23T15:05:54Z</time>
      </trkpt>
      <trkpt lat="42.97927" lon="-0.7329">
        <ele>1572</ele>
        <time>2010-01-23T15:06:02Z</time>
      </trkpt>
      <trkpt lat="42.97921" lon="-0.73278">
        <ele>1574</ele>
        <time>2010-01-23T15:06:08Z</time>
      </trkpt>
      <trkpt lat="42.97912" lon="-0.73262">
        <ele>1581</ele>
        <time>2010-01-23T15:06:16Z</time>
      </trkpt>
      <trkpt lat="42.97902" lon="-0.73245">
        <ele>1589</ele>
        <time>2010-01-23T15:06:25Z</time>
      </trkpt>
      <trkpt lat="42.97893" lon="-0.73229">
        <ele>1595</ele>
        <time>2010-01-23T15:06:33Z</time>
      </trkpt>
      <trkpt lat="42.97886" lon="-0.73216">
        <ele>1598</ele>
        <time>2010-01-23T15:06:41Z</time>
      </trkpt>
      <trkpt lat="42.97881" lon="-0.73206">
        <ele>1600</ele>
        <time>2010-01-23T15:06:50Z</time>
      </trkpt>
      <trkpt lat="42.97874" lon="-0.73194">
        <ele>1602</ele>
        <time>2010-01-23T15:06:59Z</time>
      </trkpt>
      <trkpt lat="42.97866" lon="-0.7318">
        <ele>1604</ele>
        <time>2010-01-23T15:07:06Z</time>
      </trkpt>
      <trkpt lat="42.97858" lon="-0.73165">
        <ele>1615</ele>
        <time>2010-01-23T15:07:14Z</time>
      </trkpt>
      <trkpt lat="42.97847" lon="-0.73146">
        <ele>1616</ele>
        <time>2010-01-23T15:07:24Z</time>
      </trkpt>
      <trkpt lat="42.97835" lon="-0.73123">
        <ele>1618</ele>
        <time>2010-01-23T15:07:36Z</time>
      </trkpt>
      <trkpt lat="42.97827" lon="-0.7311">
        <ele>1629</ele>
        <time>2010-01-23T15:07:43Z</time>
      </trkpt>
      <trkpt lat="42.97814" lon="-0.73085">
        <ele>1630</ele>
        <time>2010-01-23T15:07:55Z</time>
      </trkpt>
      <trkpt lat="42.97799" lon="-0.7306">
        <ele>1640</ele>
        <time>2010-01-23T15:08:08Z</time>
      </trkpt>
      <trkpt lat="42.97787" lon="-0.73038">
        <ele>1643</ele>
        <time>2010-01-23T15:08:19Z</time>
      </trkpt>
      <trkpt lat="42.97777" lon="-0.7302">
        <ele>1646</ele>
        <time>2010-01-23T15:08:29Z</time>
      </trkpt>
      <trkpt lat="42.97766" lon="-0.73001">
        <ele>1650</ele>
        <time>2010-01-23T15:08:39Z</time>
      </trkpt>
      <trkpt lat="42.97757" lon="-0.72985">
        <ele>1656</ele>
        <time>2010-01-23T15:08:47Z</time>
      </trkpt>
      <trkpt lat="42.97748" lon="-0.72968">
        <ele>1666</ele>
        <time>2010-01-23T15:08:56Z</time>
      </trkpt>
      <trkpt lat="42.97737" lon="-0.72949">
        <ele>1669</ele>
        <time>2010-01-23T15:09:06Z</time>
      </trkpt>
      <trkpt lat="42.97719" lon="-0.72919">
        <ele>1671</ele>
        <time>2010-01-23T15:09:22Z</time>
      </trkpt>
      <trkpt lat="42.97708" lon="-0.72898">
        <ele>1681</ele>
        <time>2010-01-23T15:09:32Z</time>
      </trkpt>
      <trkpt lat="42.97696" lon="-0.72876">
        <ele>1684</ele>
        <time>2010-01-23T15:09:43Z</time>
      </trkpt>
      <trkpt lat="42.97678" lon="-0.72844">
        <ele>1690</ele>
        <time>2010-01-23T15:09:59Z</time>
      </trkpt>
      <trkpt lat="42.97662" lon="-0.72815">
        <ele>1702</ele>
        <time>2010-01-23T15:10:14Z</time>
      </trkpt>
      <trkpt lat="42.97651" lon="-0.72796">
        <ele>1705</ele>
        <time>2010-01-23T15:10:24Z</time>
      </trkpt>
      <trkpt lat="42.97636" lon="-0.72767">
        <ele>1708</ele>
        <time>2010-01-23T15:10:39Z</time>
      </trkpt>
      <trkpt lat="42.97624" lon="-0.72747">
        <ele>1717</ele>
        <time>2010-01-23T15:10:50Z</time>
      </trkpt>
      <trkpt lat="42.97613" lon="-0.72727">
        <ele>1718</ele>
        <time>2010-01-23T15:11:00Z</time>
      </trkpt>
      <trkpt lat="42.97598" lon="-0.72699">
        <ele>1720</ele>
        <time>2010-01-23T15:11:14Z</time>
      </trkpt>
      <trkpt lat="42.97582" lon="-0.72671">
        <ele>1725</ele>
        <time>2010-01-23T15:11:28Z</time>
      </trkpt>
      <trkpt lat="42.97567" lon="-0.72643">
        <ele>1730</ele>
        <time>2010-01-23T15:11:42Z</time>
      </trkpt>
      <trkpt lat="42.97553" lon="-0.72619">
        <ele>1732</ele>
        <time>2010-01-23T15:11:54Z</time>
      </trkpt>
      <trkpt lat="42.97541" lon="-0.72597">
        <ele>1734</ele>
        <time>2010-01-23T15:12:05Z</time>
      </trkpt>
      <trkpt lat="42.97527" lon="-0.72571">
        <ele>1741</ele>
        <time>2010-01-23T15:12:18Z</time>
      </trkpt>
      <trkpt lat="42.97508" lon="-0.72538">
        <ele>1744</ele>
        <time>2010-01-23T15:12:35Z</time>
      </trkpt>
      <trkpt lat="42.97492" lon="-0.72508">
        <ele>1752</ele>
        <time>2010-01-23T15:12:50Z</time>
      </trkpt>
      <trkpt lat="42.97481" lon="-0.7249">
        <ele>1762</ele>
        <time>2010-01-23T15:13:00Z</time>
      </trkpt>
      <trkpt lat="42.9747" lon="-0.72468">
        <ele>1768</ele>
        <time>2010-01-23T15:13:11Z</time>
      </trkpt>
      <trkpt lat="42.97455" lon="-0.72443">
        <ele>1773</ele>
        <time>2010-01-23T15:13:25Z</time>
      </trkpt>
      <trkpt lat="42.97439" lon="-0.72416">
        <ele>1791</ele>
        <time>2010-01-23T15:13:40Z</time>
      </trkpt>
      <trkpt lat="42.97425" lon="-0.72392">
        <ele>1793</ele>
        <time>2010-01-23T15:13:52Z</time>
      </trkpt>
      <trkpt lat="42.97412" lon="-0.72369">
        <ele>1812</ele>
        <time>2010-01-23T15:14:04Z</time>
      </trkpt>
      <trkpt lat="42.97404" lon="-0.72354">
        <ele>1814</ele>
        <time>2010-01-23T15:14:12Z</time>
      </trkpt>
      <trkpt lat="42.97388" lon="-0.72325">
        <ele>1820</ele>
        <time>2010-01-23T15:14:27Z</time>
      </trkpt>
      <trkpt lat="42.9738" lon="-0.72309">
        <ele>1820</ele>
        <time>2010-01-23T15:14:35Z</time>
      </trkpt>
      <trkpt lat="42.97375" lon="-0.72302">
        <ele>1821</ele>
        <time>2010-01-23T15:14:39Z</time>
      </trkpt>
      <trkpt lat="42.97365" lon="-0.72301">
        <ele>1822</ele>
        <time>2010-01-23T15:14:44Z</time>
      </trkpt>
      <trkpt lat="42.97364" lon="-0.72302">
        <ele>1822</ele>
        <time>2010-01-23T15:14:52Z</time>
      </trkpt>
      <trkpt lat="42.97364" lon="-0.72303">
        <ele>1822</ele>
        <time>2010-01-23T15:14:54Z</time>
      </trkpt>
      <trkpt lat="42.97372" lon="-0.72316">
        <ele>1822</ele>
        <time>2010-01-23T15:14:59Z</time>
      </trkpt>
      <trkpt lat="42.97373" lon="-0.72317">
        <ele>1821</ele>
        <time>2010-01-23T15:15:03Z</time>
      </trkpt>
      <trkpt lat="42.97372" lon="-0.72317">
        <ele>1822</ele>
        <time>2010-01-23T15:15:18Z</time>
      </trkpt>
      <trkpt lat="42.97373" lon="-0.72318">
        <ele>1822</ele>
        <time>2010-01-23T15:15:37Z</time>
      </trkpt>
      <trkpt lat="42.97372" lon="-0.72317">
        <ele>1822</ele>
        <time>2010-01-23T15:15:50Z</time>
      </trkpt>
      <trkpt lat="42.97372" lon="-0.72317">
        <ele>1822</ele>
        <time>2010-01-23T15:16:04Z</time>
      </trkpt>
      <trkpt lat="42.97373" lon="-0.72317">
        <ele>1821</ele>
        <time>2010-01-23T15:16:13Z</time>
      </trkpt>
      <trkpt lat="42.97372" lon="-0.72317">
        <ele>1822</ele>
        <time>2010-01-23T15:16:23Z</time>
      </trkpt>
      <trkpt lat="42.97373" lon="-0.72317">
        <ele>1821</ele>
        <time>2010-01-23T15:16:50Z</time>
      </trkpt>
      <trkpt lat="42.97372" lon="-0.72317">
        <ele>1822</ele>
        <time>2010-01-23T15:17:09Z</time>
      </trkpt>
      <trkpt lat="42.97373" lon="-0.72317">
        <ele>1821</ele>
        <time>2010-01-23T15:17:29Z</time>
      </trkpt>
      <trkpt lat="42.97373" lon="-0.72315">
        <ele>1821</ele>
        <time>2010-01-23T15:18:22Z</time>
      </trkpt>
      <trkpt lat="42.97374" lon="-0.72316">
        <ele>1821</ele>
        <time>2010-01-23T15:18:37Z</time>
      </trkpt>
      <trkpt lat="42.97373" lon="-0.72316">
        <ele>1821</ele>
        <time>2010-01-23T15:18:48Z</time>
      </trkpt>
      <trkpt lat="42.97373" lon="-0.72316">
        <ele>1821</ele>
        <time>2010-01-23T15:19:12Z</time>
      </trkpt>
      <trkpt lat="42.97372" lon="-0.72316">
        <ele>1822</ele>
        <time>2010-01-23T15:19:20Z</time>
      </trkpt>
      <trkpt lat="42.97372" lon="-0.72317">
        <ele>1822</ele>
        <time>2010-01-23T15:19:27Z</time>
      </trkpt>
      <trkpt lat="42.97372" lon="-0.72316">
        <ele>1822</ele>
        <time>2010-01-23T15:19:34Z</time>
      </trkpt>
      <trkpt lat="42.97369" lon="-0.72314">
        <ele>1822</ele>
        <time>2010-01-23T15:19:39Z</time>
      </trkpt>
      <trkpt lat="42.97365" lon="-0.72311">
        <ele>1822</ele>
        <time>2010-01-23T15:19:43Z</time>
      </trkpt>
      <trkpt lat="42.97359" lon="-0.72306">
        <ele>1823</ele>
        <time>2010-01-23T15:19:48Z</time>
      </trkpt>
      <trkpt lat="42.97353" lon="-0.72302">
        <ele>1823</ele>
        <time>2010-01-23T15:19:52Z</time>
      </trkpt>
      <trkpt lat="42.97352" lon="-0.72301">
        <ele>1823</ele>
        <time>2010-01-23T15:19:53Z</time>
      </trkpt>
      <trkpt lat="42.97343" lon="-0.72295">
        <ele>1824</ele>
        <time>2010-01-23T15:19:58Z</time>
      </trkpt>
      <trkpt lat="42.97342" lon="-0.72297">
        <ele>1824</ele>
        <time>2010-01-23T15:20:09Z</time>
      </trkpt>
      <trkpt lat="42.97342" lon="-0.72297">
        <ele>1824</ele>
        <time>2010-01-23T15:20:25Z</time>
      </trkpt>
      <trkpt lat="42.97342" lon="-0.72298">
        <ele>1824</ele>
        <time>2010-01-23T15:20:38Z</time>
      </trkpt>
      <trkpt lat="42.97342" lon="-0.72298">
        <ele>1824</ele>
        <time>2010-01-23T15:20:48Z</time>
      </trkpt>
      <trkpt lat="42.97342" lon="-0.72297">
        <ele>1824</ele>
        <time>2010-01-23T15:20:56Z</time>
      </trkpt>
      <trkpt lat="42.97337" lon="-0.72296">
        <ele>1824</ele>
        <time>2010-01-23T15:21:02Z</time>
      </trkpt>
      <trkpt lat="42.97319" lon="-0.72287">
        <ele>1833</ele>
        <time>2010-01-23T15:21:10Z</time>
      </trkpt>
      <trkpt lat="42.97315" lon="-0.72285">
        <ele>1834</ele>
        <time>2010-01-23T15:21:13Z</time>
      </trkpt>
      <trkpt lat="42.97312" lon="-0.72285">
        <ele>1834</ele>
        <time>2010-01-23T15:21:20Z</time>
      </trkpt>
      <trkpt lat="42.97309" lon="-0.72283">
        <ele>1834</ele>
        <time>2010-01-23T15:21:28Z</time>
      </trkpt>
      <trkpt lat="42.97306" lon="-0.72279">
        <ele>1834</ele>
        <time>2010-01-23T15:21:34Z</time>
      </trkpt>
      <trkpt lat="42.97305" lon="-0.72279">
        <ele>1834</ele>
        <time>2010-01-23T15:21:42Z</time>
      </trkpt>
      <trkpt lat="42.97303" lon="-0.72278">
        <ele>1834</ele>
        <time>2010-01-23T15:21:49Z</time>
      </trkpt>
      <trkpt lat="42.97302" lon="-0.72278">
        <ele>1834</ele>
        <time>2010-01-23T15:21:58Z</time>
      </trkpt>
      <trkpt lat="42.97298" lon="-0.72278">
        <ele>1835</ele>
        <time>2010-01-23T15:22:05Z</time>
      </trkpt>
      <trkpt lat="42.97292" lon="-0.72277">
        <ele>1835</ele>
        <time>2010-01-23T15:22:10Z</time>
      </trkpt>
      <trkpt lat="42.97284" lon="-0.72278">
        <ele>1836</ele>
        <time>2010-01-23T15:22:14Z</time>
      </trkpt>
      <trkpt lat="42.97275" lon="-0.72279">
        <ele>1836</ele>
        <time>2010-01-23T15:22:18Z</time>
      </trkpt>
      <trkpt lat="42.97267" lon="-0.72279">
        <ele>1837</ele>
        <time>2010-01-23T15:22:22Z</time>
      </trkpt>
      <trkpt lat="42.97256" lon="-0.72279">
        <ele>1837</ele>
        <time>2010-01-23T15:22:27Z</time>
      </trkpt>
      <trkpt lat="42.97246" lon="-0.7228">
        <ele>1849</ele>
        <time>2010-01-23T15:22:32Z</time>
      </trkpt>
      <trkpt lat="42.97232" lon="-0.7228">
        <ele>1850</ele>
        <time>2010-01-23T15:22:39Z</time>
      </trkpt>
      <trkpt lat="42.97216" lon="-0.72281">
        <ele>1853</ele>
        <time>2010-01-23T15:22:47Z</time>
      </trkpt>
      <trkpt lat="42.972" lon="-0.72281">
        <ele>1856</ele>
        <time>2010-01-23T15:22:55Z</time>
      </trkpt>
      <trkpt lat="42.97188" lon="-0.72281">
        <ele>1858</ele>
        <time>2010-01-23T15:23:01Z</time>
      </trkpt>
      <trkpt lat="42.97171" lon="-0.72282">
        <ele>1860</ele>
        <time>2010-01-23T15:23:10Z</time>
      </trkpt>
      <trkpt lat="42.9716" lon="-0.72282">
        <ele>1876</ele>
        <time>2010-01-23T15:23:16Z</time>
      </trkpt>
      <trkpt lat="42.97146" lon="-0.72282">
        <ele>1878</ele>
        <time>2010-01-23T15:23:23Z</time>
      </trkpt>
      <trkpt lat="42.9713" lon="-0.72282">
        <ele>1880</ele>
        <time>2010-01-23T15:23:31Z</time>
      </trkpt>
      <trkpt lat="42.97115" lon="-0.72282">
        <ele>1883</ele>
        <time>2010-01-23T15:23:39Z</time>
      </trkpt>
      <trkpt lat="42.97101" lon="-0.72282">
        <ele>1885</ele>
        <time>2010-01-23T15:23:46Z</time>
      </trkpt>
      <trkpt lat="42.97084" lon="-0.72282">
        <ele>1887</ele>
        <time>2010-01-23T15:23:54Z</time>
      </trkpt>
      <trkpt lat="42.9707" lon="-0.72281">
        <ele>1899</ele>
        <time>2010-01-23T15:24:01Z</time>
      </trkpt>
      <trkpt lat="42.97053" lon="-0.7228">
        <ele>1901</ele>
        <time>2010-01-23T15:24:09Z</time>
      </trkpt>
      <trkpt lat="42.97035" lon="-0.72279">
        <ele>1902</ele>
        <time>2010-01-23T15:24:18Z</time>
      </trkpt>
      <trkpt lat="42.97018" lon="-0.72277">
        <ele>1904</ele>
        <time>2010-01-23T15:24:27Z</time>
      </trkpt>
      <trkpt lat="42.96996" lon="-0.72276">
        <ele>1921</ele>
        <time>2010-01-23T15:24:38Z</time>
      </trkpt>
      <trkpt lat="42.96977" lon="-0.72275">
        <ele>1924</ele>
        <time>2010-01-23T15:24:48Z</time>
      </trkpt>
      <trkpt lat="42.96952" lon="-0.72274">
        <ele>1930</ele>
        <time>2010-01-23T15:25:01Z</time>
      </trkpt>
      <trkpt lat="42.96928" lon="-0.72272">
        <ele>1937</ele>
        <time>2010-01-23T15:25:14Z</time>
      </trkpt>
      <trkpt lat="42.96905" lon="-0.72271">
        <ele>1957</ele>
        <time>2010-01-23T15:25:26Z</time>
      </trkpt>
      <trkpt lat="42.9688" lon="-0.7227">
        <ele>1961</ele>
        <time>2010-01-23T15:25:39Z</time>
      </trkpt>
      <trkpt lat="42.9686" lon="-0.72269">
        <ele>1966</ele>
        <time>2010-01-23T15:25:49Z</time>
      </trkpt>
      <trkpt lat="42.96834" lon="-0.72267">
        <ele>1972</ele>
        <time>2010-01-23T15:26:02Z</time>
      </trkpt>
      <trkpt lat="42.96816" lon="-0.72266">
        <ele>1985</ele>
        <time>2010-01-23T15:26:11Z</time>
      </trkpt>
      <trkpt lat="42.96798" lon="-0.72265">
        <ele>1987</ele>
        <time>2010-01-23T15:26:20Z</time>
      </trkpt>
      <trkpt lat="42.96767" lon="-0.72264">
        <ele>1993</ele>
        <time>2010-01-23T15:26:35Z</time>
      </trkpt>
      <trkpt lat="42.96739" lon="-0.72262">
        <ele>2009</ele>
        <time>2010-01-23T15:26:49Z</time>
      </trkpt>
      <trkpt lat="42.96712" lon="-0.72261">
        <ele>2016</ele>
        <time>2010-01-23T15:27:03Z</time>
      </trkpt>
      <trkpt lat="42.96696" lon="-0.7226">
        <ele>2020</ele>
        <time>2010-01-23T15:27:11Z</time>
      </trkpt>
      <trkpt lat="42.96671" lon="-0.72259">
        <ele>2028</ele>
        <time>2010-01-23T15:27:23Z</time>
      </trkpt>
      <trkpt lat="42.96643" lon="-0.72257">
        <ele>2045</ele>
        <time>2010-01-23T15:27:37Z</time>
      </trkpt>
      <trkpt lat="42.96617" lon="-0.72256">
        <ele>2052</ele>
        <time>2010-01-23T15:27:50Z</time>
      </trkpt>
      <trkpt lat="42.96585" lon="-0.72254">
        <ele>2064</ele>
        <time>2010-01-23T15:28:06Z</time>
      </trkpt>
      <trkpt lat="42.96558" lon="-0.72253">
        <ele>2073</ele>
        <time>2010-01-23T15:28:20Z</time>
      </trkpt>
      <trkpt lat="42.96532" lon="-0.72252">
        <ele>2077</ele>
        <time>2010-01-23T15:28:33Z</time>
      </trkpt>
      <trkpt lat="42.96506" lon="-0.7225">
        <ele>2084</ele>
        <time>2010-01-23T15:28:46Z</time>
      </trkpt>
      <trkpt lat="42.96499" lon="-0.7225">
        <ele>2086</ele>
        <time>2010-01-23T15:28:52Z</time>
      </trkpt>
      <trkpt lat="42.96497" lon="-0.7225">
        <ele>2087</ele>
        <time>2010-01-23T15:28:54Z</time>
      </trkpt>
      <trkpt lat="42.96493" lon="-0.72249">
        <ele>2089</ele>
        <time>2010-01-23T15:28:59Z</time>
      </trkpt>
      <trkpt lat="42.96482" lon="-0.72249">
        <ele>2092</ele>
        <time>2010-01-23T15:29:08Z</time>
      </trkpt>
      <trkpt lat="42.96468" lon="-0.72248">
        <ele>2096</ele>
        <time>2010-01-23T15:29:15Z</time>
      </trkpt>
      <trkpt lat="42.96452" lon="-0.72247">
        <ele>2099</ele>
        <time>2010-01-23T15:29:23Z</time>
      </trkpt>
      <trkpt lat="42.96433" lon="-0.72246">
        <ele>2103</ele>
        <time>2010-01-23T15:29:32Z</time>
      </trkpt>
      <trkpt lat="42.96411" lon="-0.72245">
        <ele>2111</ele>
        <time>2010-01-23T15:29:43Z</time>
      </trkpt>
      <trkpt lat="42.96394" lon="-0.72244">
        <ele>2114</ele>
        <time>2010-01-23T15:29:51Z</time>
      </trkpt>
      <trkpt lat="42.96364" lon="-0.72242">
        <ele>2118</ele>
        <time>2010-01-23T15:30:06Z</time>
      </trkpt>
      <trkpt lat="42.96337" lon="-0.72241">
        <ele>2122</ele>
        <time>2010-01-23T15:30:19Z</time>
      </trkpt>
      <trkpt lat="42.96308" lon="-0.7224">
        <ele>2130</ele>
        <time>2010-01-23T15:30:33Z</time>
      </trkpt>
      <trkpt lat="42.9628" lon="-0.72238">
        <ele>2133</ele>
        <time>2010-01-23T15:30:47Z</time>
      </trkpt>
      <trkpt lat="42.96256" lon="-0.72236">
        <ele>2135</ele>
        <time>2010-01-23T15:30:58Z</time>
      </trkpt>
      <trkpt lat="42.96245" lon="-0.72228">
        <ele>2137</ele>
        <time>2010-01-23T15:31:01Z</time>
      </trkpt>
      <trkpt lat="42.96246" lon="-0.72213">
        <ele>2138</ele>
        <time>2010-01-23T15:31:05Z</time>
      </trkpt>
      <trkpt lat="42.96254" lon="-0.72206">
        <ele>2135</ele>
        <time>2010-01-23T15:31:10Z</time>
      </trkpt>
      <trkpt lat="42.96258" lon="-0.72202">
        <ele>2135</ele>
        <time>2010-01-23T15:31:17Z</time>
      </trkpt>
      <trkpt lat="42.96258" lon="-0.72202">
        <ele>2135</ele>
        <time>2010-01-23T15:31:23Z</time>
      </trkpt>
      <trkpt lat="42.96259" lon="-0.72202">
        <ele>2135</ele>
        <time>2010-01-23T15:31:38Z</time>
      </trkpt>
      <trkpt lat="42.96259" lon="-0.72202">
        <ele>2135</ele>
        <time>2010-01-23T15:31:45Z</time>
      </trkpt>
      <trkpt lat="42.96259" lon="-0.72203">
        <ele>2135</ele>
        <time>2010-01-23T15:31:57Z</time>
      </trkpt>
      <trkpt lat="42.9626" lon="-0.72203">
        <ele>2135</ele>
        <time>2010-01-23T15:32:08Z</time>
      </trkpt>
      <trkpt lat="42.96263" lon="-0.72204">
        <ele>2135</ele>
        <time>2010-01-23T15:32:12Z</time>
      </trkpt>
      <trkpt lat="42.96267" lon="-0.72198">
        <ele>2135</ele>
        <time>2010-01-23T15:32:16Z</time>
      </trkpt>
      <trkpt lat="42.9627" lon="-0.72197">
        <ele>2135</ele>
        <time>2010-01-23T15:32:19Z</time>
      </trkpt>
      <trkpt lat="42.96275" lon="-0.72199">
        <ele>2134</ele>
        <time>2010-01-23T15:32:27Z</time>
      </trkpt>
      <trkpt lat="42.96288" lon="-0.7221">
        <ele>2133</ele>
        <time>2010-01-23T15:32:31Z</time>
      </trkpt>
      <trkpt lat="42.96296" lon="-0.72209">
        <ele>2132</ele>
        <time>2010-01-23T15:32:32Z</time>
      </trkpt>
      <trkpt lat="42.9633" lon="-0.72215">
        <ele>2130</ele>
        <time>2010-01-23T15:32:36Z</time>
      </trkpt>
      <trkpt lat="42.96355" lon="-0.72229">
        <ele>2119</ele>
        <time>2010-01-23T15:32:40Z</time>
      </trkpt>
      <trkpt lat="42.96365" lon="-0.72244">
        <ele>2118</ele>
        <time>2010-01-23T15:32:43Z</time>
      </trkpt>
      <trkpt lat="42.96373" lon="-0.72254">
        <ele>2114</ele>
        <time>2010-01-23T15:32:46Z</time>
      </trkpt>
      <trkpt lat="42.96371" lon="-0.72261">
        <ele>2114</ele>
        <time>2010-01-23T15:32:49Z</time>
      </trkpt>
      <trkpt lat="42.96369" lon="-0.72264">
        <ele>2114</ele>
        <time>2010-01-23T15:32:53Z</time>
      </trkpt>
      <trkpt lat="42.96368" lon="-0.72265">
        <ele>2114</ele>
        <time>2010-01-23T15:32:59Z</time>
      </trkpt>
      <trkpt lat="42.96364" lon="-0.72274">
        <ele>2114</ele>
        <time>2010-01-23T15:33:05Z</time>
      </trkpt>
      <trkpt lat="42.96354" lon="-0.72294">
        <ele>2113</ele>
        <time>2010-01-23T15:33:09Z</time>
      </trkpt>
      <trkpt lat="42.96349" lon="-0.72322">
        <ele>2111</ele>
        <time>2010-01-23T15:33:12Z</time>
      </trkpt>
      <trkpt lat="42.96347" lon="-0.72332">
        <ele>2111</ele>
        <time>2010-01-23T15:33:13Z</time>
      </trkpt>
      <trkpt lat="42.96332" lon="-0.72381">
        <ele>2100</ele>
        <time>2010-01-23T15:33:17Z</time>
      </trkpt>
      <trkpt lat="42.96308" lon="-0.72427">
        <ele>2082</ele>
        <time>2010-01-23T15:33:21Z</time>
      </trkpt>
      <trkpt lat="42.96278" lon="-0.72473">
        <ele>2077</ele>
        <time>2010-01-23T15:33:25Z</time>
      </trkpt>
      <trkpt lat="42.96253" lon="-0.72527">
        <ele>2064</ele>
        <time>2010-01-23T15:33:29Z</time>
      </trkpt>
      <trkpt lat="42.96253" lon="-0.72576">
        <ele>2061</ele>
        <time>2010-01-23T15:33:32Z</time>
      </trkpt>
      <trkpt lat="42.96263" lon="-0.72612">
        <ele>2056</ele>
        <time>2010-01-23T15:33:35Z</time>
      </trkpt>
      <trkpt lat="42.96266" lon="-0.72621">
        <ele>2055</ele>
        <time>2010-01-23T15:33:36Z</time>
      </trkpt>
      <trkpt lat="42.96285" lon="-0.72673">
        <ele>2052</ele>
        <time>2010-01-23T15:33:42Z</time>
      </trkpt>
      <trkpt lat="42.96288" lon="-0.72682">
        <ele>2051</ele>
        <time>2010-01-23T15:33:43Z</time>
      </trkpt>
      <trkpt lat="42.96293" lon="-0.72721">
        <ele>2049</ele>
        <time>2010-01-23T15:33:47Z</time>
      </trkpt>
      <trkpt lat="42.9629" lon="-0.7275">
        <ele>2044</ele>
        <time>2010-01-23T15:33:50Z</time>
      </trkpt>
      <trkpt lat="42.96275" lon="-0.72803">
        <ele>2041</ele>
        <time>2010-01-23T15:33:56Z</time>
      </trkpt>
      <trkpt lat="42.96259" lon="-0.72863">
        <ele>2033</ele>
        <time>2010-01-23T15:34:01Z</time>
      </trkpt>
      <trkpt lat="42.9624" lon="-0.72923">
        <ele>2026</ele>
        <time>2010-01-23T15:34:06Z</time>
      </trkpt>
      <trkpt lat="42.96221" lon="-0.72982">
        <ele>2022</ele>
        <time>2010-01-23T15:34:12Z</time>
      </trkpt>
      <trkpt lat="42.96211" lon="-0.73025">
        <ele>2015</ele>
        <time>2010-01-23T15:34:17Z</time>
      </trkpt>
      <trkpt lat="42.9621" lon="-0.73033">
        <ele>2015</ele>
        <time>2010-01-23T15:34:18Z</time>
      </trkpt>
      <trkpt lat="42.96215" lon="-0.73077">
        <ele>2013</ele>
        <time>2010-01-23T15:34:22Z</time>
      </trkpt>
      <trkpt lat="42.96222" lon="-0.73108">
        <ele>2009</ele>
        <time>2010-01-23T15:34:25Z</time>
      </trkpt>
      <trkpt lat="42.96223" lon="-0.73121">
        <ele>2008</ele>
        <time>2010-01-23T15:34:28Z</time>
      </trkpt>
      <trkpt lat="42.96223" lon="-0.73121">
        <ele>2008</ele>
        <time>2010-01-23T15:34:32Z</time>
      </trkpt>
      <trkpt lat="42.96223" lon="-0.73121">
        <ele>2008</ele>
        <time>2010-01-23T15:34:38Z</time>
      </trkpt>
      <trkpt lat="42.96224" lon="-0.73123">
        <ele>2008</ele>
        <time>2010-01-23T15:34:42Z</time>
      </trkpt>
      <trkpt lat="42.96239" lon="-0.73136">
        <ele>2007</ele>
        <time>2010-01-23T15:34:46Z</time>
      </trkpt>
      <trkpt lat="42.96256" lon="-0.73153">
        <ele>2004</ele>
        <time>2010-01-23T15:34:49Z</time>
      </trkpt>
      <trkpt lat="42.96279" lon="-0.73197">
        <ele>1998</ele>
        <time>2010-01-23T15:34:54Z</time>
      </trkpt>
      <trkpt lat="42.96288" lon="-0.73218">
        <ele>1996</ele>
        <time>2010-01-23T15:34:56Z</time>
      </trkpt>
      <trkpt lat="42.96295" lon="-0.73265">
        <ele>1989</ele>
        <time>2010-01-23T15:35:00Z</time>
      </trkpt>
      <trkpt lat="42.96284" lon="-0.73296">
        <ele>1988</ele>
        <time>2010-01-23T15:35:03Z</time>
      </trkpt>
      <trkpt lat="42.96273" lon="-0.73313">
        <ele>1987</ele>
        <time>2010-01-23T15:35:05Z</time>
      </trkpt>
      <trkpt lat="42.96233" lon="-0.73358">
        <ele>1981</ele>
        <time>2010-01-23T15:35:11Z</time>
      </trkpt>
      <trkpt lat="42.96225" lon="-0.73366">
        <ele>1980</ele>
        <time>2010-01-23T15:35:12Z</time>
      </trkpt>
      <trkpt lat="42.96192" lon="-0.7342">
        <ele>1975</ele>
        <time>2010-01-23T15:35:17Z</time>
      </trkpt>
      <trkpt lat="42.96172" lon="-0.73473">
        <ele>1973</ele>
        <time>2010-01-23T15:35:21Z</time>
      </trkpt>
      <trkpt lat="42.9616" lon="-0.73508">
        <ele>1969</ele>
        <time>2010-01-23T15:35:24Z</time>
      </trkpt>
      <trkpt lat="42.96165" lon="-0.73543">
        <ele>1963</ele>
        <time>2010-01-23T15:35:28Z</time>
      </trkpt>
      <trkpt lat="42.96186" lon="-0.7357">
        <ele>1962</ele>
        <time>2010-01-23T15:35:32Z</time>
      </trkpt>
      <trkpt lat="42.96207" lon="-0.73575">
        <ele>1962</ele>
        <time>2010-01-23T15:35:36Z</time>
      </trkpt>
      <trkpt lat="42.96211" lon="-0.73579">
        <ele>1962</ele>
        <time>2010-01-23T15:35:39Z</time>
      </trkpt>
      <trkpt lat="42.96213" lon="-0.73584">
        <ele>1954</ele>
        <time>2010-01-23T15:35:48Z</time>
      </trkpt>
      <trkpt lat="42.96213" lon="-0.73584">
        <ele>1954</ele>
        <time>2010-01-23T15:35:54Z</time>
      </trkpt>
      <trkpt lat="42.96215" lon="-0.73583">
        <ele>1961</ele>
        <time>2010-01-23T15:36:01Z</time>
      </trkpt>
      <trkpt lat="42.96216" lon="-0.73584">
        <ele>1954</ele>
        <time>2010-01-23T15:36:09Z</time>
      </trkpt>
      <trkpt lat="42.96216" lon="-0.73584">
        <ele>1954</ele>
        <time>2010-01-23T15:36:17Z</time>
      </trkpt>
      <trkpt lat="42.96218" lon="-0.73587">
        <ele>1954</ele>
        <time>2010-01-23T15:36:21Z</time>
      </trkpt>
      <trkpt lat="42.96217" lon="-0.73612">
        <ele>1953</ele>
        <time>2010-01-23T15:36:25Z</time>
      </trkpt>
      <trkpt lat="42.96214" lon="-0.7362">
        <ele>1952</ele>
        <time>2010-01-23T15:36:26Z</time>
      </trkpt>
      <trkpt lat="42.96204" lon="-0.73662">
        <ele>1949</ele>
        <time>2010-01-23T15:36:30Z</time>
      </trkpt>
      <trkpt lat="42.96202" lon="-0.73683">
        <ele>1942</ele>
        <time>2010-01-23T15:36:32Z</time>
      </trkpt>
      <trkpt lat="42.96197" lon="-0.737">
        <ele>1941</ele>
        <time>2010-01-23T15:36:34Z</time>
      </trkpt>
      <trkpt lat="42.96193" lon="-0.73747">
        <ele>1939</ele>
        <time>2010-01-23T15:36:38Z</time>
      </trkpt>
      <trkpt lat="42.96196" lon="-0.73775">
        <ele>1932</ele>
        <time>2010-01-23T15:36:40Z</time>
      </trkpt>
      <trkpt lat="42.96201" lon="-0.73812">
        <ele>1929</ele>
        <time>2010-01-23T15:36:43Z</time>
      </trkpt>
      <trkpt lat="42.96201" lon="-0.73823">
        <ele>1929</ele>
        <time>2010-01-23T15:36:44Z</time>
      </trkpt>
      <trkpt lat="42.96212" lon="-0.73841">
        <ele>1921</ele>
        <time>2010-01-23T15:36:47Z</time>
      </trkpt>
      <trkpt lat="42.96214" lon="-0.73843">
        <ele>1921</ele>
        <time>2010-01-23T15:36:50Z</time>
      </trkpt>
      <trkpt lat="42.96213" lon="-0.73843">
        <ele>1920</ele>
        <time>2010-01-23T15:37:00Z</time>
      </trkpt>
      <trkpt lat="42.96212" lon="-0.73843">
        <ele>1920</ele>
        <time>2010-01-23T15:37:18Z</time>
      </trkpt>
      <trkpt lat="42.96212" lon="-0.73844">
        <ele>1920</ele>
        <time>2010-01-23T15:37:38Z</time>
      </trkpt>
      <trkpt lat="42.96212" lon="-0.73842">
        <ele>1920</ele>
        <time>2010-01-23T15:37:53Z</time>
      </trkpt>
      <trkpt lat="42.96212" lon="-0.73843">
        <ele>1920</ele>
        <time>2010-01-23T15:38:03Z</time>
      </trkpt>
      <trkpt lat="42.96212" lon="-0.73844">
        <ele>1920</ele>
        <time>2010-01-23T15:38:09Z</time>
      </trkpt>
      <trkpt lat="42.96212" lon="-0.73846">
        <ele>1920</ele>
        <time>2010-01-23T15:38:11Z</time>
      </trkpt>
      <trkpt lat="42.9621" lon="-0.73858">
        <ele>1919</ele>
        <time>2010-01-23T15:38:14Z</time>
      </trkpt>
      <trkpt lat="42.96224" lon="-0.73888">
        <ele>1917</ele>
        <time>2010-01-23T15:38:18Z</time>
      </trkpt>
      <trkpt lat="42.96239" lon="-0.73918">
        <ele>1911</ele>
        <time>2010-01-23T15:38:21Z</time>
      </trkpt>
      <trkpt lat="42.96255" lon="-0.73982">
        <ele>1906</ele>
        <time>2010-01-23T15:38:28Z</time>
      </trkpt>
      <trkpt lat="42.96259" lon="-0.73998">
        <ele>1907</ele>
        <time>2010-01-23T15:38:30Z</time>
      </trkpt>
      <trkpt lat="42.96266" lon="-0.74062">
        <ele>1898</ele>
        <time>2010-01-23T15:38:36Z</time>
      </trkpt>
      <trkpt lat="42.96273" lon="-0.74119">
        <ele>1893</ele>
        <time>2010-01-23T15:38:40Z</time>
      </trkpt>
      <trkpt lat="42.96276" lon="-0.74161">
        <ele>1892</ele>
        <time>2010-01-23T15:38:43Z</time>
      </trkpt>
      <trkpt lat="42.96283" lon="-0.74221">
        <ele>1888</ele>
        <time>2010-01-23T15:38:48Z</time>
      </trkpt>
      <trkpt lat="42.96293" lon="-0.7429">
        <ele>1881</ele>
        <time>2010-01-23T15:38:54Z</time>
      </trkpt>
      <trkpt lat="42.96299" lon="-0.74313">
        <ele>1880</ele>
        <time>2010-01-23T15:38:56Z</time>
      </trkpt>
      <trkpt lat="42.96319" lon="-0.74333">
        <ele>1878</ele>
        <time>2010-01-23T15:38:59Z</time>
      </trkpt>
      <trkpt lat="42.96333" lon="-0.74319">
        <ele>1877</ele>
        <time>2010-01-23T15:39:01Z</time>
      </trkpt>
      <trkpt lat="42.96341" lon="-0.74295">
        <ele>1867</ele>
        <time>2010-01-23T15:39:03Z</time>
      </trkpt>
      <trkpt lat="42.9635" lon="-0.74253">
        <ele>1868</ele>
        <time>2010-01-23T15:39:06Z</time>
      </trkpt>
      <trkpt lat="42.96378" lon="-0.74202">
        <ele>1864</ele>
        <time>2010-01-23T15:39:10Z</time>
      </trkpt>
      <trkpt lat="42.96408" lon="-0.74166">
        <ele>1858</ele>
        <time>2010-01-23T15:39:13Z</time>
      </trkpt>
      <trkpt lat="42.96443" lon="-0.74147">
        <ele>1846</ele>
        <time>2010-01-23T15:39:16Z</time>
      </trkpt>
      <trkpt lat="42.96476" lon="-0.74137">
        <ele>1841</ele>
        <time>2010-01-23T15:39:19Z</time>
      </trkpt>
      <trkpt lat="42.9653" lon="-0.74104">
        <ele>1826</ele>
        <time>2010-01-23T15:39:25Z</time>
      </trkpt>
      <trkpt lat="42.9657" lon="-0.74069">
        <ele>1827</ele>
        <time>2010-01-23T15:39:31Z</time>
      </trkpt>
      <trkpt lat="42.96598" lon="-0.74045">
        <ele>1815</ele>
        <time>2010-01-23T15:39:35Z</time>
      </trkpt>
      <trkpt lat="42.96646" lon="-0.74012">
        <ele>1808</ele>
        <time>2010-01-23T15:39:40Z</time>
      </trkpt>
      <trkpt lat="42.96667" lon="-0.73991">
        <ele>1802</ele>
        <time>2010-01-23T15:39:42Z</time>
      </trkpt>
      <trkpt lat="42.96702" lon="-0.73978">
        <ele>1802</ele>
        <time>2010-01-23T15:39:45Z</time>
      </trkpt>
      <trkpt lat="42.96724" lon="-0.7399">
        <ele>1798</ele>
        <time>2010-01-23T15:39:47Z</time>
      </trkpt>
      <trkpt lat="42.96753" lon="-0.74005">
        <ele>1786</ele>
        <time>2010-01-23T15:39:50Z</time>
      </trkpt>
      <trkpt lat="42.9682" lon="-0.74024">
        <ele>1779</ele>
        <time>2010-01-23T15:39:55Z</time>
      </trkpt>
      <trkpt lat="42.96867" lon="-0.74027">
        <ele>1770</ele>
        <time>2010-01-23T15:39:59Z</time>
      </trkpt>
      <trkpt lat="42.96919" lon="-0.74039">
        <ele>1761</ele>
        <time>2010-01-23T15:40:03Z</time>
      </trkpt>
      <trkpt lat="42.96969" lon="-0.74036">
        <ele>1761</ele>
        <time>2010-01-23T15:40:07Z</time>
      </trkpt>
      <trkpt lat="42.96999" lon="-0.74019">
        <ele>1761</ele>
        <time>2010-01-23T15:40:10Z</time>
      </trkpt>
      <trkpt lat="42.97013" lon="-0.74001">
        <ele>1756</ele>
        <time>2010-01-23T15:40:12Z</time>
      </trkpt>
      <trkpt lat="42.97027" lon="-0.73976">
        <ele>1752</ele>
        <time>2010-01-23T15:40:15Z</time>
      </trkpt>
      <trkpt lat="42.97045" lon="-0.73961">
        <ele>1750</ele>
        <time>2010-01-23T15:40:19Z</time>
      </trkpt>
      <trkpt lat="42.9706" lon="-0.73964">
        <ele>1749</ele>
        <time>2010-01-23T15:40:22Z</time>
      </trkpt>
      <trkpt lat="42.97064" lon="-0.73967">
        <ele>1749</ele>
        <time>2010-01-23T15:40:29Z</time>
      </trkpt>
      <trkpt lat="42.97064" lon="-0.73967">
        <ele>1749</ele>
        <time>2010-01-23T15:40:36Z</time>
      </trkpt>
      <trkpt lat="42.97063" lon="-0.73968">
        <ele>1749</ele>
        <time>2010-01-23T15:40:46Z</time>
      </trkpt>
      <trkpt lat="42.97062" lon="-0.73968">
        <ele>1749</ele>
        <time>2010-01-23T15:40:58Z</time>
      </trkpt>
      <trkpt lat="42.9706" lon="-0.73966">
        <ele>1749</ele>
        <time>2010-01-23T15:41:07Z</time>
      </trkpt>
      <trkpt lat="42.97058" lon="-0.73968">
        <ele>1749</ele>
        <time>2010-01-23T15:41:31Z</time>
      </trkpt>
      <trkpt lat="42.97059" lon="-0.73969">
        <ele>1749</ele>
        <time>2010-01-23T15:41:32Z</time>
      </trkpt>
      <trkpt lat="42.97068" lon="-0.73988">
        <ele>1748</ele>
        <time>2010-01-23T15:41:37Z</time>
      </trkpt>
      <trkpt lat="42.97084" lon="-0.74008">
        <ele>1742</ele>
        <time>2010-01-23T15:41:40Z</time>
      </trkpt>
      <trkpt lat="42.97092" lon="-0.74015">
        <ele>1740</ele>
        <time>2010-01-23T15:41:41Z</time>
      </trkpt>
      <trkpt lat="42.97126" lon="-0.74027">
        <ele>1737</ele>
        <time>2010-01-23T15:41:44Z</time>
      </trkpt>
      <trkpt lat="42.97137" lon="-0.74028">
        <ele>1736</ele>
        <time>2010-01-23T15:41:45Z</time>
      </trkpt>
      <trkpt lat="42.97194" lon="-0.74027">
        <ele>1733</ele>
        <time>2010-01-23T15:41:51Z</time>
      </trkpt>
      <trkpt lat="42.9723" lon="-0.74025">
        <ele>1734</ele>
        <time>2010-01-23T15:41:56Z</time>
      </trkpt>
      <trkpt lat="42.97264" lon="-0.74025">
        <ele>1730</ele>
        <time>2010-01-23T15:42:01Z</time>
      </trkpt>
      <trkpt lat="42.97307" lon="-0.74028">
        <ele>1726</ele>
        <time>2010-01-23T15:42:06Z</time>
      </trkpt>
      <trkpt lat="42.97325" lon="-0.74027">
        <ele>1725</ele>
        <time>2010-01-23T15:42:08Z</time>
      </trkpt>
      <trkpt lat="42.97348" lon="-0.7405">
        <ele>1713</ele>
        <time>2010-01-23T15:42:11Z</time>
      </trkpt>
      <trkpt lat="42.97358" lon="-0.74088">
        <ele>1712</ele>
        <time>2010-01-23T15:42:14Z</time>
      </trkpt>
      <trkpt lat="42.97361" lon="-0.74116">
        <ele>1710</ele>
        <time>2010-01-23T15:42:16Z</time>
      </trkpt>
      <trkpt lat="42.9737" lon="-0.74198">
        <ele>1707</ele>
        <time>2010-01-23T15:42:22Z</time>
      </trkpt>
      <trkpt lat="42.97376" lon="-0.7423">
        <ele>1706</ele>
        <time>2010-01-23T15:42:25Z</time>
      </trkpt>
      <trkpt lat="42.97378" lon="-0.74274">
        <ele>1705</ele>
        <time>2010-01-23T15:42:30Z</time>
      </trkpt>
      <trkpt lat="42.97372" lon="-0.74312">
        <ele>1706</ele>
        <time>2010-01-23T15:42:34Z</time>
      </trkpt>
      <trkpt lat="42.97375" lon="-0.74341">
        <ele>1704</ele>
        <time>2010-01-23T15:42:38Z</time>
      </trkpt>
      <trkpt lat="42.97377" lon="-0.7435">
        <ele>1704</ele>
        <time>2010-01-23T15:42:40Z</time>
      </trkpt>
      <trkpt lat="42.97383" lon="-0.74373">
        <ele>1703</ele>
        <time>2010-01-23T15:42:44Z</time>
      </trkpt>
      <trkpt lat="42.9739" lon="-0.74388">
        <ele>1702</ele>
        <time>2010-01-23T15:42:47Z</time>
      </trkpt>
      <trkpt lat="42.97403" lon="-0.74397">
        <ele>1700</ele>
        <time>2010-01-23T15:42:51Z</time>
      </trkpt>
      <trkpt lat="42.97406" lon="-0.74398">
        <ele>1699</ele>
        <time>2010-01-23T15:42:52Z</time>
      </trkpt>
      <trkpt lat="42.97426" lon="-0.74404">
        <ele>1690</ele>
        <time>2010-01-23T15:42:58Z</time>
      </trkpt>
      <trkpt lat="42.97437" lon="-0.74415">
        <ele>1689</ele>
        <time>2010-01-23T15:43:02Z</time>
      </trkpt>
      <trkpt lat="42.97445" lon="-0.74434">
        <ele>1688</ele>
        <time>2010-01-23T15:43:05Z</time>
      </trkpt>
      <trkpt lat="42.97451" lon="-0.74449">
        <ele>1687</ele>
        <time>2010-01-23T15:43:07Z</time>
      </trkpt>
      <trkpt lat="42.97466" lon="-0.74472">
        <ele>1685</ele>
        <time>2010-01-23T15:43:10Z</time>
      </trkpt>
      <trkpt lat="42.97476" lon="-0.74489">
        <ele>1684</ele>
        <time>2010-01-23T15:43:12Z</time>
      </trkpt>
      <trkpt lat="42.97511" lon="-0.74528">
        <ele>1673</ele>
        <time>2010-01-23T15:43:17Z</time>
      </trkpt>
      <trkpt lat="42.97547" lon="-0.74554">
        <ele>1670</ele>
        <time>2010-01-23T15:43:21Z</time>
      </trkpt>
      <trkpt lat="42.97575" lon="-0.74567">
        <ele>1669</ele>
        <time>2010-01-23T15:43:24Z</time>
      </trkpt>
      <trkpt lat="42.97609" lon="-0.74567">
        <ele>1664</ele>
        <time>2010-01-23T15:43:28Z</time>
      </trkpt>
      <trkpt lat="42.97641" lon="-0.74564">
        <ele>1662</ele>
        <time>2010-01-23T15:43:32Z</time>
      </trkpt>
      <trkpt lat="42.97679" lon="-0.74582">
        <ele>1657</ele>
        <time>2010-01-23T15:43:38Z</time>
      </trkpt>
      <trkpt lat="42.97699" lon="-0.74593">
        <ele>1654</ele>
        <time>2010-01-23T15:43:41Z</time>
      </trkpt>
      <trkpt lat="42.97715" lon="-0.7461">
        <ele>1653</ele>
        <time>2010-01-23T15:43:45Z</time>
      </trkpt>
      <trkpt lat="42.97717" lon="-0.74611">
        <ele>1653</ele>
        <time>2010-01-23T15:43:48Z</time>
      </trkpt>
      <trkpt lat="42.97716" lon="-0.74611">
        <ele>1653</ele>
        <time>2010-01-23T15:43:55Z</time>
      </trkpt>
      <trkpt lat="42.97716" lon="-0.74611">
        <ele>1653</ele>
        <time>2010-01-23T15:44:01Z</time>
      </trkpt>
      <trkpt lat="42.97716" lon="-0.74611">
        <ele>1653</ele>
        <time>2010-01-23T15:44:03Z</time>
      </trkpt>
      <trkpt lat="42.97727" lon="-0.74614">
        <ele>1653</ele>
        <time>2010-01-23T15:44:08Z</time>
      </trkpt>
      <trkpt lat="42.97743" lon="-0.74621">
        <ele>1652</ele>
        <time>2010-01-23T15:44:12Z</time>
      </trkpt>
      <trkpt lat="42.9775" lon="-0.74635">
        <ele>1651</ele>
        <time>2010-01-23T15:44:16Z</time>
      </trkpt>
      <trkpt lat="42.97757" lon="-0.74661">
        <ele>1644</ele>
        <time>2010-01-23T15:44:20Z</time>
      </trkpt>
      <trkpt lat="42.97771" lon="-0.74709">
        <ele>1638</ele>
        <time>2010-01-23T15:44:27Z</time>
      </trkpt>
      <trkpt lat="42.97794" lon="-0.74743">
        <ele>1636</ele>
        <time>2010-01-23T15:44:32Z</time>
      </trkpt>
      <trkpt lat="42.978" lon="-0.7475">
        <ele>1636</ele>
        <time>2010-01-23T15:44:33Z</time>
      </trkpt>
      <trkpt lat="42.97826" lon="-0.74758">
        <ele>1634</ele>
        <time>2010-01-23T15:44:37Z</time>
      </trkpt>
      <trkpt lat="42.97834" lon="-0.74755">
        <ele>1631</ele>
        <time>2010-01-23T15:44:38Z</time>
      </trkpt>
      <trkpt lat="42.97879" lon="-0.74744">
        <ele>1626</ele>
        <time>2010-01-23T15:44:43Z</time>
      </trkpt>
      <trkpt lat="42.97883" lon="-0.74748">
        <ele>1626</ele>
        <time>2010-01-23T15:44:45Z</time>
      </trkpt>
      <trkpt lat="42.97883" lon="-0.7475">
        <ele>1626</ele>
        <time>2010-01-23T15:44:46Z</time>
      </trkpt>
      <trkpt lat="42.97882" lon="-0.74755">
        <ele>1628</ele>
        <time>2010-01-23T15:44:54Z</time>
      </trkpt>
      <trkpt lat="42.97879" lon="-0.74762">
        <ele>1628</ele>
        <time>2010-01-23T15:44:59Z</time>
      </trkpt>
      <trkpt lat="42.97878" lon="-0.74764">
        <ele>1628</ele>
        <time>2010-01-23T15:45:04Z</time>
      </trkpt>
      <trkpt lat="42.97874" lon="-0.74766">
        <ele>1628</ele>
        <time>2010-01-23T15:45:11Z</time>
      </trkpt>
      <trkpt lat="42.97872" lon="-0.74767">
        <ele>1629</ele>
        <time>2010-01-23T15:45:19Z</time>
      </trkpt>
      <trkpt lat="42.97871" lon="-0.74768">
        <ele>1629</ele>
        <time>2010-01-23T15:45:20Z</time>
      </trkpt>
      <trkpt lat="42.9786" lon="-0.7477">
        <ele>1629</ele>
        <time>2010-01-23T15:45:26Z</time>
      </trkpt>
      <trkpt lat="42.97851" lon="-0.74771">
        <ele>1630</ele>
        <time>2010-01-23T15:45:30Z</time>
      </trkpt>
      <trkpt lat="42.97841" lon="-0.74773">
        <ele>1630</ele>
        <time>2010-01-23T15:45:35Z</time>
      </trkpt>
      <trkpt lat="42.97827" lon="-0.74775">
        <ele>1636</ele>
        <time>2010-01-23T15:45:41Z</time>
      </trkpt>
      <trkpt lat="42.97815" lon="-0.74777">
        <ele>1636</ele>
        <time>2010-01-23T15:45:47Z</time>
      </trkpt>
      <trkpt lat="42.97798" lon="-0.7478">
        <ele>1638</ele>
        <time>2010-01-23T15:45:55Z</time>
      </trkpt>
      <trkpt lat="42.97777" lon="-0.74784">
        <ele>1639</ele>
        <time>2010-01-23T15:46:05Z</time>
      </trkpt>
      <trkpt lat="42.97758" lon="-0.74788">
        <ele>1639</ele>
        <time>2010-01-23T15:46:14Z</time>
      </trkpt>
      <trkpt lat="42.9774" lon="-0.74791">
        <ele>1648</ele>
        <time>2010-01-23T15:46:23Z</time>
      </trkpt>
      <trkpt lat="42.97717" lon="-0.74795">
        <ele>1650</ele>
        <time>2010-01-23T15:46:34Z</time>
      </trkpt>
      <trkpt lat="42.97695" lon="-0.748">
        <ele>1653</ele>
        <time>2010-01-23T15:46:45Z</time>
      </trkpt>
      <trkpt lat="42.97676" lon="-0.74803">
        <ele>1655</ele>
        <time>2010-01-23T15:46:54Z</time>
      </trkpt>
      <trkpt lat="42.97652" lon="-0.74808">
        <ele>1667</ele>
        <time>2010-01-23T15:47:06Z</time>
      </trkpt>
      <trkpt lat="42.9762" lon="-0.74814">
        <ele>1671</ele>
        <time>2010-01-23T15:47:22Z</time>
      </trkpt>
      <trkpt lat="42.97591" lon="-0.74819">
        <ele>1678</ele>
        <time>2010-01-23T15:47:37Z</time>
      </trkpt>
      <trkpt lat="42.97577" lon="-0.74822">
        <ele>1683</ele>
        <time>2010-01-23T15:47:44Z</time>
      </trkpt>
      <trkpt lat="42.97553" lon="-0.74826">
        <ele>1682</ele>
        <time>2010-01-23T15:47:56Z</time>
      </trkpt>
      <trkpt lat="42.9753" lon="-0.74831">
        <ele>1683</ele>
        <time>2010-01-23T15:48:07Z</time>
      </trkpt>
      <trkpt lat="42.97505" lon="-0.74836">
        <ele>1687</ele>
        <time>2010-01-23T15:48:19Z</time>
      </trkpt>
      <trkpt lat="42.97474" lon="-0.74842">
        <ele>1696</ele>
        <time>2010-01-23T15:48:34Z</time>
      </trkpt>
      <trkpt lat="42.97446" lon="-0.74847">
        <ele>1701</ele>
        <time>2010-01-23T15:48:47Z</time>
      </trkpt>
      <trkpt lat="42.97418" lon="-0.74852">
        <ele>1703</ele>
        <time>2010-01-23T15:49:01Z</time>
      </trkpt>
      <trkpt lat="42.97396" lon="-0.74856">
        <ele>1717</ele>
        <time>2010-01-23T15:49:13Z</time>
      </trkpt>
      <trkpt lat="42.9737" lon="-0.74861">
        <ele>1722</ele>
        <time>2010-01-23T15:49:27Z</time>
      </trkpt>
      <trkpt lat="42.97353" lon="-0.74864">
        <ele>1725</ele>
        <time>2010-01-23T15:49:36Z</time>
      </trkpt>
      <trkpt lat="42.97335" lon="-0.74867">
        <ele>1726</ele>
        <time>2010-01-23T15:49:45Z</time>
      </trkpt>
      <trkpt lat="42.97306" lon="-0.74873">
        <ele>1744</ele>
        <time>2010-01-23T15:50:00Z</time>
      </trkpt>
      <trkpt lat="42.97271" lon="-0.74879">
        <ele>1750</ele>
        <time>2010-01-23T15:50:17Z</time>
      </trkpt>
      <trkpt lat="42.97238" lon="-0.74886">
        <ele>1769</ele>
        <time>2010-01-23T15:50:34Z</time>
      </trkpt>
      <trkpt lat="42.97203" lon="-0.74892">
        <ele>1775</ele>
        <time>2010-01-23T15:50:52Z</time>
      </trkpt>
      <trkpt lat="42.97179" lon="-0.74897">
        <ele>1781</ele>
        <time>2010-01-23T15:51:04Z</time>
      </trkpt>
      <trkpt lat="42.97144" lon="-0.74903">
        <ele>1799</ele>
        <time>2010-01-23T15:51:21Z</time>
      </trkpt>
      <trkpt lat="42.97104" lon="-0.74911">
        <ele>1811</ele>
        <time>2010-01-23T15:51:41Z</time>
      </trkpt>
      <trkpt lat="42.97078" lon="-0.74916">
        <ele>1827</ele>
        <time>2010-01-23T15:51:55Z</time>
      </trkpt>
      <trkpt lat="42.97055" lon="-0.74921">
        <ele>1841</ele>
        <time>2010-01-23T15:52:08Z</time>
      </trkpt>
      <trkpt lat="42.97039" lon="-0.74924">
        <ele>1846</ele>
        <time>2010-01-23T15:52:17Z</time>
      </trkpt>
      <trkpt lat="42.97018" lon="-0.74928">
        <ele>1849</ele>
        <time>2010-01-23T15:52:28Z</time>
      </trkpt>
      <trkpt lat="42.96976" lon="-0.74936">
        <ele>1870</ele>
        <time>2010-01-23T15:52:50Z</time>
      </trkpt>
      <trkpt lat="42.96937" lon="-0.74944">
        <ele>1878</ele>
        <time>2010-01-23T15:53:11Z</time>
      </trkpt>
      <trkpt lat="42.96902" lon="-0.74951">
        <ele>1895</ele>
        <time>2010-01-23T15:53:30Z</time>
      </trkpt>
      <trkpt lat="42.96886" lon="-0.74954">
        <ele>1897</ele>
        <time>2010-01-23T15:53:38Z</time>
      </trkpt>
      <trkpt lat="42.96871" lon="-0.74957">
        <ele>1899</ele>
        <time>2010-01-23T15:53:46Z</time>
      </trkpt>
      <trkpt lat="42.96864" lon="-0.74964">
        <ele>1901</ele>
        <time>2010-01-23T15:53:49Z</time>
      </trkpt>
      <trkpt lat="42.96865" lon="-0.74974">
        <ele>1904</ele>
        <time>2010-01-23T15:53:53Z</time>
      </trkpt>
      <trkpt lat="42.96873" lon="-0.74976">
        <ele>1903</ele>
        <time>2010-01-23T15:53:56Z</time>
      </trkpt>
      <trkpt lat="42.96879" lon="-0.74974">
        <ele>1902</ele>
        <time>2010-01-23T15:54:01Z</time>
      </trkpt>
      <trkpt lat="42.9688" lon="-0.74973">
        <ele>1902</ele>
        <time>2010-01-23T15:54:11Z</time>
      </trkpt>
      <trkpt lat="42.9688" lon="-0.74973">
        <ele>1902</ele>
        <time>2010-01-23T15:54:21Z</time>
      </trkpt>
      <trkpt lat="42.96879" lon="-0.74973">
        <ele>1902</ele>
        <time>2010-01-23T15:54:28Z</time>
      </trkpt>
      <trkpt lat="42.96879" lon="-0.74972">
        <ele>1902</ele>
        <time>2010-01-23T15:54:41Z</time>
      </trkpt>
      <trkpt lat="42.9688" lon="-0.74972">
        <ele>1902</ele>
        <time>2010-01-23T15:54:51Z</time>
      </trkpt>
      <trkpt lat="42.96881" lon="-0.74972">
        <ele>1902</ele>
        <time>2010-01-23T15:55:13Z</time>
      </trkpt>
      <trkpt lat="42.96883" lon="-0.74974">
        <ele>1902</ele>
        <time>2010-01-23T15:55:30Z</time>
      </trkpt>
      <trkpt lat="42.96884" lon="-0.74975">
        <ele>1902</ele>
        <time>2010-01-23T15:55:37Z</time>
      </trkpt>
      <trkpt lat="42.96885" lon="-0.74975">
        <ele>1902</ele>
        <time>2010-01-23T15:55:44Z</time>
      </trkpt>
      <trkpt lat="42.96885" lon="-0.74975">
        <ele>1902</ele>
        <time>2010-01-23T15:55:58Z</time>
      </trkpt>
      <trkpt lat="42.96885" lon="-0.74975">
        <ele>1902</ele>
        <time>2010-01-23T15:56:22Z</time>
      </trkpt>
      <trkpt lat="42.96886" lon="-0.74975">
        <ele>1902</ele>
        <time>2010-01-23T15:56:57Z</time>
      </trkpt>
      <trkpt lat="42.96885" lon="-0.74976">
        <ele>1903</ele>
        <time>2010-01-23T15:57:09Z</time>
      </trkpt>
      <trkpt lat="42.96885" lon="-0.74976">
        <ele>1903</ele>
        <time>2010-01-23T15:57:17Z</time>
      </trkpt>
      <trkpt lat="42.96885" lon="-0.74976">
        <ele>1903</ele>
        <time>2010-01-23T15:57:24Z</time>
      </trkpt>
      <trkpt lat="42.96886" lon="-0.74975">
        <ele>1902</ele>
        <time>2010-01-23T15:57:39Z</time>
      </trkpt>
      <trkpt lat="42.96886" lon="-0.74975">
        <ele>1902</ele>
        <time>2010-01-23T15:57:49Z</time>
      </trkpt>
      <trkpt lat="42.96886" lon="-0.74975">
        <ele>1902</ele>
        <time>2010-01-23T15:57:59Z</time>
      </trkpt>
      <trkpt lat="42.96885" lon="-0.74975">
        <ele>1902</ele>
        <time>2010-01-23T15:58:07Z</time>
      </trkpt>
      <trkpt lat="42.96886" lon="-0.74976">
        <ele>1903</ele>
        <time>2010-01-23T15:58:12Z</time>
      </trkpt>
      <trkpt lat="42.96892" lon="-0.7499">
        <ele>1905</ele>
        <time>2010-01-23T15:58:16Z</time>
      </trkpt>
      <trkpt lat="42.96897" lon="-0.75008">
        <ele>1923</ele>
        <time>2010-01-23T15:58:20Z</time>
      </trkpt>
      <trkpt lat="42.96914" lon="-0.75022">
        <ele>1923</ele>
        <time>2010-01-23T15:58:25Z</time>
      </trkpt>
      <trkpt lat="42.96924" lon="-0.75041">
        <ele>1907</ele>
        <time>2010-01-23T15:58:28Z</time>
      </trkpt>
      <trkpt lat="42.96929" lon="-0.75055">
        <ele>1908</ele>
        <time>2010-01-23T15:58:30Z</time>
      </trkpt>
      <trkpt lat="42.96935" lon="-0.75068">
        <ele>1910</ele>
        <time>2010-01-23T15:58:32Z</time>
      </trkpt>
      <trkpt lat="42.9694" lon="-0.75082">
        <ele>1910</ele>
        <time>2010-01-23T15:58:36Z</time>
      </trkpt>
      <trkpt lat="42.9695" lon="-0.75094">
        <ele>1905</ele>
        <time>2010-01-23T15:58:40Z</time>
      </trkpt>
      <trkpt lat="42.96953" lon="-0.75112">
        <ele>1903</ele>
        <time>2010-01-23T15:58:43Z</time>
      </trkpt>
      <trkpt lat="42.96951" lon="-0.75119">
        <ele>1903</ele>
        <time>2010-01-23T15:58:44Z</time>
      </trkpt>
      <trkpt lat="42.96941" lon="-0.75167">
        <ele>1901</ele>
        <time>2010-01-23T15:58:50Z</time>
      </trkpt>
      <trkpt lat="42.96938" lon="-0.75186">
        <ele>1899</ele>
        <time>2010-01-23T15:58:52Z</time>
      </trkpt>
      <trkpt lat="42.96928" lon="-0.75221">
        <ele>1894</ele>
        <time>2010-01-23T15:58:57Z</time>
      </trkpt>
      <trkpt lat="42.96932" lon="-0.75229">
        <ele>1894</ele>
        <time>2010-01-23T15:59:01Z</time>
      </trkpt>
      <trkpt lat="42.96936" lon="-0.7524">
        <ele>1893</ele>
        <time>2010-01-23T15:59:04Z</time>
      </trkpt>
      <trkpt lat="42.96936" lon="-0.75249">
        <ele>1893</ele>
        <time>2010-01-23T15:59:05Z</time>
      </trkpt>
      <trkpt lat="42.96937" lon="-0.75266">
        <ele>1884</ele>
        <time>2010-01-23T15:59:07Z</time>
      </trkpt>
      <trkpt lat="42.96934" lon="-0.75294">
        <ele>1881</ele>
        <time>2010-01-23T15:59:12Z</time>
      </trkpt>
      <trkpt lat="42.96937" lon="-0.75324">
        <ele>1881</ele>
        <time>2010-01-23T15:59:17Z</time>
      </trkpt>
      <trkpt lat="42.96938" lon="-0.75343">
        <ele>1877</ele>
        <time>2010-01-23T15:59:21Z</time>
      </trkpt>
      <trkpt lat="42.96947" lon="-0.7534">
        <ele>1874</ele>
        <time>2010-01-23T15:59:24Z</time>
      </trkpt>
      <trkpt lat="42.96953" lon="-0.75326">
        <ele>1876</ele>
        <time>2010-01-23T15:59:26Z</time>
      </trkpt>
      <trkpt lat="42.96969" lon="-0.75288">
        <ele>1874</ele>
        <time>2010-01-23T15:59:31Z</time>
      </trkpt>
      <trkpt lat="42.96982" lon="-0.75263">
        <ele>1872</ele>
        <time>2010-01-23T15:59:35Z</time>
      </trkpt>
      <trkpt lat="42.96985" lon="-0.7526">
        <ele>1870</ele>
        <time>2010-01-23T15:59:39Z</time>
      </trkpt>
      <trkpt lat="42.96985" lon="-0.75261">
        <ele>1871</ele>
        <time>2010-01-23T15:59:46Z</time>
      </trkpt>
      <trkpt lat="42.96985" lon="-0.7526">
        <ele>1870</ele>
        <time>2010-01-23T16:00:03Z</time>
      </trkpt>
      <trkpt lat="42.96986" lon="-0.7526">
        <ele>1870</ele>
        <time>2010-01-23T16:00:12Z</time>
      </trkpt>
      <trkpt lat="42.96985" lon="-0.7526">
        <ele>1870</ele>
        <time>2010-01-23T16:00:23Z</time>
      </trkpt>
      <trkpt lat="42.96986" lon="-0.75259">
        <ele>1870</ele>
        <time>2010-01-23T16:00:33Z</time>
      </trkpt>
      <trkpt lat="42.96985" lon="-0.7526">
        <ele>1870</ele>
        <time>2010-01-23T16:00:47Z</time>
      </trkpt>
      <trkpt lat="42.96985" lon="-0.7526">
        <ele>1871</ele>
        <time>2010-01-23T16:00:56Z</time>
      </trkpt>
      <trkpt lat="42.96984" lon="-0.7526">
        <ele>1871</ele>
        <time>2010-01-23T16:01:08Z</time>
      </trkpt>
      <trkpt lat="42.96984" lon="-0.75259">
        <ele>1871</ele>
        <time>2010-01-23T16:01:16Z</time>
      </trkpt>
      <trkpt lat="42.96984" lon="-0.7526">
        <ele>1871</ele>
        <time>2010-01-23T16:01:34Z</time>
      </trkpt>
      <trkpt lat="42.96984" lon="-0.75261">
        <ele>1871</ele>
        <time>2010-01-23T16:01:43Z</time>
      </trkpt>
      <trkpt lat="42.9699" lon="-0.75268">
        <ele>1870</ele>
        <time>2010-01-23T16:01:46Z</time>
      </trkpt>
      <trkpt lat="42.96996" lon="-0.75266">
        <ele>1869</ele>
        <time>2010-01-23T16:01:48Z</time>
      </trkpt>
      <trkpt lat="42.97008" lon="-0.75253">
        <ele>1858</ele>
        <time>2010-01-23T16:01:52Z</time>
      </trkpt>
      <trkpt lat="42.97021" lon="-0.75256">
        <ele>1852</ele>
        <time>2010-01-23T16:01:55Z</time>
      </trkpt>
      <trkpt lat="42.97033" lon="-0.75262">
        <ele>1848</ele>
        <time>2010-01-23T16:01:57Z</time>
      </trkpt>
      <trkpt lat="42.97048" lon="-0.75261">
        <ele>1845</ele>
        <time>2010-01-23T16:01:59Z</time>
      </trkpt>
      <trkpt lat="42.9709" lon="-0.75259">
        <ele>1829</ele>
        <time>2010-01-23T16:02:04Z</time>
      </trkpt>
      <trkpt lat="42.97141" lon="-0.75259">
        <ele>1815</ele>
        <time>2010-01-23T16:02:09Z</time>
      </trkpt>
      <trkpt lat="42.97167" lon="-0.75256">
        <ele>1804</ele>
        <time>2010-01-23T16:02:11Z</time>
      </trkpt>
      <trkpt lat="42.97193" lon="-0.75248">
        <ele>1798</ele>
        <time>2010-01-23T16:02:13Z</time>
      </trkpt>
      <trkpt lat="42.97228" lon="-0.75227">
        <ele>1791</ele>
        <time>2010-01-23T16:02:16Z</time>
      </trkpt>
      <trkpt lat="42.97273" lon="-0.75211">
        <ele>1772</ele>
        <time>2010-01-23T16:02:20Z</time>
      </trkpt>
      <trkpt lat="42.97303" lon="-0.75207">
        <ele>1768</ele>
        <time>2010-01-23T16:02:23Z</time>
      </trkpt>
      <trkpt lat="42.97326" lon="-0.75206">
        <ele>1766</ele>
        <time>2010-01-23T16:02:25Z</time>
      </trkpt>
      <trkpt lat="42.97338" lon="-0.75211">
        <ele>1757</ele>
        <time>2010-01-23T16:02:27Z</time>
      </trkpt>
      <trkpt lat="42.97346" lon="-0.75212">
        <ele>1757</ele>
        <time>2010-01-23T16:02:29Z</time>
      </trkpt>
      <trkpt lat="42.97347" lon="-0.75213">
        <ele>1757</ele>
        <time>2010-01-23T16:02:32Z</time>
      </trkpt>
      <trkpt lat="42.97347" lon="-0.75214">
        <ele>1757</ele>
        <time>2010-01-23T16:02:39Z</time>
      </trkpt>
      <trkpt lat="42.97346" lon="-0.75214">
        <ele>1757</ele>
        <time>2010-01-23T16:02:47Z</time>
      </trkpt>
      <trkpt lat="42.97348" lon="-0.75212">
        <ele>1757</ele>
        <time>2010-01-23T16:02:53Z</time>
      </trkpt>
      <trkpt lat="42.97359" lon="-0.7519">
        <ele>1756</ele>
        <time>2010-01-23T16:02:58Z</time>
      </trkpt>
      <trkpt lat="42.97359" lon="-0.75174">
        <ele>1756</ele>
        <time>2010-01-23T16:03:00Z</time>
      </trkpt>
      <trkpt lat="42.97355" lon="-0.75139">
        <ele>1753</ele>
        <time>2010-01-23T16:03:06Z</time>
      </trkpt>
      <trkpt lat="42.97355" lon="-0.75133">
        <ele>1753</ele>
        <time>2010-01-23T16:03:08Z</time>
      </trkpt>
      <trkpt lat="42.97354" lon="-0.75131">
        <ele>1753</ele>
        <time>2010-01-23T16:03:16Z</time>
      </trkpt>
      <trkpt lat="42.97354" lon="-0.75131">
        <ele>1753</ele>
        <time>2010-01-23T16:03:29Z</time>
      </trkpt>
      <trkpt lat="42.97354" lon="-0.75131">
        <ele>1753</ele>
        <time>2010-01-23T16:03:33Z</time>
      </trkpt>
      <trkpt lat="42.97369" lon="-0.75123">
        <ele>1751</ele>
        <time>2010-01-23T16:03:37Z</time>
      </trkpt>
      <trkpt lat="42.97383" lon="-0.75108">
        <ele>1749</ele>
        <time>2010-01-23T16:03:39Z</time>
      </trkpt>
      <trkpt lat="42.97387" lon="-0.75081">
        <ele>1743</ele>
        <time>2010-01-23T16:03:42Z</time>
      </trkpt>
      <trkpt lat="42.97386" lon="-0.75066">
        <ele>1743</ele>
        <time>2010-01-23T16:03:46Z</time>
      </trkpt>
      <trkpt lat="42.974" lon="-0.75059">
        <ele>1741</ele>
        <time>2010-01-23T16:03:49Z</time>
      </trkpt>
      <trkpt lat="42.97404" lon="-0.75056">
        <ele>1741</ele>
        <time>2010-01-23T16:03:50Z</time>
      </trkpt>
      <trkpt lat="42.97417" lon="-0.75046">
        <ele>1727</ele>
        <time>2010-01-23T16:03:55Z</time>
      </trkpt>
      <trkpt lat="42.97422" lon="-0.7504">
        <ele>1726</ele>
        <time>2010-01-23T16:04:01Z</time>
      </trkpt>
      <trkpt lat="42.97421" lon="-0.7504">
        <ele>1726</ele>
        <time>2010-01-23T16:04:06Z</time>
      </trkpt>
      <trkpt lat="42.97423" lon="-0.75041">
        <ele>1726</ele>
        <time>2010-01-23T16:04:08Z</time>
      </trkpt>
      <trkpt lat="42.97434" lon="-0.75053">
        <ele>1727</ele>
        <time>2010-01-23T16:04:14Z</time>
      </trkpt>
      <trkpt lat="42.97448" lon="-0.75066">
        <ele>1727</ele>
        <time>2010-01-23T16:04:18Z</time>
      </trkpt>
      <trkpt lat="42.97465" lon="-0.7508">
        <ele>1724</ele>
        <time>2010-01-23T16:04:21Z</time>
      </trkpt>
      <trkpt lat="42.97492" lon="-0.75065">
        <ele>1721</ele>
        <time>2010-01-23T16:04:24Z</time>
      </trkpt>
      <trkpt lat="42.975" lon="-0.75055">
        <ele>1721</ele>
        <time>2010-01-23T16:04:25Z</time>
      </trkpt>
      <trkpt lat="42.97519" lon="-0.74999">
        <ele>1706</ele>
        <time>2010-01-23T16:04:29Z</time>
      </trkpt>
      <trkpt lat="42.9752" lon="-0.74962">
        <ele>1702</ele>
        <time>2010-01-23T16:04:32Z</time>
      </trkpt>
      <trkpt lat="42.97522" lon="-0.74922">
        <ele>1700</ele>
        <time>2010-01-23T16:04:36Z</time>
      </trkpt>
      <trkpt lat="42.97514" lon="-0.74895">
        <ele>1694</ele>
        <time>2010-01-23T16:04:39Z</time>
      </trkpt>
      <trkpt lat="42.9751" lon="-0.74863">
        <ele>1690</ele>
        <time>2010-01-23T16:04:42Z</time>
      </trkpt>
      <trkpt lat="42.97509" lon="-0.74817">
        <ele>1683</ele>
        <time>2010-01-23T16:04:46Z</time>
      </trkpt>
      <trkpt lat="42.9752" lon="-0.74772">
        <ele>1679</ele>
        <time>2010-01-23T16:04:50Z</time>
      </trkpt>
      <trkpt lat="42.97539" lon="-0.74752">
        <ele>1678</ele>
        <time>2010-01-23T16:04:53Z</time>
      </trkpt>
      <trkpt lat="42.97555" lon="-0.74744">
        <ele>1674</ele>
        <time>2010-01-23T16:04:55Z</time>
      </trkpt>
      <trkpt lat="42.97581" lon="-0.74732">
        <ele>1674</ele>
        <time>2010-01-23T16:04:58Z</time>
      </trkpt>
      <trkpt lat="42.97608" lon="-0.74732">
        <ele>1668</ele>
        <time>2010-01-23T16:05:01Z</time>
      </trkpt>
      <trkpt lat="42.97636" lon="-0.7473">
        <ele>1664</ele>
        <time>2010-01-23T16:05:04Z</time>
      </trkpt>
      <trkpt lat="42.97645" lon="-0.74734">
        <ele>1663</ele>
        <time>2010-01-23T16:05:05Z</time>
      </trkpt>
      <trkpt lat="42.97695" lon="-0.74747">
        <ele>1652</ele>
        <time>2010-01-23T16:05:10Z</time>
      </trkpt>
      <trkpt lat="42.97727" lon="-0.74754">
        <ele>1647</ele>
        <time>2010-01-23T16:05:13Z</time>
      </trkpt>
      <trkpt lat="42.97746" lon="-0.74753">
        <ele>1643</ele>
        <time>2010-01-23T16:05:15Z</time>
      </trkpt>
      <trkpt lat="42.97782" lon="-0.74766">
        <ele>1638</ele>
        <time>2010-01-23T16:05:19Z</time>
      </trkpt>
      <trkpt lat="42.97818" lon="-0.74757">
        <ele>1635</ele>
        <time>2010-01-23T16:05:23Z</time>
      </trkpt>
      <trkpt lat="42.97859" lon="-0.74741">
        <ele>1627</ele>
        <time>2010-01-23T16:05:27Z</time>
      </trkpt>
      <trkpt lat="42.97887" lon="-0.74718">
        <ele>1626</ele>
        <time>2010-01-23T16:05:30Z</time>
      </trkpt>
      <trkpt lat="42.979" lon="-0.74683">
        <ele>1624</ele>
        <time>2010-01-23T16:05:34Z</time>
      </trkpt>
      <trkpt lat="42.97906" lon="-0.74663">
        <ele>1622</ele>
        <time>2010-01-23T16:05:37Z</time>
      </trkpt>
      <trkpt lat="42.97911" lon="-0.74651">
        <ele>1623</ele>
        <time>2010-01-23T16:05:41Z</time>
      </trkpt>
      <trkpt lat="42.9791" lon="-0.74648">
        <ele>1623</ele>
        <time>2010-01-23T16:05:46Z</time>
      </trkpt>
      <trkpt lat="42.97911" lon="-0.74647">
        <ele>1623</ele>
        <time>2010-01-23T16:05:47Z</time>
      </trkpt>
      <trkpt lat="42.97915" lon="-0.74651">
        <ele>1623</ele>
        <time>2010-01-23T16:05:53Z</time>
      </trkpt>
      <trkpt lat="42.97914" lon="-0.7465">
        <ele>1623</ele>
        <time>2010-01-23T16:06:01Z</time>
      </trkpt>
      <trkpt lat="42.97914" lon="-0.74651">
        <ele>1623</ele>
        <time>2010-01-23T16:06:09Z</time>
      </trkpt>
      <trkpt lat="42.97914" lon="-0.74651">
        <ele>1623</ele>
        <time>2010-01-23T16:06:20Z</time>
      </trkpt>
      <trkpt lat="42.97913" lon="-0.7465">
        <ele>1623</ele>
        <time>2010-01-23T16:06:28Z</time>
      </trkpt>
      <trkpt lat="42.97912" lon="-0.74649">
        <ele>1623</ele>
        <time>2010-01-23T16:06:34Z</time>
      </trkpt>
      <trkpt lat="42.97912" lon="-0.74649">
        <ele>1623</ele>
        <time>2010-01-23T16:06:40Z</time>
      </trkpt>
      <trkpt lat="42.97913" lon="-0.74649">
        <ele>1623</ele>
        <time>2010-01-23T16:06:47Z</time>
      </trkpt>
      <trkpt lat="42.97916" lon="-0.7465">
        <ele>1623</ele>
        <time>2010-01-23T16:06:57Z</time>
      </trkpt>
      <trkpt lat="42.97921" lon="-0.7465">
        <ele>1619</ele>
        <time>2010-01-23T16:07:05Z</time>
      </trkpt>
      <trkpt lat="42.97923" lon="-0.74652">
        <ele>1619</ele>
        <time>2010-01-23T16:07:10Z</time>
      </trkpt>
      <trkpt lat="42.97925" lon="-0.74653">
        <ele>1619</ele>
        <time>2010-01-23T16:07:12Z</time>
      </trkpt>
      <trkpt lat="42.9793" lon="-0.74662">
        <ele>1619</ele>
        <time>2010-01-23T16:07:20Z</time>
      </trkpt>
      <trkpt lat="42.9793" lon="-0.74676">
        <ele>1620</ele>
        <time>2010-01-23T16:07:29Z</time>
      </trkpt>
      <trkpt lat="42.97933" lon="-0.74688">
        <ele>1620</ele>
        <time>2010-01-23T16:07:37Z</time>
      </trkpt>
      <trkpt lat="42.97934" lon="-0.7469">
        <ele>1620</ele>
        <time>2010-01-23T16:07:39Z</time>
      </trkpt>
      <trkpt lat="42.97943" lon="-0.74692">
        <ele>1620</ele>
        <time>2010-01-23T16:07:47Z</time>
      </trkpt>
      <trkpt lat="42.97952" lon="-0.7469">
        <ele>1620</ele>
        <time>2010-01-23T16:07:56Z</time>
      </trkpt>
      <trkpt lat="42.97961" lon="-0.74697">
        <ele>1620</ele>
        <time>2010-01-23T16:08:04Z</time>
      </trkpt>
      <trkpt lat="42.9797" lon="-0.74706">
        <ele>1620</ele>
        <time>2010-01-23T16:08:13Z</time>
      </trkpt>
      <trkpt lat="42.97979" lon="-0.7472">
        <ele>1620</ele>
        <time>2010-01-23T16:08:23Z</time>
      </trkpt>
      <trkpt lat="42.9799" lon="-0.74734">
        <ele>1619</ele>
        <time>2010-01-23T16:08:33Z</time>
      </trkpt>
      <trkpt lat="42.97998" lon="-0.74743">
        <ele>1619</ele>
        <time>2010-01-23T16:08:41Z</time>
      </trkpt>
      <trkpt lat="42.98" lon="-0.74744">
        <ele>1618</ele>
        <time>2010-01-23T16:08:43Z</time>
      </trkpt>
      <trkpt lat="42.98007" lon="-0.74736">
        <ele>1618</ele>
        <time>2010-01-23T16:08:50Z</time>
      </trkpt>
      <trkpt lat="42.98013" lon="-0.74725">
        <ele>1617</ele>
        <time>2010-01-23T16:08:57Z</time>
      </trkpt>
      <trkpt lat="42.9802" lon="-0.7471">
        <ele>1616</ele>
        <time>2010-01-23T16:09:06Z</time>
      </trkpt>
      <trkpt lat="42.98022" lon="-0.74707">
        <ele>1616</ele>
        <time>2010-01-23T16:09:08Z</time>
      </trkpt>
    </trkseg>
  </trk>
</gpx>